<?xml version="1.0" encoding="UTF-8" standalone="no" ?>
<gpx xmlns="http://www.topografix.com/GPX/1/1" xmlns:xsi="http://www.w3.org/2001/XMLSchema-instance" xsi:schemaLocation="http://www.topografix.com/GPX/1/1 http://www.topografix.com/GPX/1/1/gpx.xsd" version="1.1" creator="VisuGPX - https://www.visugpx.com">
  <metadata>
    <name>[23/09/2018] Oxybique</name>
    <desc><![CDATA[Rando organisée par VTT Rouen.
Grand parcours sans l'extension de la cavée d'Hénouville (2,5 km)]]></desc>
  </metadata>
  <trk>
    <name><![CDATA[[23/09/2018] Oxybique_1]]></name>
    <trkseg>
      <trkpt lat="49.45113" lon="1.03127">
        <ele>130.999023</ele>
        <time>2018-09-23T06:01:11Z</time>
      </trkpt>
      <trkpt lat="49.45113" lon="1.03127">
        <ele>130</ele>
        <time>2018-09-23T06:01:11Z</time>
      </trkpt>
      <trkpt lat="49.45113" lon="1.03127">
        <ele>130</ele>
        <time>2018-09-23T06:01:11Z</time>
      </trkpt>
      <trkpt lat="49.45121" lon="1.03114">
        <ele>131</ele>
        <time>2018-09-23T06:01:27Z</time>
      </trkpt>
      <trkpt lat="49.45125" lon="1.03085">
        <ele>131</ele>
        <time>2018-09-23T06:01:35Z</time>
      </trkpt>
      <trkpt lat="49.45128" lon="1.03068">
        <ele>131</ele>
        <time>2018-09-23T06:01:39Z</time>
      </trkpt>
      <trkpt lat="49.45134" lon="1.03054">
        <ele>130</ele>
        <time>2018-09-23T06:01:43Z</time>
      </trkpt>
      <trkpt lat="49.45151" lon="1.03052">
        <ele>130</ele>
        <time>2018-09-23T06:01:51Z</time>
      </trkpt>
      <trkpt lat="49.4517" lon="1.03057">
        <ele>131</ele>
        <time>2018-09-23T06:01:59Z</time>
      </trkpt>
      <trkpt lat="49.45177" lon="1.03066">
        <ele>131</ele>
        <time>2018-09-23T06:02:03Z</time>
      </trkpt>
      <trkpt lat="49.45187" lon="1.03079">
        <ele>131</ele>
        <time>2018-09-23T06:02:07Z</time>
      </trkpt>
      <trkpt lat="49.45196" lon="1.03086">
        <ele>131</ele>
        <time>2018-09-23T06:02:11Z</time>
      </trkpt>
      <trkpt lat="49.45207" lon="1.03093">
        <ele>131</ele>
        <time>2018-09-23T06:02:15Z</time>
      </trkpt>
      <trkpt lat="49.45216" lon="1.03075">
        <ele>131</ele>
        <time>2018-09-23T06:02:23Z</time>
      </trkpt>
      <trkpt lat="49.45218" lon="1.0306">
        <ele>131</ele>
        <time>2018-09-23T06:02:27Z</time>
      </trkpt>
      <trkpt lat="49.45236" lon="1.03064">
        <ele>131</ele>
        <time>2018-09-23T06:02:35Z</time>
      </trkpt>
      <trkpt lat="49.45248" lon="1.03082">
        <ele>131</ele>
        <time>2018-09-23T06:02:39Z</time>
      </trkpt>
      <trkpt lat="49.45259" lon="1.03098">
        <ele>132</ele>
        <time>2018-09-23T06:02:43Z</time>
      </trkpt>
      <trkpt lat="49.45271" lon="1.03116">
        <ele>132</ele>
        <time>2018-09-23T06:02:47Z</time>
      </trkpt>
      <trkpt lat="49.45285" lon="1.03127">
        <ele>132</ele>
        <time>2018-09-23T06:02:51Z</time>
      </trkpt>
      <trkpt lat="49.45297" lon="1.03134">
        <ele>132</ele>
        <time>2018-09-23T06:02:55Z</time>
      </trkpt>
      <trkpt lat="49.45311" lon="1.03123">
        <ele>133</ele>
        <time>2018-09-23T06:03:03Z</time>
      </trkpt>
      <trkpt lat="49.45304" lon="1.03108">
        <ele>132</ele>
        <time>2018-09-23T06:03:19Z</time>
      </trkpt>
      <trkpt lat="49.45301" lon="1.03122">
        <ele>132</ele>
        <time>2018-09-23T06:03:36Z</time>
      </trkpt>
      <trkpt lat="49.45298" lon="1.03141">
        <ele>133</ele>
        <time>2018-09-23T06:03:44Z</time>
      </trkpt>
      <trkpt lat="49.45288" lon="1.03155">
        <ele>133</ele>
        <time>2018-09-23T06:03:48Z</time>
      </trkpt>
      <trkpt lat="49.45302" lon="1.03156">
        <ele>133</ele>
        <time>2018-09-23T06:03:56Z</time>
      </trkpt>
      <trkpt lat="49.45313" lon="1.03156">
        <ele>133.4</ele>
        <time>2018-09-23T06:04:03Z</time>
      </trkpt>
      <trkpt lat="49.4532" lon="1.03168">
        <ele>133.5</ele>
        <time>2018-09-23T06:04:12Z</time>
      </trkpt>
      <trkpt lat="49.45329" lon="1.03165">
        <ele>133.6</ele>
        <time>2018-09-23T06:04:17Z</time>
      </trkpt>
      <trkpt lat="49.45339" lon="1.03166">
        <ele>133.7</ele>
        <time>2018-09-23T06:04:20Z</time>
      </trkpt>
      <trkpt lat="49.4535" lon="1.03165">
        <ele>134.2</ele>
        <time>2018-09-23T06:04:23Z</time>
      </trkpt>
      <trkpt lat="49.45362" lon="1.03164">
        <ele>134.4</ele>
        <time>2018-09-23T06:04:26Z</time>
      </trkpt>
      <trkpt lat="49.45371" lon="1.03163">
        <ele>134.4</ele>
        <time>2018-09-23T06:04:28Z</time>
      </trkpt>
      <trkpt lat="49.4538" lon="1.03162">
        <ele>134.4</ele>
        <time>2018-09-23T06:04:30Z</time>
      </trkpt>
      <trkpt lat="49.4539" lon="1.03161">
        <ele>134.5</ele>
        <time>2018-09-23T06:04:32Z</time>
      </trkpt>
      <trkpt lat="49.45402" lon="1.03161">
        <ele>134.6</ele>
        <time>2018-09-23T06:04:35Z</time>
      </trkpt>
      <trkpt lat="49.45414" lon="1.0316">
        <ele>134.6</ele>
        <time>2018-09-23T06:04:38Z</time>
      </trkpt>
      <trkpt lat="49.45427" lon="1.03159">
        <ele>134.9</ele>
        <time>2018-09-23T06:04:41Z</time>
      </trkpt>
      <trkpt lat="49.45439" lon="1.03157">
        <ele>135.1</ele>
        <time>2018-09-23T06:04:44Z</time>
      </trkpt>
      <trkpt lat="49.45451" lon="1.03157">
        <ele>135.1</ele>
        <time>2018-09-23T06:04:47Z</time>
      </trkpt>
      <trkpt lat="49.45464" lon="1.03156">
        <ele>135.2</ele>
        <time>2018-09-23T06:04:50Z</time>
      </trkpt>
      <trkpt lat="49.45477" lon="1.03157">
        <ele>135.4</ele>
        <time>2018-09-23T06:04:53Z</time>
      </trkpt>
      <trkpt lat="49.4549" lon="1.03156">
        <ele>135.7</ele>
        <time>2018-09-23T06:04:56Z</time>
      </trkpt>
      <trkpt lat="49.45502" lon="1.03156">
        <ele>136.1</ele>
        <time>2018-09-23T06:04:59Z</time>
      </trkpt>
      <trkpt lat="49.45513" lon="1.03154">
        <ele>136.2</ele>
        <time>2018-09-23T06:05:02Z</time>
      </trkpt>
      <trkpt lat="49.45523" lon="1.03154">
        <ele>136.1</ele>
        <time>2018-09-23T06:05:04Z</time>
      </trkpt>
      <trkpt lat="49.45532" lon="1.03153">
        <ele>136.3</ele>
        <time>2018-09-23T06:05:06Z</time>
      </trkpt>
      <trkpt lat="49.45546" lon="1.03153">
        <ele>136.3</ele>
        <time>2018-09-23T06:05:09Z</time>
      </trkpt>
      <trkpt lat="49.45558" lon="1.03153">
        <ele>136.4</ele>
        <time>2018-09-23T06:05:12Z</time>
      </trkpt>
      <trkpt lat="49.45567" lon="1.03156">
        <ele>136.7</ele>
        <time>2018-09-23T06:05:17Z</time>
      </trkpt>
      <trkpt lat="49.45577" lon="1.03161">
        <ele>136.9</ele>
        <time>2018-09-23T06:05:21Z</time>
      </trkpt>
      <trkpt lat="49.45586" lon="1.03161">
        <ele>137</ele>
        <time>2018-09-23T06:05:23Z</time>
      </trkpt>
      <trkpt lat="49.45595" lon="1.03159">
        <ele>137.1</ele>
        <time>2018-09-23T06:05:25Z</time>
      </trkpt>
      <trkpt lat="49.45604" lon="1.03159">
        <ele>137.2</ele>
        <time>2018-09-23T06:05:27Z</time>
      </trkpt>
      <trkpt lat="49.45614" lon="1.03159">
        <ele>137.4</ele>
        <time>2018-09-23T06:05:29Z</time>
      </trkpt>
      <trkpt lat="49.45624" lon="1.03159">
        <ele>137.5</ele>
        <time>2018-09-23T06:05:31Z</time>
      </trkpt>
      <trkpt lat="49.45633" lon="1.03158">
        <ele>137.7</ele>
        <time>2018-09-23T06:05:33Z</time>
      </trkpt>
      <trkpt lat="49.45647" lon="1.03157">
        <ele>137.7</ele>
        <time>2018-09-23T06:05:36Z</time>
      </trkpt>
      <trkpt lat="49.45656" lon="1.03156">
        <ele>137.7</ele>
        <time>2018-09-23T06:05:38Z</time>
      </trkpt>
      <trkpt lat="49.45665" lon="1.03155">
        <ele>137.9</ele>
        <time>2018-09-23T06:05:40Z</time>
      </trkpt>
      <trkpt lat="49.45676" lon="1.03153">
        <ele>138</ele>
        <time>2018-09-23T06:05:42Z</time>
      </trkpt>
      <trkpt lat="49.45686" lon="1.03153">
        <ele>138.1</ele>
        <time>2018-09-23T06:05:44Z</time>
      </trkpt>
      <trkpt lat="49.45696" lon="1.03152">
        <ele>138.3</ele>
        <time>2018-09-23T06:05:46Z</time>
      </trkpt>
      <trkpt lat="49.45708" lon="1.0315">
        <ele>138.4</ele>
        <time>2018-09-23T06:05:49Z</time>
      </trkpt>
      <trkpt lat="49.45721" lon="1.03149">
        <ele>138.4</ele>
        <time>2018-09-23T06:05:52Z</time>
      </trkpt>
      <trkpt lat="49.4573" lon="1.03148">
        <ele>138.5</ele>
        <time>2018-09-23T06:05:54Z</time>
      </trkpt>
      <trkpt lat="49.4574" lon="1.03148">
        <ele>138.5</ele>
        <time>2018-09-23T06:05:56Z</time>
      </trkpt>
      <trkpt lat="49.45753" lon="1.03145">
        <ele>138.6</ele>
        <time>2018-09-23T06:05:59Z</time>
      </trkpt>
      <trkpt lat="49.45762" lon="1.03143">
        <ele>138.8</ele>
        <time>2018-09-23T06:06:01Z</time>
      </trkpt>
      <trkpt lat="49.45775" lon="1.03138">
        <ele>138.8</ele>
        <time>2018-09-23T06:06:04Z</time>
      </trkpt>
      <trkpt lat="49.45787" lon="1.03139">
        <ele>138.7</ele>
        <time>2018-09-23T06:06:06Z</time>
      </trkpt>
      <trkpt lat="49.45799" lon="1.03139">
        <ele>138.7</ele>
        <time>2018-09-23T06:06:08Z</time>
      </trkpt>
      <trkpt lat="49.45809" lon="1.03139">
        <ele>138.7</ele>
        <time>2018-09-23T06:06:10Z</time>
      </trkpt>
      <trkpt lat="49.45819" lon="1.03138">
        <ele>138.5</ele>
        <time>2018-09-23T06:06:12Z</time>
      </trkpt>
      <trkpt lat="49.45828" lon="1.03137">
        <ele>138.3</ele>
        <time>2018-09-23T06:06:14Z</time>
      </trkpt>
      <trkpt lat="49.45839" lon="1.03134">
        <ele>138.5</ele>
        <time>2018-09-23T06:06:17Z</time>
      </trkpt>
      <trkpt lat="49.45849" lon="1.03134">
        <ele>137.8</ele>
        <time>2018-09-23T06:06:19Z</time>
      </trkpt>
      <trkpt lat="49.45861" lon="1.03129">
        <ele>138.2</ele>
        <time>2018-09-23T06:06:22Z</time>
      </trkpt>
      <trkpt lat="49.45874" lon="1.03126">
        <ele>138.3</ele>
        <time>2018-09-23T06:06:25Z</time>
      </trkpt>
      <trkpt lat="49.45885" lon="1.03127">
        <ele>138.3</ele>
        <time>2018-09-23T06:06:27Z</time>
      </trkpt>
      <trkpt lat="49.45897" lon="1.03127">
        <ele>138.2</ele>
        <time>2018-09-23T06:06:29Z</time>
      </trkpt>
      <trkpt lat="49.45909" lon="1.03128">
        <ele>138.1</ele>
        <time>2018-09-23T06:06:31Z</time>
      </trkpt>
      <trkpt lat="49.45919" lon="1.03128">
        <ele>138</ele>
        <time>2018-09-23T06:06:33Z</time>
      </trkpt>
      <trkpt lat="49.45928" lon="1.03126">
        <ele>137.9</ele>
        <time>2018-09-23T06:06:35Z</time>
      </trkpt>
      <trkpt lat="49.45939" lon="1.03126">
        <ele>137.9</ele>
        <time>2018-09-23T06:06:37Z</time>
      </trkpt>
      <trkpt lat="49.4595" lon="1.03127">
        <ele>137.7</ele>
        <time>2018-09-23T06:06:39Z</time>
      </trkpt>
      <trkpt lat="49.45961" lon="1.03126">
        <ele>137.7</ele>
        <time>2018-09-23T06:06:41Z</time>
      </trkpt>
      <trkpt lat="49.45972" lon="1.03126">
        <ele>137.6</ele>
        <time>2018-09-23T06:06:43Z</time>
      </trkpt>
      <trkpt lat="49.45983" lon="1.03125">
        <ele>137.6</ele>
        <time>2018-09-23T06:06:45Z</time>
      </trkpt>
      <trkpt lat="49.45994" lon="1.03124">
        <ele>137.6</ele>
        <time>2018-09-23T06:06:47Z</time>
      </trkpt>
      <trkpt lat="49.46004" lon="1.03124">
        <ele>137.6</ele>
        <time>2018-09-23T06:06:49Z</time>
      </trkpt>
      <trkpt lat="49.46013" lon="1.03124">
        <ele>137.7</ele>
        <time>2018-09-23T06:06:51Z</time>
      </trkpt>
      <trkpt lat="49.46023" lon="1.03123">
        <ele>137.7</ele>
        <time>2018-09-23T06:06:53Z</time>
      </trkpt>
      <trkpt lat="49.46033" lon="1.03122">
        <ele>137.6</ele>
        <time>2018-09-23T06:06:55Z</time>
      </trkpt>
      <trkpt lat="49.46044" lon="1.03121">
        <ele>137.6</ele>
        <time>2018-09-23T06:06:57Z</time>
      </trkpt>
      <trkpt lat="49.46053" lon="1.0312">
        <ele>137.7</ele>
        <time>2018-09-23T06:06:59Z</time>
      </trkpt>
      <trkpt lat="49.46062" lon="1.03112">
        <ele>137.4</ele>
        <time>2018-09-23T06:07:04Z</time>
      </trkpt>
      <trkpt lat="49.46064" lon="1.03099">
        <ele>137.2</ele>
        <time>2018-09-23T06:07:07Z</time>
      </trkpt>
      <trkpt lat="49.46069" lon="1.03081">
        <ele>137.2</ele>
        <time>2018-09-23T06:07:11Z</time>
      </trkpt>
      <trkpt lat="49.46069" lon="1.03063">
        <ele>137.3</ele>
        <time>2018-09-23T06:07:14Z</time>
      </trkpt>
      <trkpt lat="49.46071" lon="1.03047">
        <ele>137.5</ele>
        <time>2018-09-23T06:07:18Z</time>
      </trkpt>
      <trkpt lat="49.46074" lon="1.0303">
        <ele>137.5</ele>
        <time>2018-09-23T06:07:21Z</time>
      </trkpt>
      <trkpt lat="49.46076" lon="1.03011">
        <ele>137.5</ele>
        <time>2018-09-23T06:07:24Z</time>
      </trkpt>
      <trkpt lat="49.46078" lon="1.02993">
        <ele>137.6</ele>
        <time>2018-09-23T06:07:27Z</time>
      </trkpt>
      <trkpt lat="49.46076" lon="1.02974">
        <ele>137.7</ele>
        <time>2018-09-23T06:07:30Z</time>
      </trkpt>
      <trkpt lat="49.46076" lon="1.02956">
        <ele>137.6</ele>
        <time>2018-09-23T06:07:33Z</time>
      </trkpt>
      <trkpt lat="49.46078" lon="1.02939">
        <ele>137.5</ele>
        <time>2018-09-23T06:07:35Z</time>
      </trkpt>
      <trkpt lat="49.46079" lon="1.02924">
        <ele>137.4</ele>
        <time>2018-09-23T06:07:37Z</time>
      </trkpt>
      <trkpt lat="49.46079" lon="1.02909">
        <ele>137.3</ele>
        <time>2018-09-23T06:07:39Z</time>
      </trkpt>
      <trkpt lat="49.4608" lon="1.02895">
        <ele>137.1</ele>
        <time>2018-09-23T06:07:41Z</time>
      </trkpt>
      <trkpt lat="49.46081" lon="1.02881">
        <ele>137.1</ele>
        <time>2018-09-23T06:07:43Z</time>
      </trkpt>
      <trkpt lat="49.46084" lon="1.02864">
        <ele>137.2</ele>
        <time>2018-09-23T06:07:46Z</time>
      </trkpt>
      <trkpt lat="49.46082" lon="1.02847">
        <ele>136.9</ele>
        <time>2018-09-23T06:07:48Z</time>
      </trkpt>
      <trkpt lat="49.46083" lon="1.02832">
        <ele>136.5</ele>
        <time>2018-09-23T06:07:50Z</time>
      </trkpt>
      <trkpt lat="49.46083" lon="1.02817">
        <ele>136.2</ele>
        <time>2018-09-23T06:07:52Z</time>
      </trkpt>
      <trkpt lat="49.46084" lon="1.02803">
        <ele>136</ele>
        <time>2018-09-23T06:07:54Z</time>
      </trkpt>
      <trkpt lat="49.46084" lon="1.02788">
        <ele>135.9</ele>
        <time>2018-09-23T06:07:56Z</time>
      </trkpt>
      <trkpt lat="49.4608" lon="1.02766">
        <ele>135.5</ele>
        <time>2018-09-23T06:07:59Z</time>
      </trkpt>
      <trkpt lat="49.46075" lon="1.02751">
        <ele>135.1</ele>
        <time>2018-09-23T06:08:02Z</time>
      </trkpt>
      <trkpt lat="49.46071" lon="1.02736">
        <ele>134.9</ele>
        <time>2018-09-23T06:08:05Z</time>
      </trkpt>
      <trkpt lat="49.46069" lon="1.02721">
        <ele>134.8</ele>
        <time>2018-09-23T06:08:09Z</time>
      </trkpt>
      <trkpt lat="49.46071" lon="1.02705">
        <ele>134</ele>
        <time>2018-09-23T06:08:12Z</time>
      </trkpt>
      <trkpt lat="49.46073" lon="1.02683">
        <ele>134.5</ele>
        <time>2018-09-23T06:08:15Z</time>
      </trkpt>
      <trkpt lat="49.46068" lon="1.0267">
        <ele>134.5</ele>
        <time>2018-09-23T06:08:19Z</time>
      </trkpt>
      <trkpt lat="49.46068" lon="1.02655">
        <ele>134.4</ele>
        <time>2018-09-23T06:08:22Z</time>
      </trkpt>
      <trkpt lat="49.46068" lon="1.02639">
        <ele>134.6</ele>
        <time>2018-09-23T06:08:25Z</time>
      </trkpt>
      <trkpt lat="49.46066" lon="1.02625">
        <ele>134.8</ele>
        <time>2018-09-23T06:08:27Z</time>
      </trkpt>
      <trkpt lat="49.4607" lon="1.02606">
        <ele>135.1</ele>
        <time>2018-09-23T06:08:30Z</time>
      </trkpt>
      <trkpt lat="49.4607" lon="1.0259">
        <ele>135.1</ele>
        <time>2018-09-23T06:08:32Z</time>
      </trkpt>
      <trkpt lat="49.46071" lon="1.02575">
        <ele>135.1</ele>
        <time>2018-09-23T06:08:34Z</time>
      </trkpt>
      <trkpt lat="49.46073" lon="1.02559">
        <ele>135.2</ele>
        <time>2018-09-23T06:08:36Z</time>
      </trkpt>
      <trkpt lat="49.46071" lon="1.02543">
        <ele>135.3</ele>
        <time>2018-09-23T06:08:38Z</time>
      </trkpt>
      <trkpt lat="49.46069" lon="1.02526">
        <ele>135.4</ele>
        <time>2018-09-23T06:08:40Z</time>
      </trkpt>
      <trkpt lat="49.46067" lon="1.02505">
        <ele>135.3</ele>
        <time>2018-09-23T06:08:43Z</time>
      </trkpt>
      <trkpt lat="49.46068" lon="1.0249">
        <ele>135.1</ele>
        <time>2018-09-23T06:08:45Z</time>
      </trkpt>
      <trkpt lat="49.46065" lon="1.02475">
        <ele>135.2</ele>
        <time>2018-09-23T06:08:47Z</time>
      </trkpt>
      <trkpt lat="49.46064" lon="1.02461">
        <ele>135</ele>
        <time>2018-09-23T06:08:49Z</time>
      </trkpt>
      <trkpt lat="49.46061" lon="1.02445">
        <ele>135</ele>
        <time>2018-09-23T06:08:51Z</time>
      </trkpt>
      <trkpt lat="49.46062" lon="1.02425">
        <ele>135</ele>
        <time>2018-09-23T06:08:54Z</time>
      </trkpt>
      <trkpt lat="49.46062" lon="1.0241">
        <ele>134.9</ele>
        <time>2018-09-23T06:08:56Z</time>
      </trkpt>
      <trkpt lat="49.46062" lon="1.02394">
        <ele>135</ele>
        <time>2018-09-23T06:08:58Z</time>
      </trkpt>
      <trkpt lat="49.46064" lon="1.02381">
        <ele>135</ele>
        <time>2018-09-23T06:09:00Z</time>
      </trkpt>
      <trkpt lat="49.46064" lon="1.02362">
        <ele>134.8</ele>
        <time>2018-09-23T06:09:03Z</time>
      </trkpt>
      <trkpt lat="49.46065" lon="1.02348">
        <ele>134.6</ele>
        <time>2018-09-23T06:09:05Z</time>
      </trkpt>
      <trkpt lat="49.46063" lon="1.02331">
        <ele>134.5</ele>
        <time>2018-09-23T06:09:07Z</time>
      </trkpt>
      <trkpt lat="49.46063" lon="1.02312">
        <ele>134.4</ele>
        <time>2018-09-23T06:09:09Z</time>
      </trkpt>
      <trkpt lat="49.46062" lon="1.02294">
        <ele>134</ele>
        <time>2018-09-23T06:09:12Z</time>
      </trkpt>
      <trkpt lat="49.46061" lon="1.02276">
        <ele>133.7</ele>
        <time>2018-09-23T06:09:15Z</time>
      </trkpt>
      <trkpt lat="49.46059" lon="1.0226">
        <ele>133.5</ele>
        <time>2018-09-23T06:09:17Z</time>
      </trkpt>
      <trkpt lat="49.4606" lon="1.02244">
        <ele>133.4</ele>
        <time>2018-09-23T06:09:19Z</time>
      </trkpt>
      <trkpt lat="49.46059" lon="1.0223">
        <ele>133.2</ele>
        <time>2018-09-23T06:09:21Z</time>
      </trkpt>
      <trkpt lat="49.46058" lon="1.02214">
        <ele>132.9</ele>
        <time>2018-09-23T06:09:24Z</time>
      </trkpt>
      <trkpt lat="49.46057" lon="1.02197">
        <ele>132.6</ele>
        <time>2018-09-23T06:09:27Z</time>
      </trkpt>
      <trkpt lat="49.46053" lon="1.02184">
        <ele>132.2</ele>
        <time>2018-09-23T06:09:30Z</time>
      </trkpt>
      <trkpt lat="49.46042" lon="1.02182">
        <ele>131.9</ele>
        <time>2018-09-23T06:09:34Z</time>
      </trkpt>
      <trkpt lat="49.46033" lon="1.02187">
        <ele>132</ele>
        <time>2018-09-23T06:09:37Z</time>
      </trkpt>
      <trkpt lat="49.46022" lon="1.02194">
        <ele>132.2</ele>
        <time>2018-09-23T06:09:40Z</time>
      </trkpt>
      <trkpt lat="49.46012" lon="1.02206">
        <ele>132.8</ele>
        <time>2018-09-23T06:09:43Z</time>
      </trkpt>
      <trkpt lat="49.46001" lon="1.02216">
        <ele>133.2</ele>
        <time>2018-09-23T06:09:46Z</time>
      </trkpt>
      <trkpt lat="49.4599" lon="1.02227">
        <ele>133.5</ele>
        <time>2018-09-23T06:09:49Z</time>
      </trkpt>
      <trkpt lat="49.45983" lon="1.02236">
        <ele>133.8</ele>
        <time>2018-09-23T06:09:51Z</time>
      </trkpt>
      <trkpt lat="49.45976" lon="1.02245">
        <ele>134.1</ele>
        <time>2018-09-23T06:09:53Z</time>
      </trkpt>
      <trkpt lat="49.45966" lon="1.02257">
        <ele>134.3</ele>
        <time>2018-09-23T06:09:56Z</time>
      </trkpt>
      <trkpt lat="49.45955" lon="1.02269">
        <ele>134.4</ele>
        <time>2018-09-23T06:09:59Z</time>
      </trkpt>
      <trkpt lat="49.45948" lon="1.02277">
        <ele>134.5</ele>
        <time>2018-09-23T06:10:01Z</time>
      </trkpt>
      <trkpt lat="49.4594" lon="1.02286">
        <ele>134.6</ele>
        <time>2018-09-23T06:10:03Z</time>
      </trkpt>
      <trkpt lat="49.45931" lon="1.0229">
        <ele>134.7</ele>
        <time>2018-09-23T06:10:07Z</time>
      </trkpt>
      <trkpt lat="49.45931" lon="1.02275">
        <ele>134.8</ele>
        <time>2018-09-23T06:10:12Z</time>
      </trkpt>
      <trkpt lat="49.4593" lon="1.02259">
        <ele>134.7</ele>
        <time>2018-09-23T06:10:15Z</time>
      </trkpt>
      <trkpt lat="49.45932" lon="1.02244">
        <ele>134.6</ele>
        <time>2018-09-23T06:10:18Z</time>
      </trkpt>
      <trkpt lat="49.45934" lon="1.02229">
        <ele>134.5</ele>
        <time>2018-09-23T06:10:21Z</time>
      </trkpt>
      <trkpt lat="49.45937" lon="1.02213">
        <ele>134.5</ele>
        <time>2018-09-23T06:10:24Z</time>
      </trkpt>
      <trkpt lat="49.45937" lon="1.02195">
        <ele>134.4</ele>
        <time>2018-09-23T06:10:27Z</time>
      </trkpt>
      <trkpt lat="49.45934" lon="1.02177">
        <ele>134.1</ele>
        <time>2018-09-23T06:10:30Z</time>
      </trkpt>
      <trkpt lat="49.45934" lon="1.02159">
        <ele>134</ele>
        <time>2018-09-23T06:10:33Z</time>
      </trkpt>
      <trkpt lat="49.45932" lon="1.02145">
        <ele>133.9</ele>
        <time>2018-09-23T06:10:35Z</time>
      </trkpt>
      <trkpt lat="49.45933" lon="1.02131">
        <ele>133.7</ele>
        <time>2018-09-23T06:10:38Z</time>
      </trkpt>
      <trkpt lat="49.45933" lon="1.02116">
        <ele>133.4</ele>
        <time>2018-09-23T06:10:41Z</time>
      </trkpt>
      <trkpt lat="49.4593" lon="1.02097">
        <ele>133.3</ele>
        <time>2018-09-23T06:10:44Z</time>
      </trkpt>
      <trkpt lat="49.45929" lon="1.02076">
        <ele>133.3</ele>
        <time>2018-09-23T06:10:47Z</time>
      </trkpt>
      <trkpt lat="49.45928" lon="1.02061">
        <ele>133.2</ele>
        <time>2018-09-23T06:10:49Z</time>
      </trkpt>
      <trkpt lat="49.45928" lon="1.02041">
        <ele>133.1</ele>
        <time>2018-09-23T06:10:52Z</time>
      </trkpt>
      <trkpt lat="49.45928" lon="1.02026">
        <ele>132.9</ele>
        <time>2018-09-23T06:10:55Z</time>
      </trkpt>
      <trkpt lat="49.45929" lon="1.0201">
        <ele>132.5</ele>
        <time>2018-09-23T06:10:59Z</time>
      </trkpt>
      <trkpt lat="49.45923" lon="1.01998">
        <ele>132</ele>
        <time>2018-09-23T06:11:03Z</time>
      </trkpt>
      <trkpt lat="49.45912" lon="1.01992">
        <ele>131.4</ele>
        <time>2018-09-23T06:11:07Z</time>
      </trkpt>
      <trkpt lat="49.45901" lon="1.01989">
        <ele>131.1</ele>
        <time>2018-09-23T06:11:10Z</time>
      </trkpt>
      <trkpt lat="49.45889" lon="1.01988">
        <ele>131.2</ele>
        <time>2018-09-23T06:11:13Z</time>
      </trkpt>
      <trkpt lat="49.45876" lon="1.01989">
        <ele>131.2</ele>
        <time>2018-09-23T06:11:16Z</time>
      </trkpt>
      <trkpt lat="49.45864" lon="1.01991">
        <ele>131.6</ele>
        <time>2018-09-23T06:11:19Z</time>
      </trkpt>
      <trkpt lat="49.45855" lon="1.0199">
        <ele>131.6</ele>
        <time>2018-09-23T06:11:21Z</time>
      </trkpt>
      <trkpt lat="49.45844" lon="1.01987">
        <ele>131.7</ele>
        <time>2018-09-23T06:11:26Z</time>
      </trkpt>
      <trkpt lat="49.45833" lon="1.01987">
        <ele>131.8</ele>
        <time>2018-09-23T06:11:30Z</time>
      </trkpt>
      <trkpt lat="49.45824" lon="1.01985">
        <ele>132</ele>
        <time>2018-09-23T06:11:33Z</time>
      </trkpt>
      <trkpt lat="49.45816" lon="1.01976">
        <ele>132.2</ele>
        <time>2018-09-23T06:11:38Z</time>
      </trkpt>
      <trkpt lat="49.45819" lon="1.0196">
        <ele>132.1</ele>
        <time>2018-09-23T06:11:41Z</time>
      </trkpt>
      <trkpt lat="49.45824" lon="1.01947">
        <ele>132.1</ele>
        <time>2018-09-23T06:11:43Z</time>
      </trkpt>
      <trkpt lat="49.45829" lon="1.01933">
        <ele>131.8</ele>
        <time>2018-09-23T06:11:45Z</time>
      </trkpt>
      <trkpt lat="49.45831" lon="1.01917">
        <ele>131.9</ele>
        <time>2018-09-23T06:11:47Z</time>
      </trkpt>
      <trkpt lat="49.45834" lon="1.01901">
        <ele>131.8</ele>
        <time>2018-09-23T06:11:49Z</time>
      </trkpt>
      <trkpt lat="49.45838" lon="1.01885">
        <ele>131.6</ele>
        <time>2018-09-23T06:11:51Z</time>
      </trkpt>
      <trkpt lat="49.4584" lon="1.01868">
        <ele>131.4</ele>
        <time>2018-09-23T06:11:53Z</time>
      </trkpt>
      <trkpt lat="49.45841" lon="1.0185">
        <ele>131.2</ele>
        <time>2018-09-23T06:11:55Z</time>
      </trkpt>
      <trkpt lat="49.45845" lon="1.01834">
        <ele>130.8</ele>
        <time>2018-09-23T06:11:57Z</time>
      </trkpt>
      <trkpt lat="49.45847" lon="1.01818">
        <ele>130.5</ele>
        <time>2018-09-23T06:11:59Z</time>
      </trkpt>
      <trkpt lat="49.45849" lon="1.01799">
        <ele>130</ele>
        <time>2018-09-23T06:12:02Z</time>
      </trkpt>
      <trkpt lat="49.45853" lon="1.01782">
        <ele>129.7</ele>
        <time>2018-09-23T06:12:05Z</time>
      </trkpt>
      <trkpt lat="49.45858" lon="1.01768">
        <ele>129.5</ele>
        <time>2018-09-23T06:12:07Z</time>
      </trkpt>
      <trkpt lat="49.45864" lon="1.01749">
        <ele>129.2</ele>
        <time>2018-09-23T06:12:10Z</time>
      </trkpt>
      <trkpt lat="49.45869" lon="1.01734">
        <ele>129.1</ele>
        <time>2018-09-23T06:12:12Z</time>
      </trkpt>
      <trkpt lat="49.45873" lon="1.01714">
        <ele>128.8</ele>
        <time>2018-09-23T06:12:15Z</time>
      </trkpt>
      <trkpt lat="49.45879" lon="1.01695">
        <ele>128.5</ele>
        <time>2018-09-23T06:12:18Z</time>
      </trkpt>
      <trkpt lat="49.45884" lon="1.01682">
        <ele>128.3</ele>
        <time>2018-09-23T06:12:20Z</time>
      </trkpt>
      <trkpt lat="49.45889" lon="1.01666">
        <ele>128.2</ele>
        <time>2018-09-23T06:12:22Z</time>
      </trkpt>
      <trkpt lat="49.45895" lon="1.01654">
        <ele>128.2</ele>
        <time>2018-09-23T06:12:24Z</time>
      </trkpt>
      <trkpt lat="49.45898" lon="1.01639">
        <ele>128</ele>
        <time>2018-09-23T06:12:26Z</time>
      </trkpt>
      <trkpt lat="49.45903" lon="1.01625">
        <ele>127.8</ele>
        <time>2018-09-23T06:12:28Z</time>
      </trkpt>
      <trkpt lat="49.45904" lon="1.0161">
        <ele>127.5</ele>
        <time>2018-09-23T06:12:30Z</time>
      </trkpt>
      <trkpt lat="49.45905" lon="1.01589">
        <ele>127.3</ele>
        <time>2018-09-23T06:12:32Z</time>
      </trkpt>
      <trkpt lat="49.45908" lon="1.01572">
        <ele>126.9</ele>
        <time>2018-09-23T06:12:34Z</time>
      </trkpt>
      <trkpt lat="49.45911" lon="1.01554">
        <ele>126.6</ele>
        <time>2018-09-23T06:12:36Z</time>
      </trkpt>
      <trkpt lat="49.45911" lon="1.01539">
        <ele>126.2</ele>
        <time>2018-09-23T06:12:38Z</time>
      </trkpt>
      <trkpt lat="49.45905" lon="1.01525">
        <ele>125.7</ele>
        <time>2018-09-23T06:12:41Z</time>
      </trkpt>
      <trkpt lat="49.45897" lon="1.0151">
        <ele>125.3</ele>
        <time>2018-09-23T06:12:44Z</time>
      </trkpt>
      <trkpt lat="49.45891" lon="1.01498">
        <ele>125</ele>
        <time>2018-09-23T06:12:47Z</time>
      </trkpt>
      <trkpt lat="49.45884" lon="1.01486">
        <ele>124.7</ele>
        <time>2018-09-23T06:12:49Z</time>
      </trkpt>
      <trkpt lat="49.45877" lon="1.01474">
        <ele>124.6</ele>
        <time>2018-09-23T06:12:51Z</time>
      </trkpt>
      <trkpt lat="49.45869" lon="1.01462">
        <ele>124.5</ele>
        <time>2018-09-23T06:12:54Z</time>
      </trkpt>
      <trkpt lat="49.4586" lon="1.01454">
        <ele>124.5</ele>
        <time>2018-09-23T06:12:56Z</time>
      </trkpt>
      <trkpt lat="49.45853" lon="1.0144">
        <ele>124.4</ele>
        <time>2018-09-23T06:12:58Z</time>
      </trkpt>
      <trkpt lat="49.45843" lon="1.01425">
        <ele>124.1</ele>
        <time>2018-09-23T06:13:00Z</time>
      </trkpt>
      <trkpt lat="49.45837" lon="1.0141">
        <ele>124.1</ele>
        <time>2018-09-23T06:13:02Z</time>
      </trkpt>
      <trkpt lat="49.45831" lon="1.01399">
        <ele>124.1</ele>
        <time>2018-09-23T06:13:04Z</time>
      </trkpt>
      <trkpt lat="49.45822" lon="1.01387">
        <ele>124</ele>
        <time>2018-09-23T06:13:06Z</time>
      </trkpt>
      <trkpt lat="49.45814" lon="1.01376">
        <ele>124</ele>
        <time>2018-09-23T06:13:08Z</time>
      </trkpt>
      <trkpt lat="49.45809" lon="1.01365">
        <ele>123.9</ele>
        <time>2018-09-23T06:13:10Z</time>
      </trkpt>
      <trkpt lat="49.45801" lon="1.01352">
        <ele>123.3</ele>
        <time>2018-09-23T06:13:13Z</time>
      </trkpt>
      <trkpt lat="49.45793" lon="1.01341">
        <ele>123.2</ele>
        <time>2018-09-23T06:13:15Z</time>
      </trkpt>
      <trkpt lat="49.45784" lon="1.0133">
        <ele>122.7</ele>
        <time>2018-09-23T06:13:18Z</time>
      </trkpt>
      <trkpt lat="49.45782" lon="1.01315">
        <ele>122.4</ele>
        <time>2018-09-23T06:13:20Z</time>
      </trkpt>
      <trkpt lat="49.4578" lon="1.01299">
        <ele>122.2</ele>
        <time>2018-09-23T06:13:22Z</time>
      </trkpt>
      <trkpt lat="49.45782" lon="1.01282">
        <ele>122</ele>
        <time>2018-09-23T06:13:24Z</time>
      </trkpt>
      <trkpt lat="49.45785" lon="1.01265">
        <ele>121.7</ele>
        <time>2018-09-23T06:13:26Z</time>
      </trkpt>
      <trkpt lat="49.45788" lon="1.01243">
        <ele>121.6</ele>
        <time>2018-09-23T06:13:28Z</time>
      </trkpt>
      <trkpt lat="49.45793" lon="1.01223">
        <ele>121.4</ele>
        <time>2018-09-23T06:13:30Z</time>
      </trkpt>
      <trkpt lat="49.45796" lon="1.01204">
        <ele>121</ele>
        <time>2018-09-23T06:13:32Z</time>
      </trkpt>
      <trkpt lat="49.45799" lon="1.01182">
        <ele>120.4</ele>
        <time>2018-09-23T06:13:34Z</time>
      </trkpt>
      <trkpt lat="49.45801" lon="1.01167">
        <ele>120.1</ele>
        <time>2018-09-23T06:13:35Z</time>
      </trkpt>
      <trkpt lat="49.45804" lon="1.01153">
        <ele>119.8</ele>
        <time>2018-09-23T06:13:36Z</time>
      </trkpt>
      <trkpt lat="49.45807" lon="1.01138">
        <ele>119.4</ele>
        <time>2018-09-23T06:13:37Z</time>
      </trkpt>
      <trkpt lat="49.4581" lon="1.01125">
        <ele>119</ele>
        <time>2018-09-23T06:13:38Z</time>
      </trkpt>
      <trkpt lat="49.45812" lon="1.0111">
        <ele>118.6</ele>
        <time>2018-09-23T06:13:39Z</time>
      </trkpt>
      <trkpt lat="49.45815" lon="1.01097">
        <ele>118.2</ele>
        <time>2018-09-23T06:13:40Z</time>
      </trkpt>
      <trkpt lat="49.45818" lon="1.0108">
        <ele>117.6</ele>
        <time>2018-09-23T06:13:41Z</time>
      </trkpt>
      <trkpt lat="49.45821" lon="1.01049">
        <ele>116.7</ele>
        <time>2018-09-23T06:13:43Z</time>
      </trkpt>
      <trkpt lat="49.45828" lon="1.01027">
        <ele>115.7</ele>
        <time>2018-09-23T06:13:45Z</time>
      </trkpt>
      <trkpt lat="49.45834" lon="1.01014">
        <ele>114.5</ele>
        <time>2018-09-23T06:13:47Z</time>
      </trkpt>
      <trkpt lat="49.45836" lon="1.00996">
        <ele>112.5</ele>
        <time>2018-09-23T06:13:50Z</time>
      </trkpt>
      <trkpt lat="49.45835" lon="1.00981">
        <ele>111.2</ele>
        <time>2018-09-23T06:13:53Z</time>
      </trkpt>
      <trkpt lat="49.45843" lon="1.00968">
        <ele>110.1</ele>
        <time>2018-09-23T06:13:57Z</time>
      </trkpt>
      <trkpt lat="49.45854" lon="1.0096">
        <ele>109.5</ele>
        <time>2018-09-23T06:14:01Z</time>
      </trkpt>
      <trkpt lat="49.45864" lon="1.00953">
        <ele>109.4</ele>
        <time>2018-09-23T06:14:04Z</time>
      </trkpt>
      <trkpt lat="49.45874" lon="1.00945">
        <ele>109.7</ele>
        <time>2018-09-23T06:14:07Z</time>
      </trkpt>
      <trkpt lat="49.45884" lon="1.00944">
        <ele>110.3</ele>
        <time>2018-09-23T06:14:11Z</time>
      </trkpt>
      <trkpt lat="49.45893" lon="1.00939">
        <ele>110.8</ele>
        <time>2018-09-23T06:14:15Z</time>
      </trkpt>
      <trkpt lat="49.45903" lon="1.00935">
        <ele>111.4</ele>
        <time>2018-09-23T06:14:18Z</time>
      </trkpt>
      <trkpt lat="49.45911" lon="1.00929">
        <ele>112.1</ele>
        <time>2018-09-23T06:14:20Z</time>
      </trkpt>
      <trkpt lat="49.45923" lon="1.00925">
        <ele>112.4</ele>
        <time>2018-09-23T06:14:23Z</time>
      </trkpt>
      <trkpt lat="49.45935" lon="1.00923">
        <ele>112.9</ele>
        <time>2018-09-23T06:14:26Z</time>
      </trkpt>
      <trkpt lat="49.45944" lon="1.00927">
        <ele>113.6</ele>
        <time>2018-09-23T06:14:29Z</time>
      </trkpt>
      <trkpt lat="49.45954" lon="1.00935">
        <ele>114.2</ele>
        <time>2018-09-23T06:14:33Z</time>
      </trkpt>
      <trkpt lat="49.45963" lon="1.00946">
        <ele>114.9</ele>
        <time>2018-09-23T06:14:36Z</time>
      </trkpt>
      <trkpt lat="49.45972" lon="1.00957">
        <ele>115.4</ele>
        <time>2018-09-23T06:14:39Z</time>
      </trkpt>
      <trkpt lat="49.45978" lon="1.00969">
        <ele>115.7</ele>
        <time>2018-09-23T06:14:42Z</time>
      </trkpt>
      <trkpt lat="49.45984" lon="1.00982">
        <ele>116</ele>
        <time>2018-09-23T06:14:45Z</time>
      </trkpt>
      <trkpt lat="49.45989" lon="1.00996">
        <ele>116.2</ele>
        <time>2018-09-23T06:14:48Z</time>
      </trkpt>
      <trkpt lat="49.45993" lon="1.01009">
        <ele>116.5</ele>
        <time>2018-09-23T06:14:51Z</time>
      </trkpt>
      <trkpt lat="49.46001" lon="1.01024">
        <ele>116.9</ele>
        <time>2018-09-23T06:14:54Z</time>
      </trkpt>
      <trkpt lat="49.46004" lon="1.01037">
        <ele>117</ele>
        <time>2018-09-23T06:14:59Z</time>
      </trkpt>
      <trkpt lat="49.46007" lon="1.01054">
        <ele>117.2</ele>
        <time>2018-09-23T06:15:04Z</time>
      </trkpt>
      <trkpt lat="49.46016" lon="1.01067">
        <ele>117.3</ele>
        <time>2018-09-23T06:15:08Z</time>
      </trkpt>
      <trkpt lat="49.46026" lon="1.01074">
        <ele>117.4</ele>
        <time>2018-09-23T06:15:12Z</time>
      </trkpt>
      <trkpt lat="49.46034" lon="1.01082">
        <ele>117.5</ele>
        <time>2018-09-23T06:15:15Z</time>
      </trkpt>
      <trkpt lat="49.46043" lon="1.0108">
        <ele>117.5</ele>
        <time>2018-09-23T06:15:18Z</time>
      </trkpt>
      <trkpt lat="49.46053" lon="1.01075">
        <ele>117.8</ele>
        <time>2018-09-23T06:15:21Z</time>
      </trkpt>
      <trkpt lat="49.46063" lon="1.01069">
        <ele>117.7</ele>
        <time>2018-09-23T06:15:25Z</time>
      </trkpt>
      <trkpt lat="49.46073" lon="1.01064">
        <ele>117.4</ele>
        <time>2018-09-23T06:15:28Z</time>
      </trkpt>
      <trkpt lat="49.46083" lon="1.01061">
        <ele>117.6</ele>
        <time>2018-09-23T06:15:31Z</time>
      </trkpt>
      <trkpt lat="49.46094" lon="1.01055">
        <ele>117.9</ele>
        <time>2018-09-23T06:15:34Z</time>
      </trkpt>
      <trkpt lat="49.46105" lon="1.01044">
        <ele>117.9</ele>
        <time>2018-09-23T06:15:37Z</time>
      </trkpt>
      <trkpt lat="49.46116" lon="1.01036">
        <ele>117.9</ele>
        <time>2018-09-23T06:15:40Z</time>
      </trkpt>
      <trkpt lat="49.46127" lon="1.01028">
        <ele>117.8</ele>
        <time>2018-09-23T06:15:43Z</time>
      </trkpt>
      <trkpt lat="49.46139" lon="1.0102">
        <ele>117.8</ele>
        <time>2018-09-23T06:15:46Z</time>
      </trkpt>
      <trkpt lat="49.46151" lon="1.01014">
        <ele>117.7</ele>
        <time>2018-09-23T06:15:49Z</time>
      </trkpt>
      <trkpt lat="49.4616" lon="1.01009">
        <ele>117.7</ele>
        <time>2018-09-23T06:15:52Z</time>
      </trkpt>
      <trkpt lat="49.46171" lon="1.01001">
        <ele>117.7</ele>
        <time>2018-09-23T06:15:55Z</time>
      </trkpt>
      <trkpt lat="49.46182" lon="1.00992">
        <ele>118</ele>
        <time>2018-09-23T06:15:58Z</time>
      </trkpt>
      <trkpt lat="49.46193" lon="1.00985">
        <ele>118.1</ele>
        <time>2018-09-23T06:16:01Z</time>
      </trkpt>
      <trkpt lat="49.46201" lon="1.00979">
        <ele>118.2</ele>
        <time>2018-09-23T06:16:04Z</time>
      </trkpt>
      <trkpt lat="49.4621" lon="1.00976">
        <ele>118.2</ele>
        <time>2018-09-23T06:16:06Z</time>
      </trkpt>
      <trkpt lat="49.4622" lon="1.00972">
        <ele>118.3</ele>
        <time>2018-09-23T06:16:09Z</time>
      </trkpt>
      <trkpt lat="49.46228" lon="1.00961">
        <ele>118.4</ele>
        <time>2018-09-23T06:16:13Z</time>
      </trkpt>
      <trkpt lat="49.46239" lon="1.0096">
        <ele>118.4</ele>
        <time>2018-09-23T06:16:16Z</time>
      </trkpt>
      <trkpt lat="49.46248" lon="1.00966">
        <ele>118.4</ele>
        <time>2018-09-23T06:16:18Z</time>
      </trkpt>
      <trkpt lat="49.46258" lon="1.00977">
        <ele>118.7</ele>
        <time>2018-09-23T06:16:21Z</time>
      </trkpt>
      <trkpt lat="49.46269" lon="1.00987">
        <ele>118.6</ele>
        <time>2018-09-23T06:16:24Z</time>
      </trkpt>
      <trkpt lat="49.46278" lon="1.00993">
        <ele>118.8</ele>
        <time>2018-09-23T06:16:27Z</time>
      </trkpt>
      <trkpt lat="49.4629" lon="1.01003">
        <ele>118.8</ele>
        <time>2018-09-23T06:16:30Z</time>
      </trkpt>
      <trkpt lat="49.46298" lon="1.01011">
        <ele>119</ele>
        <time>2018-09-23T06:16:33Z</time>
      </trkpt>
      <trkpt lat="49.46307" lon="1.0102">
        <ele>119.2</ele>
        <time>2018-09-23T06:16:36Z</time>
      </trkpt>
      <trkpt lat="49.46316" lon="1.01029">
        <ele>119.3</ele>
        <time>2018-09-23T06:16:39Z</time>
      </trkpt>
      <trkpt lat="49.46324" lon="1.01039">
        <ele>119.5</ele>
        <time>2018-09-23T06:16:42Z</time>
      </trkpt>
      <trkpt lat="49.46333" lon="1.0105">
        <ele>119.5</ele>
        <time>2018-09-23T06:16:45Z</time>
      </trkpt>
      <trkpt lat="49.46341" lon="1.01057">
        <ele>119.6</ele>
        <time>2018-09-23T06:16:48Z</time>
      </trkpt>
      <trkpt lat="49.46352" lon="1.01064">
        <ele>119.8</ele>
        <time>2018-09-23T06:16:51Z</time>
      </trkpt>
      <trkpt lat="49.46364" lon="1.01075">
        <ele>119.8</ele>
        <time>2018-09-23T06:16:54Z</time>
      </trkpt>
      <trkpt lat="49.46374" lon="1.01086">
        <ele>120.1</ele>
        <time>2018-09-23T06:16:57Z</time>
      </trkpt>
      <trkpt lat="49.46384" lon="1.01096">
        <ele>120.2</ele>
        <time>2018-09-23T06:16:59Z</time>
      </trkpt>
      <trkpt lat="49.46392" lon="1.01103">
        <ele>120.3</ele>
        <time>2018-09-23T06:17:01Z</time>
      </trkpt>
      <trkpt lat="49.46401" lon="1.01111">
        <ele>120.4</ele>
        <time>2018-09-23T06:17:03Z</time>
      </trkpt>
      <trkpt lat="49.46412" lon="1.01121">
        <ele>120.6</ele>
        <time>2018-09-23T06:17:05Z</time>
      </trkpt>
      <trkpt lat="49.4642" lon="1.01128">
        <ele>120.8</ele>
        <time>2018-09-23T06:17:07Z</time>
      </trkpt>
      <trkpt lat="49.46429" lon="1.0114">
        <ele>120.6</ele>
        <time>2018-09-23T06:17:10Z</time>
      </trkpt>
      <trkpt lat="49.4644" lon="1.01152">
        <ele>120.7</ele>
        <time>2018-09-23T06:17:13Z</time>
      </trkpt>
      <trkpt lat="49.46451" lon="1.01163">
        <ele>120.9</ele>
        <time>2018-09-23T06:17:16Z</time>
      </trkpt>
      <trkpt lat="49.46459" lon="1.01173">
        <ele>120.9</ele>
        <time>2018-09-23T06:17:19Z</time>
      </trkpt>
      <trkpt lat="49.46468" lon="1.01179">
        <ele>120.8</ele>
        <time>2018-09-23T06:17:22Z</time>
      </trkpt>
      <trkpt lat="49.46478" lon="1.0119">
        <ele>120.7</ele>
        <time>2018-09-23T06:17:24Z</time>
      </trkpt>
      <trkpt lat="49.46487" lon="1.01198">
        <ele>120.8</ele>
        <time>2018-09-23T06:17:26Z</time>
      </trkpt>
      <trkpt lat="49.46496" lon="1.01206">
        <ele>120.7</ele>
        <time>2018-09-23T06:17:28Z</time>
      </trkpt>
      <trkpt lat="49.46507" lon="1.01216">
        <ele>121</ele>
        <time>2018-09-23T06:17:31Z</time>
      </trkpt>
      <trkpt lat="49.46514" lon="1.01226">
        <ele>121</ele>
        <time>2018-09-23T06:17:33Z</time>
      </trkpt>
      <trkpt lat="49.46522" lon="1.01237">
        <ele>121.1</ele>
        <time>2018-09-23T06:17:37Z</time>
      </trkpt>
      <trkpt lat="49.4653" lon="1.01244">
        <ele>121.4</ele>
        <time>2018-09-23T06:17:40Z</time>
      </trkpt>
      <trkpt lat="49.4654" lon="1.01251">
        <ele>121.6</ele>
        <time>2018-09-23T06:17:42Z</time>
      </trkpt>
      <trkpt lat="49.4655" lon="1.01257">
        <ele>121.6</ele>
        <time>2018-09-23T06:17:44Z</time>
      </trkpt>
      <trkpt lat="49.46562" lon="1.01269">
        <ele>121.8</ele>
        <time>2018-09-23T06:17:48Z</time>
      </trkpt>
      <trkpt lat="49.46572" lon="1.01279">
        <ele>121.9</ele>
        <time>2018-09-23T06:17:51Z</time>
      </trkpt>
      <trkpt lat="49.46581" lon="1.01287">
        <ele>122</ele>
        <time>2018-09-23T06:17:55Z</time>
      </trkpt>
      <trkpt lat="49.4659" lon="1.01289">
        <ele>122</ele>
        <time>2018-09-23T06:17:58Z</time>
      </trkpt>
      <trkpt lat="49.46597" lon="1.01299">
        <ele>122.1</ele>
        <time>2018-09-23T06:18:02Z</time>
      </trkpt>
      <trkpt lat="49.46596" lon="1.01313">
        <ele>122.4</ele>
        <time>2018-09-23T06:18:07Z</time>
      </trkpt>
      <trkpt lat="49.46592" lon="1.01331">
        <ele>122.6</ele>
        <time>2018-09-23T06:18:11Z</time>
      </trkpt>
      <trkpt lat="49.46593" lon="1.01345">
        <ele>122.2</ele>
        <time>2018-09-23T06:18:27Z</time>
      </trkpt>
      <trkpt lat="49.46587" lon="1.01356">
        <ele>122.2</ele>
        <time>2018-09-23T06:18:30Z</time>
      </trkpt>
      <trkpt lat="49.46579" lon="1.01366">
        <ele>122.2</ele>
        <time>2018-09-23T06:18:33Z</time>
      </trkpt>
      <trkpt lat="49.4657" lon="1.01378">
        <ele>121.9</ele>
        <time>2018-09-23T06:18:36Z</time>
      </trkpt>
      <trkpt lat="49.46562" lon="1.01393">
        <ele>121.7</ele>
        <time>2018-09-23T06:18:39Z</time>
      </trkpt>
      <trkpt lat="49.46555" lon="1.01406">
        <ele>121.8</ele>
        <time>2018-09-23T06:18:42Z</time>
      </trkpt>
      <trkpt lat="49.46547" lon="1.01415">
        <ele>121.6</ele>
        <time>2018-09-23T06:18:45Z</time>
      </trkpt>
      <trkpt lat="49.46539" lon="1.01426">
        <ele>121.6</ele>
        <time>2018-09-23T06:18:47Z</time>
      </trkpt>
      <trkpt lat="49.4653" lon="1.01439">
        <ele>121.7</ele>
        <time>2018-09-23T06:18:50Z</time>
      </trkpt>
      <trkpt lat="49.46522" lon="1.01453">
        <ele>121.7</ele>
        <time>2018-09-23T06:18:53Z</time>
      </trkpt>
      <trkpt lat="49.46518" lon="1.01469">
        <ele>121.5</ele>
        <time>2018-09-23T06:18:56Z</time>
      </trkpt>
      <trkpt lat="49.4652" lon="1.01483">
        <ele>121.7</ele>
        <time>2018-09-23T06:18:59Z</time>
      </trkpt>
      <trkpt lat="49.4652" lon="1.01501">
        <ele>121.5</ele>
        <time>2018-09-23T06:19:02Z</time>
      </trkpt>
      <trkpt lat="49.46518" lon="1.01516">
        <ele>121.6</ele>
        <time>2018-09-23T06:19:04Z</time>
      </trkpt>
      <trkpt lat="49.46518" lon="1.01532">
        <ele>121.6</ele>
        <time>2018-09-23T06:19:07Z</time>
      </trkpt>
      <trkpt lat="49.46515" lon="1.01547">
        <ele>121.5</ele>
        <time>2018-09-23T06:19:09Z</time>
      </trkpt>
      <trkpt lat="49.46515" lon="1.01567">
        <ele>121.6</ele>
        <time>2018-09-23T06:19:12Z</time>
      </trkpt>
      <trkpt lat="49.46515" lon="1.01585">
        <ele>121.6</ele>
        <time>2018-09-23T06:19:15Z</time>
      </trkpt>
      <trkpt lat="49.46515" lon="1.01607">
        <ele>121.5</ele>
        <time>2018-09-23T06:19:18Z</time>
      </trkpt>
      <trkpt lat="49.46513" lon="1.01628">
        <ele>121.3</ele>
        <time>2018-09-23T06:19:21Z</time>
      </trkpt>
      <trkpt lat="49.46512" lon="1.01645">
        <ele>121.4</ele>
        <time>2018-09-23T06:19:23Z</time>
      </trkpt>
      <trkpt lat="49.46511" lon="1.01662">
        <ele>121.6</ele>
        <time>2018-09-23T06:19:26Z</time>
      </trkpt>
      <trkpt lat="49.46509" lon="1.01677">
        <ele>121.8</ele>
        <time>2018-09-23T06:19:28Z</time>
      </trkpt>
      <trkpt lat="49.46509" lon="1.01695">
        <ele>121.9</ele>
        <time>2018-09-23T06:19:30Z</time>
      </trkpt>
      <trkpt lat="49.46508" lon="1.0171">
        <ele>122.1</ele>
        <time>2018-09-23T06:19:32Z</time>
      </trkpt>
      <trkpt lat="49.4651" lon="1.01725">
        <ele>122</ele>
        <time>2018-09-23T06:19:34Z</time>
      </trkpt>
      <trkpt lat="49.4651" lon="1.01739">
        <ele>122.2</ele>
        <time>2018-09-23T06:19:36Z</time>
      </trkpt>
      <trkpt lat="49.46512" lon="1.01755">
        <ele>122.3</ele>
        <time>2018-09-23T06:19:38Z</time>
      </trkpt>
      <trkpt lat="49.46516" lon="1.01768">
        <ele>122.5</ele>
        <time>2018-09-23T06:19:40Z</time>
      </trkpt>
      <trkpt lat="49.46514" lon="1.01785">
        <ele>122.7</ele>
        <time>2018-09-23T06:19:42Z</time>
      </trkpt>
      <trkpt lat="49.46513" lon="1.01799">
        <ele>123.1</ele>
        <time>2018-09-23T06:19:44Z</time>
      </trkpt>
      <trkpt lat="49.46511" lon="1.01818">
        <ele>123.3</ele>
        <time>2018-09-23T06:19:47Z</time>
      </trkpt>
      <trkpt lat="49.46513" lon="1.01839">
        <ele>123.4</ele>
        <time>2018-09-23T06:19:49Z</time>
      </trkpt>
      <trkpt lat="49.46514" lon="1.0186">
        <ele>123.5</ele>
        <time>2018-09-23T06:19:51Z</time>
      </trkpt>
      <trkpt lat="49.46514" lon="1.01876">
        <ele>123.5</ele>
        <time>2018-09-23T06:19:53Z</time>
      </trkpt>
      <trkpt lat="49.46514" lon="1.0189">
        <ele>123.3</ele>
        <time>2018-09-23T06:19:56Z</time>
      </trkpt>
      <trkpt lat="49.46525" lon="1.01896">
        <ele>123.1</ele>
        <time>2018-09-23T06:19:59Z</time>
      </trkpt>
      <trkpt lat="49.46538" lon="1.01897">
        <ele>123.2</ele>
        <time>2018-09-23T06:20:02Z</time>
      </trkpt>
      <trkpt lat="49.4655" lon="1.01898">
        <ele>123.3</ele>
        <time>2018-09-23T06:20:05Z</time>
      </trkpt>
      <trkpt lat="49.46564" lon="1.01899">
        <ele>123.3</ele>
        <time>2018-09-23T06:20:08Z</time>
      </trkpt>
      <trkpt lat="49.46575" lon="1.019">
        <ele>123.3</ele>
        <time>2018-09-23T06:20:10Z</time>
      </trkpt>
      <trkpt lat="49.46586" lon="1.01901">
        <ele>123.3</ele>
        <time>2018-09-23T06:20:13Z</time>
      </trkpt>
      <trkpt lat="49.46598" lon="1.01901">
        <ele>123.6</ele>
        <time>2018-09-23T06:20:16Z</time>
      </trkpt>
      <trkpt lat="49.46609" lon="1.01896">
        <ele>123.7</ele>
        <time>2018-09-23T06:20:19Z</time>
      </trkpt>
      <trkpt lat="49.46619" lon="1.0189">
        <ele>123.8</ele>
        <time>2018-09-23T06:20:22Z</time>
      </trkpt>
      <trkpt lat="49.4663" lon="1.01888">
        <ele>123.8</ele>
        <time>2018-09-23T06:20:25Z</time>
      </trkpt>
      <trkpt lat="49.46645" lon="1.01885">
        <ele>123</ele>
        <time>2018-09-23T06:20:29Z</time>
      </trkpt>
      <trkpt lat="49.46661" lon="1.01886">
        <ele>123.7</ele>
        <time>2018-09-23T06:20:32Z</time>
      </trkpt>
      <trkpt lat="49.4667" lon="1.01884">
        <ele>123.9</ele>
        <time>2018-09-23T06:20:34Z</time>
      </trkpt>
      <trkpt lat="49.4668" lon="1.01888">
        <ele>124</ele>
        <time>2018-09-23T06:20:36Z</time>
      </trkpt>
      <trkpt lat="49.4669" lon="1.01887">
        <ele>124</ele>
        <time>2018-09-23T06:20:38Z</time>
      </trkpt>
      <trkpt lat="49.46699" lon="1.01887">
        <ele>124</ele>
        <time>2018-09-23T06:20:40Z</time>
      </trkpt>
      <trkpt lat="49.46716" lon="1.01893">
        <ele>124.3</ele>
        <time>2018-09-23T06:20:43Z</time>
      </trkpt>
      <trkpt lat="49.46729" lon="1.01892">
        <ele>124.6</ele>
        <time>2018-09-23T06:20:46Z</time>
      </trkpt>
      <trkpt lat="49.46743" lon="1.0189">
        <ele>124.8</ele>
        <time>2018-09-23T06:20:48Z</time>
      </trkpt>
      <trkpt lat="49.46759" lon="1.01892">
        <ele>125</ele>
        <time>2018-09-23T06:20:50Z</time>
      </trkpt>
      <trkpt lat="49.46774" lon="1.01893">
        <ele>125.3</ele>
        <time>2018-09-23T06:20:53Z</time>
      </trkpt>
      <trkpt lat="49.46788" lon="1.01892">
        <ele>125.5</ele>
        <time>2018-09-23T06:20:55Z</time>
      </trkpt>
      <trkpt lat="49.468" lon="1.01891">
        <ele>125.7</ele>
        <time>2018-09-23T06:20:57Z</time>
      </trkpt>
      <trkpt lat="49.46813" lon="1.01892">
        <ele>125.9</ele>
        <time>2018-09-23T06:21:00Z</time>
      </trkpt>
      <trkpt lat="49.46822" lon="1.01891">
        <ele>126.1</ele>
        <time>2018-09-23T06:21:02Z</time>
      </trkpt>
      <trkpt lat="49.46831" lon="1.01889">
        <ele>126.1</ele>
        <time>2018-09-23T06:21:04Z</time>
      </trkpt>
      <trkpt lat="49.4684" lon="1.01886">
        <ele>126.2</ele>
        <time>2018-09-23T06:21:07Z</time>
      </trkpt>
      <trkpt lat="49.46847" lon="1.01873">
        <ele>126.2</ele>
        <time>2018-09-23T06:21:10Z</time>
      </trkpt>
      <trkpt lat="49.46854" lon="1.0186">
        <ele>126.3</ele>
        <time>2018-09-23T06:21:13Z</time>
      </trkpt>
      <trkpt lat="49.4686" lon="1.01849">
        <ele>126.4</ele>
        <time>2018-09-23T06:21:16Z</time>
      </trkpt>
      <trkpt lat="49.46866" lon="1.01837">
        <ele>126.3</ele>
        <time>2018-09-23T06:21:18Z</time>
      </trkpt>
      <trkpt lat="49.4687" lon="1.01825">
        <ele>126.4</ele>
        <time>2018-09-23T06:21:20Z</time>
      </trkpt>
      <trkpt lat="49.46871" lon="1.01809">
        <ele>126.3</ele>
        <time>2018-09-23T06:21:23Z</time>
      </trkpt>
      <trkpt lat="49.46875" lon="1.01795">
        <ele>126</ele>
        <time>2018-09-23T06:21:26Z</time>
      </trkpt>
      <trkpt lat="49.46879" lon="1.0178">
        <ele>126</ele>
        <time>2018-09-23T06:21:29Z</time>
      </trkpt>
      <trkpt lat="49.46881" lon="1.01763">
        <ele>126</ele>
        <time>2018-09-23T06:21:32Z</time>
      </trkpt>
      <trkpt lat="49.46882" lon="1.01746">
        <ele>126.1</ele>
        <time>2018-09-23T06:21:36Z</time>
      </trkpt>
      <trkpt lat="49.46882" lon="1.01731">
        <ele>125.9</ele>
        <time>2018-09-23T06:21:40Z</time>
      </trkpt>
      <trkpt lat="49.46884" lon="1.01716">
        <ele>126</ele>
        <time>2018-09-23T06:21:44Z</time>
      </trkpt>
      <trkpt lat="49.46885" lon="1.01699">
        <ele>126.1</ele>
        <time>2018-09-23T06:21:49Z</time>
      </trkpt>
      <trkpt lat="49.46886" lon="1.01682">
        <ele>126.1</ele>
        <time>2018-09-23T06:21:54Z</time>
      </trkpt>
      <trkpt lat="49.46888" lon="1.01666">
        <ele>126</ele>
        <time>2018-09-23T06:21:58Z</time>
      </trkpt>
      <trkpt lat="49.4689" lon="1.01651">
        <ele>125.9</ele>
        <time>2018-09-23T06:22:02Z</time>
      </trkpt>
      <trkpt lat="49.46894" lon="1.01639">
        <ele>125.6</ele>
        <time>2018-09-23T06:22:06Z</time>
      </trkpt>
      <trkpt lat="49.46896" lon="1.01625">
        <ele>125.5</ele>
        <time>2018-09-23T06:22:09Z</time>
      </trkpt>
      <trkpt lat="49.46896" lon="1.0161">
        <ele>125.5</ele>
        <time>2018-09-23T06:22:12Z</time>
      </trkpt>
      <trkpt lat="49.46896" lon="1.01591">
        <ele>125.5</ele>
        <time>2018-09-23T06:22:15Z</time>
      </trkpt>
      <trkpt lat="49.46895" lon="1.01573">
        <ele>125.7</ele>
        <time>2018-09-23T06:22:18Z</time>
      </trkpt>
      <trkpt lat="49.46892" lon="1.01555">
        <ele>125.7</ele>
        <time>2018-09-23T06:22:21Z</time>
      </trkpt>
      <trkpt lat="49.46888" lon="1.01539">
        <ele>125.4</ele>
        <time>2018-09-23T06:22:24Z</time>
      </trkpt>
      <trkpt lat="49.4689" lon="1.01524">
        <ele>125.2</ele>
        <time>2018-09-23T06:22:27Z</time>
      </trkpt>
      <trkpt lat="49.46891" lon="1.01509">
        <ele>125.1</ele>
        <time>2018-09-23T06:22:31Z</time>
      </trkpt>
      <trkpt lat="49.46891" lon="1.01495">
        <ele>125</ele>
        <time>2018-09-23T06:22:34Z</time>
      </trkpt>
      <trkpt lat="49.46892" lon="1.0148">
        <ele>125</ele>
        <time>2018-09-23T06:22:38Z</time>
      </trkpt>
      <trkpt lat="49.46889" lon="1.01466">
        <ele>125</ele>
        <time>2018-09-23T06:22:41Z</time>
      </trkpt>
      <trkpt lat="49.46888" lon="1.01451">
        <ele>124.9</ele>
        <time>2018-09-23T06:22:45Z</time>
      </trkpt>
      <trkpt lat="49.46886" lon="1.01435">
        <ele>125.1</ele>
        <time>2018-09-23T06:22:49Z</time>
      </trkpt>
      <trkpt lat="49.46886" lon="1.01418">
        <ele>125.1</ele>
        <time>2018-09-23T06:22:53Z</time>
      </trkpt>
      <trkpt lat="49.46886" lon="1.014">
        <ele>125.3</ele>
        <time>2018-09-23T06:22:57Z</time>
      </trkpt>
      <trkpt lat="49.46884" lon="1.01384">
        <ele>125.3</ele>
        <time>2018-09-23T06:23:01Z</time>
      </trkpt>
      <trkpt lat="49.46884" lon="1.01368">
        <ele>125.3</ele>
        <time>2018-09-23T06:23:06Z</time>
      </trkpt>
      <trkpt lat="49.46881" lon="1.01355">
        <ele>125.4</ele>
        <time>2018-09-23T06:23:12Z</time>
      </trkpt>
      <trkpt lat="49.46881" lon="1.01338">
        <ele>125.6</ele>
        <time>2018-09-23T06:23:17Z</time>
      </trkpt>
      <trkpt lat="49.46879" lon="1.01322">
        <ele>125.7</ele>
        <time>2018-09-23T06:23:21Z</time>
      </trkpt>
      <trkpt lat="49.46879" lon="1.01305">
        <ele>125.9</ele>
        <time>2018-09-23T06:23:27Z</time>
      </trkpt>
      <trkpt lat="49.46877" lon="1.01291">
        <ele>125.9</ele>
        <time>2018-09-23T06:23:31Z</time>
      </trkpt>
      <trkpt lat="49.46876" lon="1.01277">
        <ele>125.9</ele>
        <time>2018-09-23T06:23:34Z</time>
      </trkpt>
      <trkpt lat="49.46877" lon="1.01261">
        <ele>126.1</ele>
        <time>2018-09-23T06:23:38Z</time>
      </trkpt>
      <trkpt lat="49.46875" lon="1.01245">
        <ele>126.2</ele>
        <time>2018-09-23T06:23:44Z</time>
      </trkpt>
      <trkpt lat="49.46873" lon="1.01231">
        <ele>126.4</ele>
        <time>2018-09-23T06:23:47Z</time>
      </trkpt>
      <trkpt lat="49.46874" lon="1.01217">
        <ele>126.6</ele>
        <time>2018-09-23T06:23:51Z</time>
      </trkpt>
      <trkpt lat="49.46873" lon="1.01203">
        <ele>126.6</ele>
        <time>2018-09-23T06:23:55Z</time>
      </trkpt>
      <trkpt lat="49.46873" lon="1.01188">
        <ele>126.6</ele>
        <time>2018-09-23T06:23:58Z</time>
      </trkpt>
      <trkpt lat="49.46871" lon="1.01172">
        <ele>126.7</ele>
        <time>2018-09-23T06:24:02Z</time>
      </trkpt>
      <trkpt lat="49.46869" lon="1.01155">
        <ele>126.7</ele>
        <time>2018-09-23T06:24:06Z</time>
      </trkpt>
      <trkpt lat="49.46861" lon="1.01146">
        <ele>126.8</ele>
        <time>2018-09-23T06:24:10Z</time>
      </trkpt>
      <trkpt lat="49.46852" lon="1.01154">
        <ele>126.2</ele>
        <time>2018-09-23T06:24:16Z</time>
      </trkpt>
      <trkpt lat="49.46843" lon="1.01162">
        <ele>126</ele>
        <time>2018-09-23T06:24:19Z</time>
      </trkpt>
      <trkpt lat="49.46836" lon="1.01172">
        <ele>125.5</ele>
        <time>2018-09-23T06:24:23Z</time>
      </trkpt>
      <trkpt lat="49.46839" lon="1.01187">
        <ele>125.2</ele>
        <time>2018-09-23T06:24:30Z</time>
      </trkpt>
      <trkpt lat="49.46842" lon="1.01206">
        <ele>125.2</ele>
        <time>2018-09-23T06:24:34Z</time>
      </trkpt>
      <trkpt lat="49.46841" lon="1.01222">
        <ele>124.8</ele>
        <time>2018-09-23T06:24:37Z</time>
      </trkpt>
      <trkpt lat="49.46833" lon="1.01232">
        <ele>124.5</ele>
        <time>2018-09-23T06:24:42Z</time>
      </trkpt>
      <trkpt lat="49.46824" lon="1.01229">
        <ele>124.4</ele>
        <time>2018-09-23T06:24:47Z</time>
      </trkpt>
      <trkpt lat="49.46814" lon="1.01222">
        <ele>124.4</ele>
        <time>2018-09-23T06:24:51Z</time>
      </trkpt>
      <trkpt lat="49.46806" lon="1.01211">
        <ele>124.3</ele>
        <time>2018-09-23T06:24:55Z</time>
      </trkpt>
      <trkpt lat="49.46799" lon="1.01202">
        <ele>124.3</ele>
        <time>2018-09-23T06:24:57Z</time>
      </trkpt>
      <trkpt lat="49.46793" lon="1.01188">
        <ele>124.3</ele>
        <time>2018-09-23T06:25:00Z</time>
      </trkpt>
      <trkpt lat="49.46788" lon="1.01175">
        <ele>124.4</ele>
        <time>2018-09-23T06:25:03Z</time>
      </trkpt>
      <trkpt lat="49.46785" lon="1.0116">
        <ele>124.2</ele>
        <time>2018-09-23T06:25:06Z</time>
      </trkpt>
      <trkpt lat="49.46788" lon="1.01144">
        <ele>124.6</ele>
        <time>2018-09-23T06:25:11Z</time>
      </trkpt>
      <trkpt lat="49.46797" lon="1.0113">
        <ele>124.8</ele>
        <time>2018-09-23T06:25:15Z</time>
      </trkpt>
      <trkpt lat="49.46804" lon="1.01118">
        <ele>124.7</ele>
        <time>2018-09-23T06:25:18Z</time>
      </trkpt>
      <trkpt lat="49.46814" lon="1.01108">
        <ele>125.2</ele>
        <time>2018-09-23T06:25:22Z</time>
      </trkpt>
      <trkpt lat="49.46823" lon="1.01107">
        <ele>125.3</ele>
        <time>2018-09-23T06:25:25Z</time>
      </trkpt>
      <trkpt lat="49.46832" lon="1.01107">
        <ele>125.2</ele>
        <time>2018-09-23T06:25:30Z</time>
      </trkpt>
      <trkpt lat="49.46841" lon="1.01095">
        <ele>125.5</ele>
        <time>2018-09-23T06:25:34Z</time>
      </trkpt>
      <trkpt lat="49.46849" lon="1.01082">
        <ele>125.1</ele>
        <time>2018-09-23T06:25:37Z</time>
      </trkpt>
      <trkpt lat="49.46854" lon="1.0107">
        <ele>125.1</ele>
        <time>2018-09-23T06:25:40Z</time>
      </trkpt>
      <trkpt lat="49.46863" lon="1.01059">
        <ele>125.4</ele>
        <time>2018-09-23T06:25:43Z</time>
      </trkpt>
      <trkpt lat="49.46874" lon="1.01045">
        <ele>125.6</ele>
        <time>2018-09-23T06:25:46Z</time>
      </trkpt>
      <trkpt lat="49.46882" lon="1.01032">
        <ele>125.8</ele>
        <time>2018-09-23T06:25:49Z</time>
      </trkpt>
      <trkpt lat="49.46891" lon="1.0102">
        <ele>125.9</ele>
        <time>2018-09-23T06:25:52Z</time>
      </trkpt>
      <trkpt lat="49.46898" lon="1.01011">
        <ele>126</ele>
        <time>2018-09-23T06:25:54Z</time>
      </trkpt>
      <trkpt lat="49.46907" lon="1.00998">
        <ele>126</ele>
        <time>2018-09-23T06:25:57Z</time>
      </trkpt>
      <trkpt lat="49.46913" lon="1.00988">
        <ele>126</ele>
        <time>2018-09-23T06:25:59Z</time>
      </trkpt>
      <trkpt lat="49.46922" lon="1.00977">
        <ele>126</ele>
        <time>2018-09-23T06:26:02Z</time>
      </trkpt>
      <trkpt lat="49.46929" lon="1.00965">
        <ele>125.9</ele>
        <time>2018-09-23T06:26:05Z</time>
      </trkpt>
      <trkpt lat="49.46934" lon="1.00952">
        <ele>126.2</ele>
        <time>2018-09-23T06:26:08Z</time>
      </trkpt>
      <trkpt lat="49.46939" lon="1.00939">
        <ele>126.3</ele>
        <time>2018-09-23T06:26:11Z</time>
      </trkpt>
      <trkpt lat="49.46945" lon="1.00925">
        <ele>126.6</ele>
        <time>2018-09-23T06:26:14Z</time>
      </trkpt>
      <trkpt lat="49.46952" lon="1.00914">
        <ele>126.7</ele>
        <time>2018-09-23T06:26:16Z</time>
      </trkpt>
      <trkpt lat="49.46959" lon="1.009">
        <ele>126.7</ele>
        <time>2018-09-23T06:26:19Z</time>
      </trkpt>
      <trkpt lat="49.46963" lon="1.00886">
        <ele>126.7</ele>
        <time>2018-09-23T06:26:22Z</time>
      </trkpt>
      <trkpt lat="49.46966" lon="1.00872">
        <ele>126.7</ele>
        <time>2018-09-23T06:26:25Z</time>
      </trkpt>
      <trkpt lat="49.46968" lon="1.00853">
        <ele>126.8</ele>
        <time>2018-09-23T06:26:28Z</time>
      </trkpt>
      <trkpt lat="49.46969" lon="1.00834">
        <ele>127.1</ele>
        <time>2018-09-23T06:26:31Z</time>
      </trkpt>
      <trkpt lat="49.46972" lon="1.00814">
        <ele>126.9</ele>
        <time>2018-09-23T06:26:34Z</time>
      </trkpt>
      <trkpt lat="49.46972" lon="1.00794">
        <ele>127.1</ele>
        <time>2018-09-23T06:26:37Z</time>
      </trkpt>
      <trkpt lat="49.46978" lon="1.00779">
        <ele>127.2</ele>
        <time>2018-09-23T06:26:40Z</time>
      </trkpt>
      <trkpt lat="49.46981" lon="1.00765">
        <ele>127.3</ele>
        <time>2018-09-23T06:26:42Z</time>
      </trkpt>
      <trkpt lat="49.46986" lon="1.00752">
        <ele>127.3</ele>
        <time>2018-09-23T06:26:44Z</time>
      </trkpt>
      <trkpt lat="49.4699" lon="1.00737">
        <ele>127.3</ele>
        <time>2018-09-23T06:26:47Z</time>
      </trkpt>
      <trkpt lat="49.46995" lon="1.00721">
        <ele>127</ele>
        <time>2018-09-23T06:26:50Z</time>
      </trkpt>
      <trkpt lat="49.46996" lon="1.00704">
        <ele>126.8</ele>
        <time>2018-09-23T06:26:53Z</time>
      </trkpt>
      <trkpt lat="49.46999" lon="1.00689">
        <ele>126.7</ele>
        <time>2018-09-23T06:26:55Z</time>
      </trkpt>
      <trkpt lat="49.47002" lon="1.00674">
        <ele>126.8</ele>
        <time>2018-09-23T06:26:57Z</time>
      </trkpt>
      <trkpt lat="49.47003" lon="1.0066">
        <ele>126.8</ele>
        <time>2018-09-23T06:26:59Z</time>
      </trkpt>
      <trkpt lat="49.47005" lon="1.00646">
        <ele>126.8</ele>
        <time>2018-09-23T06:27:01Z</time>
      </trkpt>
      <trkpt lat="49.47008" lon="1.00626">
        <ele>126.8</ele>
        <time>2018-09-23T06:27:04Z</time>
      </trkpt>
      <trkpt lat="49.4701" lon="1.00612">
        <ele>126.5</ele>
        <time>2018-09-23T06:27:06Z</time>
      </trkpt>
      <trkpt lat="49.47011" lon="1.00592">
        <ele>126.6</ele>
        <time>2018-09-23T06:27:09Z</time>
      </trkpt>
      <trkpt lat="49.47006" lon="1.00575">
        <ele>126.5</ele>
        <time>2018-09-23T06:27:12Z</time>
      </trkpt>
      <trkpt lat="49.47005" lon="1.00557">
        <ele>126.5</ele>
        <time>2018-09-23T06:27:16Z</time>
      </trkpt>
      <trkpt lat="49.47011" lon="1.00543">
        <ele>126.4</ele>
        <time>2018-09-23T06:27:18Z</time>
      </trkpt>
      <trkpt lat="49.47015" lon="1.00529">
        <ele>126.3</ele>
        <time>2018-09-23T06:27:20Z</time>
      </trkpt>
      <trkpt lat="49.47017" lon="1.00516">
        <ele>126.4</ele>
        <time>2018-09-23T06:27:22Z</time>
      </trkpt>
      <trkpt lat="49.47017" lon="1.00495">
        <ele>126.2</ele>
        <time>2018-09-23T06:27:25Z</time>
      </trkpt>
      <trkpt lat="49.47016" lon="1.00477">
        <ele>125.8</ele>
        <time>2018-09-23T06:27:28Z</time>
      </trkpt>
      <trkpt lat="49.47012" lon="1.00461">
        <ele>125.8</ele>
        <time>2018-09-23T06:27:31Z</time>
      </trkpt>
      <trkpt lat="49.47011" lon="1.00441">
        <ele>125.6</ele>
        <time>2018-09-23T06:27:34Z</time>
      </trkpt>
      <trkpt lat="49.47014" lon="1.00422">
        <ele>125.4</ele>
        <time>2018-09-23T06:27:37Z</time>
      </trkpt>
      <trkpt lat="49.47017" lon="1.00403">
        <ele>124.9</ele>
        <time>2018-09-23T06:27:40Z</time>
      </trkpt>
      <trkpt lat="49.47017" lon="1.00384">
        <ele>124.7</ele>
        <time>2018-09-23T06:27:43Z</time>
      </trkpt>
      <trkpt lat="49.47018" lon="1.0037">
        <ele>124.7</ele>
        <time>2018-09-23T06:27:45Z</time>
      </trkpt>
      <trkpt lat="49.4702" lon="1.00355">
        <ele>124.4</ele>
        <time>2018-09-23T06:27:47Z</time>
      </trkpt>
      <trkpt lat="49.47023" lon="1.0034">
        <ele>124.3</ele>
        <time>2018-09-23T06:27:49Z</time>
      </trkpt>
      <trkpt lat="49.47023" lon="1.00324">
        <ele>124</ele>
        <time>2018-09-23T06:27:52Z</time>
      </trkpt>
      <trkpt lat="49.4703" lon="1.00307">
        <ele>123.7</ele>
        <time>2018-09-23T06:27:55Z</time>
      </trkpt>
      <trkpt lat="49.47032" lon="1.00288">
        <ele>123.2</ele>
        <time>2018-09-23T06:27:57Z</time>
      </trkpt>
      <trkpt lat="49.47034" lon="1.00271">
        <ele>122.9</ele>
        <time>2018-09-23T06:27:59Z</time>
      </trkpt>
      <trkpt lat="49.47035" lon="1.00251">
        <ele>122.8</ele>
        <time>2018-09-23T06:28:01Z</time>
      </trkpt>
      <trkpt lat="49.47035" lon="1.00236">
        <ele>122.6</ele>
        <time>2018-09-23T06:28:03Z</time>
      </trkpt>
      <trkpt lat="49.47035" lon="1.00217">
        <ele>122.3</ele>
        <time>2018-09-23T06:28:05Z</time>
      </trkpt>
      <trkpt lat="49.47038" lon="1.00202">
        <ele>122.4</ele>
        <time>2018-09-23T06:28:07Z</time>
      </trkpt>
      <trkpt lat="49.47039" lon="1.00187">
        <ele>122.3</ele>
        <time>2018-09-23T06:28:09Z</time>
      </trkpt>
      <trkpt lat="49.47038" lon="1.00172">
        <ele>122.3</ele>
        <time>2018-09-23T06:28:11Z</time>
      </trkpt>
      <trkpt lat="49.47034" lon="1.00158">
        <ele>121.4</ele>
        <time>2018-09-23T06:28:16Z</time>
      </trkpt>
      <trkpt lat="49.47034" lon="1.00139">
        <ele>120.7</ele>
        <time>2018-09-23T06:28:26Z</time>
      </trkpt>
      <trkpt lat="49.47038" lon="1.00125">
        <ele>120.1</ele>
        <time>2018-09-23T06:28:29Z</time>
      </trkpt>
      <trkpt lat="49.47039" lon="1.00108">
        <ele>119.7</ele>
        <time>2018-09-23T06:28:33Z</time>
      </trkpt>
      <trkpt lat="49.47044" lon="1.00095">
        <ele>119.8</ele>
        <time>2018-09-23T06:28:36Z</time>
      </trkpt>
      <trkpt lat="49.47047" lon="1.0008">
        <ele>119.6</ele>
        <time>2018-09-23T06:28:39Z</time>
      </trkpt>
      <trkpt lat="49.4705" lon="1.00061">
        <ele>119.5</ele>
        <time>2018-09-23T06:28:43Z</time>
      </trkpt>
      <trkpt lat="49.47043" lon="1.00051">
        <ele>119.2</ele>
        <time>2018-09-23T06:28:48Z</time>
      </trkpt>
      <trkpt lat="49.47039" lon="1.00032">
        <ele>118</ele>
        <time>2018-09-23T06:28:54Z</time>
      </trkpt>
      <trkpt lat="49.47046" lon="1.00006">
        <ele>118</ele>
        <time>2018-09-23T06:28:58Z</time>
      </trkpt>
      <trkpt lat="49.47051" lon="0.99974">
        <ele>117</ele>
        <time>2018-09-23T06:29:02Z</time>
      </trkpt>
      <trkpt lat="49.47056" lon="0.99943">
        <ele>117</ele>
        <time>2018-09-23T06:29:06Z</time>
      </trkpt>
      <trkpt lat="49.47062" lon="0.99911">
        <ele>117</ele>
        <time>2018-09-23T06:29:10Z</time>
      </trkpt>
      <trkpt lat="49.47066" lon="0.99887">
        <ele>117.2</ele>
        <time>2018-09-23T06:29:13Z</time>
      </trkpt>
      <trkpt lat="49.47068" lon="0.99872">
        <ele>117.1</ele>
        <time>2018-09-23T06:29:15Z</time>
      </trkpt>
      <trkpt lat="49.47072" lon="0.99848">
        <ele>117</ele>
        <time>2018-09-23T06:29:18Z</time>
      </trkpt>
      <trkpt lat="49.47079" lon="0.99814">
        <ele>117</ele>
        <time>2018-09-23T06:29:22Z</time>
      </trkpt>
      <trkpt lat="49.47085" lon="0.99777">
        <ele>117</ele>
        <time>2018-09-23T06:29:26Z</time>
      </trkpt>
      <trkpt lat="49.47089" lon="0.99747">
        <ele>117</ele>
        <time>2018-09-23T06:29:29Z</time>
      </trkpt>
      <trkpt lat="49.47092" lon="0.99727">
        <ele>117</ele>
        <time>2018-09-23T06:29:31Z</time>
      </trkpt>
      <trkpt lat="49.47096" lon="0.99708">
        <ele>116.9</ele>
        <time>2018-09-23T06:29:33Z</time>
      </trkpt>
      <trkpt lat="49.47099" lon="0.99688">
        <ele>116.9</ele>
        <time>2018-09-23T06:29:35Z</time>
      </trkpt>
      <trkpt lat="49.47102" lon="0.99667">
        <ele>116.8</ele>
        <time>2018-09-23T06:29:37Z</time>
      </trkpt>
      <trkpt lat="49.47105" lon="0.99647">
        <ele>116.8</ele>
        <time>2018-09-23T06:29:39Z</time>
      </trkpt>
      <trkpt lat="49.47108" lon="0.99627">
        <ele>116.7</ele>
        <time>2018-09-23T06:29:41Z</time>
      </trkpt>
      <trkpt lat="49.47111" lon="0.99606">
        <ele>116.7</ele>
        <time>2018-09-23T06:29:43Z</time>
      </trkpt>
      <trkpt lat="49.47114" lon="0.99585">
        <ele>116.7</ele>
        <time>2018-09-23T06:29:45Z</time>
      </trkpt>
      <trkpt lat="49.47117" lon="0.99565">
        <ele>116.5</ele>
        <time>2018-09-23T06:29:47Z</time>
      </trkpt>
      <trkpt lat="49.4712" lon="0.99546">
        <ele>116.3</ele>
        <time>2018-09-23T06:29:49Z</time>
      </trkpt>
      <trkpt lat="49.47124" lon="0.99532">
        <ele>116.2</ele>
        <time>2018-09-23T06:29:51Z</time>
      </trkpt>
      <trkpt lat="49.47128" lon="0.99517">
        <ele>116</ele>
        <time>2018-09-23T06:29:53Z</time>
      </trkpt>
      <trkpt lat="49.47132" lon="0.99501">
        <ele>115.5</ele>
        <time>2018-09-23T06:29:55Z</time>
      </trkpt>
      <trkpt lat="49.47137" lon="0.9949">
        <ele>114.6</ele>
        <time>2018-09-23T06:29:57Z</time>
      </trkpt>
      <trkpt lat="49.47137" lon="0.99475">
        <ele>113.8</ele>
        <time>2018-09-23T06:30:00Z</time>
      </trkpt>
      <trkpt lat="49.47132" lon="0.99463">
        <ele>113.7</ele>
        <time>2018-09-23T06:30:03Z</time>
      </trkpt>
      <trkpt lat="49.47124" lon="0.99457">
        <ele>113.5</ele>
        <time>2018-09-23T06:30:06Z</time>
      </trkpt>
      <trkpt lat="49.47115" lon="0.99447">
        <ele>113.6</ele>
        <time>2018-09-23T06:30:09Z</time>
      </trkpt>
      <trkpt lat="49.47107" lon="0.99438">
        <ele>113.8</ele>
        <time>2018-09-23T06:30:12Z</time>
      </trkpt>
      <trkpt lat="49.47098" lon="0.99432">
        <ele>113.9</ele>
        <time>2018-09-23T06:30:15Z</time>
      </trkpt>
      <trkpt lat="49.47088" lon="0.99429">
        <ele>114.1</ele>
        <time>2018-09-23T06:30:18Z</time>
      </trkpt>
      <trkpt lat="49.47076" lon="0.99428">
        <ele>114.3</ele>
        <time>2018-09-23T06:30:21Z</time>
      </trkpt>
      <trkpt lat="49.47065" lon="0.9943">
        <ele>114.6</ele>
        <time>2018-09-23T06:30:24Z</time>
      </trkpt>
      <trkpt lat="49.47055" lon="0.99426">
        <ele>114.7</ele>
        <time>2018-09-23T06:30:27Z</time>
      </trkpt>
      <trkpt lat="49.47044" lon="0.99421">
        <ele>114.9</ele>
        <time>2018-09-23T06:30:30Z</time>
      </trkpt>
      <trkpt lat="49.47032" lon="0.99417">
        <ele>115.1</ele>
        <time>2018-09-23T06:30:33Z</time>
      </trkpt>
      <trkpt lat="49.47022" lon="0.99407">
        <ele>115.3</ele>
        <time>2018-09-23T06:30:36Z</time>
      </trkpt>
      <trkpt lat="49.47012" lon="0.99397">
        <ele>115.4</ele>
        <time>2018-09-23T06:30:39Z</time>
      </trkpt>
      <trkpt lat="49.47002" lon="0.99388">
        <ele>115.5</ele>
        <time>2018-09-23T06:30:42Z</time>
      </trkpt>
      <trkpt lat="49.46991" lon="0.99382">
        <ele>115.6</ele>
        <time>2018-09-23T06:30:45Z</time>
      </trkpt>
      <trkpt lat="49.46979" lon="0.99382">
        <ele>115.8</ele>
        <time>2018-09-23T06:30:48Z</time>
      </trkpt>
      <trkpt lat="49.46968" lon="0.99379">
        <ele>116.1</ele>
        <time>2018-09-23T06:30:51Z</time>
      </trkpt>
      <trkpt lat="49.46958" lon="0.99368">
        <ele>115.9</ele>
        <time>2018-09-23T06:30:54Z</time>
      </trkpt>
      <trkpt lat="49.46947" lon="0.99361">
        <ele>116</ele>
        <time>2018-09-23T06:30:57Z</time>
      </trkpt>
      <trkpt lat="49.46936" lon="0.99354">
        <ele>116.1</ele>
        <time>2018-09-23T06:31:00Z</time>
      </trkpt>
      <trkpt lat="49.46925" lon="0.99344">
        <ele>116.4</ele>
        <time>2018-09-23T06:31:03Z</time>
      </trkpt>
      <trkpt lat="49.46914" lon="0.99336">
        <ele>116.4</ele>
        <time>2018-09-23T06:31:06Z</time>
      </trkpt>
      <trkpt lat="49.46905" lon="0.99325">
        <ele>116.3</ele>
        <time>2018-09-23T06:31:09Z</time>
      </trkpt>
      <trkpt lat="49.46895" lon="0.99315">
        <ele>116.3</ele>
        <time>2018-09-23T06:31:12Z</time>
      </trkpt>
      <trkpt lat="49.46883" lon="0.9931">
        <ele>116.4</ele>
        <time>2018-09-23T06:31:15Z</time>
      </trkpt>
      <trkpt lat="49.46874" lon="0.99308">
        <ele>116.3</ele>
        <time>2018-09-23T06:31:17Z</time>
      </trkpt>
      <trkpt lat="49.46861" lon="0.99305">
        <ele>116.4</ele>
        <time>2018-09-23T06:31:20Z</time>
      </trkpt>
      <trkpt lat="49.46852" lon="0.99303">
        <ele>116.5</ele>
        <time>2018-09-23T06:31:22Z</time>
      </trkpt>
      <trkpt lat="49.46839" lon="0.99301">
        <ele>116.3</ele>
        <time>2018-09-23T06:31:25Z</time>
      </trkpt>
      <trkpt lat="49.4683" lon="0.99295">
        <ele>116.3</ele>
        <time>2018-09-23T06:31:27Z</time>
      </trkpt>
      <trkpt lat="49.46822" lon="0.99288">
        <ele>116.4</ele>
        <time>2018-09-23T06:31:29Z</time>
      </trkpt>
      <trkpt lat="49.46814" lon="0.99281">
        <ele>116.3</ele>
        <time>2018-09-23T06:31:31Z</time>
      </trkpt>
      <trkpt lat="49.46805" lon="0.99274">
        <ele>116.3</ele>
        <time>2018-09-23T06:31:33Z</time>
      </trkpt>
      <trkpt lat="49.46797" lon="0.99268">
        <ele>116.2</ele>
        <time>2018-09-23T06:31:35Z</time>
      </trkpt>
      <trkpt lat="49.46788" lon="0.99261">
        <ele>116.1</ele>
        <time>2018-09-23T06:31:37Z</time>
      </trkpt>
      <trkpt lat="49.46778" lon="0.99255">
        <ele>116</ele>
        <time>2018-09-23T06:31:39Z</time>
      </trkpt>
      <trkpt lat="49.46769" lon="0.99246">
        <ele>115.9</ele>
        <time>2018-09-23T06:31:41Z</time>
      </trkpt>
      <trkpt lat="49.4676" lon="0.99236">
        <ele>115.9</ele>
        <time>2018-09-23T06:31:43Z</time>
      </trkpt>
      <trkpt lat="49.4675" lon="0.99227">
        <ele>116</ele>
        <time>2018-09-23T06:31:45Z</time>
      </trkpt>
      <trkpt lat="49.4674" lon="0.99219">
        <ele>116.2</ele>
        <time>2018-09-23T06:31:47Z</time>
      </trkpt>
      <trkpt lat="49.4673" lon="0.99217">
        <ele>115.5</ele>
        <time>2018-09-23T06:31:49Z</time>
      </trkpt>
      <trkpt lat="49.46719" lon="0.99217">
        <ele>115.3</ele>
        <time>2018-09-23T06:31:51Z</time>
      </trkpt>
      <trkpt lat="49.4671" lon="0.99215">
        <ele>115.1</ele>
        <time>2018-09-23T06:31:53Z</time>
      </trkpt>
      <trkpt lat="49.467" lon="0.99212">
        <ele>114.5</ele>
        <time>2018-09-23T06:31:57Z</time>
      </trkpt>
      <trkpt lat="49.46693" lon="0.99198">
        <ele>114.1</ele>
        <time>2018-09-23T06:32:02Z</time>
      </trkpt>
      <trkpt lat="49.46684" lon="0.9919">
        <ele>113.9</ele>
        <time>2018-09-23T06:32:05Z</time>
      </trkpt>
      <trkpt lat="49.46676" lon="0.99183">
        <ele>113.8</ele>
        <time>2018-09-23T06:32:08Z</time>
      </trkpt>
      <trkpt lat="49.46669" lon="0.99173">
        <ele>113.8</ele>
        <time>2018-09-23T06:32:10Z</time>
      </trkpt>
      <trkpt lat="49.46662" lon="0.99161">
        <ele>114</ele>
        <time>2018-09-23T06:32:12Z</time>
      </trkpt>
      <trkpt lat="49.46658" lon="0.99145">
        <ele>113.7</ele>
        <time>2018-09-23T06:32:14Z</time>
      </trkpt>
      <trkpt lat="49.46657" lon="0.99129">
        <ele>113.4</ele>
        <time>2018-09-23T06:32:16Z</time>
      </trkpt>
      <trkpt lat="49.46656" lon="0.99112">
        <ele>113.4</ele>
        <time>2018-09-23T06:32:18Z</time>
      </trkpt>
      <trkpt lat="49.46655" lon="0.99093">
        <ele>113.3</ele>
        <time>2018-09-23T06:32:20Z</time>
      </trkpt>
      <trkpt lat="49.46654" lon="0.99074">
        <ele>113.4</ele>
        <time>2018-09-23T06:32:22Z</time>
      </trkpt>
      <trkpt lat="49.46654" lon="0.99056">
        <ele>113.4</ele>
        <time>2018-09-23T06:32:24Z</time>
      </trkpt>
      <trkpt lat="49.46655" lon="0.99038">
        <ele>113.5</ele>
        <time>2018-09-23T06:32:26Z</time>
      </trkpt>
      <trkpt lat="49.46655" lon="0.99021">
        <ele>113.4</ele>
        <time>2018-09-23T06:32:28Z</time>
      </trkpt>
      <trkpt lat="49.46656" lon="0.99005">
        <ele>113.5</ele>
        <time>2018-09-23T06:32:30Z</time>
      </trkpt>
      <trkpt lat="49.46658" lon="0.98988">
        <ele>113.7</ele>
        <time>2018-09-23T06:32:32Z</time>
      </trkpt>
      <trkpt lat="49.46661" lon="0.98971">
        <ele>113.8</ele>
        <time>2018-09-23T06:32:34Z</time>
      </trkpt>
      <trkpt lat="49.46664" lon="0.98954">
        <ele>113.7</ele>
        <time>2018-09-23T06:32:36Z</time>
      </trkpt>
      <trkpt lat="49.46667" lon="0.98936">
        <ele>113.6</ele>
        <time>2018-09-23T06:32:38Z</time>
      </trkpt>
      <trkpt lat="49.4667" lon="0.98917">
        <ele>113.8</ele>
        <time>2018-09-23T06:32:40Z</time>
      </trkpt>
      <trkpt lat="49.46674" lon="0.98898">
        <ele>113.6</ele>
        <time>2018-09-23T06:32:42Z</time>
      </trkpt>
      <trkpt lat="49.46677" lon="0.98879">
        <ele>113.6</ele>
        <time>2018-09-23T06:32:44Z</time>
      </trkpt>
      <trkpt lat="49.46679" lon="0.98859">
        <ele>113.6</ele>
        <time>2018-09-23T06:32:46Z</time>
      </trkpt>
      <trkpt lat="49.46682" lon="0.9884">
        <ele>113.6</ele>
        <time>2018-09-23T06:32:48Z</time>
      </trkpt>
      <trkpt lat="49.46683" lon="0.98821">
        <ele>113.6</ele>
        <time>2018-09-23T06:32:50Z</time>
      </trkpt>
      <trkpt lat="49.46683" lon="0.98802">
        <ele>113.6</ele>
        <time>2018-09-23T06:32:52Z</time>
      </trkpt>
      <trkpt lat="49.46681" lon="0.98787">
        <ele>113.8</ele>
        <time>2018-09-23T06:32:54Z</time>
      </trkpt>
      <trkpt lat="49.46672" lon="0.9877">
        <ele>113.9</ele>
        <time>2018-09-23T06:32:57Z</time>
      </trkpt>
      <trkpt lat="49.46662" lon="0.98759">
        <ele>114.3</ele>
        <time>2018-09-23T06:33:00Z</time>
      </trkpt>
      <trkpt lat="49.46653" lon="0.98745">
        <ele>114.4</ele>
        <time>2018-09-23T06:33:03Z</time>
      </trkpt>
      <trkpt lat="49.46645" lon="0.98731">
        <ele>114.6</ele>
        <time>2018-09-23T06:33:06Z</time>
      </trkpt>
      <trkpt lat="49.46636" lon="0.98717">
        <ele>115</ele>
        <time>2018-09-23T06:33:09Z</time>
      </trkpt>
      <trkpt lat="49.46627" lon="0.98703">
        <ele>115.1</ele>
        <time>2018-09-23T06:33:12Z</time>
      </trkpt>
      <trkpt lat="49.46618" lon="0.98687">
        <ele>115.3</ele>
        <time>2018-09-23T06:33:15Z</time>
      </trkpt>
      <trkpt lat="49.46613" lon="0.98676">
        <ele>115.4</ele>
        <time>2018-09-23T06:33:17Z</time>
      </trkpt>
      <trkpt lat="49.46609" lon="0.98663">
        <ele>115.5</ele>
        <time>2018-09-23T06:33:19Z</time>
      </trkpt>
      <trkpt lat="49.46605" lon="0.98649">
        <ele>115.6</ele>
        <time>2018-09-23T06:33:21Z</time>
      </trkpt>
      <trkpt lat="49.46602" lon="0.98635">
        <ele>115.7</ele>
        <time>2018-09-23T06:33:23Z</time>
      </trkpt>
      <trkpt lat="49.46598" lon="0.9862">
        <ele>115.7</ele>
        <time>2018-09-23T06:33:25Z</time>
      </trkpt>
      <trkpt lat="49.46594" lon="0.98606">
        <ele>115.8</ele>
        <time>2018-09-23T06:33:27Z</time>
      </trkpt>
      <trkpt lat="49.4659" lon="0.98593">
        <ele>115.9</ele>
        <time>2018-09-23T06:33:29Z</time>
      </trkpt>
      <trkpt lat="49.46585" lon="0.98578">
        <ele>115.9</ele>
        <time>2018-09-23T06:33:31Z</time>
      </trkpt>
      <trkpt lat="49.46579" lon="0.98566">
        <ele>115.7</ele>
        <time>2018-09-23T06:33:33Z</time>
      </trkpt>
      <trkpt lat="49.46571" lon="0.98556">
        <ele>115.7</ele>
        <time>2018-09-23T06:33:35Z</time>
      </trkpt>
      <trkpt lat="49.46563" lon="0.98547">
        <ele>115.9</ele>
        <time>2018-09-23T06:33:37Z</time>
      </trkpt>
      <trkpt lat="49.46555" lon="0.98539">
        <ele>116</ele>
        <time>2018-09-23T06:33:39Z</time>
      </trkpt>
      <trkpt lat="49.46546" lon="0.98532">
        <ele>116.1</ele>
        <time>2018-09-23T06:33:41Z</time>
      </trkpt>
      <trkpt lat="49.46537" lon="0.98526">
        <ele>116.4</ele>
        <time>2018-09-23T06:33:43Z</time>
      </trkpt>
      <trkpt lat="49.46527" lon="0.9852">
        <ele>116.5</ele>
        <time>2018-09-23T06:33:45Z</time>
      </trkpt>
      <trkpt lat="49.46518" lon="0.98513">
        <ele>116.5</ele>
        <time>2018-09-23T06:33:47Z</time>
      </trkpt>
      <trkpt lat="49.46509" lon="0.98503">
        <ele>116.6</ele>
        <time>2018-09-23T06:33:49Z</time>
      </trkpt>
      <trkpt lat="49.465" lon="0.98491">
        <ele>116.6</ele>
        <time>2018-09-23T06:33:51Z</time>
      </trkpt>
      <trkpt lat="49.46491" lon="0.9848">
        <ele>116.6</ele>
        <time>2018-09-23T06:33:53Z</time>
      </trkpt>
      <trkpt lat="49.46482" lon="0.98469">
        <ele>116.7</ele>
        <time>2018-09-23T06:33:55Z</time>
      </trkpt>
      <trkpt lat="49.46473" lon="0.98459">
        <ele>116.6</ele>
        <time>2018-09-23T06:33:57Z</time>
      </trkpt>
      <trkpt lat="49.46464" lon="0.98448">
        <ele>116.8</ele>
        <time>2018-09-23T06:33:59Z</time>
      </trkpt>
      <trkpt lat="49.46455" lon="0.98437">
        <ele>116.8</ele>
        <time>2018-09-23T06:34:01Z</time>
      </trkpt>
      <trkpt lat="49.46446" lon="0.98426">
        <ele>116.7</ele>
        <time>2018-09-23T06:34:03Z</time>
      </trkpt>
      <trkpt lat="49.46438" lon="0.98416">
        <ele>116.7</ele>
        <time>2018-09-23T06:34:05Z</time>
      </trkpt>
      <trkpt lat="49.46427" lon="0.98403">
        <ele>116.8</ele>
        <time>2018-09-23T06:34:08Z</time>
      </trkpt>
      <trkpt lat="49.46417" lon="0.98392">
        <ele>116.8</ele>
        <time>2018-09-23T06:34:10Z</time>
      </trkpt>
      <trkpt lat="49.46406" lon="0.98385">
        <ele>116.8</ele>
        <time>2018-09-23T06:34:12Z</time>
      </trkpt>
      <trkpt lat="49.46395" lon="0.98374">
        <ele>116.7</ele>
        <time>2018-09-23T06:34:14Z</time>
      </trkpt>
      <trkpt lat="49.46387" lon="0.98363">
        <ele>116.7</ele>
        <time>2018-09-23T06:34:16Z</time>
      </trkpt>
      <trkpt lat="49.46377" lon="0.98349">
        <ele>116.4</ele>
        <time>2018-09-23T06:34:19Z</time>
      </trkpt>
      <trkpt lat="49.46368" lon="0.98339">
        <ele>116.4</ele>
        <time>2018-09-23T06:34:21Z</time>
      </trkpt>
      <trkpt lat="49.46359" lon="0.98335">
        <ele>116.4</ele>
        <time>2018-09-23T06:34:23Z</time>
      </trkpt>
      <trkpt lat="49.46351" lon="0.98322">
        <ele>116.2</ele>
        <time>2018-09-23T06:34:26Z</time>
      </trkpt>
      <trkpt lat="49.46342" lon="0.98314">
        <ele>116.2</ele>
        <time>2018-09-23T06:34:28Z</time>
      </trkpt>
      <trkpt lat="49.46332" lon="0.98303">
        <ele>115.9</ele>
        <time>2018-09-23T06:34:32Z</time>
      </trkpt>
      <trkpt lat="49.46342" lon="0.9831">
        <ele>115.7</ele>
        <time>2018-09-23T06:34:39Z</time>
      </trkpt>
      <trkpt lat="49.46353" lon="0.98302">
        <ele>114.8</ele>
        <time>2018-09-23T06:34:51Z</time>
      </trkpt>
      <trkpt lat="49.46363" lon="0.98296">
        <ele>114.4</ele>
        <time>2018-09-23T06:34:54Z</time>
      </trkpt>
      <trkpt lat="49.46375" lon="0.98285">
        <ele>113.6</ele>
        <time>2018-09-23T06:34:57Z</time>
      </trkpt>
      <trkpt lat="49.46382" lon="0.9827">
        <ele>113</ele>
        <time>2018-09-23T06:35:00Z</time>
      </trkpt>
      <trkpt lat="49.46384" lon="0.98255">
        <ele>112.3</ele>
        <time>2018-09-23T06:35:03Z</time>
      </trkpt>
      <trkpt lat="49.4639" lon="0.98241">
        <ele>110.5</ele>
        <time>2018-09-23T06:35:08Z</time>
      </trkpt>
      <trkpt lat="49.46393" lon="0.98226">
        <ele>109.2</ele>
        <time>2018-09-23T06:35:11Z</time>
      </trkpt>
      <trkpt lat="49.46396" lon="0.98212">
        <ele>107.7</ele>
        <time>2018-09-23T06:35:15Z</time>
      </trkpt>
      <trkpt lat="49.46397" lon="0.98193">
        <ele>106.6</ele>
        <time>2018-09-23T06:35:18Z</time>
      </trkpt>
      <trkpt lat="49.46395" lon="0.98176">
        <ele>105.6</ele>
        <time>2018-09-23T06:35:21Z</time>
      </trkpt>
      <trkpt lat="49.46396" lon="0.9816">
        <ele>103.7</ele>
        <time>2018-09-23T06:35:24Z</time>
      </trkpt>
      <trkpt lat="49.46397" lon="0.98145">
        <ele>102.1</ele>
        <time>2018-09-23T06:35:27Z</time>
      </trkpt>
      <trkpt lat="49.46399" lon="0.98129">
        <ele>100.7</ele>
        <time>2018-09-23T06:35:30Z</time>
      </trkpt>
      <trkpt lat="49.46399" lon="0.98111">
        <ele>99.5</ele>
        <time>2018-09-23T06:35:33Z</time>
      </trkpt>
      <trkpt lat="49.46398" lon="0.98094">
        <ele>97.8</ele>
        <time>2018-09-23T06:35:36Z</time>
      </trkpt>
      <trkpt lat="49.464" lon="0.98075">
        <ele>96.2</ele>
        <time>2018-09-23T06:35:39Z</time>
      </trkpt>
      <trkpt lat="49.46402" lon="0.9806">
        <ele>95.1</ele>
        <time>2018-09-23T06:35:41Z</time>
      </trkpt>
      <trkpt lat="49.46404" lon="0.98044">
        <ele>93.9</ele>
        <time>2018-09-23T06:35:44Z</time>
      </trkpt>
      <trkpt lat="49.46407" lon="0.98027">
        <ele>92.9</ele>
        <time>2018-09-23T06:35:47Z</time>
      </trkpt>
      <trkpt lat="49.46413" lon="0.98013">
        <ele>91.9</ele>
        <time>2018-09-23T06:35:50Z</time>
      </trkpt>
      <trkpt lat="49.46418" lon="0.98">
        <ele>90.6</ele>
        <time>2018-09-23T06:35:54Z</time>
      </trkpt>
      <trkpt lat="49.46424" lon="0.97987">
        <ele>88.8</ele>
        <time>2018-09-23T06:35:58Z</time>
      </trkpt>
      <trkpt lat="49.46431" lon="0.97974">
        <ele>87.9</ele>
        <time>2018-09-23T06:36:02Z</time>
      </trkpt>
      <trkpt lat="49.46439" lon="0.9796">
        <ele>86.8</ele>
        <time>2018-09-23T06:36:06Z</time>
      </trkpt>
      <trkpt lat="49.46445" lon="0.97947">
        <ele>86</ele>
        <time>2018-09-23T06:36:09Z</time>
      </trkpt>
      <trkpt lat="49.46452" lon="0.97931">
        <ele>85.4</ele>
        <time>2018-09-23T06:36:12Z</time>
      </trkpt>
      <trkpt lat="49.46457" lon="0.97914">
        <ele>84.5</ele>
        <time>2018-09-23T06:36:15Z</time>
      </trkpt>
      <trkpt lat="49.46461" lon="0.97901">
        <ele>83.7</ele>
        <time>2018-09-23T06:36:17Z</time>
      </trkpt>
      <trkpt lat="49.46467" lon="0.97886">
        <ele>82.8</ele>
        <time>2018-09-23T06:36:20Z</time>
      </trkpt>
      <trkpt lat="49.46475" lon="0.97875">
        <ele>81.8</ele>
        <time>2018-09-23T06:36:23Z</time>
      </trkpt>
      <trkpt lat="49.46481" lon="0.97862">
        <ele>81.1</ele>
        <time>2018-09-23T06:36:25Z</time>
      </trkpt>
      <trkpt lat="49.46488" lon="0.97851">
        <ele>80.4</ele>
        <time>2018-09-23T06:36:27Z</time>
      </trkpt>
      <trkpt lat="49.46495" lon="0.97837">
        <ele>79.4</ele>
        <time>2018-09-23T06:36:30Z</time>
      </trkpt>
      <trkpt lat="49.465" lon="0.97823">
        <ele>78.4</ele>
        <time>2018-09-23T06:36:33Z</time>
      </trkpt>
      <trkpt lat="49.46504" lon="0.97805">
        <ele>77.1</ele>
        <time>2018-09-23T06:36:36Z</time>
      </trkpt>
      <trkpt lat="49.46508" lon="0.97786">
        <ele>75.4</ele>
        <time>2018-09-23T06:36:40Z</time>
      </trkpt>
      <trkpt lat="49.46514" lon="0.97772">
        <ele>74.3</ele>
        <time>2018-09-23T06:36:43Z</time>
      </trkpt>
      <trkpt lat="49.46517" lon="0.97756">
        <ele>73.1</ele>
        <time>2018-09-23T06:36:46Z</time>
      </trkpt>
      <trkpt lat="49.46521" lon="0.9774">
        <ele>72.1</ele>
        <time>2018-09-23T06:36:49Z</time>
      </trkpt>
      <trkpt lat="49.46525" lon="0.97724">
        <ele>71.1</ele>
        <time>2018-09-23T06:36:52Z</time>
      </trkpt>
      <trkpt lat="49.4653" lon="0.97708">
        <ele>70.2</ele>
        <time>2018-09-23T06:36:55Z</time>
      </trkpt>
      <trkpt lat="49.46533" lon="0.97692">
        <ele>69</ele>
        <time>2018-09-23T06:36:58Z</time>
      </trkpt>
      <trkpt lat="49.46539" lon="0.97679">
        <ele>67.8</ele>
        <time>2018-09-23T06:37:02Z</time>
      </trkpt>
      <trkpt lat="49.46543" lon="0.9766">
        <ele>66.2</ele>
        <time>2018-09-23T06:37:06Z</time>
      </trkpt>
      <trkpt lat="49.46553" lon="0.97648">
        <ele>65.4</ele>
        <time>2018-09-23T06:37:09Z</time>
      </trkpt>
      <trkpt lat="49.4656" lon="0.97637">
        <ele>64.1</ele>
        <time>2018-09-23T06:37:12Z</time>
      </trkpt>
      <trkpt lat="49.46568" lon="0.97627">
        <ele>63.4</ele>
        <time>2018-09-23T06:37:14Z</time>
      </trkpt>
      <trkpt lat="49.46576" lon="0.97612">
        <ele>61.7</ele>
        <time>2018-09-23T06:37:17Z</time>
      </trkpt>
      <trkpt lat="49.4658" lon="0.97598">
        <ele>60.4</ele>
        <time>2018-09-23T06:37:20Z</time>
      </trkpt>
      <trkpt lat="49.46582" lon="0.97584">
        <ele>59.1</ele>
        <time>2018-09-23T06:37:23Z</time>
      </trkpt>
      <trkpt lat="49.46585" lon="0.97569">
        <ele>57.6</ele>
        <time>2018-09-23T06:37:26Z</time>
      </trkpt>
      <trkpt lat="49.4659" lon="0.97556">
        <ele>56.7</ele>
        <time>2018-09-23T06:37:29Z</time>
      </trkpt>
      <trkpt lat="49.46585" lon="0.97543">
        <ele>55.4</ele>
        <time>2018-09-23T06:37:33Z</time>
      </trkpt>
      <trkpt lat="49.46573" lon="0.97536">
        <ele>54.8</ele>
        <time>2018-09-23T06:37:36Z</time>
      </trkpt>
      <trkpt lat="49.46563" lon="0.97531">
        <ele>54.1</ele>
        <time>2018-09-23T06:37:38Z</time>
      </trkpt>
      <trkpt lat="49.46553" lon="0.97529">
        <ele>53.4</ele>
        <time>2018-09-23T06:37:40Z</time>
      </trkpt>
      <trkpt lat="49.46541" lon="0.97524">
        <ele>52.9</ele>
        <time>2018-09-23T06:37:42Z</time>
      </trkpt>
      <trkpt lat="49.4653" lon="0.97518">
        <ele>52.5</ele>
        <time>2018-09-23T06:37:44Z</time>
      </trkpt>
      <trkpt lat="49.46518" lon="0.97512">
        <ele>52.1</ele>
        <time>2018-09-23T06:37:46Z</time>
      </trkpt>
      <trkpt lat="49.46507" lon="0.97507">
        <ele>51.4</ele>
        <time>2018-09-23T06:37:48Z</time>
      </trkpt>
      <trkpt lat="49.46496" lon="0.97499">
        <ele>51</ele>
        <time>2018-09-23T06:37:50Z</time>
      </trkpt>
      <trkpt lat="49.46486" lon="0.97488">
        <ele>50.6</ele>
        <time>2018-09-23T06:37:52Z</time>
      </trkpt>
      <trkpt lat="49.46476" lon="0.97477">
        <ele>50.4</ele>
        <time>2018-09-23T06:37:54Z</time>
      </trkpt>
      <trkpt lat="49.46468" lon="0.97464">
        <ele>50.2</ele>
        <time>2018-09-23T06:37:56Z</time>
      </trkpt>
      <trkpt lat="49.46461" lon="0.97453">
        <ele>50.1</ele>
        <time>2018-09-23T06:37:58Z</time>
      </trkpt>
      <trkpt lat="49.46452" lon="0.9744">
        <ele>49.8</ele>
        <time>2018-09-23T06:38:00Z</time>
      </trkpt>
      <trkpt lat="49.46445" lon="0.97427">
        <ele>49.6</ele>
        <time>2018-09-23T06:38:02Z</time>
      </trkpt>
      <trkpt lat="49.46435" lon="0.97411">
        <ele>49.3</ele>
        <time>2018-09-23T06:38:04Z</time>
      </trkpt>
      <trkpt lat="49.46424" lon="0.97394">
        <ele>49</ele>
        <time>2018-09-23T06:38:06Z</time>
      </trkpt>
      <trkpt lat="49.46415" lon="0.9738">
        <ele>48.8</ele>
        <time>2018-09-23T06:38:08Z</time>
      </trkpt>
      <trkpt lat="49.46407" lon="0.97369">
        <ele>48.6</ele>
        <time>2018-09-23T06:38:11Z</time>
      </trkpt>
      <trkpt lat="49.46408" lon="0.97354">
        <ele>47.9</ele>
        <time>2018-09-23T06:38:18Z</time>
      </trkpt>
      <trkpt lat="49.46412" lon="0.97341">
        <ele>47.4</ele>
        <time>2018-09-23T06:38:25Z</time>
      </trkpt>
      <trkpt lat="49.46416" lon="0.97324">
        <ele>47.2</ele>
        <time>2018-09-23T06:38:30Z</time>
      </trkpt>
      <trkpt lat="49.46419" lon="0.97311">
        <ele>47.3</ele>
        <time>2018-09-23T06:38:34Z</time>
      </trkpt>
      <trkpt lat="49.46424" lon="0.97298">
        <ele>47.6</ele>
        <time>2018-09-23T06:38:38Z</time>
      </trkpt>
      <trkpt lat="49.46432" lon="0.97291">
        <ele>48</ele>
        <time>2018-09-23T06:38:41Z</time>
      </trkpt>
      <trkpt lat="49.46437" lon="0.97279">
        <ele>48.4</ele>
        <time>2018-09-23T06:38:45Z</time>
      </trkpt>
      <trkpt lat="49.46443" lon="0.97267">
        <ele>48.8</ele>
        <time>2018-09-23T06:38:49Z</time>
      </trkpt>
      <trkpt lat="49.46452" lon="0.97258">
        <ele>49.3</ele>
        <time>2018-09-23T06:38:52Z</time>
      </trkpt>
      <trkpt lat="49.46459" lon="0.97248">
        <ele>49.7</ele>
        <time>2018-09-23T06:38:56Z</time>
      </trkpt>
      <trkpt lat="49.46464" lon="0.97236">
        <ele>50.4</ele>
        <time>2018-09-23T06:39:00Z</time>
      </trkpt>
      <trkpt lat="49.46469" lon="0.97224">
        <ele>51.2</ele>
        <time>2018-09-23T06:39:04Z</time>
      </trkpt>
      <trkpt lat="49.46475" lon="0.97211">
        <ele>52.1</ele>
        <time>2018-09-23T06:39:09Z</time>
      </trkpt>
      <trkpt lat="49.4648" lon="0.972">
        <ele>52.5</ele>
        <time>2018-09-23T06:39:13Z</time>
      </trkpt>
      <trkpt lat="49.46484" lon="0.97187">
        <ele>52.9</ele>
        <time>2018-09-23T06:39:18Z</time>
      </trkpt>
      <trkpt lat="49.4649" lon="0.97174">
        <ele>53.5</ele>
        <time>2018-09-23T06:39:23Z</time>
      </trkpt>
      <trkpt lat="49.46496" lon="0.97162">
        <ele>54.1</ele>
        <time>2018-09-23T06:39:28Z</time>
      </trkpt>
      <trkpt lat="49.46503" lon="0.97149">
        <ele>54.7</ele>
        <time>2018-09-23T06:39:33Z</time>
      </trkpt>
      <trkpt lat="49.46509" lon="0.97136">
        <ele>55.7</ele>
        <time>2018-09-23T06:39:38Z</time>
      </trkpt>
      <trkpt lat="49.46516" lon="0.97124">
        <ele>56.8</ele>
        <time>2018-09-23T06:39:43Z</time>
      </trkpt>
      <trkpt lat="49.46522" lon="0.97108">
        <ele>57.6</ele>
        <time>2018-09-23T06:39:48Z</time>
      </trkpt>
      <trkpt lat="49.46529" lon="0.97096">
        <ele>58.5</ele>
        <time>2018-09-23T06:39:52Z</time>
      </trkpt>
      <trkpt lat="49.46533" lon="0.97082">
        <ele>59.2</ele>
        <time>2018-09-23T06:39:56Z</time>
      </trkpt>
      <trkpt lat="49.46536" lon="0.97066">
        <ele>59.8</ele>
        <time>2018-09-23T06:40:01Z</time>
      </trkpt>
      <trkpt lat="49.4654" lon="0.97053">
        <ele>60.8</ele>
        <time>2018-09-23T06:40:05Z</time>
      </trkpt>
      <trkpt lat="49.46547" lon="0.97038">
        <ele>61.7</ele>
        <time>2018-09-23T06:40:10Z</time>
      </trkpt>
      <trkpt lat="49.46551" lon="0.97024">
        <ele>63</ele>
        <time>2018-09-23T06:40:17Z</time>
      </trkpt>
      <trkpt lat="49.46558" lon="0.97011">
        <ele>63.7</ele>
        <time>2018-09-23T06:40:22Z</time>
      </trkpt>
      <trkpt lat="49.46565" lon="0.96997">
        <ele>64.7</ele>
        <time>2018-09-23T06:40:27Z</time>
      </trkpt>
      <trkpt lat="49.4657" lon="0.96982">
        <ele>65.4</ele>
        <time>2018-09-23T06:40:31Z</time>
      </trkpt>
      <trkpt lat="49.46577" lon="0.96969">
        <ele>65.9</ele>
        <time>2018-09-23T06:40:35Z</time>
      </trkpt>
      <trkpt lat="49.46579" lon="0.96952">
        <ele>66.7</ele>
        <time>2018-09-23T06:40:39Z</time>
      </trkpt>
      <trkpt lat="49.46577" lon="0.96936">
        <ele>67.4</ele>
        <time>2018-09-23T06:40:44Z</time>
      </trkpt>
      <trkpt lat="49.46572" lon="0.96924">
        <ele>68.2</ele>
        <time>2018-09-23T06:40:49Z</time>
      </trkpt>
      <trkpt lat="49.46573" lon="0.9691">
        <ele>69.2</ele>
        <time>2018-09-23T06:40:55Z</time>
      </trkpt>
      <trkpt lat="49.4658" lon="0.96897">
        <ele>70.3</ele>
        <time>2018-09-23T06:41:02Z</time>
      </trkpt>
      <trkpt lat="49.46588" lon="0.9689">
        <ele>70.5</ele>
        <time>2018-09-23T06:41:06Z</time>
      </trkpt>
      <trkpt lat="49.46594" lon="0.96879">
        <ele>71.2</ele>
        <time>2018-09-23T06:41:11Z</time>
      </trkpt>
      <trkpt lat="49.466" lon="0.96867">
        <ele>71.7</ele>
        <time>2018-09-23T06:41:16Z</time>
      </trkpt>
      <trkpt lat="49.46604" lon="0.96854">
        <ele>72.5</ele>
        <time>2018-09-23T06:41:21Z</time>
      </trkpt>
      <trkpt lat="49.46606" lon="0.9684">
        <ele>73.4</ele>
        <time>2018-09-23T06:41:26Z</time>
      </trkpt>
      <trkpt lat="49.46614" lon="0.96832">
        <ele>74.2</ele>
        <time>2018-09-23T06:41:33Z</time>
      </trkpt>
      <trkpt lat="49.46621" lon="0.9682">
        <ele>75.3</ele>
        <time>2018-09-23T06:41:40Z</time>
      </trkpt>
      <trkpt lat="49.46626" lon="0.96808">
        <ele>76</ele>
        <time>2018-09-23T06:41:46Z</time>
      </trkpt>
      <trkpt lat="49.46624" lon="0.96794">
        <ele>76.6</ele>
        <time>2018-09-23T06:41:53Z</time>
      </trkpt>
      <trkpt lat="49.46622" lon="0.9678">
        <ele>76.7</ele>
        <time>2018-09-23T06:42:00Z</time>
      </trkpt>
      <trkpt lat="49.46626" lon="0.96765">
        <ele>77.7</ele>
        <time>2018-09-23T06:42:07Z</time>
      </trkpt>
      <trkpt lat="49.46633" lon="0.96757">
        <ele>78.1</ele>
        <time>2018-09-23T06:42:13Z</time>
      </trkpt>
      <trkpt lat="49.46642" lon="0.96749">
        <ele>78.3</ele>
        <time>2018-09-23T06:42:19Z</time>
      </trkpt>
      <trkpt lat="49.46651" lon="0.96742">
        <ele>78.3</ele>
        <time>2018-09-23T06:42:24Z</time>
      </trkpt>
      <trkpt lat="49.46659" lon="0.96735">
        <ele>78.7</ele>
        <time>2018-09-23T06:42:29Z</time>
      </trkpt>
      <trkpt lat="49.46667" lon="0.96725">
        <ele>79.7</ele>
        <time>2018-09-23T06:42:35Z</time>
      </trkpt>
      <trkpt lat="49.46677" lon="0.9672">
        <ele>79.8</ele>
        <time>2018-09-23T06:42:43Z</time>
      </trkpt>
      <trkpt lat="49.46685" lon="0.96711">
        <ele>80.3</ele>
        <time>2018-09-23T06:42:49Z</time>
      </trkpt>
      <trkpt lat="49.46693" lon="0.96703">
        <ele>81.2</ele>
        <time>2018-09-23T06:42:54Z</time>
      </trkpt>
      <trkpt lat="49.46703" lon="0.96698">
        <ele>82</ele>
        <time>2018-09-23T06:42:58Z</time>
      </trkpt>
      <trkpt lat="49.4671" lon="0.96687">
        <ele>82.4</ele>
        <time>2018-09-23T06:43:02Z</time>
      </trkpt>
      <trkpt lat="49.46715" lon="0.96673">
        <ele>82</ele>
        <time>2018-09-23T06:43:07Z</time>
      </trkpt>
      <trkpt lat="49.46722" lon="0.96651">
        <ele>83</ele>
        <time>2018-09-23T06:43:15Z</time>
      </trkpt>
      <trkpt lat="49.46725" lon="0.96636">
        <ele>84.3</ele>
        <time>2018-09-23T06:43:20Z</time>
      </trkpt>
      <trkpt lat="49.46724" lon="0.9662">
        <ele>84.9</ele>
        <time>2018-09-23T06:43:25Z</time>
      </trkpt>
      <trkpt lat="49.46727" lon="0.96606">
        <ele>86</ele>
        <time>2018-09-23T06:43:30Z</time>
      </trkpt>
      <trkpt lat="49.46728" lon="0.9659">
        <ele>86.9</ele>
        <time>2018-09-23T06:43:35Z</time>
      </trkpt>
      <trkpt lat="49.46729" lon="0.96574">
        <ele>88</ele>
        <time>2018-09-23T06:43:41Z</time>
      </trkpt>
      <trkpt lat="49.46729" lon="0.96558">
        <ele>89.1</ele>
        <time>2018-09-23T06:43:47Z</time>
      </trkpt>
      <trkpt lat="49.4673" lon="0.96543">
        <ele>89.8</ele>
        <time>2018-09-23T06:43:52Z</time>
      </trkpt>
      <trkpt lat="49.46734" lon="0.96529">
        <ele>90.7</ele>
        <time>2018-09-23T06:43:57Z</time>
      </trkpt>
      <trkpt lat="49.46741" lon="0.96519">
        <ele>91.4</ele>
        <time>2018-09-23T06:44:03Z</time>
      </trkpt>
      <trkpt lat="49.46748" lon="0.96509">
        <ele>93</ele>
        <time>2018-09-23T06:44:10Z</time>
      </trkpt>
      <trkpt lat="49.46756" lon="0.965">
        <ele>94.9</ele>
        <time>2018-09-23T06:44:18Z</time>
      </trkpt>
      <trkpt lat="49.46763" lon="0.9649">
        <ele>97.2</ele>
        <time>2018-09-23T06:44:28Z</time>
      </trkpt>
      <trkpt lat="49.46768" lon="0.96477">
        <ele>101.5</ele>
        <time>2018-09-23T06:44:37Z</time>
      </trkpt>
      <trkpt lat="49.46774" lon="0.96465">
        <ele>107.1</ele>
        <time>2018-09-23T06:44:45Z</time>
      </trkpt>
      <trkpt lat="49.46781" lon="0.96456">
        <ele>111.3</ele>
        <time>2018-09-23T06:44:53Z</time>
      </trkpt>
      <trkpt lat="49.46788" lon="0.96447">
        <ele>114.3</ele>
        <time>2018-09-23T06:45:01Z</time>
      </trkpt>
      <trkpt lat="49.46795" lon="0.96438">
        <ele>115.9</ele>
        <time>2018-09-23T06:45:07Z</time>
      </trkpt>
      <trkpt lat="49.46802" lon="0.96429">
        <ele>117.5</ele>
        <time>2018-09-23T06:45:14Z</time>
      </trkpt>
      <trkpt lat="49.4681" lon="0.96417">
        <ele>118</ele>
        <time>2018-09-23T06:45:20Z</time>
      </trkpt>
      <trkpt lat="49.46818" lon="0.96409">
        <ele>119.9</ele>
        <time>2018-09-23T06:45:25Z</time>
      </trkpt>
      <trkpt lat="49.46824" lon="0.96398">
        <ele>120.8</ele>
        <time>2018-09-23T06:45:30Z</time>
      </trkpt>
      <trkpt lat="49.46833" lon="0.96387">
        <ele>121.5</ele>
        <time>2018-09-23T06:45:35Z</time>
      </trkpt>
      <trkpt lat="49.46842" lon="0.96377">
        <ele>122.4</ele>
        <time>2018-09-23T06:45:40Z</time>
      </trkpt>
      <trkpt lat="49.46855" lon="0.96365">
        <ele>123.6</ele>
        <time>2018-09-23T06:45:47Z</time>
      </trkpt>
      <trkpt lat="49.46863" lon="0.96352">
        <ele>124.4</ele>
        <time>2018-09-23T06:45:51Z</time>
      </trkpt>
      <trkpt lat="49.46873" lon="0.96341">
        <ele>125</ele>
        <time>2018-09-23T06:45:55Z</time>
      </trkpt>
      <trkpt lat="49.46882" lon="0.96329">
        <ele>125.2</ele>
        <time>2018-09-23T06:45:59Z</time>
      </trkpt>
      <trkpt lat="49.4689" lon="0.96319">
        <ele>125.6</ele>
        <time>2018-09-23T06:46:02Z</time>
      </trkpt>
      <trkpt lat="49.46897" lon="0.96305">
        <ele>126</ele>
        <time>2018-09-23T06:46:06Z</time>
      </trkpt>
      <trkpt lat="49.46904" lon="0.96296">
        <ele>126.3</ele>
        <time>2018-09-23T06:46:09Z</time>
      </trkpt>
      <trkpt lat="49.46913" lon="0.96285">
        <ele>126.6</ele>
        <time>2018-09-23T06:46:12Z</time>
      </trkpt>
      <trkpt lat="49.46921" lon="0.96271">
        <ele>126.9</ele>
        <time>2018-09-23T06:46:15Z</time>
      </trkpt>
      <trkpt lat="49.46928" lon="0.96257">
        <ele>127.1</ele>
        <time>2018-09-23T06:46:18Z</time>
      </trkpt>
      <trkpt lat="49.46936" lon="0.96246">
        <ele>127.5</ele>
        <time>2018-09-23T06:46:21Z</time>
      </trkpt>
      <trkpt lat="49.46945" lon="0.96233">
        <ele>127.9</ele>
        <time>2018-09-23T06:46:25Z</time>
      </trkpt>
      <trkpt lat="49.46953" lon="0.96224">
        <ele>128</ele>
        <time>2018-09-23T06:46:28Z</time>
      </trkpt>
      <trkpt lat="49.46962" lon="0.96212">
        <ele>128.5</ele>
        <time>2018-09-23T06:46:31Z</time>
      </trkpt>
      <trkpt lat="49.46971" lon="0.96202">
        <ele>128.8</ele>
        <time>2018-09-23T06:46:34Z</time>
      </trkpt>
      <trkpt lat="49.46985" lon="0.962">
        <ele>129</ele>
        <time>2018-09-23T06:46:38Z</time>
      </trkpt>
      <trkpt lat="49.46996" lon="0.962">
        <ele>129.2</ele>
        <time>2018-09-23T06:46:41Z</time>
      </trkpt>
      <trkpt lat="49.47009" lon="0.96197">
        <ele>129.4</ele>
        <time>2018-09-23T06:46:44Z</time>
      </trkpt>
      <trkpt lat="49.47021" lon="0.962">
        <ele>129.5</ele>
        <time>2018-09-23T06:46:46Z</time>
      </trkpt>
      <trkpt lat="49.47032" lon="0.96201">
        <ele>129.6</ele>
        <time>2018-09-23T06:46:48Z</time>
      </trkpt>
      <trkpt lat="49.47042" lon="0.96202">
        <ele>129.6</ele>
        <time>2018-09-23T06:46:50Z</time>
      </trkpt>
      <trkpt lat="49.47052" lon="0.96202">
        <ele>129.8</ele>
        <time>2018-09-23T06:46:52Z</time>
      </trkpt>
      <trkpt lat="49.47063" lon="0.96203">
        <ele>129.8</ele>
        <time>2018-09-23T06:46:54Z</time>
      </trkpt>
      <trkpt lat="49.47073" lon="0.96203">
        <ele>129.8</ele>
        <time>2018-09-23T06:46:56Z</time>
      </trkpt>
      <trkpt lat="49.47083" lon="0.96204">
        <ele>130</ele>
        <time>2018-09-23T06:46:58Z</time>
      </trkpt>
      <trkpt lat="49.47094" lon="0.96204">
        <ele>130.1</ele>
        <time>2018-09-23T06:47:00Z</time>
      </trkpt>
      <trkpt lat="49.47104" lon="0.96204">
        <ele>130.2</ele>
        <time>2018-09-23T06:47:02Z</time>
      </trkpt>
      <trkpt lat="49.47114" lon="0.96205">
        <ele>130.3</ele>
        <time>2018-09-23T06:47:04Z</time>
      </trkpt>
      <trkpt lat="49.47123" lon="0.96205">
        <ele>130.2</ele>
        <time>2018-09-23T06:47:06Z</time>
      </trkpt>
      <trkpt lat="49.47133" lon="0.96206">
        <ele>130.3</ele>
        <time>2018-09-23T06:47:08Z</time>
      </trkpt>
      <trkpt lat="49.47142" lon="0.96207">
        <ele>130.6</ele>
        <time>2018-09-23T06:47:10Z</time>
      </trkpt>
      <trkpt lat="49.47153" lon="0.96206">
        <ele>130.8</ele>
        <time>2018-09-23T06:47:12Z</time>
      </trkpt>
      <trkpt lat="49.47163" lon="0.96206">
        <ele>130.8</ele>
        <time>2018-09-23T06:47:14Z</time>
      </trkpt>
      <trkpt lat="49.47173" lon="0.96207">
        <ele>130.8</ele>
        <time>2018-09-23T06:47:16Z</time>
      </trkpt>
      <trkpt lat="49.47183" lon="0.96208">
        <ele>130.5</ele>
        <time>2018-09-23T06:47:18Z</time>
      </trkpt>
      <trkpt lat="49.47193" lon="0.96209">
        <ele>130.6</ele>
        <time>2018-09-23T06:47:20Z</time>
      </trkpt>
      <trkpt lat="49.47202" lon="0.9621">
        <ele>130.6</ele>
        <time>2018-09-23T06:47:22Z</time>
      </trkpt>
      <trkpt lat="49.47212" lon="0.9621">
        <ele>130.4</ele>
        <time>2018-09-23T06:47:24Z</time>
      </trkpt>
      <trkpt lat="49.47222" lon="0.96211">
        <ele>130.3</ele>
        <time>2018-09-23T06:47:26Z</time>
      </trkpt>
      <trkpt lat="49.47232" lon="0.96211">
        <ele>130.4</ele>
        <time>2018-09-23T06:47:28Z</time>
      </trkpt>
      <trkpt lat="49.47244" lon="0.96202">
        <ele>130.4</ele>
        <time>2018-09-23T06:47:31Z</time>
      </trkpt>
      <trkpt lat="49.47251" lon="0.96191">
        <ele>130.4</ele>
        <time>2018-09-23T06:47:33Z</time>
      </trkpt>
      <trkpt lat="49.47258" lon="0.96179">
        <ele>130.4</ele>
        <time>2018-09-23T06:47:35Z</time>
      </trkpt>
      <trkpt lat="49.47264" lon="0.96166">
        <ele>130.3</ele>
        <time>2018-09-23T06:47:37Z</time>
      </trkpt>
      <trkpt lat="49.47272" lon="0.96154">
        <ele>130.4</ele>
        <time>2018-09-23T06:47:39Z</time>
      </trkpt>
      <trkpt lat="49.47281" lon="0.96142">
        <ele>130.4</ele>
        <time>2018-09-23T06:47:41Z</time>
      </trkpt>
      <trkpt lat="49.4729" lon="0.96131">
        <ele>130.4</ele>
        <time>2018-09-23T06:47:43Z</time>
      </trkpt>
      <trkpt lat="49.47299" lon="0.96119">
        <ele>130.3</ele>
        <time>2018-09-23T06:47:45Z</time>
      </trkpt>
      <trkpt lat="49.47309" lon="0.96107">
        <ele>130.2</ele>
        <time>2018-09-23T06:47:47Z</time>
      </trkpt>
      <trkpt lat="49.47319" lon="0.96096">
        <ele>130.1</ele>
        <time>2018-09-23T06:47:49Z</time>
      </trkpt>
      <trkpt lat="49.47329" lon="0.96085">
        <ele>130.1</ele>
        <time>2018-09-23T06:47:51Z</time>
      </trkpt>
      <trkpt lat="49.4734" lon="0.96074">
        <ele>129.9</ele>
        <time>2018-09-23T06:47:53Z</time>
      </trkpt>
      <trkpt lat="49.47352" lon="0.96063">
        <ele>129.8</ele>
        <time>2018-09-23T06:47:55Z</time>
      </trkpt>
      <trkpt lat="49.47363" lon="0.96052">
        <ele>129.7</ele>
        <time>2018-09-23T06:47:57Z</time>
      </trkpt>
      <trkpt lat="49.47375" lon="0.96042">
        <ele>129.7</ele>
        <time>2018-09-23T06:47:59Z</time>
      </trkpt>
      <trkpt lat="49.47387" lon="0.96032">
        <ele>129.7</ele>
        <time>2018-09-23T06:48:01Z</time>
      </trkpt>
      <trkpt lat="49.47398" lon="0.96023">
        <ele>129.7</ele>
        <time>2018-09-23T06:48:03Z</time>
      </trkpt>
      <trkpt lat="49.4741" lon="0.96013">
        <ele>129.6</ele>
        <time>2018-09-23T06:48:05Z</time>
      </trkpt>
      <trkpt lat="49.47422" lon="0.96002">
        <ele>129.7</ele>
        <time>2018-09-23T06:48:07Z</time>
      </trkpt>
      <trkpt lat="49.47435" lon="0.95993">
        <ele>129.6</ele>
        <time>2018-09-23T06:48:09Z</time>
      </trkpt>
      <trkpt lat="49.47447" lon="0.95983">
        <ele>129.4</ele>
        <time>2018-09-23T06:48:11Z</time>
      </trkpt>
      <trkpt lat="49.47459" lon="0.95972">
        <ele>129.2</ele>
        <time>2018-09-23T06:48:13Z</time>
      </trkpt>
      <trkpt lat="49.47471" lon="0.95962">
        <ele>129.3</ele>
        <time>2018-09-23T06:48:15Z</time>
      </trkpt>
      <trkpt lat="49.47483" lon="0.95952">
        <ele>129</ele>
        <time>2018-09-23T06:48:17Z</time>
      </trkpt>
      <trkpt lat="49.47494" lon="0.95942">
        <ele>128.9</ele>
        <time>2018-09-23T06:48:19Z</time>
      </trkpt>
      <trkpt lat="49.47506" lon="0.95934">
        <ele>128.8</ele>
        <time>2018-09-23T06:48:21Z</time>
      </trkpt>
      <trkpt lat="49.47516" lon="0.95927">
        <ele>128.8</ele>
        <time>2018-09-23T06:48:23Z</time>
      </trkpt>
      <trkpt lat="49.47527" lon="0.95921">
        <ele>128.9</ele>
        <time>2018-09-23T06:48:25Z</time>
      </trkpt>
      <trkpt lat="49.47537" lon="0.95915">
        <ele>129</ele>
        <time>2018-09-23T06:48:27Z</time>
      </trkpt>
      <trkpt lat="49.47547" lon="0.95909">
        <ele>129.1</ele>
        <time>2018-09-23T06:48:29Z</time>
      </trkpt>
      <trkpt lat="49.47549" lon="0.95893">
        <ele>129.1</ele>
        <time>2018-09-23T06:48:32Z</time>
      </trkpt>
      <trkpt lat="49.47539" lon="0.95879">
        <ele>128.9</ele>
        <time>2018-09-23T06:48:35Z</time>
      </trkpt>
      <trkpt lat="49.47528" lon="0.95868">
        <ele>128.7</ele>
        <time>2018-09-23T06:48:38Z</time>
      </trkpt>
      <trkpt lat="49.4752" lon="0.95862">
        <ele>128.4</ele>
        <time>2018-09-23T06:48:41Z</time>
      </trkpt>
      <trkpt lat="49.47511" lon="0.95856">
        <ele>127.5</ele>
        <time>2018-09-23T06:48:54Z</time>
      </trkpt>
      <trkpt lat="49.47521" lon="0.95863">
        <ele>126.9</ele>
        <time>2018-09-23T06:49:01Z</time>
      </trkpt>
      <trkpt lat="49.47531" lon="0.95871">
        <ele>126.7</ele>
        <time>2018-09-23T06:49:04Z</time>
      </trkpt>
      <trkpt lat="49.47538" lon="0.95879">
        <ele>126.5</ele>
        <time>2018-09-23T06:49:06Z</time>
      </trkpt>
      <trkpt lat="49.47548" lon="0.9589">
        <ele>126.4</ele>
        <time>2018-09-23T06:49:09Z</time>
      </trkpt>
      <trkpt lat="49.47547" lon="0.95905">
        <ele>126.5</ele>
        <time>2018-09-23T06:49:13Z</time>
      </trkpt>
      <trkpt lat="49.47548" lon="0.95891">
        <ele>126.5</ele>
        <time>2018-09-23T06:49:24Z</time>
      </trkpt>
      <trkpt lat="49.47541" lon="0.95881">
        <ele>126.6</ele>
        <time>2018-09-23T06:49:26Z</time>
      </trkpt>
      <trkpt lat="49.47533" lon="0.95871">
        <ele>126.4</ele>
        <time>2018-09-23T06:49:28Z</time>
      </trkpt>
      <trkpt lat="49.47523" lon="0.95864">
        <ele>126.3</ele>
        <time>2018-09-23T06:49:30Z</time>
      </trkpt>
      <trkpt lat="49.47513" lon="0.95857">
        <ele>126.2</ele>
        <time>2018-09-23T06:49:32Z</time>
      </trkpt>
      <trkpt lat="49.47501" lon="0.95853">
        <ele>126</ele>
        <time>2018-09-23T06:49:34Z</time>
      </trkpt>
      <trkpt lat="49.47489" lon="0.95851">
        <ele>125.8</ele>
        <time>2018-09-23T06:49:36Z</time>
      </trkpt>
      <trkpt lat="49.47477" lon="0.95852">
        <ele>125.8</ele>
        <time>2018-09-23T06:49:38Z</time>
      </trkpt>
      <trkpt lat="49.47466" lon="0.95848">
        <ele>125.5</ele>
        <time>2018-09-23T06:49:40Z</time>
      </trkpt>
      <trkpt lat="49.47459" lon="0.95835">
        <ele>125.3</ele>
        <time>2018-09-23T06:49:42Z</time>
      </trkpt>
      <trkpt lat="49.47456" lon="0.95821">
        <ele>125.1</ele>
        <time>2018-09-23T06:49:44Z</time>
      </trkpt>
      <trkpt lat="49.47453" lon="0.95801">
        <ele>124.2</ele>
        <time>2018-09-23T06:49:47Z</time>
      </trkpt>
      <trkpt lat="49.4745" lon="0.95788">
        <ele>123.5</ele>
        <time>2018-09-23T06:49:50Z</time>
      </trkpt>
      <trkpt lat="49.47449" lon="0.95772">
        <ele>123.3</ele>
        <time>2018-09-23T06:49:52Z</time>
      </trkpt>
      <trkpt lat="49.47442" lon="0.95761">
        <ele>123.1</ele>
        <time>2018-09-23T06:49:54Z</time>
      </trkpt>
      <trkpt lat="49.47436" lon="0.9575">
        <ele>123</ele>
        <time>2018-09-23T06:49:56Z</time>
      </trkpt>
      <trkpt lat="49.4743" lon="0.95734">
        <ele>123.1</ele>
        <time>2018-09-23T06:49:59Z</time>
      </trkpt>
      <trkpt lat="49.47427" lon="0.95721">
        <ele>123.2</ele>
        <time>2018-09-23T06:50:01Z</time>
      </trkpt>
      <trkpt lat="49.47421" lon="0.95704">
        <ele>123.3</ele>
        <time>2018-09-23T06:50:03Z</time>
      </trkpt>
      <trkpt lat="49.4742" lon="0.95689">
        <ele>123.2</ele>
        <time>2018-09-23T06:50:06Z</time>
      </trkpt>
      <trkpt lat="49.47419" lon="0.95671">
        <ele>123.2</ele>
        <time>2018-09-23T06:50:09Z</time>
      </trkpt>
      <trkpt lat="49.47418" lon="0.95651">
        <ele>122.9</ele>
        <time>2018-09-23T06:50:12Z</time>
      </trkpt>
      <trkpt lat="49.47418" lon="0.95637">
        <ele>122</ele>
        <time>2018-09-23T06:50:14Z</time>
      </trkpt>
      <trkpt lat="49.47417" lon="0.95619">
        <ele>122.1</ele>
        <time>2018-09-23T06:50:17Z</time>
      </trkpt>
      <trkpt lat="49.47416" lon="0.956">
        <ele>121</ele>
        <time>2018-09-23T06:50:20Z</time>
      </trkpt>
      <trkpt lat="49.47411" lon="0.95576">
        <ele>121</ele>
        <time>2018-09-23T06:50:24Z</time>
      </trkpt>
      <trkpt lat="49.47408" lon="0.95561">
        <ele>122</ele>
        <time>2018-09-23T06:50:27Z</time>
      </trkpt>
      <trkpt lat="49.474" lon="0.95529">
        <ele>122</ele>
        <time>2018-09-23T06:50:33Z</time>
      </trkpt>
      <trkpt lat="49.47392" lon="0.95496">
        <ele>123</ele>
        <time>2018-09-23T06:50:37Z</time>
      </trkpt>
      <trkpt lat="49.47383" lon="0.95471">
        <ele>123.8</ele>
        <time>2018-09-23T06:50:40Z</time>
      </trkpt>
      <trkpt lat="49.47376" lon="0.95453">
        <ele>124.2</ele>
        <time>2018-09-23T06:50:43Z</time>
      </trkpt>
      <trkpt lat="49.4737" lon="0.95439">
        <ele>124.4</ele>
        <time>2018-09-23T06:50:45Z</time>
      </trkpt>
      <trkpt lat="49.47359" lon="0.95423">
        <ele>124.6</ele>
        <time>2018-09-23T06:50:48Z</time>
      </trkpt>
      <trkpt lat="49.47347" lon="0.95418">
        <ele>125.2</ele>
        <time>2018-09-23T06:50:51Z</time>
      </trkpt>
      <trkpt lat="49.47337" lon="0.95416">
        <ele>125.1</ele>
        <time>2018-09-23T06:50:55Z</time>
      </trkpt>
      <trkpt lat="49.47327" lon="0.95417">
        <ele>125.3</ele>
        <time>2018-09-23T06:50:58Z</time>
      </trkpt>
      <trkpt lat="49.47316" lon="0.95426">
        <ele>125.3</ele>
        <time>2018-09-23T06:51:02Z</time>
      </trkpt>
      <trkpt lat="49.4731" lon="0.95436">
        <ele>125.2</ele>
        <time>2018-09-23T06:51:06Z</time>
      </trkpt>
      <trkpt lat="49.47302" lon="0.95444">
        <ele>125.4</ele>
        <time>2018-09-23T06:51:08Z</time>
      </trkpt>
      <trkpt lat="49.47294" lon="0.95454">
        <ele>125.7</ele>
        <time>2018-09-23T06:51:11Z</time>
      </trkpt>
      <trkpt lat="49.47288" lon="0.95467">
        <ele>125.8</ele>
        <time>2018-09-23T06:51:14Z</time>
      </trkpt>
      <trkpt lat="49.47283" lon="0.95479">
        <ele>125.8</ele>
        <time>2018-09-23T06:51:16Z</time>
      </trkpt>
      <trkpt lat="49.47276" lon="0.95491">
        <ele>126.2</ele>
        <time>2018-09-23T06:51:18Z</time>
      </trkpt>
      <trkpt lat="49.47269" lon="0.95504">
        <ele>126</ele>
        <time>2018-09-23T06:51:21Z</time>
      </trkpt>
      <trkpt lat="49.47263" lon="0.95515">
        <ele>125.9</ele>
        <time>2018-09-23T06:51:23Z</time>
      </trkpt>
      <trkpt lat="49.4726" lon="0.95529">
        <ele>125.9</ele>
        <time>2018-09-23T06:51:25Z</time>
      </trkpt>
      <trkpt lat="49.47256" lon="0.95543">
        <ele>125.7</ele>
        <time>2018-09-23T06:51:27Z</time>
      </trkpt>
      <trkpt lat="49.47253" lon="0.95557">
        <ele>125.7</ele>
        <time>2018-09-23T06:51:29Z</time>
      </trkpt>
      <trkpt lat="49.47243" lon="0.95574">
        <ele>125.6</ele>
        <time>2018-09-23T06:51:31Z</time>
      </trkpt>
      <trkpt lat="49.47239" lon="0.95589">
        <ele>125.6</ele>
        <time>2018-09-23T06:51:33Z</time>
      </trkpt>
      <trkpt lat="49.47231" lon="0.95605">
        <ele>125.4</ele>
        <time>2018-09-23T06:51:35Z</time>
      </trkpt>
      <trkpt lat="49.47226" lon="0.95616">
        <ele>125.4</ele>
        <time>2018-09-23T06:51:37Z</time>
      </trkpt>
      <trkpt lat="49.4722" lon="0.95629">
        <ele>125.8</ele>
        <time>2018-09-23T06:51:40Z</time>
      </trkpt>
      <trkpt lat="49.47213" lon="0.95647">
        <ele>126.3</ele>
        <time>2018-09-23T06:51:43Z</time>
      </trkpt>
      <trkpt lat="49.47205" lon="0.95661">
        <ele>126.7</ele>
        <time>2018-09-23T06:51:46Z</time>
      </trkpt>
      <trkpt lat="49.472" lon="0.95675">
        <ele>126.9</ele>
        <time>2018-09-23T06:51:49Z</time>
      </trkpt>
      <trkpt lat="49.47195" lon="0.95686">
        <ele>127</ele>
        <time>2018-09-23T06:51:51Z</time>
      </trkpt>
      <trkpt lat="49.4719" lon="0.95697">
        <ele>127.4</ele>
        <time>2018-09-23T06:51:54Z</time>
      </trkpt>
      <trkpt lat="49.47183" lon="0.95708">
        <ele>127.8</ele>
        <time>2018-09-23T06:51:57Z</time>
      </trkpt>
      <trkpt lat="49.47177" lon="0.95717">
        <ele>127.7</ele>
        <time>2018-09-23T06:51:59Z</time>
      </trkpt>
      <trkpt lat="49.47168" lon="0.95727">
        <ele>128</ele>
        <time>2018-09-23T06:52:02Z</time>
      </trkpt>
      <trkpt lat="49.47158" lon="0.95736">
        <ele>128.1</ele>
        <time>2018-09-23T06:52:05Z</time>
      </trkpt>
      <trkpt lat="49.47147" lon="0.95743">
        <ele>128.3</ele>
        <time>2018-09-23T06:52:08Z</time>
      </trkpt>
      <trkpt lat="49.47138" lon="0.95747">
        <ele>128.2</ele>
        <time>2018-09-23T06:52:11Z</time>
      </trkpt>
      <trkpt lat="49.47129" lon="0.95747">
        <ele>128.4</ele>
        <time>2018-09-23T06:52:14Z</time>
      </trkpt>
      <trkpt lat="49.47117" lon="0.95758">
        <ele>128.6</ele>
        <time>2018-09-23T06:52:19Z</time>
      </trkpt>
      <trkpt lat="49.47109" lon="0.95767">
        <ele>128.6</ele>
        <time>2018-09-23T06:52:21Z</time>
      </trkpt>
      <trkpt lat="49.47098" lon="0.95779">
        <ele>128.7</ele>
        <time>2018-09-23T06:52:23Z</time>
      </trkpt>
      <trkpt lat="49.47089" lon="0.9579">
        <ele>129</ele>
        <time>2018-09-23T06:52:26Z</time>
      </trkpt>
      <trkpt lat="49.47083" lon="0.95801">
        <ele>129.3</ele>
        <time>2018-09-23T06:52:29Z</time>
      </trkpt>
      <trkpt lat="49.47076" lon="0.95813">
        <ele>129.2</ele>
        <time>2018-09-23T06:52:31Z</time>
      </trkpt>
      <trkpt lat="49.4707" lon="0.95823">
        <ele>129.3</ele>
        <time>2018-09-23T06:52:33Z</time>
      </trkpt>
      <trkpt lat="49.47061" lon="0.95831">
        <ele>129.3</ele>
        <time>2018-09-23T06:52:36Z</time>
      </trkpt>
      <trkpt lat="49.47048" lon="0.95832">
        <ele>129.3</ele>
        <time>2018-09-23T06:52:39Z</time>
      </trkpt>
      <trkpt lat="49.47036" lon="0.95835">
        <ele>129.6</ele>
        <time>2018-09-23T06:52:42Z</time>
      </trkpt>
      <trkpt lat="49.47026" lon="0.95836">
        <ele>129.7</ele>
        <time>2018-09-23T06:52:44Z</time>
      </trkpt>
      <trkpt lat="49.47014" lon="0.95838">
        <ele>129.9</ele>
        <time>2018-09-23T06:52:46Z</time>
      </trkpt>
      <trkpt lat="49.47" lon="0.95838">
        <ele>130</ele>
        <time>2018-09-23T06:52:48Z</time>
      </trkpt>
      <trkpt lat="49.46991" lon="0.95841">
        <ele>130</ele>
        <time>2018-09-23T06:52:50Z</time>
      </trkpt>
      <trkpt lat="49.46982" lon="0.95845">
        <ele>130</ele>
        <time>2018-09-23T06:52:53Z</time>
      </trkpt>
      <trkpt lat="49.46973" lon="0.95853">
        <ele>129.6</ele>
        <time>2018-09-23T06:52:57Z</time>
      </trkpt>
      <trkpt lat="49.46964" lon="0.9586">
        <ele>129.5</ele>
        <time>2018-09-23T06:53:02Z</time>
      </trkpt>
      <trkpt lat="49.46957" lon="0.95868">
        <ele>129.5</ele>
        <time>2018-09-23T06:53:05Z</time>
      </trkpt>
      <trkpt lat="49.4695" lon="0.95877">
        <ele>129.5</ele>
        <time>2018-09-23T06:53:08Z</time>
      </trkpt>
      <trkpt lat="49.46941" lon="0.95882">
        <ele>129.5</ele>
        <time>2018-09-23T06:53:10Z</time>
      </trkpt>
      <trkpt lat="49.46929" lon="0.9589">
        <ele>129.7</ele>
        <time>2018-09-23T06:53:13Z</time>
      </trkpt>
      <trkpt lat="49.46919" lon="0.95899">
        <ele>129.5</ele>
        <time>2018-09-23T06:53:16Z</time>
      </trkpt>
      <trkpt lat="49.46909" lon="0.95904">
        <ele>129.5</ele>
        <time>2018-09-23T06:53:18Z</time>
      </trkpt>
      <trkpt lat="49.46898" lon="0.95909">
        <ele>129.5</ele>
        <time>2018-09-23T06:53:20Z</time>
      </trkpt>
      <trkpt lat="49.46887" lon="0.95912">
        <ele>129.3</ele>
        <time>2018-09-23T06:53:23Z</time>
      </trkpt>
      <trkpt lat="49.46877" lon="0.95918">
        <ele>129.1</ele>
        <time>2018-09-23T06:53:26Z</time>
      </trkpt>
      <trkpt lat="49.46866" lon="0.95918">
        <ele>129.2</ele>
        <time>2018-09-23T06:53:29Z</time>
      </trkpt>
      <trkpt lat="49.46856" lon="0.9592">
        <ele>129.1</ele>
        <time>2018-09-23T06:53:31Z</time>
      </trkpt>
      <trkpt lat="49.46844" lon="0.95924">
        <ele>129</ele>
        <time>2018-09-23T06:53:34Z</time>
      </trkpt>
      <trkpt lat="49.46834" lon="0.95928">
        <ele>128.8</ele>
        <time>2018-09-23T06:53:36Z</time>
      </trkpt>
      <trkpt lat="49.46823" lon="0.95931">
        <ele>128.9</ele>
        <time>2018-09-23T06:53:39Z</time>
      </trkpt>
      <trkpt lat="49.46815" lon="0.95937">
        <ele>129.1</ele>
        <time>2018-09-23T06:53:41Z</time>
      </trkpt>
      <trkpt lat="49.46804" lon="0.95941">
        <ele>129.2</ele>
        <time>2018-09-23T06:53:44Z</time>
      </trkpt>
      <trkpt lat="49.46795" lon="0.95947">
        <ele>129.2</ele>
        <time>2018-09-23T06:53:47Z</time>
      </trkpt>
      <trkpt lat="49.46783" lon="0.95955">
        <ele>129.3</ele>
        <time>2018-09-23T06:53:49Z</time>
      </trkpt>
      <trkpt lat="49.46771" lon="0.95959">
        <ele>129.2</ele>
        <time>2018-09-23T06:53:52Z</time>
      </trkpt>
      <trkpt lat="49.46761" lon="0.95965">
        <ele>129.2</ele>
        <time>2018-09-23T06:53:54Z</time>
      </trkpt>
      <trkpt lat="49.46749" lon="0.95972">
        <ele>129.2</ele>
        <time>2018-09-23T06:53:57Z</time>
      </trkpt>
      <trkpt lat="49.46738" lon="0.95977">
        <ele>128.9</ele>
        <time>2018-09-23T06:53:59Z</time>
      </trkpt>
      <trkpt lat="49.46729" lon="0.95982">
        <ele>128.7</ele>
        <time>2018-09-23T06:54:01Z</time>
      </trkpt>
      <trkpt lat="49.46717" lon="0.95988">
        <ele>128.7</ele>
        <time>2018-09-23T06:54:04Z</time>
      </trkpt>
      <trkpt lat="49.46705" lon="0.95993">
        <ele>128.7</ele>
        <time>2018-09-23T06:54:07Z</time>
      </trkpt>
      <trkpt lat="49.46696" lon="0.95993">
        <ele>128.7</ele>
        <time>2018-09-23T06:54:08Z</time>
      </trkpt>
      <trkpt lat="49.46687" lon="0.96">
        <ele>128.9</ele>
        <time>2018-09-23T06:54:10Z</time>
      </trkpt>
      <trkpt lat="49.46679" lon="0.96009">
        <ele>128.8</ele>
        <time>2018-09-23T06:54:12Z</time>
      </trkpt>
      <trkpt lat="49.46672" lon="0.96018">
        <ele>128.9</ele>
        <time>2018-09-23T06:54:14Z</time>
      </trkpt>
      <trkpt lat="49.46663" lon="0.96029">
        <ele>128.9</ele>
        <time>2018-09-23T06:54:16Z</time>
      </trkpt>
      <trkpt lat="49.46655" lon="0.96038">
        <ele>128.9</ele>
        <time>2018-09-23T06:54:18Z</time>
      </trkpt>
      <trkpt lat="49.46643" lon="0.96046">
        <ele>128.8</ele>
        <time>2018-09-23T06:54:20Z</time>
      </trkpt>
      <trkpt lat="49.46632" lon="0.96055">
        <ele>128.8</ele>
        <time>2018-09-23T06:54:23Z</time>
      </trkpt>
      <trkpt lat="49.46622" lon="0.9607">
        <ele>129.1</ele>
        <time>2018-09-23T06:54:26Z</time>
      </trkpt>
      <trkpt lat="49.46612" lon="0.96089">
        <ele>128.8</ele>
        <time>2018-09-23T06:54:29Z</time>
      </trkpt>
      <trkpt lat="49.46601" lon="0.96097">
        <ele>128.7</ele>
        <time>2018-09-23T06:54:31Z</time>
      </trkpt>
      <trkpt lat="49.4659" lon="0.96106">
        <ele>128.8</ele>
        <time>2018-09-23T06:54:33Z</time>
      </trkpt>
      <trkpt lat="49.46582" lon="0.96114">
        <ele>128.7</ele>
        <time>2018-09-23T06:54:35Z</time>
      </trkpt>
      <trkpt lat="49.46572" lon="0.96121">
        <ele>128.7</ele>
        <time>2018-09-23T06:54:37Z</time>
      </trkpt>
      <trkpt lat="49.46563" lon="0.96125">
        <ele>128.6</ele>
        <time>2018-09-23T06:54:39Z</time>
      </trkpt>
      <trkpt lat="49.46553" lon="0.96127">
        <ele>128.6</ele>
        <time>2018-09-23T06:54:41Z</time>
      </trkpt>
      <trkpt lat="49.46542" lon="0.96129">
        <ele>128.7</ele>
        <time>2018-09-23T06:54:43Z</time>
      </trkpt>
      <trkpt lat="49.46532" lon="0.96132">
        <ele>128.6</ele>
        <time>2018-09-23T06:54:45Z</time>
      </trkpt>
      <trkpt lat="49.4652" lon="0.96137">
        <ele>128.7</ele>
        <time>2018-09-23T06:54:47Z</time>
      </trkpt>
      <trkpt lat="49.46507" lon="0.96143">
        <ele>128.6</ele>
        <time>2018-09-23T06:54:49Z</time>
      </trkpt>
      <trkpt lat="49.46496" lon="0.96151">
        <ele>128.6</ele>
        <time>2018-09-23T06:54:51Z</time>
      </trkpt>
      <trkpt lat="49.46484" lon="0.96161">
        <ele>128.7</ele>
        <time>2018-09-23T06:54:53Z</time>
      </trkpt>
      <trkpt lat="49.46474" lon="0.96172">
        <ele>128.6</ele>
        <time>2018-09-23T06:54:55Z</time>
      </trkpt>
      <trkpt lat="49.46465" lon="0.9618">
        <ele>128.6</ele>
        <time>2018-09-23T06:54:57Z</time>
      </trkpt>
      <trkpt lat="49.46455" lon="0.96186">
        <ele>128.4</ele>
        <time>2018-09-23T06:54:59Z</time>
      </trkpt>
      <trkpt lat="49.46445" lon="0.96195">
        <ele>128.3</ele>
        <time>2018-09-23T06:55:01Z</time>
      </trkpt>
      <trkpt lat="49.46438" lon="0.96208">
        <ele>128.2</ele>
        <time>2018-09-23T06:55:03Z</time>
      </trkpt>
      <trkpt lat="49.46432" lon="0.96222">
        <ele>128.2</ele>
        <time>2018-09-23T06:55:05Z</time>
      </trkpt>
      <trkpt lat="49.46426" lon="0.96233">
        <ele>128.4</ele>
        <time>2018-09-23T06:55:07Z</time>
      </trkpt>
      <trkpt lat="49.46418" lon="0.96252">
        <ele>128.5</ele>
        <time>2018-09-23T06:55:10Z</time>
      </trkpt>
      <trkpt lat="49.46413" lon="0.96264">
        <ele>128.5</ele>
        <time>2018-09-23T06:55:12Z</time>
      </trkpt>
      <trkpt lat="49.46402" lon="0.96274">
        <ele>128.3</ele>
        <time>2018-09-23T06:55:15Z</time>
      </trkpt>
      <trkpt lat="49.46397" lon="0.96286">
        <ele>127.6</ele>
        <time>2018-09-23T06:55:20Z</time>
      </trkpt>
      <trkpt lat="49.4639" lon="0.96298">
        <ele>127.3</ele>
        <time>2018-09-23T06:55:23Z</time>
      </trkpt>
      <trkpt lat="49.46382" lon="0.96311">
        <ele>127.1</ele>
        <time>2018-09-23T06:55:26Z</time>
      </trkpt>
      <trkpt lat="49.46374" lon="0.96321">
        <ele>126.6</ele>
        <time>2018-09-23T06:55:29Z</time>
      </trkpt>
      <trkpt lat="49.46375" lon="0.9634">
        <ele>125.4</ele>
        <time>2018-09-23T06:55:33Z</time>
      </trkpt>
      <trkpt lat="49.46375" lon="0.96354">
        <ele>124.3</ele>
        <time>2018-09-23T06:55:36Z</time>
      </trkpt>
      <trkpt lat="49.46367" lon="0.96367">
        <ele>123.2</ele>
        <time>2018-09-23T06:55:39Z</time>
      </trkpt>
      <trkpt lat="49.46357" lon="0.96368">
        <ele>121.7</ele>
        <time>2018-09-23T06:55:42Z</time>
      </trkpt>
      <trkpt lat="49.46351" lon="0.96377">
        <ele>120.4</ele>
        <time>2018-09-23T06:55:46Z</time>
      </trkpt>
      <trkpt lat="49.46351" lon="0.96393">
        <ele>118.6</ele>
        <time>2018-09-23T06:55:51Z</time>
      </trkpt>
      <trkpt lat="49.46349" lon="0.96408">
        <ele>116.5</ele>
        <time>2018-09-23T06:55:56Z</time>
      </trkpt>
      <trkpt lat="49.4635" lon="0.96422">
        <ele>114.9</ele>
        <time>2018-09-23T06:56:00Z</time>
      </trkpt>
      <trkpt lat="49.46355" lon="0.96434">
        <ele>113.6</ele>
        <time>2018-09-23T06:56:05Z</time>
      </trkpt>
      <trkpt lat="49.46359" lon="0.96448">
        <ele>112.7</ele>
        <time>2018-09-23T06:56:10Z</time>
      </trkpt>
      <trkpt lat="49.46352" lon="0.9646">
        <ele>111.3</ele>
        <time>2018-09-23T06:56:15Z</time>
      </trkpt>
      <trkpt lat="49.46345" lon="0.96472">
        <ele>108.8</ele>
        <time>2018-09-23T06:56:21Z</time>
      </trkpt>
      <trkpt lat="49.46344" lon="0.96488">
        <ele>106.2</ele>
        <time>2018-09-23T06:56:26Z</time>
      </trkpt>
      <trkpt lat="49.46338" lon="0.96499">
        <ele>103.8</ele>
        <time>2018-09-23T06:56:32Z</time>
      </trkpt>
      <trkpt lat="49.46336" lon="0.96514">
        <ele>101.7</ele>
        <time>2018-09-23T06:56:38Z</time>
      </trkpt>
      <trkpt lat="49.46328" lon="0.96526">
        <ele>99</ele>
        <time>2018-09-23T06:56:45Z</time>
      </trkpt>
      <trkpt lat="49.46321" lon="0.96535">
        <ele>97.1</ele>
        <time>2018-09-23T06:56:51Z</time>
      </trkpt>
      <trkpt lat="49.46311" lon="0.96536">
        <ele>95.6</ele>
        <time>2018-09-23T06:56:56Z</time>
      </trkpt>
      <trkpt lat="49.46301" lon="0.96535">
        <ele>94.4</ele>
        <time>2018-09-23T06:57:00Z</time>
      </trkpt>
      <trkpt lat="49.46291" lon="0.96539">
        <ele>92.7</ele>
        <time>2018-09-23T06:57:05Z</time>
      </trkpt>
      <trkpt lat="49.4628" lon="0.96542">
        <ele>90.5</ele>
        <time>2018-09-23T06:57:11Z</time>
      </trkpt>
      <trkpt lat="49.4627" lon="0.96545">
        <ele>89.4</ele>
        <time>2018-09-23T06:57:15Z</time>
      </trkpt>
      <trkpt lat="49.46262" lon="0.96557">
        <ele>88</ele>
        <time>2018-09-23T06:57:19Z</time>
      </trkpt>
      <trkpt lat="49.46267" lon="0.9657">
        <ele>86.1</ele>
        <time>2018-09-23T06:57:24Z</time>
      </trkpt>
      <trkpt lat="49.46273" lon="0.96584">
        <ele>84.7</ele>
        <time>2018-09-23T06:57:28Z</time>
      </trkpt>
      <trkpt lat="49.46272" lon="0.96601">
        <ele>83.1</ele>
        <time>2018-09-23T06:57:33Z</time>
      </trkpt>
      <trkpt lat="49.46261" lon="0.96595">
        <ele>81.4</ele>
        <time>2018-09-23T06:57:38Z</time>
      </trkpt>
      <trkpt lat="49.46251" lon="0.96592">
        <ele>80.1</ele>
        <time>2018-09-23T06:57:42Z</time>
      </trkpt>
      <trkpt lat="49.46243" lon="0.966">
        <ele>79</ele>
        <time>2018-09-23T06:57:45Z</time>
      </trkpt>
      <trkpt lat="49.46232" lon="0.96603">
        <ele>77.3</ele>
        <time>2018-09-23T06:57:50Z</time>
      </trkpt>
      <trkpt lat="49.46223" lon="0.96596">
        <ele>75.8</ele>
        <time>2018-09-23T06:57:55Z</time>
      </trkpt>
      <trkpt lat="49.46216" lon="0.96587">
        <ele>75.2</ele>
        <time>2018-09-23T06:57:59Z</time>
      </trkpt>
      <trkpt lat="49.46208" lon="0.96578">
        <ele>75.1</ele>
        <time>2018-09-23T06:58:03Z</time>
      </trkpt>
      <trkpt lat="49.46202" lon="0.96567">
        <ele>75.1</ele>
        <time>2018-09-23T06:58:07Z</time>
      </trkpt>
      <trkpt lat="49.46193" lon="0.96561">
        <ele>75.1</ele>
        <time>2018-09-23T06:58:11Z</time>
      </trkpt>
      <trkpt lat="49.46184" lon="0.9656">
        <ele>75.1</ele>
        <time>2018-09-23T06:58:15Z</time>
      </trkpt>
      <trkpt lat="49.46176" lon="0.96572">
        <ele>74.7</ele>
        <time>2018-09-23T06:58:18Z</time>
      </trkpt>
      <trkpt lat="49.46166" lon="0.96585">
        <ele>74.4</ele>
        <time>2018-09-23T06:58:21Z</time>
      </trkpt>
      <trkpt lat="49.46159" lon="0.96595">
        <ele>73.8</ele>
        <time>2018-09-23T06:58:23Z</time>
      </trkpt>
      <trkpt lat="49.46151" lon="0.96606">
        <ele>73.4</ele>
        <time>2018-09-23T06:58:25Z</time>
      </trkpt>
      <trkpt lat="49.46144" lon="0.96616">
        <ele>72.5</ele>
        <time>2018-09-23T06:58:27Z</time>
      </trkpt>
      <trkpt lat="49.46136" lon="0.96625">
        <ele>71.8</ele>
        <time>2018-09-23T06:58:29Z</time>
      </trkpt>
      <trkpt lat="49.46128" lon="0.96637">
        <ele>71.1</ele>
        <time>2018-09-23T06:58:31Z</time>
      </trkpt>
      <trkpt lat="49.4612" lon="0.96648">
        <ele>70.5</ele>
        <time>2018-09-23T06:58:33Z</time>
      </trkpt>
      <trkpt lat="49.4611" lon="0.96659">
        <ele>70.1</ele>
        <time>2018-09-23T06:58:35Z</time>
      </trkpt>
      <trkpt lat="49.46102" lon="0.96669">
        <ele>69.6</ele>
        <time>2018-09-23T06:58:37Z</time>
      </trkpt>
      <trkpt lat="49.46092" lon="0.96682">
        <ele>68.3</ele>
        <time>2018-09-23T06:58:40Z</time>
      </trkpt>
      <trkpt lat="49.46083" lon="0.96693">
        <ele>67.3</ele>
        <time>2018-09-23T06:58:43Z</time>
      </trkpt>
      <trkpt lat="49.46074" lon="0.96703">
        <ele>66.2</ele>
        <time>2018-09-23T06:58:46Z</time>
      </trkpt>
      <trkpt lat="49.46065" lon="0.96713">
        <ele>64.6</ele>
        <time>2018-09-23T06:58:49Z</time>
      </trkpt>
      <trkpt lat="49.46058" lon="0.96721">
        <ele>64</ele>
        <time>2018-09-23T06:58:51Z</time>
      </trkpt>
      <trkpt lat="49.46049" lon="0.96733">
        <ele>62.9</ele>
        <time>2018-09-23T06:58:54Z</time>
      </trkpt>
      <trkpt lat="49.4604" lon="0.96744">
        <ele>61.4</ele>
        <time>2018-09-23T06:58:57Z</time>
      </trkpt>
      <trkpt lat="49.4603" lon="0.96756">
        <ele>59.6</ele>
        <time>2018-09-23T06:59:00Z</time>
      </trkpt>
      <trkpt lat="49.4602" lon="0.96768">
        <ele>57.9</ele>
        <time>2018-09-23T06:59:03Z</time>
      </trkpt>
      <trkpt lat="49.46012" lon="0.96776">
        <ele>56.6</ele>
        <time>2018-09-23T06:59:05Z</time>
      </trkpt>
      <trkpt lat="49.46005" lon="0.96785">
        <ele>55.4</ele>
        <time>2018-09-23T06:59:07Z</time>
      </trkpt>
      <trkpt lat="49.45995" lon="0.96789">
        <ele>53.5</ele>
        <time>2018-09-23T06:59:11Z</time>
      </trkpt>
      <trkpt lat="49.45984" lon="0.96783">
        <ele>52.2</ele>
        <time>2018-09-23T06:59:14Z</time>
      </trkpt>
      <trkpt lat="49.45971" lon="0.96778">
        <ele>51.1</ele>
        <time>2018-09-23T06:59:17Z</time>
      </trkpt>
      <trkpt lat="49.4596" lon="0.96776">
        <ele>50.6</ele>
        <time>2018-09-23T06:59:19Z</time>
      </trkpt>
      <trkpt lat="49.4595" lon="0.96775">
        <ele>50.1</ele>
        <time>2018-09-23T06:59:21Z</time>
      </trkpt>
      <trkpt lat="49.45941" lon="0.96775">
        <ele>49.7</ele>
        <time>2018-09-23T06:59:23Z</time>
      </trkpt>
      <trkpt lat="49.45931" lon="0.96775">
        <ele>49.4</ele>
        <time>2018-09-23T06:59:25Z</time>
      </trkpt>
      <trkpt lat="49.45922" lon="0.9678">
        <ele>48.6</ele>
        <time>2018-09-23T06:59:28Z</time>
      </trkpt>
      <trkpt lat="49.45928" lon="0.96791">
        <ele>47.4</ele>
        <time>2018-09-23T06:59:36Z</time>
      </trkpt>
      <trkpt lat="49.45935" lon="0.96802">
        <ele>46.9</ele>
        <time>2018-09-23T06:59:42Z</time>
      </trkpt>
      <trkpt lat="49.45941" lon="0.96813">
        <ele>46.6</ele>
        <time>2018-09-23T06:59:50Z</time>
      </trkpt>
      <trkpt lat="49.45947" lon="0.96825">
        <ele>46.5</ele>
        <time>2018-09-23T06:59:57Z</time>
      </trkpt>
      <trkpt lat="49.45954" lon="0.96834">
        <ele>46.5</ele>
        <time>2018-09-23T07:00:07Z</time>
      </trkpt>
      <trkpt lat="49.4596" lon="0.96847">
        <ele>47.5</ele>
        <time>2018-09-23T07:00:15Z</time>
      </trkpt>
      <trkpt lat="49.45956" lon="0.9686">
        <ele>48.8</ele>
        <time>2018-09-23T07:00:23Z</time>
      </trkpt>
      <trkpt lat="49.45961" lon="0.96873">
        <ele>50.3</ele>
        <time>2018-09-23T07:00:32Z</time>
      </trkpt>
      <trkpt lat="49.45962" lon="0.96888">
        <ele>51.9</ele>
        <time>2018-09-23T07:00:42Z</time>
      </trkpt>
      <trkpt lat="49.45967" lon="0.96901">
        <ele>53</ele>
        <time>2018-09-23T07:00:49Z</time>
      </trkpt>
      <trkpt lat="49.45972" lon="0.96915">
        <ele>54.1</ele>
        <time>2018-09-23T07:00:56Z</time>
      </trkpt>
      <trkpt lat="49.45977" lon="0.96929">
        <ele>55.8</ele>
        <time>2018-09-23T07:01:05Z</time>
      </trkpt>
      <trkpt lat="49.45983" lon="0.9694">
        <ele>56.7</ele>
        <time>2018-09-23T07:01:12Z</time>
      </trkpt>
      <trkpt lat="49.45988" lon="0.96952">
        <ele>58.3</ele>
        <time>2018-09-23T07:01:20Z</time>
      </trkpt>
      <trkpt lat="49.45992" lon="0.96963">
        <ele>59.9</ele>
        <time>2018-09-23T07:01:27Z</time>
      </trkpt>
      <trkpt lat="49.45998" lon="0.96975">
        <ele>61.3</ele>
        <time>2018-09-23T07:01:34Z</time>
      </trkpt>
      <trkpt lat="49.46005" lon="0.96986">
        <ele>63.5</ele>
        <time>2018-09-23T07:01:44Z</time>
      </trkpt>
      <trkpt lat="49.46014" lon="0.96996">
        <ele>64.6</ele>
        <time>2018-09-23T07:01:50Z</time>
      </trkpt>
      <trkpt lat="49.46024" lon="0.97003">
        <ele>65</ele>
        <time>2018-09-23T07:01:54Z</time>
      </trkpt>
      <trkpt lat="49.46032" lon="0.97012">
        <ele>65.8</ele>
        <time>2018-09-23T07:01:59Z</time>
      </trkpt>
      <trkpt lat="49.46041" lon="0.97018">
        <ele>66.2</ele>
        <time>2018-09-23T07:02:03Z</time>
      </trkpt>
      <trkpt lat="49.46051" lon="0.97028">
        <ele>66.6</ele>
        <time>2018-09-23T07:02:07Z</time>
      </trkpt>
      <trkpt lat="49.46059" lon="0.97041">
        <ele>66.9</ele>
        <time>2018-09-23T07:02:11Z</time>
      </trkpt>
      <trkpt lat="49.46067" lon="0.97052">
        <ele>67.2</ele>
        <time>2018-09-23T07:02:16Z</time>
      </trkpt>
      <trkpt lat="49.46072" lon="0.97064">
        <ele>67.7</ele>
        <time>2018-09-23T07:02:21Z</time>
      </trkpt>
      <trkpt lat="49.46082" lon="0.97075">
        <ele>68.3</ele>
        <time>2018-09-23T07:02:26Z</time>
      </trkpt>
      <trkpt lat="49.46087" lon="0.97089">
        <ele>68.8</ele>
        <time>2018-09-23T07:02:31Z</time>
      </trkpt>
      <trkpt lat="49.46093" lon="0.97102">
        <ele>69.8</ele>
        <time>2018-09-23T07:02:37Z</time>
      </trkpt>
      <trkpt lat="49.46099" lon="0.97114">
        <ele>71.1</ele>
        <time>2018-09-23T07:02:43Z</time>
      </trkpt>
      <trkpt lat="49.46106" lon="0.97123">
        <ele>73.7</ele>
        <time>2018-09-23T07:02:56Z</time>
      </trkpt>
      <trkpt lat="49.46106" lon="0.97141">
        <ele>74.8</ele>
        <time>2018-09-23T07:03:09Z</time>
      </trkpt>
      <trkpt lat="49.46114" lon="0.97151">
        <ele>75.4</ele>
        <time>2018-09-23T07:03:19Z</time>
      </trkpt>
      <trkpt lat="49.46116" lon="0.97168">
        <ele>76.4</ele>
        <time>2018-09-23T07:03:28Z</time>
      </trkpt>
      <trkpt lat="49.46125" lon="0.97179">
        <ele>77.5</ele>
        <time>2018-09-23T07:03:35Z</time>
      </trkpt>
      <trkpt lat="49.46136" lon="0.97189">
        <ele>78.3</ele>
        <time>2018-09-23T07:03:42Z</time>
      </trkpt>
      <trkpt lat="49.46141" lon="0.97202">
        <ele>78.5</ele>
        <time>2018-09-23T07:03:47Z</time>
      </trkpt>
      <trkpt lat="49.46146" lon="0.97216">
        <ele>78.8</ele>
        <time>2018-09-23T07:03:52Z</time>
      </trkpt>
      <trkpt lat="49.46152" lon="0.97228">
        <ele>79.2</ele>
        <time>2018-09-23T07:03:55Z</time>
      </trkpt>
      <trkpt lat="49.46155" lon="0.97244">
        <ele>79.3</ele>
        <time>2018-09-23T07:03:59Z</time>
      </trkpt>
      <trkpt lat="49.46156" lon="0.97259">
        <ele>80.6</ele>
        <time>2018-09-23T07:04:11Z</time>
      </trkpt>
      <trkpt lat="49.46148" lon="0.97268">
        <ele>82.4</ele>
        <time>2018-09-23T07:04:24Z</time>
      </trkpt>
      <trkpt lat="49.46142" lon="0.97277">
        <ele>83.9</ele>
        <time>2018-09-23T07:04:34Z</time>
      </trkpt>
      <trkpt lat="49.46134" lon="0.97286">
        <ele>85.7</ele>
        <time>2018-09-23T07:04:44Z</time>
      </trkpt>
      <trkpt lat="49.46128" lon="0.97297">
        <ele>87.8</ele>
        <time>2018-09-23T07:04:58Z</time>
      </trkpt>
      <trkpt lat="49.4612" lon="0.97308">
        <ele>90.3</ele>
        <time>2018-09-23T07:05:19Z</time>
      </trkpt>
      <trkpt lat="49.46112" lon="0.97319">
        <ele>91</ele>
        <time>2018-09-23T07:05:32Z</time>
      </trkpt>
      <trkpt lat="49.46103" lon="0.97322">
        <ele>92.3</ele>
        <time>2018-09-23T07:05:44Z</time>
      </trkpt>
      <trkpt lat="49.46094" lon="0.9733">
        <ele>93.7</ele>
        <time>2018-09-23T07:05:54Z</time>
      </trkpt>
      <trkpt lat="49.46088" lon="0.97341">
        <ele>96.8</ele>
        <time>2018-09-23T07:06:12Z</time>
      </trkpt>
      <trkpt lat="49.4608" lon="0.97349">
        <ele>98.2</ele>
        <time>2018-09-23T07:06:22Z</time>
      </trkpt>
      <trkpt lat="49.46077" lon="0.97362">
        <ele>99</ele>
        <time>2018-09-23T07:06:33Z</time>
      </trkpt>
      <trkpt lat="49.46071" lon="0.97374">
        <ele>100.2</ele>
        <time>2018-09-23T07:06:47Z</time>
      </trkpt>
      <trkpt lat="49.46062" lon="0.97379">
        <ele>100.9</ele>
        <time>2018-09-23T07:06:55Z</time>
      </trkpt>
      <trkpt lat="49.46055" lon="0.97389">
        <ele>101.4</ele>
        <time>2018-09-23T07:07:02Z</time>
      </trkpt>
      <trkpt lat="49.46046" lon="0.97401">
        <ele>102.5</ele>
        <time>2018-09-23T07:07:10Z</time>
      </trkpt>
      <trkpt lat="49.46039" lon="0.97413">
        <ele>103</ele>
        <time>2018-09-23T07:07:16Z</time>
      </trkpt>
      <trkpt lat="49.46032" lon="0.97423">
        <ele>104.7</ele>
        <time>2018-09-23T07:07:23Z</time>
      </trkpt>
      <trkpt lat="49.46025" lon="0.97435">
        <ele>106.8</ele>
        <time>2018-09-23T07:07:30Z</time>
      </trkpt>
      <trkpt lat="49.46017" lon="0.97447">
        <ele>108.6</ele>
        <time>2018-09-23T07:07:36Z</time>
      </trkpt>
      <trkpt lat="49.46009" lon="0.97454">
        <ele>109.8</ele>
        <time>2018-09-23T07:07:41Z</time>
      </trkpt>
      <trkpt lat="49.46002" lon="0.97462">
        <ele>110.4</ele>
        <time>2018-09-23T07:07:45Z</time>
      </trkpt>
      <trkpt lat="49.45993" lon="0.97473">
        <ele>111.4</ele>
        <time>2018-09-23T07:07:50Z</time>
      </trkpt>
      <trkpt lat="49.45984" lon="0.97485">
        <ele>112.2</ele>
        <time>2018-09-23T07:07:55Z</time>
      </trkpt>
      <trkpt lat="49.45974" lon="0.97494">
        <ele>112.8</ele>
        <time>2018-09-23T07:07:59Z</time>
      </trkpt>
      <trkpt lat="49.45966" lon="0.97504">
        <ele>113.9</ele>
        <time>2018-09-23T07:08:03Z</time>
      </trkpt>
      <trkpt lat="49.45962" lon="0.97516">
        <ele>114.9</ele>
        <time>2018-09-23T07:08:06Z</time>
      </trkpt>
      <trkpt lat="49.45953" lon="0.97523">
        <ele>116.2</ele>
        <time>2018-09-23T07:08:09Z</time>
      </trkpt>
      <trkpt lat="49.45945" lon="0.97532">
        <ele>117.3</ele>
        <time>2018-09-23T07:08:12Z</time>
      </trkpt>
      <trkpt lat="49.45936" lon="0.97542">
        <ele>118.6</ele>
        <time>2018-09-23T07:08:16Z</time>
      </trkpt>
      <trkpt lat="49.45929" lon="0.97552">
        <ele>119.3</ele>
        <time>2018-09-23T07:08:18Z</time>
      </trkpt>
      <trkpt lat="49.4592" lon="0.97565">
        <ele>120.1</ele>
        <time>2018-09-23T07:08:21Z</time>
      </trkpt>
      <trkpt lat="49.45913" lon="0.97574">
        <ele>120.7</ele>
        <time>2018-09-23T07:08:24Z</time>
      </trkpt>
      <trkpt lat="49.45904" lon="0.97587">
        <ele>121.6</ele>
        <time>2018-09-23T07:08:28Z</time>
      </trkpt>
      <trkpt lat="49.45895" lon="0.97599">
        <ele>122.5</ele>
        <time>2018-09-23T07:08:31Z</time>
      </trkpt>
      <trkpt lat="49.45887" lon="0.97608">
        <ele>123.1</ele>
        <time>2018-09-23T07:08:34Z</time>
      </trkpt>
      <trkpt lat="49.45879" lon="0.97615">
        <ele>123.7</ele>
        <time>2018-09-23T07:08:37Z</time>
      </trkpt>
      <trkpt lat="49.45872" lon="0.97626">
        <ele>124</ele>
        <time>2018-09-23T07:08:40Z</time>
      </trkpt>
      <trkpt lat="49.45864" lon="0.97636">
        <ele>124.3</ele>
        <time>2018-09-23T07:08:42Z</time>
      </trkpt>
      <trkpt lat="49.45855" lon="0.97651">
        <ele>124.7</ele>
        <time>2018-09-23T07:08:45Z</time>
      </trkpt>
      <trkpt lat="49.45847" lon="0.97665">
        <ele>124.9</ele>
        <time>2018-09-23T07:08:48Z</time>
      </trkpt>
      <trkpt lat="49.45837" lon="0.97677">
        <ele>125.4</ele>
        <time>2018-09-23T07:08:51Z</time>
      </trkpt>
      <trkpt lat="49.45828" lon="0.97685">
        <ele>125.4</ele>
        <time>2018-09-23T07:08:53Z</time>
      </trkpt>
      <trkpt lat="49.4582" lon="0.97697">
        <ele>125.9</ele>
        <time>2018-09-23T07:08:56Z</time>
      </trkpt>
      <trkpt lat="49.45808" lon="0.97716">
        <ele>126.1</ele>
        <time>2018-09-23T07:08:59Z</time>
      </trkpt>
      <trkpt lat="49.458" lon="0.97726">
        <ele>126.3</ele>
        <time>2018-09-23T07:09:02Z</time>
      </trkpt>
      <trkpt lat="49.45791" lon="0.97731">
        <ele>126.3</ele>
        <time>2018-09-23T07:09:06Z</time>
      </trkpt>
      <trkpt lat="49.45781" lon="0.97726">
        <ele>122.6</ele>
        <time>2018-09-23T07:09:30Z</time>
      </trkpt>
      <trkpt lat="49.45772" lon="0.97722">
        <ele>123.9</ele>
        <time>2018-09-23T07:12:18Z</time>
      </trkpt>
      <trkpt lat="49.45762" lon="0.97711">
        <ele>123.9</ele>
        <time>2018-09-23T07:12:21Z</time>
      </trkpt>
      <trkpt lat="49.45753" lon="0.97703">
        <ele>123.7</ele>
        <time>2018-09-23T07:12:25Z</time>
      </trkpt>
      <trkpt lat="49.45744" lon="0.97694">
        <ele>123.7</ele>
        <time>2018-09-23T07:12:27Z</time>
      </trkpt>
      <trkpt lat="49.45737" lon="0.97686">
        <ele>123.5</ele>
        <time>2018-09-23T07:12:29Z</time>
      </trkpt>
      <trkpt lat="49.45728" lon="0.97678">
        <ele>123.4</ele>
        <time>2018-09-23T07:12:31Z</time>
      </trkpt>
      <trkpt lat="49.45719" lon="0.97666">
        <ele>123.4</ele>
        <time>2018-09-23T07:12:33Z</time>
      </trkpt>
      <trkpt lat="49.45709" lon="0.97653">
        <ele>123.4</ele>
        <time>2018-09-23T07:12:36Z</time>
      </trkpt>
      <trkpt lat="49.45701" lon="0.9764">
        <ele>123.1</ele>
        <time>2018-09-23T07:12:38Z</time>
      </trkpt>
      <trkpt lat="49.45691" lon="0.9763">
        <ele>122.6</ele>
        <time>2018-09-23T07:12:40Z</time>
      </trkpt>
      <trkpt lat="49.45683" lon="0.97623">
        <ele>122.2</ele>
        <time>2018-09-23T07:12:42Z</time>
      </trkpt>
      <trkpt lat="49.45676" lon="0.97615">
        <ele>121.5</ele>
        <time>2018-09-23T07:12:44Z</time>
      </trkpt>
      <trkpt lat="49.45665" lon="0.97603">
        <ele>120.9</ele>
        <time>2018-09-23T07:12:47Z</time>
      </trkpt>
      <trkpt lat="49.45652" lon="0.9759">
        <ele>120.2</ele>
        <time>2018-09-23T07:12:50Z</time>
      </trkpt>
      <trkpt lat="49.45641" lon="0.97578">
        <ele>119.4</ele>
        <time>2018-09-23T07:12:52Z</time>
      </trkpt>
      <trkpt lat="49.45631" lon="0.97568">
        <ele>118.7</ele>
        <time>2018-09-23T07:12:54Z</time>
      </trkpt>
      <trkpt lat="49.45621" lon="0.97559">
        <ele>118.4</ele>
        <time>2018-09-23T07:12:55Z</time>
      </trkpt>
      <trkpt lat="49.45613" lon="0.97551">
        <ele>117.5</ele>
        <time>2018-09-23T07:12:57Z</time>
      </trkpt>
      <trkpt lat="49.45604" lon="0.9754">
        <ele>116.6</ele>
        <time>2018-09-23T07:12:59Z</time>
      </trkpt>
      <trkpt lat="49.45596" lon="0.9753">
        <ele>115.6</ele>
        <time>2018-09-23T07:13:01Z</time>
      </trkpt>
      <trkpt lat="49.45582" lon="0.97517">
        <ele>113.9</ele>
        <time>2018-09-23T07:13:04Z</time>
      </trkpt>
      <trkpt lat="49.45571" lon="0.97506">
        <ele>112.6</ele>
        <time>2018-09-23T07:13:06Z</time>
      </trkpt>
      <trkpt lat="49.4556" lon="0.97497">
        <ele>111.3</ele>
        <time>2018-09-23T07:13:08Z</time>
      </trkpt>
      <trkpt lat="49.4555" lon="0.97484">
        <ele>110.1</ele>
        <time>2018-09-23T07:13:10Z</time>
      </trkpt>
      <trkpt lat="49.45536" lon="0.97474">
        <ele>108.8</ele>
        <time>2018-09-23T07:13:12Z</time>
      </trkpt>
      <trkpt lat="49.45527" lon="0.97467">
        <ele>107</ele>
        <time>2018-09-23T07:13:15Z</time>
      </trkpt>
      <trkpt lat="49.45518" lon="0.97458">
        <ele>105.9</ele>
        <time>2018-09-23T07:13:17Z</time>
      </trkpt>
      <trkpt lat="49.4551" lon="0.97449">
        <ele>104.9</ele>
        <time>2018-09-23T07:13:19Z</time>
      </trkpt>
      <trkpt lat="49.45503" lon="0.97436">
        <ele>102.3</ele>
        <time>2018-09-23T07:13:23Z</time>
      </trkpt>
      <trkpt lat="49.45491" lon="0.97423">
        <ele>100</ele>
        <time>2018-09-23T07:13:26Z</time>
      </trkpt>
      <trkpt lat="49.45482" lon="0.97415">
        <ele>99.2</ele>
        <time>2018-09-23T07:13:27Z</time>
      </trkpt>
      <trkpt lat="49.45473" lon="0.97407">
        <ele>97.1</ele>
        <time>2018-09-23T07:13:30Z</time>
      </trkpt>
      <trkpt lat="49.45464" lon="0.97397">
        <ele>94.7</ele>
        <time>2018-09-23T07:13:33Z</time>
      </trkpt>
      <trkpt lat="49.45454" lon="0.97389">
        <ele>92.1</ele>
        <time>2018-09-23T07:13:37Z</time>
      </trkpt>
      <trkpt lat="49.45446" lon="0.97378">
        <ele>89</ele>
        <time>2018-09-23T07:13:42Z</time>
      </trkpt>
      <trkpt lat="49.45437" lon="0.97372">
        <ele>86.6</ele>
        <time>2018-09-23T07:13:46Z</time>
      </trkpt>
      <trkpt lat="49.45429" lon="0.97363">
        <ele>83.9</ele>
        <time>2018-09-23T07:13:52Z</time>
      </trkpt>
      <trkpt lat="49.45421" lon="0.97357">
        <ele>79.8</ele>
        <time>2018-09-23T07:14:01Z</time>
      </trkpt>
      <trkpt lat="49.45412" lon="0.97352">
        <ele>74.7</ele>
        <time>2018-09-23T07:14:13Z</time>
      </trkpt>
      <trkpt lat="49.45402" lon="0.97342">
        <ele>72.5</ele>
        <time>2018-09-23T07:14:18Z</time>
      </trkpt>
      <trkpt lat="49.45394" lon="0.97335">
        <ele>70.3</ele>
        <time>2018-09-23T07:14:23Z</time>
      </trkpt>
      <trkpt lat="49.45388" lon="0.97323">
        <ele>66.7</ele>
        <time>2018-09-23T07:14:33Z</time>
      </trkpt>
      <trkpt lat="49.45384" lon="0.97308">
        <ele>65</ele>
        <time>2018-09-23T07:14:37Z</time>
      </trkpt>
      <trkpt lat="49.45385" lon="0.97292">
        <ele>63.2</ele>
        <time>2018-09-23T07:14:42Z</time>
      </trkpt>
      <trkpt lat="49.45381" lon="0.97278">
        <ele>62.6</ele>
        <time>2018-09-23T07:14:44Z</time>
      </trkpt>
      <trkpt lat="49.45377" lon="0.97264">
        <ele>61.8</ele>
        <time>2018-09-23T07:14:46Z</time>
      </trkpt>
      <trkpt lat="49.45371" lon="0.97248">
        <ele>60.8</ele>
        <time>2018-09-23T07:14:49Z</time>
      </trkpt>
      <trkpt lat="49.4536" lon="0.97246">
        <ele>60.1</ele>
        <time>2018-09-23T07:14:52Z</time>
      </trkpt>
      <trkpt lat="49.45349" lon="0.97245">
        <ele>59.4</ele>
        <time>2018-09-23T07:14:54Z</time>
      </trkpt>
      <trkpt lat="49.45337" lon="0.97241">
        <ele>58.7</ele>
        <time>2018-09-23T07:14:56Z</time>
      </trkpt>
      <trkpt lat="49.45325" lon="0.97238">
        <ele>58.1</ele>
        <time>2018-09-23T07:14:58Z</time>
      </trkpt>
      <trkpt lat="49.45314" lon="0.97232">
        <ele>57.6</ele>
        <time>2018-09-23T07:15:00Z</time>
      </trkpt>
      <trkpt lat="49.45303" lon="0.97226">
        <ele>57.3</ele>
        <time>2018-09-23T07:15:02Z</time>
      </trkpt>
      <trkpt lat="49.45292" lon="0.9722">
        <ele>56.9</ele>
        <time>2018-09-23T07:15:04Z</time>
      </trkpt>
      <trkpt lat="49.45282" lon="0.97213">
        <ele>56.4</ele>
        <time>2018-09-23T07:15:06Z</time>
      </trkpt>
      <trkpt lat="49.45273" lon="0.97204">
        <ele>56</ele>
        <time>2018-09-23T07:15:08Z</time>
      </trkpt>
      <trkpt lat="49.45264" lon="0.97194">
        <ele>55.7</ele>
        <time>2018-09-23T07:15:10Z</time>
      </trkpt>
      <trkpt lat="49.45255" lon="0.97182">
        <ele>55.4</ele>
        <time>2018-09-23T07:15:12Z</time>
      </trkpt>
      <trkpt lat="49.45247" lon="0.97171">
        <ele>55.1</ele>
        <time>2018-09-23T07:15:14Z</time>
      </trkpt>
      <trkpt lat="49.45239" lon="0.97158">
        <ele>54.8</ele>
        <time>2018-09-23T07:15:16Z</time>
      </trkpt>
      <trkpt lat="49.45231" lon="0.97145">
        <ele>54.5</ele>
        <time>2018-09-23T07:15:18Z</time>
      </trkpt>
      <trkpt lat="49.45222" lon="0.97132">
        <ele>54.2</ele>
        <time>2018-09-23T07:15:20Z</time>
      </trkpt>
      <trkpt lat="49.45215" lon="0.97119">
        <ele>54</ele>
        <time>2018-09-23T07:15:22Z</time>
      </trkpt>
      <trkpt lat="49.45208" lon="0.97104">
        <ele>53.9</ele>
        <time>2018-09-23T07:15:24Z</time>
      </trkpt>
      <trkpt lat="49.452" lon="0.9709">
        <ele>53.8</ele>
        <time>2018-09-23T07:15:26Z</time>
      </trkpt>
      <trkpt lat="49.45192" lon="0.97079">
        <ele>53.6</ele>
        <time>2018-09-23T07:15:28Z</time>
      </trkpt>
      <trkpt lat="49.45182" lon="0.97072">
        <ele>53.4</ele>
        <time>2018-09-23T07:15:30Z</time>
      </trkpt>
      <trkpt lat="49.45172" lon="0.97065">
        <ele>53.2</ele>
        <time>2018-09-23T07:15:32Z</time>
      </trkpt>
      <trkpt lat="49.45161" lon="0.9706">
        <ele>53</ele>
        <time>2018-09-23T07:15:34Z</time>
      </trkpt>
      <trkpt lat="49.45151" lon="0.97053">
        <ele>52.9</ele>
        <time>2018-09-23T07:15:36Z</time>
      </trkpt>
      <trkpt lat="49.45141" lon="0.97046">
        <ele>52.7</ele>
        <time>2018-09-23T07:15:38Z</time>
      </trkpt>
      <trkpt lat="49.4513" lon="0.97038">
        <ele>52.5</ele>
        <time>2018-09-23T07:15:40Z</time>
      </trkpt>
      <trkpt lat="49.4512" lon="0.9703">
        <ele>52.4</ele>
        <time>2018-09-23T07:15:42Z</time>
      </trkpt>
      <trkpt lat="49.4511" lon="0.9702">
        <ele>52.1</ele>
        <time>2018-09-23T07:15:44Z</time>
      </trkpt>
      <trkpt lat="49.45099" lon="0.97011">
        <ele>51.8</ele>
        <time>2018-09-23T07:15:46Z</time>
      </trkpt>
      <trkpt lat="49.45089" lon="0.97001">
        <ele>51.6</ele>
        <time>2018-09-23T07:15:48Z</time>
      </trkpt>
      <trkpt lat="49.45079" lon="0.96993">
        <ele>51.5</ele>
        <time>2018-09-23T07:15:50Z</time>
      </trkpt>
      <trkpt lat="49.45068" lon="0.96984">
        <ele>51.4</ele>
        <time>2018-09-23T07:15:52Z</time>
      </trkpt>
      <trkpt lat="49.45057" lon="0.96975">
        <ele>51.1</ele>
        <time>2018-09-23T07:15:54Z</time>
      </trkpt>
      <trkpt lat="49.45046" lon="0.96965">
        <ele>50.9</ele>
        <time>2018-09-23T07:15:56Z</time>
      </trkpt>
      <trkpt lat="49.45035" lon="0.96955">
        <ele>50.7</ele>
        <time>2018-09-23T07:15:58Z</time>
      </trkpt>
      <trkpt lat="49.45024" lon="0.96944">
        <ele>50.5</ele>
        <time>2018-09-23T07:16:00Z</time>
      </trkpt>
      <trkpt lat="49.45014" lon="0.96934">
        <ele>50.1</ele>
        <time>2018-09-23T07:16:02Z</time>
      </trkpt>
      <trkpt lat="49.45003" lon="0.96923">
        <ele>49.8</ele>
        <time>2018-09-23T07:16:04Z</time>
      </trkpt>
      <trkpt lat="49.44993" lon="0.96912">
        <ele>49.7</ele>
        <time>2018-09-23T07:16:06Z</time>
      </trkpt>
      <trkpt lat="49.44983" lon="0.969">
        <ele>49.4</ele>
        <time>2018-09-23T07:16:08Z</time>
      </trkpt>
      <trkpt lat="49.44974" lon="0.96888">
        <ele>49.4</ele>
        <time>2018-09-23T07:16:10Z</time>
      </trkpt>
      <trkpt lat="49.44964" lon="0.96876">
        <ele>49.4</ele>
        <time>2018-09-23T07:16:12Z</time>
      </trkpt>
      <trkpt lat="49.44955" lon="0.96865">
        <ele>49.3</ele>
        <time>2018-09-23T07:16:14Z</time>
      </trkpt>
      <trkpt lat="49.44946" lon="0.96853">
        <ele>49.1</ele>
        <time>2018-09-23T07:16:16Z</time>
      </trkpt>
      <trkpt lat="49.44936" lon="0.96842">
        <ele>48.8</ele>
        <time>2018-09-23T07:16:18Z</time>
      </trkpt>
      <trkpt lat="49.44927" lon="0.96831">
        <ele>48.5</ele>
        <time>2018-09-23T07:16:20Z</time>
      </trkpt>
      <trkpt lat="49.44918" lon="0.96821">
        <ele>48.4</ele>
        <time>2018-09-23T07:16:22Z</time>
      </trkpt>
      <trkpt lat="49.4491" lon="0.96811">
        <ele>48.3</ele>
        <time>2018-09-23T07:16:24Z</time>
      </trkpt>
      <trkpt lat="49.44902" lon="0.96803">
        <ele>48</ele>
        <time>2018-09-23T07:16:27Z</time>
      </trkpt>
      <trkpt lat="49.44895" lon="0.96789">
        <ele>46.7</ele>
        <time>2018-09-23T07:16:39Z</time>
      </trkpt>
      <trkpt lat="49.44885" lon="0.96775">
        <ele>46.3</ele>
        <time>2018-09-23T07:16:42Z</time>
      </trkpt>
      <trkpt lat="49.44877" lon="0.96763">
        <ele>46</ele>
        <time>2018-09-23T07:16:44Z</time>
      </trkpt>
      <trkpt lat="49.44869" lon="0.96751">
        <ele>45.7</ele>
        <time>2018-09-23T07:16:46Z</time>
      </trkpt>
      <trkpt lat="49.44861" lon="0.96738">
        <ele>45.3</ele>
        <time>2018-09-23T07:16:48Z</time>
      </trkpt>
      <trkpt lat="49.44853" lon="0.96726">
        <ele>44.8</ele>
        <time>2018-09-23T07:16:50Z</time>
      </trkpt>
      <trkpt lat="49.44844" lon="0.96714">
        <ele>44.6</ele>
        <time>2018-09-23T07:16:52Z</time>
      </trkpt>
      <trkpt lat="49.44835" lon="0.967">
        <ele>44.3</ele>
        <time>2018-09-23T07:16:54Z</time>
      </trkpt>
      <trkpt lat="49.44826" lon="0.96686">
        <ele>44.1</ele>
        <time>2018-09-23T07:16:56Z</time>
      </trkpt>
      <trkpt lat="49.44819" lon="0.96672">
        <ele>43.7</ele>
        <time>2018-09-23T07:16:58Z</time>
      </trkpt>
      <trkpt lat="49.44811" lon="0.96659">
        <ele>43.5</ele>
        <time>2018-09-23T07:17:00Z</time>
      </trkpt>
      <trkpt lat="49.44804" lon="0.96644">
        <ele>43.3</ele>
        <time>2018-09-23T07:17:02Z</time>
      </trkpt>
      <trkpt lat="49.44797" lon="0.96629">
        <ele>43</ele>
        <time>2018-09-23T07:17:04Z</time>
      </trkpt>
      <trkpt lat="49.44789" lon="0.96613">
        <ele>42.8</ele>
        <time>2018-09-23T07:17:06Z</time>
      </trkpt>
      <trkpt lat="49.44783" lon="0.96597">
        <ele>42.5</ele>
        <time>2018-09-23T07:17:08Z</time>
      </trkpt>
      <trkpt lat="49.44776" lon="0.96582">
        <ele>42.2</ele>
        <time>2018-09-23T07:17:10Z</time>
      </trkpt>
      <trkpt lat="49.4477" lon="0.96567">
        <ele>42.2</ele>
        <time>2018-09-23T07:17:12Z</time>
      </trkpt>
      <trkpt lat="49.44763" lon="0.96552">
        <ele>42.1</ele>
        <time>2018-09-23T07:17:14Z</time>
      </trkpt>
      <trkpt lat="49.44756" lon="0.96538">
        <ele>42</ele>
        <time>2018-09-23T07:17:16Z</time>
      </trkpt>
      <trkpt lat="49.44749" lon="0.96523">
        <ele>41.8</ele>
        <time>2018-09-23T07:17:18Z</time>
      </trkpt>
      <trkpt lat="49.44743" lon="0.9651">
        <ele>41.9</ele>
        <time>2018-09-23T07:17:20Z</time>
      </trkpt>
      <trkpt lat="49.44736" lon="0.96498">
        <ele>41.7</ele>
        <time>2018-09-23T07:17:22Z</time>
      </trkpt>
      <trkpt lat="49.44728" lon="0.9649">
        <ele>41.5</ele>
        <time>2018-09-23T07:17:24Z</time>
      </trkpt>
      <trkpt lat="49.44717" lon="0.96485">
        <ele>41.5</ele>
        <time>2018-09-23T07:17:26Z</time>
      </trkpt>
      <trkpt lat="49.44707" lon="0.96481">
        <ele>41.4</ele>
        <time>2018-09-23T07:17:28Z</time>
      </trkpt>
      <trkpt lat="49.44696" lon="0.96477">
        <ele>41.2</ele>
        <time>2018-09-23T07:17:30Z</time>
      </trkpt>
      <trkpt lat="49.44685" lon="0.96474">
        <ele>41.2</ele>
        <time>2018-09-23T07:17:32Z</time>
      </trkpt>
      <trkpt lat="49.44675" lon="0.9647">
        <ele>41</ele>
        <time>2018-09-23T07:17:34Z</time>
      </trkpt>
      <trkpt lat="49.44664" lon="0.96465">
        <ele>41</ele>
        <time>2018-09-23T07:17:36Z</time>
      </trkpt>
      <trkpt lat="49.44654" lon="0.96461">
        <ele>40.8</ele>
        <time>2018-09-23T07:17:38Z</time>
      </trkpt>
      <trkpt lat="49.44643" lon="0.96457">
        <ele>40.7</ele>
        <time>2018-09-23T07:17:40Z</time>
      </trkpt>
      <trkpt lat="49.44632" lon="0.96452">
        <ele>40.5</ele>
        <time>2018-09-23T07:17:42Z</time>
      </trkpt>
      <trkpt lat="49.44622" lon="0.96447">
        <ele>40.4</ele>
        <time>2018-09-23T07:17:44Z</time>
      </trkpt>
      <trkpt lat="49.44612" lon="0.96441">
        <ele>40.3</ele>
        <time>2018-09-23T07:17:46Z</time>
      </trkpt>
      <trkpt lat="49.44602" lon="0.96435">
        <ele>40.2</ele>
        <time>2018-09-23T07:17:48Z</time>
      </trkpt>
      <trkpt lat="49.44593" lon="0.96427">
        <ele>40.1</ele>
        <time>2018-09-23T07:17:50Z</time>
      </trkpt>
      <trkpt lat="49.44584" lon="0.9642">
        <ele>40</ele>
        <time>2018-09-23T07:17:52Z</time>
      </trkpt>
      <trkpt lat="49.44575" lon="0.96413">
        <ele>39.8</ele>
        <time>2018-09-23T07:17:54Z</time>
      </trkpt>
      <trkpt lat="49.44566" lon="0.96404">
        <ele>39.7</ele>
        <time>2018-09-23T07:17:56Z</time>
      </trkpt>
      <trkpt lat="49.44558" lon="0.96395">
        <ele>39.6</ele>
        <time>2018-09-23T07:17:58Z</time>
      </trkpt>
      <trkpt lat="49.4455" lon="0.96387">
        <ele>39.5</ele>
        <time>2018-09-23T07:18:00Z</time>
      </trkpt>
      <trkpt lat="49.44541" lon="0.9638">
        <ele>39.3</ele>
        <time>2018-09-23T07:18:02Z</time>
      </trkpt>
      <trkpt lat="49.44534" lon="0.96372">
        <ele>39.1</ele>
        <time>2018-09-23T07:18:04Z</time>
      </trkpt>
      <trkpt lat="49.44525" lon="0.96365">
        <ele>39</ele>
        <time>2018-09-23T07:18:06Z</time>
      </trkpt>
      <trkpt lat="49.44516" lon="0.96358">
        <ele>38.9</ele>
        <time>2018-09-23T07:18:08Z</time>
      </trkpt>
      <trkpt lat="49.44507" lon="0.96353">
        <ele>38.8</ele>
        <time>2018-09-23T07:18:10Z</time>
      </trkpt>
      <trkpt lat="49.44498" lon="0.96349">
        <ele>38.8</ele>
        <time>2018-09-23T07:18:12Z</time>
      </trkpt>
      <trkpt lat="49.44489" lon="0.96344">
        <ele>38.7</ele>
        <time>2018-09-23T07:18:14Z</time>
      </trkpt>
      <trkpt lat="49.4448" lon="0.9634">
        <ele>38.6</ele>
        <time>2018-09-23T07:18:16Z</time>
      </trkpt>
      <trkpt lat="49.44472" lon="0.96336">
        <ele>38.7</ele>
        <time>2018-09-23T07:18:18Z</time>
      </trkpt>
      <trkpt lat="49.4446" lon="0.96331">
        <ele>38.7</ele>
        <time>2018-09-23T07:18:21Z</time>
      </trkpt>
      <trkpt lat="49.44448" lon="0.96331">
        <ele>38.5</ele>
        <time>2018-09-23T07:18:24Z</time>
      </trkpt>
      <trkpt lat="49.44439" lon="0.96342">
        <ele>38.2</ele>
        <time>2018-09-23T07:18:27Z</time>
      </trkpt>
      <trkpt lat="49.44431" lon="0.96356">
        <ele>38.3</ele>
        <time>2018-09-23T07:18:30Z</time>
      </trkpt>
      <trkpt lat="49.44424" lon="0.9637">
        <ele>38.3</ele>
        <time>2018-09-23T07:18:33Z</time>
      </trkpt>
      <trkpt lat="49.44414" lon="0.96378">
        <ele>38.1</ele>
        <time>2018-09-23T07:18:36Z</time>
      </trkpt>
      <trkpt lat="49.44402" lon="0.96378">
        <ele>37.9</ele>
        <time>2018-09-23T07:18:39Z</time>
      </trkpt>
      <trkpt lat="49.4439" lon="0.96377">
        <ele>37.8</ele>
        <time>2018-09-23T07:18:42Z</time>
      </trkpt>
      <trkpt lat="49.44379" lon="0.96374">
        <ele>37.7</ele>
        <time>2018-09-23T07:18:45Z</time>
      </trkpt>
      <trkpt lat="49.44368" lon="0.96378">
        <ele>37.7</ele>
        <time>2018-09-23T07:18:48Z</time>
      </trkpt>
      <trkpt lat="49.44365" lon="0.96393">
        <ele>37.8</ele>
        <time>2018-09-23T07:18:51Z</time>
      </trkpt>
      <trkpt lat="49.44364" lon="0.96412">
        <ele>37.8</ele>
        <time>2018-09-23T07:18:54Z</time>
      </trkpt>
      <trkpt lat="49.44363" lon="0.96429">
        <ele>37.5</ele>
        <time>2018-09-23T07:18:57Z</time>
      </trkpt>
      <trkpt lat="49.44362" lon="0.96446">
        <ele>37.5</ele>
        <time>2018-09-23T07:19:00Z</time>
      </trkpt>
      <trkpt lat="49.44361" lon="0.96463">
        <ele>37.4</ele>
        <time>2018-09-23T07:19:03Z</time>
      </trkpt>
      <trkpt lat="49.44361" lon="0.96479">
        <ele>37.3</ele>
        <time>2018-09-23T07:19:06Z</time>
      </trkpt>
      <trkpt lat="49.44361" lon="0.96495">
        <ele>37.2</ele>
        <time>2018-09-23T07:19:09Z</time>
      </trkpt>
      <trkpt lat="49.4436" lon="0.96512">
        <ele>37.2</ele>
        <time>2018-09-23T07:19:12Z</time>
      </trkpt>
      <trkpt lat="49.44359" lon="0.96529">
        <ele>37.1</ele>
        <time>2018-09-23T07:19:15Z</time>
      </trkpt>
      <trkpt lat="49.44359" lon="0.96546">
        <ele>37.1</ele>
        <time>2018-09-23T07:19:18Z</time>
      </trkpt>
      <trkpt lat="49.44358" lon="0.96562">
        <ele>37.3</ele>
        <time>2018-09-23T07:19:21Z</time>
      </trkpt>
      <trkpt lat="49.44357" lon="0.96578">
        <ele>37.5</ele>
        <time>2018-09-23T07:19:24Z</time>
      </trkpt>
      <trkpt lat="49.44356" lon="0.96593">
        <ele>37.7</ele>
        <time>2018-09-23T07:19:27Z</time>
      </trkpt>
      <trkpt lat="49.44356" lon="0.96608">
        <ele>37.8</ele>
        <time>2018-09-23T07:19:30Z</time>
      </trkpt>
      <trkpt lat="49.44355" lon="0.96623">
        <ele>37.7</ele>
        <time>2018-09-23T07:19:33Z</time>
      </trkpt>
      <trkpt lat="49.44352" lon="0.96637">
        <ele>37.9</ele>
        <time>2018-09-23T07:19:36Z</time>
      </trkpt>
      <trkpt lat="49.4435" lon="0.96652">
        <ele>38</ele>
        <time>2018-09-23T07:19:39Z</time>
      </trkpt>
      <trkpt lat="49.44348" lon="0.9667">
        <ele>38.3</ele>
        <time>2018-09-23T07:19:43Z</time>
      </trkpt>
      <trkpt lat="49.44346" lon="0.96684">
        <ele>38.6</ele>
        <time>2018-09-23T07:19:46Z</time>
      </trkpt>
      <trkpt lat="49.44344" lon="0.96697">
        <ele>38.7</ele>
        <time>2018-09-23T07:19:49Z</time>
      </trkpt>
      <trkpt lat="49.44343" lon="0.96711">
        <ele>39</ele>
        <time>2018-09-23T07:19:52Z</time>
      </trkpt>
      <trkpt lat="49.44343" lon="0.96728">
        <ele>39.4</ele>
        <time>2018-09-23T07:19:56Z</time>
      </trkpt>
      <trkpt lat="49.44343" lon="0.96745">
        <ele>39.9</ele>
        <time>2018-09-23T07:20:00Z</time>
      </trkpt>
      <trkpt lat="49.44341" lon="0.9676">
        <ele>40.4</ele>
        <time>2018-09-23T07:20:04Z</time>
      </trkpt>
      <trkpt lat="49.44338" lon="0.96774">
        <ele>40.8</ele>
        <time>2018-09-23T07:20:07Z</time>
      </trkpt>
      <trkpt lat="49.44337" lon="0.96791">
        <ele>41.4</ele>
        <time>2018-09-23T07:20:11Z</time>
      </trkpt>
      <trkpt lat="49.44336" lon="0.96808">
        <ele>42</ele>
        <time>2018-09-23T07:20:15Z</time>
      </trkpt>
      <trkpt lat="49.44334" lon="0.96825">
        <ele>42.6</ele>
        <time>2018-09-23T07:20:19Z</time>
      </trkpt>
      <trkpt lat="49.44333" lon="0.96841">
        <ele>43.1</ele>
        <time>2018-09-23T07:20:23Z</time>
      </trkpt>
      <trkpt lat="49.44332" lon="0.96857">
        <ele>43.9</ele>
        <time>2018-09-23T07:20:27Z</time>
      </trkpt>
      <trkpt lat="49.44331" lon="0.96871">
        <ele>44.5</ele>
        <time>2018-09-23T07:20:31Z</time>
      </trkpt>
      <trkpt lat="49.44333" lon="0.96885">
        <ele>45</ele>
        <time>2018-09-23T07:20:35Z</time>
      </trkpt>
      <trkpt lat="49.44331" lon="0.969">
        <ele>45.7</ele>
        <time>2018-09-23T07:20:39Z</time>
      </trkpt>
      <trkpt lat="49.44331" lon="0.96915">
        <ele>46.4</ele>
        <time>2018-09-23T07:20:43Z</time>
      </trkpt>
      <trkpt lat="49.44329" lon="0.9693">
        <ele>47</ele>
        <time>2018-09-23T07:20:47Z</time>
      </trkpt>
      <trkpt lat="49.44324" lon="0.96943">
        <ele>47.8</ele>
        <time>2018-09-23T07:20:50Z</time>
      </trkpt>
      <trkpt lat="49.44326" lon="0.96959">
        <ele>48.6</ele>
        <time>2018-09-23T07:20:55Z</time>
      </trkpt>
      <trkpt lat="49.44322" lon="0.96974">
        <ele>49.3</ele>
        <time>2018-09-23T07:21:00Z</time>
      </trkpt>
      <trkpt lat="49.44319" lon="0.96998">
        <ele>49</ele>
        <time>2018-09-23T07:21:06Z</time>
      </trkpt>
      <trkpt lat="49.44316" lon="0.97013">
        <ele>50.7</ele>
        <time>2018-09-23T07:21:10Z</time>
      </trkpt>
      <trkpt lat="49.44314" lon="0.97028">
        <ele>51</ele>
        <time>2018-09-23T07:21:16Z</time>
      </trkpt>
      <trkpt lat="49.44307" lon="0.9705">
        <ele>52</ele>
        <time>2018-09-23T07:21:21Z</time>
      </trkpt>
      <trkpt lat="49.44304" lon="0.97065">
        <ele>52.9</ele>
        <time>2018-09-23T07:21:25Z</time>
      </trkpt>
      <trkpt lat="49.44299" lon="0.97079">
        <ele>53.5</ele>
        <time>2018-09-23T07:21:29Z</time>
      </trkpt>
      <trkpt lat="49.44297" lon="0.97093">
        <ele>54.3</ele>
        <time>2018-09-23T07:21:32Z</time>
      </trkpt>
      <trkpt lat="49.44295" lon="0.97107">
        <ele>55.2</ele>
        <time>2018-09-23T07:21:36Z</time>
      </trkpt>
      <trkpt lat="49.44294" lon="0.97123">
        <ele>56.1</ele>
        <time>2018-09-23T07:21:40Z</time>
      </trkpt>
      <trkpt lat="49.44297" lon="0.97139">
        <ele>57.3</ele>
        <time>2018-09-23T07:21:45Z</time>
      </trkpt>
      <trkpt lat="49.44297" lon="0.97153">
        <ele>58.3</ele>
        <time>2018-09-23T07:21:49Z</time>
      </trkpt>
      <trkpt lat="49.44301" lon="0.97167">
        <ele>59.1</ele>
        <time>2018-09-23T07:21:53Z</time>
      </trkpt>
      <trkpt lat="49.443" lon="0.97182">
        <ele>59.8</ele>
        <time>2018-09-23T07:21:57Z</time>
      </trkpt>
      <trkpt lat="49.44298" lon="0.97197">
        <ele>60.5</ele>
        <time>2018-09-23T07:22:01Z</time>
      </trkpt>
      <trkpt lat="49.44293" lon="0.97218">
        <ele>61.8</ele>
        <time>2018-09-23T07:22:07Z</time>
      </trkpt>
      <trkpt lat="49.44289" lon="0.97231">
        <ele>62.4</ele>
        <time>2018-09-23T07:22:10Z</time>
      </trkpt>
      <trkpt lat="49.44285" lon="0.97246">
        <ele>63.3</ele>
        <time>2018-09-23T07:22:14Z</time>
      </trkpt>
      <trkpt lat="49.44281" lon="0.9726">
        <ele>64.2</ele>
        <time>2018-09-23T07:22:18Z</time>
      </trkpt>
      <trkpt lat="49.44276" lon="0.97276">
        <ele>65.3</ele>
        <time>2018-09-23T07:22:23Z</time>
      </trkpt>
      <trkpt lat="49.44273" lon="0.97291">
        <ele>66.3</ele>
        <time>2018-09-23T07:22:27Z</time>
      </trkpt>
      <trkpt lat="49.4427" lon="0.97306">
        <ele>67.1</ele>
        <time>2018-09-23T07:22:30Z</time>
      </trkpt>
      <trkpt lat="49.44267" lon="0.97321">
        <ele>67.9</ele>
        <time>2018-09-23T07:22:34Z</time>
      </trkpt>
      <trkpt lat="49.44262" lon="0.97334">
        <ele>68.9</ele>
        <time>2018-09-23T07:22:38Z</time>
      </trkpt>
      <trkpt lat="49.4426" lon="0.97348">
        <ele>70.1</ele>
        <time>2018-09-23T07:22:43Z</time>
      </trkpt>
      <trkpt lat="49.44257" lon="0.97363">
        <ele>71.3</ele>
        <time>2018-09-23T07:22:47Z</time>
      </trkpt>
      <trkpt lat="49.44255" lon="0.97377">
        <ele>72.1</ele>
        <time>2018-09-23T07:22:51Z</time>
      </trkpt>
      <trkpt lat="49.44253" lon="0.97391">
        <ele>72.8</ele>
        <time>2018-09-23T07:22:55Z</time>
      </trkpt>
      <trkpt lat="49.4425" lon="0.97405">
        <ele>74</ele>
        <time>2018-09-23T07:23:00Z</time>
      </trkpt>
      <trkpt lat="49.44245" lon="0.97418">
        <ele>74.5</ele>
        <time>2018-09-23T07:23:03Z</time>
      </trkpt>
      <trkpt lat="49.44241" lon="0.97434">
        <ele>75.4</ele>
        <time>2018-09-23T07:23:07Z</time>
      </trkpt>
      <trkpt lat="49.44239" lon="0.9745">
        <ele>76</ele>
        <time>2018-09-23T07:23:11Z</time>
      </trkpt>
      <trkpt lat="49.44236" lon="0.97466">
        <ele>77.1</ele>
        <time>2018-09-23T07:23:16Z</time>
      </trkpt>
      <trkpt lat="49.44235" lon="0.97481">
        <ele>77.9</ele>
        <time>2018-09-23T07:23:20Z</time>
      </trkpt>
      <trkpt lat="49.44233" lon="0.97494">
        <ele>78.8</ele>
        <time>2018-09-23T07:23:24Z</time>
      </trkpt>
      <trkpt lat="49.44229" lon="0.97511">
        <ele>79.4</ele>
        <time>2018-09-23T07:23:27Z</time>
      </trkpt>
      <trkpt lat="49.44226" lon="0.97528">
        <ele>80.3</ele>
        <time>2018-09-23T07:23:31Z</time>
      </trkpt>
      <trkpt lat="49.44221" lon="0.9754">
        <ele>81.2</ele>
        <time>2018-09-23T07:23:34Z</time>
      </trkpt>
      <trkpt lat="49.44217" lon="0.97554">
        <ele>81.8</ele>
        <time>2018-09-23T07:23:37Z</time>
      </trkpt>
      <trkpt lat="49.44213" lon="0.97567">
        <ele>82.2</ele>
        <time>2018-09-23T07:23:40Z</time>
      </trkpt>
      <trkpt lat="49.44202" lon="0.97571">
        <ele>83.2</ele>
        <time>2018-09-23T07:23:44Z</time>
      </trkpt>
      <trkpt lat="49.44192" lon="0.97563">
        <ele>84</ele>
        <time>2018-09-23T07:23:49Z</time>
      </trkpt>
      <trkpt lat="49.44182" lon="0.97555">
        <ele>84.3</ele>
        <time>2018-09-23T07:23:54Z</time>
      </trkpt>
      <trkpt lat="49.44172" lon="0.97548">
        <ele>85.1</ele>
        <time>2018-09-23T07:23:58Z</time>
      </trkpt>
      <trkpt lat="49.44163" lon="0.97544">
        <ele>85.5</ele>
        <time>2018-09-23T07:24:01Z</time>
      </trkpt>
      <trkpt lat="49.44151" lon="0.97541">
        <ele>85.9</ele>
        <time>2018-09-23T07:24:05Z</time>
      </trkpt>
      <trkpt lat="49.44142" lon="0.97539">
        <ele>86.5</ele>
        <time>2018-09-23T07:24:08Z</time>
      </trkpt>
      <trkpt lat="49.44129" lon="0.97539">
        <ele>86.9</ele>
        <time>2018-09-23T07:24:12Z</time>
      </trkpt>
      <trkpt lat="49.44119" lon="0.97538">
        <ele>87.2</ele>
        <time>2018-09-23T07:24:15Z</time>
      </trkpt>
      <trkpt lat="49.44108" lon="0.97538">
        <ele>87.8</ele>
        <time>2018-09-23T07:24:18Z</time>
      </trkpt>
      <trkpt lat="49.44098" lon="0.97535">
        <ele>88.2</ele>
        <time>2018-09-23T07:24:21Z</time>
      </trkpt>
      <trkpt lat="49.44087" lon="0.97533">
        <ele>88.4</ele>
        <time>2018-09-23T07:24:24Z</time>
      </trkpt>
      <trkpt lat="49.44074" lon="0.97533">
        <ele>88.7</ele>
        <time>2018-09-23T07:24:27Z</time>
      </trkpt>
      <trkpt lat="49.44062" lon="0.97533">
        <ele>88.9</ele>
        <time>2018-09-23T07:24:30Z</time>
      </trkpt>
      <trkpt lat="49.44049" lon="0.97532">
        <ele>89.2</ele>
        <time>2018-09-23T07:24:33Z</time>
      </trkpt>
      <trkpt lat="49.44036" lon="0.97533">
        <ele>89.3</ele>
        <time>2018-09-23T07:24:36Z</time>
      </trkpt>
      <trkpt lat="49.44024" lon="0.97534">
        <ele>89.5</ele>
        <time>2018-09-23T07:24:39Z</time>
      </trkpt>
      <trkpt lat="49.44014" lon="0.97528">
        <ele>90</ele>
        <time>2018-09-23T07:24:42Z</time>
      </trkpt>
      <trkpt lat="49.44004" lon="0.97528">
        <ele>90.2</ele>
        <time>2018-09-23T07:24:45Z</time>
      </trkpt>
      <trkpt lat="49.43994" lon="0.97529">
        <ele>90.4</ele>
        <time>2018-09-23T07:24:48Z</time>
      </trkpt>
      <trkpt lat="49.43982" lon="0.97532">
        <ele>90.4</ele>
        <time>2018-09-23T07:24:51Z</time>
      </trkpt>
      <trkpt lat="49.4397" lon="0.97534">
        <ele>90.4</ele>
        <time>2018-09-23T07:24:54Z</time>
      </trkpt>
      <trkpt lat="49.43959" lon="0.97532">
        <ele>90.7</ele>
        <time>2018-09-23T07:24:57Z</time>
      </trkpt>
      <trkpt lat="49.43948" lon="0.9753">
        <ele>91</ele>
        <time>2018-09-23T07:25:00Z</time>
      </trkpt>
      <trkpt lat="49.43939" lon="0.97534">
        <ele>91</ele>
        <time>2018-09-23T07:25:03Z</time>
      </trkpt>
      <trkpt lat="49.43927" lon="0.9753">
        <ele>90.9</ele>
        <time>2018-09-23T07:25:06Z</time>
      </trkpt>
      <trkpt lat="49.43915" lon="0.97531">
        <ele>90.9</ele>
        <time>2018-09-23T07:25:09Z</time>
      </trkpt>
      <trkpt lat="49.43906" lon="0.9753">
        <ele>90.7</ele>
        <time>2018-09-23T07:25:11Z</time>
      </trkpt>
      <trkpt lat="49.43893" lon="0.97525">
        <ele>90.5</ele>
        <time>2018-09-23T07:25:14Z</time>
      </trkpt>
      <trkpt lat="49.43881" lon="0.9752">
        <ele>90.8</ele>
        <time>2018-09-23T07:25:17Z</time>
      </trkpt>
      <trkpt lat="49.43871" lon="0.9752">
        <ele>90.6</ele>
        <time>2018-09-23T07:25:19Z</time>
      </trkpt>
      <trkpt lat="49.43858" lon="0.97523">
        <ele>90.7</ele>
        <time>2018-09-23T07:25:22Z</time>
      </trkpt>
      <trkpt lat="49.43848" lon="0.97523">
        <ele>90.9</ele>
        <time>2018-09-23T07:25:24Z</time>
      </trkpt>
      <trkpt lat="49.43838" lon="0.97522">
        <ele>91</ele>
        <time>2018-09-23T07:25:26Z</time>
      </trkpt>
      <trkpt lat="49.43826" lon="0.97518">
        <ele>91.1</ele>
        <time>2018-09-23T07:25:29Z</time>
      </trkpt>
      <trkpt lat="49.43814" lon="0.97517">
        <ele>91.3</ele>
        <time>2018-09-23T07:25:32Z</time>
      </trkpt>
      <trkpt lat="49.438" lon="0.97516">
        <ele>91.3</ele>
        <time>2018-09-23T07:25:35Z</time>
      </trkpt>
      <trkpt lat="49.43792" lon="0.97511">
        <ele>91.2</ele>
        <time>2018-09-23T07:25:37Z</time>
      </trkpt>
      <trkpt lat="49.43781" lon="0.97509">
        <ele>91.1</ele>
        <time>2018-09-23T07:25:40Z</time>
      </trkpt>
      <trkpt lat="49.43772" lon="0.97508">
        <ele>91.2</ele>
        <time>2018-09-23T07:25:42Z</time>
      </trkpt>
      <trkpt lat="49.43759" lon="0.97507">
        <ele>91.4</ele>
        <time>2018-09-23T07:25:45Z</time>
      </trkpt>
      <trkpt lat="49.4375" lon="0.97506">
        <ele>91.5</ele>
        <time>2018-09-23T07:25:47Z</time>
      </trkpt>
      <trkpt lat="49.4374" lon="0.97506">
        <ele>91.4</ele>
        <time>2018-09-23T07:25:49Z</time>
      </trkpt>
      <trkpt lat="49.4373" lon="0.97509">
        <ele>91.6</ele>
        <time>2018-09-23T07:25:51Z</time>
      </trkpt>
      <trkpt lat="49.43722" lon="0.97514">
        <ele>91.9</ele>
        <time>2018-09-23T07:25:53Z</time>
      </trkpt>
      <trkpt lat="49.4371" lon="0.97523">
        <ele>91.9</ele>
        <time>2018-09-23T07:25:56Z</time>
      </trkpt>
      <trkpt lat="49.43697" lon="0.97522">
        <ele>92</ele>
        <time>2018-09-23T07:25:59Z</time>
      </trkpt>
      <trkpt lat="49.43686" lon="0.97522">
        <ele>92.1</ele>
        <time>2018-09-23T07:26:02Z</time>
      </trkpt>
      <trkpt lat="49.43676" lon="0.97525">
        <ele>92.2</ele>
        <time>2018-09-23T07:26:04Z</time>
      </trkpt>
      <trkpt lat="49.43667" lon="0.97529">
        <ele>92.2</ele>
        <time>2018-09-23T07:26:06Z</time>
      </trkpt>
      <trkpt lat="49.43655" lon="0.97538">
        <ele>92.5</ele>
        <time>2018-09-23T07:26:09Z</time>
      </trkpt>
      <trkpt lat="49.43644" lon="0.97547">
        <ele>92.9</ele>
        <time>2018-09-23T07:26:12Z</time>
      </trkpt>
      <trkpt lat="49.43633" lon="0.97556">
        <ele>92.9</ele>
        <time>2018-09-23T07:26:15Z</time>
      </trkpt>
      <trkpt lat="49.43621" lon="0.97565">
        <ele>92.9</ele>
        <time>2018-09-23T07:26:18Z</time>
      </trkpt>
      <trkpt lat="49.43613" lon="0.97572">
        <ele>92.9</ele>
        <time>2018-09-23T07:26:20Z</time>
      </trkpt>
      <trkpt lat="49.43603" lon="0.97577">
        <ele>92.7</ele>
        <time>2018-09-23T07:26:22Z</time>
      </trkpt>
      <trkpt lat="49.43595" lon="0.97583">
        <ele>92.6</ele>
        <time>2018-09-23T07:26:24Z</time>
      </trkpt>
      <trkpt lat="49.43586" lon="0.97589">
        <ele>92.8</ele>
        <time>2018-09-23T07:26:26Z</time>
      </trkpt>
      <trkpt lat="49.43578" lon="0.97597">
        <ele>93.2</ele>
        <time>2018-09-23T07:26:28Z</time>
      </trkpt>
      <trkpt lat="49.43569" lon="0.97604">
        <ele>93.3</ele>
        <time>2018-09-23T07:26:30Z</time>
      </trkpt>
      <trkpt lat="49.43561" lon="0.97613">
        <ele>93.1</ele>
        <time>2018-09-23T07:26:32Z</time>
      </trkpt>
      <trkpt lat="49.43553" lon="0.97622">
        <ele>93.1</ele>
        <time>2018-09-23T07:26:34Z</time>
      </trkpt>
      <trkpt lat="49.43543" lon="0.97635">
        <ele>93</ele>
        <time>2018-09-23T07:26:37Z</time>
      </trkpt>
      <trkpt lat="49.43536" lon="0.97644">
        <ele>92.8</ele>
        <time>2018-09-23T07:26:39Z</time>
      </trkpt>
      <trkpt lat="49.43525" lon="0.97646">
        <ele>93</ele>
        <time>2018-09-23T07:26:42Z</time>
      </trkpt>
      <trkpt lat="49.43517" lon="0.97637">
        <ele>92.5</ele>
        <time>2018-09-23T07:26:45Z</time>
      </trkpt>
      <trkpt lat="49.43508" lon="0.97625">
        <ele>92.5</ele>
        <time>2018-09-23T07:26:48Z</time>
      </trkpt>
      <trkpt lat="49.43499" lon="0.97613">
        <ele>92</ele>
        <time>2018-09-23T07:26:51Z</time>
      </trkpt>
      <trkpt lat="49.4349" lon="0.97599">
        <ele>91.9</ele>
        <time>2018-09-23T07:26:54Z</time>
      </trkpt>
      <trkpt lat="49.43482" lon="0.97587">
        <ele>92</ele>
        <time>2018-09-23T07:26:56Z</time>
      </trkpt>
      <trkpt lat="49.43475" lon="0.97577">
        <ele>92</ele>
        <time>2018-09-23T07:26:58Z</time>
      </trkpt>
      <trkpt lat="49.43466" lon="0.97565">
        <ele>91.9</ele>
        <time>2018-09-23T07:27:01Z</time>
      </trkpt>
      <trkpt lat="49.43458" lon="0.97554">
        <ele>91.7</ele>
        <time>2018-09-23T07:27:04Z</time>
      </trkpt>
      <trkpt lat="49.43451" lon="0.97543">
        <ele>91.6</ele>
        <time>2018-09-23T07:27:06Z</time>
      </trkpt>
      <trkpt lat="49.43445" lon="0.97532">
        <ele>91.6</ele>
        <time>2018-09-23T07:27:08Z</time>
      </trkpt>
      <trkpt lat="49.43437" lon="0.97521">
        <ele>91.5</ele>
        <time>2018-09-23T07:27:10Z</time>
      </trkpt>
      <trkpt lat="49.43429" lon="0.97508">
        <ele>91.4</ele>
        <time>2018-09-23T07:27:13Z</time>
      </trkpt>
      <trkpt lat="49.43421" lon="0.97494">
        <ele>91.3</ele>
        <time>2018-09-23T07:27:16Z</time>
      </trkpt>
      <trkpt lat="49.4341" lon="0.97479">
        <ele>91.3</ele>
        <time>2018-09-23T07:27:18Z</time>
      </trkpt>
      <trkpt lat="49.43403" lon="0.97464">
        <ele>91.5</ele>
        <time>2018-09-23T07:27:21Z</time>
      </trkpt>
      <trkpt lat="49.43396" lon="0.97452">
        <ele>91.6</ele>
        <time>2018-09-23T07:27:23Z</time>
      </trkpt>
      <trkpt lat="49.4339" lon="0.97441">
        <ele>91.5</ele>
        <time>2018-09-23T07:27:25Z</time>
      </trkpt>
      <trkpt lat="49.43382" lon="0.97432">
        <ele>91.4</ele>
        <time>2018-09-23T07:27:28Z</time>
      </trkpt>
      <trkpt lat="49.43369" lon="0.97429">
        <ele>91.2</ele>
        <time>2018-09-23T07:27:31Z</time>
      </trkpt>
      <trkpt lat="49.4336" lon="0.97426">
        <ele>91.3</ele>
        <time>2018-09-23T07:27:33Z</time>
      </trkpt>
      <trkpt lat="49.4335" lon="0.97422">
        <ele>91.2</ele>
        <time>2018-09-23T07:27:35Z</time>
      </trkpt>
      <trkpt lat="49.43339" lon="0.97421">
        <ele>91</ele>
        <time>2018-09-23T07:27:37Z</time>
      </trkpt>
      <trkpt lat="49.43328" lon="0.97421">
        <ele>90.8</ele>
        <time>2018-09-23T07:27:39Z</time>
      </trkpt>
      <trkpt lat="49.43315" lon="0.97421">
        <ele>90.8</ele>
        <time>2018-09-23T07:27:42Z</time>
      </trkpt>
      <trkpt lat="49.43303" lon="0.97424">
        <ele>90.6</ele>
        <time>2018-09-23T07:27:45Z</time>
      </trkpt>
      <trkpt lat="49.43291" lon="0.97425">
        <ele>90.5</ele>
        <time>2018-09-23T07:27:48Z</time>
      </trkpt>
      <trkpt lat="49.43282" lon="0.97426">
        <ele>90.3</ele>
        <time>2018-09-23T07:27:50Z</time>
      </trkpt>
      <trkpt lat="49.43268" lon="0.97426">
        <ele>90.1</ele>
        <time>2018-09-23T07:27:53Z</time>
      </trkpt>
      <trkpt lat="49.43258" lon="0.9743">
        <ele>90</ele>
        <time>2018-09-23T07:27:55Z</time>
      </trkpt>
      <trkpt lat="49.43248" lon="0.97434">
        <ele>89.6</ele>
        <time>2018-09-23T07:27:57Z</time>
      </trkpt>
      <trkpt lat="49.43237" lon="0.97438">
        <ele>89.4</ele>
        <time>2018-09-23T07:27:59Z</time>
      </trkpt>
      <trkpt lat="49.43228" lon="0.97444">
        <ele>89.2</ele>
        <time>2018-09-23T07:28:01Z</time>
      </trkpt>
      <trkpt lat="49.43215" lon="0.97452">
        <ele>88.8</ele>
        <time>2018-09-23T07:28:04Z</time>
      </trkpt>
      <trkpt lat="49.43205" lon="0.97454">
        <ele>88.8</ele>
        <time>2018-09-23T07:28:06Z</time>
      </trkpt>
      <trkpt lat="49.43196" lon="0.97458">
        <ele>88.6</ele>
        <time>2018-09-23T07:28:08Z</time>
      </trkpt>
      <trkpt lat="49.43186" lon="0.97465">
        <ele>88.4</ele>
        <time>2018-09-23T07:28:10Z</time>
      </trkpt>
      <trkpt lat="49.43176" lon="0.97471">
        <ele>88.2</ele>
        <time>2018-09-23T07:28:12Z</time>
      </trkpt>
      <trkpt lat="49.43167" lon="0.97476">
        <ele>88.1</ele>
        <time>2018-09-23T07:28:14Z</time>
      </trkpt>
      <trkpt lat="49.43157" lon="0.97479">
        <ele>87.8</ele>
        <time>2018-09-23T07:28:16Z</time>
      </trkpt>
      <trkpt lat="49.43148" lon="0.9748">
        <ele>87.5</ele>
        <time>2018-09-23T07:28:18Z</time>
      </trkpt>
      <trkpt lat="49.43139" lon="0.97485">
        <ele>87.1</ele>
        <time>2018-09-23T07:28:20Z</time>
      </trkpt>
      <trkpt lat="49.43127" lon="0.97493">
        <ele>86.9</ele>
        <time>2018-09-23T07:28:23Z</time>
      </trkpt>
      <trkpt lat="49.43118" lon="0.975">
        <ele>86.7</ele>
        <time>2018-09-23T07:28:25Z</time>
      </trkpt>
      <trkpt lat="49.43108" lon="0.97503">
        <ele>86.7</ele>
        <time>2018-09-23T07:28:27Z</time>
      </trkpt>
      <trkpt lat="49.43098" lon="0.97506">
        <ele>86.6</ele>
        <time>2018-09-23T07:28:29Z</time>
      </trkpt>
      <trkpt lat="49.43088" lon="0.97509">
        <ele>86.5</ele>
        <time>2018-09-23T07:28:31Z</time>
      </trkpt>
      <trkpt lat="49.43078" lon="0.97514">
        <ele>86.3</ele>
        <time>2018-09-23T07:28:33Z</time>
      </trkpt>
      <trkpt lat="49.43069" lon="0.9752">
        <ele>86.2</ele>
        <time>2018-09-23T07:28:35Z</time>
      </trkpt>
      <trkpt lat="49.43061" lon="0.97523">
        <ele>86</ele>
        <time>2018-09-23T07:28:37Z</time>
      </trkpt>
      <trkpt lat="49.43048" lon="0.9753">
        <ele>85.7</ele>
        <time>2018-09-23T07:28:40Z</time>
      </trkpt>
      <trkpt lat="49.43038" lon="0.97537">
        <ele>85.7</ele>
        <time>2018-09-23T07:28:43Z</time>
      </trkpt>
      <trkpt lat="49.43026" lon="0.97541">
        <ele>85.7</ele>
        <time>2018-09-23T07:28:46Z</time>
      </trkpt>
      <trkpt lat="49.43015" lon="0.97544">
        <ele>85.6</ele>
        <time>2018-09-23T07:28:49Z</time>
      </trkpt>
      <trkpt lat="49.43005" lon="0.97548">
        <ele>85.4</ele>
        <time>2018-09-23T07:28:52Z</time>
      </trkpt>
      <trkpt lat="49.42996" lon="0.97559">
        <ele>85.1</ele>
        <time>2018-09-23T07:28:55Z</time>
      </trkpt>
      <trkpt lat="49.42986" lon="0.97564">
        <ele>85.1</ele>
        <time>2018-09-23T07:28:57Z</time>
      </trkpt>
      <trkpt lat="49.42975" lon="0.97562">
        <ele>85.1</ele>
        <time>2018-09-23T07:29:01Z</time>
      </trkpt>
      <trkpt lat="49.42964" lon="0.97554">
        <ele>85.2</ele>
        <time>2018-09-23T07:29:05Z</time>
      </trkpt>
      <trkpt lat="49.42951" lon="0.97555">
        <ele>85.1</ele>
        <time>2018-09-23T07:29:08Z</time>
      </trkpt>
      <trkpt lat="49.42941" lon="0.97555">
        <ele>85</ele>
        <time>2018-09-23T07:29:10Z</time>
      </trkpt>
      <trkpt lat="49.4293" lon="0.97557">
        <ele>84.9</ele>
        <time>2018-09-23T07:29:12Z</time>
      </trkpt>
      <trkpt lat="49.42919" lon="0.97557">
        <ele>84.9</ele>
        <time>2018-09-23T07:29:14Z</time>
      </trkpt>
      <trkpt lat="49.42908" lon="0.97555">
        <ele>84.8</ele>
        <time>2018-09-23T07:29:16Z</time>
      </trkpt>
      <trkpt lat="49.42897" lon="0.97552">
        <ele>84.9</ele>
        <time>2018-09-23T07:29:18Z</time>
      </trkpt>
      <trkpt lat="49.42888" lon="0.97544">
        <ele>84.8</ele>
        <time>2018-09-23T07:29:20Z</time>
      </trkpt>
      <trkpt lat="49.42881" lon="0.97532">
        <ele>84.8</ele>
        <time>2018-09-23T07:29:22Z</time>
      </trkpt>
      <trkpt lat="49.42875" lon="0.9752">
        <ele>84.7</ele>
        <time>2018-09-23T07:29:24Z</time>
      </trkpt>
      <trkpt lat="49.42869" lon="0.97507">
        <ele>84.7</ele>
        <time>2018-09-23T07:29:26Z</time>
      </trkpt>
      <trkpt lat="49.42868" lon="0.97488">
        <ele>84.7</ele>
        <time>2018-09-23T07:29:29Z</time>
      </trkpt>
      <trkpt lat="49.42862" lon="0.9747">
        <ele>84.6</ele>
        <time>2018-09-23T07:29:31Z</time>
      </trkpt>
      <trkpt lat="49.42858" lon="0.97455">
        <ele>84.5</ele>
        <time>2018-09-23T07:29:33Z</time>
      </trkpt>
      <trkpt lat="49.42854" lon="0.97438">
        <ele>84.5</ele>
        <time>2018-09-23T07:29:35Z</time>
      </trkpt>
      <trkpt lat="49.42849" lon="0.97421">
        <ele>84.5</ele>
        <time>2018-09-23T07:29:37Z</time>
      </trkpt>
      <trkpt lat="49.42844" lon="0.97407">
        <ele>84.4</ele>
        <time>2018-09-23T07:29:39Z</time>
      </trkpt>
      <trkpt lat="49.42839" lon="0.97394">
        <ele>84.2</ele>
        <time>2018-09-23T07:29:41Z</time>
      </trkpt>
      <trkpt lat="49.42834" lon="0.97377">
        <ele>84.1</ele>
        <time>2018-09-23T07:29:43Z</time>
      </trkpt>
      <trkpt lat="49.42827" lon="0.97363">
        <ele>84.1</ele>
        <time>2018-09-23T07:29:45Z</time>
      </trkpt>
      <trkpt lat="49.42824" lon="0.97344">
        <ele>84.1</ele>
        <time>2018-09-23T07:29:47Z</time>
      </trkpt>
      <trkpt lat="49.42822" lon="0.97327">
        <ele>84.2</ele>
        <time>2018-09-23T07:29:49Z</time>
      </trkpt>
      <trkpt lat="49.42819" lon="0.97313">
        <ele>84.3</ele>
        <time>2018-09-23T07:29:51Z</time>
      </trkpt>
      <trkpt lat="49.42816" lon="0.97292">
        <ele>84.3</ele>
        <time>2018-09-23T07:29:54Z</time>
      </trkpt>
      <trkpt lat="49.42813" lon="0.97272">
        <ele>84.2</ele>
        <time>2018-09-23T07:29:57Z</time>
      </trkpt>
      <trkpt lat="49.42811" lon="0.97258">
        <ele>84.2</ele>
        <time>2018-09-23T07:30:00Z</time>
      </trkpt>
      <trkpt lat="49.42807" lon="0.9724">
        <ele>84.4</ele>
        <time>2018-09-23T07:30:03Z</time>
      </trkpt>
      <trkpt lat="49.42802" lon="0.9722">
        <ele>84.1</ele>
        <time>2018-09-23T07:30:06Z</time>
      </trkpt>
      <trkpt lat="49.42798" lon="0.97207">
        <ele>84</ele>
        <time>2018-09-23T07:30:08Z</time>
      </trkpt>
      <trkpt lat="49.42791" lon="0.97188">
        <ele>84</ele>
        <time>2018-09-23T07:30:10Z</time>
      </trkpt>
      <trkpt lat="49.42788" lon="0.9717">
        <ele>84.2</ele>
        <time>2018-09-23T07:30:13Z</time>
      </trkpt>
      <trkpt lat="49.42781" lon="0.97149">
        <ele>84.2</ele>
        <time>2018-09-23T07:30:16Z</time>
      </trkpt>
      <trkpt lat="49.42776" lon="0.97128">
        <ele>84.1</ele>
        <time>2018-09-23T07:30:19Z</time>
      </trkpt>
      <trkpt lat="49.42773" lon="0.97112">
        <ele>84</ele>
        <time>2018-09-23T07:30:21Z</time>
      </trkpt>
      <trkpt lat="49.42768" lon="0.97098">
        <ele>84.1</ele>
        <time>2018-09-23T07:30:23Z</time>
      </trkpt>
      <trkpt lat="49.42763" lon="0.97079">
        <ele>84.1</ele>
        <time>2018-09-23T07:30:26Z</time>
      </trkpt>
      <trkpt lat="49.4276" lon="0.97063">
        <ele>84</ele>
        <time>2018-09-23T07:30:30Z</time>
      </trkpt>
      <trkpt lat="49.42758" lon="0.97045">
        <ele>83.9</ele>
        <time>2018-09-23T07:30:33Z</time>
      </trkpt>
      <trkpt lat="49.42755" lon="0.97032">
        <ele>83.9</ele>
        <time>2018-09-23T07:30:35Z</time>
      </trkpt>
      <trkpt lat="49.4275" lon="0.97019">
        <ele>83.6</ele>
        <time>2018-09-23T07:30:37Z</time>
      </trkpt>
      <trkpt lat="49.42747" lon="0.97005">
        <ele>83.6</ele>
        <time>2018-09-23T07:30:39Z</time>
      </trkpt>
      <trkpt lat="49.42743" lon="0.96987">
        <ele>83.6</ele>
        <time>2018-09-23T07:30:42Z</time>
      </trkpt>
      <trkpt lat="49.42736" lon="0.9697">
        <ele>83.5</ele>
        <time>2018-09-23T07:30:44Z</time>
      </trkpt>
      <trkpt lat="49.42733" lon="0.96952">
        <ele>83.4</ele>
        <time>2018-09-23T07:30:47Z</time>
      </trkpt>
      <trkpt lat="49.42734" lon="0.96936">
        <ele>83.4</ele>
        <time>2018-09-23T07:30:49Z</time>
      </trkpt>
      <trkpt lat="49.42735" lon="0.96922">
        <ele>83.1</ele>
        <time>2018-09-23T07:30:51Z</time>
      </trkpt>
      <trkpt lat="49.42738" lon="0.96907">
        <ele>83</ele>
        <time>2018-09-23T07:30:54Z</time>
      </trkpt>
      <trkpt lat="49.42741" lon="0.96893">
        <ele>82.7</ele>
        <time>2018-09-23T07:30:57Z</time>
      </trkpt>
      <trkpt lat="49.42741" lon="0.96874">
        <ele>82.1</ele>
        <time>2018-09-23T07:31:00Z</time>
      </trkpt>
      <trkpt lat="49.42747" lon="0.9686">
        <ele>82</ele>
        <time>2018-09-23T07:31:02Z</time>
      </trkpt>
      <trkpt lat="49.42748" lon="0.96846">
        <ele>81.5</ele>
        <time>2018-09-23T07:31:04Z</time>
      </trkpt>
      <trkpt lat="49.42747" lon="0.96831">
        <ele>81.2</ele>
        <time>2018-09-23T07:31:06Z</time>
      </trkpt>
      <trkpt lat="49.42743" lon="0.96808">
        <ele>80.5</ele>
        <time>2018-09-23T07:31:09Z</time>
      </trkpt>
      <trkpt lat="49.42741" lon="0.96792">
        <ele>80</ele>
        <time>2018-09-23T07:31:12Z</time>
      </trkpt>
      <trkpt lat="49.42737" lon="0.96774">
        <ele>79.5</ele>
        <time>2018-09-23T07:31:15Z</time>
      </trkpt>
      <trkpt lat="49.42735" lon="0.96759">
        <ele>78.9</ele>
        <time>2018-09-23T07:31:18Z</time>
      </trkpt>
      <trkpt lat="49.42732" lon="0.96743">
        <ele>78</ele>
        <time>2018-09-23T07:31:21Z</time>
      </trkpt>
      <trkpt lat="49.42725" lon="0.9673">
        <ele>77.1</ele>
        <time>2018-09-23T07:31:24Z</time>
      </trkpt>
      <trkpt lat="49.42717" lon="0.96717">
        <ele>76.5</ele>
        <time>2018-09-23T07:31:26Z</time>
      </trkpt>
      <trkpt lat="49.42711" lon="0.96706">
        <ele>76.1</ele>
        <time>2018-09-23T07:31:27Z</time>
      </trkpt>
      <trkpt lat="49.42704" lon="0.96693">
        <ele>75.4</ele>
        <time>2018-09-23T07:31:29Z</time>
      </trkpt>
      <trkpt lat="49.42696" lon="0.96677">
        <ele>74.5</ele>
        <time>2018-09-23T07:31:31Z</time>
      </trkpt>
      <trkpt lat="49.42689" lon="0.96662">
        <ele>73.4</ele>
        <time>2018-09-23T07:31:33Z</time>
      </trkpt>
      <trkpt lat="49.42684" lon="0.9665">
        <ele>72.6</ele>
        <time>2018-09-23T07:31:35Z</time>
      </trkpt>
      <trkpt lat="49.42679" lon="0.96635">
        <ele>71.9</ele>
        <time>2018-09-23T07:31:37Z</time>
      </trkpt>
      <trkpt lat="49.42672" lon="0.96626">
        <ele>71.5</ele>
        <time>2018-09-23T07:31:38Z</time>
      </trkpt>
      <trkpt lat="49.42666" lon="0.96613">
        <ele>70.5</ele>
        <time>2018-09-23T07:31:40Z</time>
      </trkpt>
      <trkpt lat="49.42662" lon="0.96597">
        <ele>69.2</ele>
        <time>2018-09-23T07:31:43Z</time>
      </trkpt>
      <trkpt lat="49.42658" lon="0.96584">
        <ele>67.8</ele>
        <time>2018-09-23T07:31:46Z</time>
      </trkpt>
      <trkpt lat="49.42654" lon="0.9657">
        <ele>66.3</ele>
        <time>2018-09-23T07:31:48Z</time>
      </trkpt>
      <trkpt lat="49.42647" lon="0.96557">
        <ele>65.7</ele>
        <time>2018-09-23T07:31:50Z</time>
      </trkpt>
      <trkpt lat="49.4264" lon="0.96544">
        <ele>65.5</ele>
        <time>2018-09-23T07:31:51Z</time>
      </trkpt>
      <trkpt lat="49.42632" lon="0.96531">
        <ele>65.3</ele>
        <time>2018-09-23T07:31:52Z</time>
      </trkpt>
      <trkpt lat="49.42622" lon="0.96516">
        <ele>64.5</ele>
        <time>2018-09-23T07:31:55Z</time>
      </trkpt>
      <trkpt lat="49.42614" lon="0.96508">
        <ele>63.8</ele>
        <time>2018-09-23T07:31:58Z</time>
      </trkpt>
      <trkpt lat="49.42606" lon="0.96502">
        <ele>63.4</ele>
        <time>2018-09-23T07:32:01Z</time>
      </trkpt>
      <trkpt lat="49.42596" lon="0.96503">
        <ele>63</ele>
        <time>2018-09-23T07:32:05Z</time>
      </trkpt>
      <trkpt lat="49.42587" lon="0.96506">
        <ele>62.8</ele>
        <time>2018-09-23T07:32:09Z</time>
      </trkpt>
      <trkpt lat="49.42579" lon="0.96515">
        <ele>62.5</ele>
        <time>2018-09-23T07:32:13Z</time>
      </trkpt>
      <trkpt lat="49.42569" lon="0.9652">
        <ele>62.4</ele>
        <time>2018-09-23T07:32:17Z</time>
      </trkpt>
      <trkpt lat="49.42561" lon="0.96527">
        <ele>62.3</ele>
        <time>2018-09-23T07:32:20Z</time>
      </trkpt>
      <trkpt lat="49.42552" lon="0.96533">
        <ele>62.4</ele>
        <time>2018-09-23T07:32:23Z</time>
      </trkpt>
      <trkpt lat="49.42543" lon="0.96539">
        <ele>62.6</ele>
        <time>2018-09-23T07:32:27Z</time>
      </trkpt>
      <trkpt lat="49.42534" lon="0.96542">
        <ele>62.8</ele>
        <time>2018-09-23T07:32:30Z</time>
      </trkpt>
      <trkpt lat="49.42524" lon="0.96544">
        <ele>63.2</ele>
        <time>2018-09-23T07:32:34Z</time>
      </trkpt>
      <trkpt lat="49.42513" lon="0.9655">
        <ele>63.5</ele>
        <time>2018-09-23T07:32:37Z</time>
      </trkpt>
      <trkpt lat="49.42505" lon="0.96557">
        <ele>64</ele>
        <time>2018-09-23T07:32:41Z</time>
      </trkpt>
      <trkpt lat="49.42495" lon="0.96563">
        <ele>64.5</ele>
        <time>2018-09-23T07:32:46Z</time>
      </trkpt>
      <trkpt lat="49.42485" lon="0.96565">
        <ele>64.9</ele>
        <time>2018-09-23T07:32:51Z</time>
      </trkpt>
      <trkpt lat="49.42475" lon="0.96568">
        <ele>65.5</ele>
        <time>2018-09-23T07:32:56Z</time>
      </trkpt>
      <trkpt lat="49.42467" lon="0.96573">
        <ele>66</ele>
        <time>2018-09-23T07:33:00Z</time>
      </trkpt>
      <trkpt lat="49.42459" lon="0.96578">
        <ele>66.9</ele>
        <time>2018-09-23T07:33:05Z</time>
      </trkpt>
      <trkpt lat="49.42448" lon="0.96581">
        <ele>67.6</ele>
        <time>2018-09-23T07:33:10Z</time>
      </trkpt>
      <trkpt lat="49.42439" lon="0.96584">
        <ele>68</ele>
        <time>2018-09-23T07:33:15Z</time>
      </trkpt>
      <trkpt lat="49.42431" lon="0.96591">
        <ele>68.7</ele>
        <time>2018-09-23T07:33:20Z</time>
      </trkpt>
      <trkpt lat="49.42425" lon="0.96602">
        <ele>69.6</ele>
        <time>2018-09-23T07:33:26Z</time>
      </trkpt>
      <trkpt lat="49.4242" lon="0.96615">
        <ele>70.4</ele>
        <time>2018-09-23T07:33:31Z</time>
      </trkpt>
      <trkpt lat="49.42413" lon="0.96627">
        <ele>70.9</ele>
        <time>2018-09-23T07:33:35Z</time>
      </trkpt>
      <trkpt lat="49.42407" lon="0.96639">
        <ele>71.7</ele>
        <time>2018-09-23T07:33:40Z</time>
      </trkpt>
      <trkpt lat="49.42398" lon="0.96649">
        <ele>72.3</ele>
        <time>2018-09-23T07:33:46Z</time>
      </trkpt>
      <trkpt lat="49.4239" lon="0.96653">
        <ele>72.7</ele>
        <time>2018-09-23T07:33:50Z</time>
      </trkpt>
      <trkpt lat="49.42384" lon="0.96669">
        <ele>73.4</ele>
        <time>2018-09-23T07:33:55Z</time>
      </trkpt>
      <trkpt lat="49.42383" lon="0.96684">
        <ele>73.7</ele>
        <time>2018-09-23T07:33:58Z</time>
      </trkpt>
      <trkpt lat="49.42381" lon="0.96699">
        <ele>74</ele>
        <time>2018-09-23T07:34:02Z</time>
      </trkpt>
      <trkpt lat="49.42376" lon="0.96715">
        <ele>74.3</ele>
        <time>2018-09-23T07:34:06Z</time>
      </trkpt>
      <trkpt lat="49.42374" lon="0.9673">
        <ele>74.9</ele>
        <time>2018-09-23T07:34:09Z</time>
      </trkpt>
      <trkpt lat="49.42371" lon="0.96745">
        <ele>75.2</ele>
        <time>2018-09-23T07:34:12Z</time>
      </trkpt>
      <trkpt lat="49.42369" lon="0.96761">
        <ele>75.6</ele>
        <time>2018-09-23T07:34:15Z</time>
      </trkpt>
      <trkpt lat="49.42367" lon="0.96775">
        <ele>76</ele>
        <time>2018-09-23T07:34:18Z</time>
      </trkpt>
      <trkpt lat="49.42365" lon="0.9679">
        <ele>76.3</ele>
        <time>2018-09-23T07:34:21Z</time>
      </trkpt>
      <trkpt lat="49.42365" lon="0.96804">
        <ele>76.5</ele>
        <time>2018-09-23T07:34:24Z</time>
      </trkpt>
      <trkpt lat="49.42362" lon="0.9682">
        <ele>76.7</ele>
        <time>2018-09-23T07:34:27Z</time>
      </trkpt>
      <trkpt lat="49.4236" lon="0.96834">
        <ele>76.9</ele>
        <time>2018-09-23T07:34:30Z</time>
      </trkpt>
      <trkpt lat="49.42358" lon="0.96849">
        <ele>77.1</ele>
        <time>2018-09-23T07:34:33Z</time>
      </trkpt>
      <trkpt lat="49.42355" lon="0.96865">
        <ele>77.5</ele>
        <time>2018-09-23T07:34:36Z</time>
      </trkpt>
      <trkpt lat="49.42353" lon="0.96879">
        <ele>77.6</ele>
        <time>2018-09-23T07:34:39Z</time>
      </trkpt>
      <trkpt lat="49.4235" lon="0.96897">
        <ele>77.8</ele>
        <time>2018-09-23T07:34:43Z</time>
      </trkpt>
      <trkpt lat="49.42349" lon="0.96912">
        <ele>78.1</ele>
        <time>2018-09-23T07:34:46Z</time>
      </trkpt>
      <trkpt lat="49.42345" lon="0.96927">
        <ele>78.2</ele>
        <time>2018-09-23T07:34:49Z</time>
      </trkpt>
      <trkpt lat="49.42343" lon="0.96942">
        <ele>78.6</ele>
        <time>2018-09-23T07:34:52Z</time>
      </trkpt>
      <trkpt lat="49.42341" lon="0.9696">
        <ele>78.8</ele>
        <time>2018-09-23T07:34:55Z</time>
      </trkpt>
      <trkpt lat="49.42338" lon="0.96976">
        <ele>79.1</ele>
        <time>2018-09-23T07:34:58Z</time>
      </trkpt>
      <trkpt lat="49.42335" lon="0.96993">
        <ele>79.3</ele>
        <time>2018-09-23T07:35:01Z</time>
      </trkpt>
      <trkpt lat="49.42338" lon="0.97009">
        <ele>79.5</ele>
        <time>2018-09-23T07:35:04Z</time>
      </trkpt>
      <trkpt lat="49.42345" lon="0.97022">
        <ele>79.6</ele>
        <time>2018-09-23T07:35:07Z</time>
      </trkpt>
      <trkpt lat="49.42351" lon="0.97033">
        <ele>79.9</ele>
        <time>2018-09-23T07:35:10Z</time>
      </trkpt>
      <trkpt lat="49.42357" lon="0.97045">
        <ele>80.1</ele>
        <time>2018-09-23T07:35:13Z</time>
      </trkpt>
      <trkpt lat="49.42364" lon="0.97057">
        <ele>80.3</ele>
        <time>2018-09-23T07:35:18Z</time>
      </trkpt>
      <trkpt lat="49.42369" lon="0.9707">
        <ele>80.7</ele>
        <time>2018-09-23T07:35:24Z</time>
      </trkpt>
      <trkpt lat="49.42376" lon="0.97086">
        <ele>80.8</ele>
        <time>2018-09-23T07:35:28Z</time>
      </trkpt>
      <trkpt lat="49.42383" lon="0.97102">
        <ele>81.3</ele>
        <time>2018-09-23T07:35:31Z</time>
      </trkpt>
      <trkpt lat="49.42391" lon="0.97118">
        <ele>81.3</ele>
        <time>2018-09-23T07:35:34Z</time>
      </trkpt>
      <trkpt lat="49.42399" lon="0.97134">
        <ele>81.2</ele>
        <time>2018-09-23T07:35:37Z</time>
      </trkpt>
      <trkpt lat="49.42407" lon="0.9715">
        <ele>81.4</ele>
        <time>2018-09-23T07:35:40Z</time>
      </trkpt>
      <trkpt lat="49.42414" lon="0.97166">
        <ele>81.6</ele>
        <time>2018-09-23T07:35:43Z</time>
      </trkpt>
      <trkpt lat="49.42422" lon="0.97182">
        <ele>82</ele>
        <time>2018-09-23T07:35:46Z</time>
      </trkpt>
      <trkpt lat="49.42431" lon="0.97197">
        <ele>81.4</ele>
        <time>2018-09-23T07:35:49Z</time>
      </trkpt>
      <trkpt lat="49.42437" lon="0.9721">
        <ele>81.6</ele>
        <time>2018-09-23T07:35:51Z</time>
      </trkpt>
      <trkpt lat="49.42443" lon="0.97222">
        <ele>81.6</ele>
        <time>2018-09-23T07:35:53Z</time>
      </trkpt>
      <trkpt lat="49.42448" lon="0.97235">
        <ele>81.7</ele>
        <time>2018-09-23T07:35:55Z</time>
      </trkpt>
      <trkpt lat="49.42455" lon="0.97248">
        <ele>81.8</ele>
        <time>2018-09-23T07:35:57Z</time>
      </trkpt>
      <trkpt lat="49.42461" lon="0.9726">
        <ele>81.8</ele>
        <time>2018-09-23T07:35:59Z</time>
      </trkpt>
      <trkpt lat="49.42467" lon="0.97273">
        <ele>81.9</ele>
        <time>2018-09-23T07:36:01Z</time>
      </trkpt>
      <trkpt lat="49.42472" lon="0.97287">
        <ele>82</ele>
        <time>2018-09-23T07:36:03Z</time>
      </trkpt>
      <trkpt lat="49.42477" lon="0.97299">
        <ele>82</ele>
        <time>2018-09-23T07:36:05Z</time>
      </trkpt>
      <trkpt lat="49.42484" lon="0.97313">
        <ele>82</ele>
        <time>2018-09-23T07:36:07Z</time>
      </trkpt>
      <trkpt lat="49.4249" lon="0.97326">
        <ele>82.3</ele>
        <time>2018-09-23T07:36:09Z</time>
      </trkpt>
      <trkpt lat="49.42496" lon="0.9734">
        <ele>82.4</ele>
        <time>2018-09-23T07:36:11Z</time>
      </trkpt>
      <trkpt lat="49.42502" lon="0.97353">
        <ele>82.4</ele>
        <time>2018-09-23T07:36:13Z</time>
      </trkpt>
      <trkpt lat="49.42508" lon="0.97366">
        <ele>82.4</ele>
        <time>2018-09-23T07:36:15Z</time>
      </trkpt>
      <trkpt lat="49.42516" lon="0.97379">
        <ele>82.4</ele>
        <time>2018-09-23T07:36:17Z</time>
      </trkpt>
      <trkpt lat="49.42522" lon="0.97392">
        <ele>82.5</ele>
        <time>2018-09-23T07:36:19Z</time>
      </trkpt>
      <trkpt lat="49.42528" lon="0.97404">
        <ele>82.6</ele>
        <time>2018-09-23T07:36:21Z</time>
      </trkpt>
      <trkpt lat="49.42534" lon="0.97417">
        <ele>82.7</ele>
        <time>2018-09-23T07:36:23Z</time>
      </trkpt>
      <trkpt lat="49.4254" lon="0.9743">
        <ele>82.8</ele>
        <time>2018-09-23T07:36:25Z</time>
      </trkpt>
      <trkpt lat="49.42546" lon="0.97442">
        <ele>83</ele>
        <time>2018-09-23T07:36:27Z</time>
      </trkpt>
      <trkpt lat="49.42552" lon="0.97455">
        <ele>82.9</ele>
        <time>2018-09-23T07:36:29Z</time>
      </trkpt>
      <trkpt lat="49.42559" lon="0.97467">
        <ele>83</ele>
        <time>2018-09-23T07:36:31Z</time>
      </trkpt>
      <trkpt lat="49.42565" lon="0.9748">
        <ele>83.1</ele>
        <time>2018-09-23T07:36:33Z</time>
      </trkpt>
      <trkpt lat="49.42571" lon="0.97493">
        <ele>83.1</ele>
        <time>2018-09-23T07:36:35Z</time>
      </trkpt>
      <trkpt lat="49.42578" lon="0.97506">
        <ele>83.2</ele>
        <time>2018-09-23T07:36:37Z</time>
      </trkpt>
      <trkpt lat="49.42583" lon="0.97519">
        <ele>83.1</ele>
        <time>2018-09-23T07:36:39Z</time>
      </trkpt>
      <trkpt lat="49.42589" lon="0.97532">
        <ele>83</ele>
        <time>2018-09-23T07:36:41Z</time>
      </trkpt>
      <trkpt lat="49.42596" lon="0.97545">
        <ele>83</ele>
        <time>2018-09-23T07:36:43Z</time>
      </trkpt>
      <trkpt lat="49.42602" lon="0.97559">
        <ele>83.1</ele>
        <time>2018-09-23T07:36:45Z</time>
      </trkpt>
      <trkpt lat="49.42609" lon="0.97572">
        <ele>83.1</ele>
        <time>2018-09-23T07:36:47Z</time>
      </trkpt>
      <trkpt lat="49.42616" lon="0.97584">
        <ele>83.1</ele>
        <time>2018-09-23T07:36:49Z</time>
      </trkpt>
      <trkpt lat="49.42622" lon="0.97597">
        <ele>83.1</ele>
        <time>2018-09-23T07:36:51Z</time>
      </trkpt>
      <trkpt lat="49.42628" lon="0.97609">
        <ele>83.1</ele>
        <time>2018-09-23T07:36:53Z</time>
      </trkpt>
      <trkpt lat="49.42634" lon="0.97622">
        <ele>83.1</ele>
        <time>2018-09-23T07:36:55Z</time>
      </trkpt>
      <trkpt lat="49.42639" lon="0.97633">
        <ele>83.1</ele>
        <time>2018-09-23T07:36:57Z</time>
      </trkpt>
      <trkpt lat="49.42646" lon="0.9765">
        <ele>83</ele>
        <time>2018-09-23T07:37:00Z</time>
      </trkpt>
      <trkpt lat="49.42645" lon="0.97666">
        <ele>82.4</ele>
        <time>2018-09-23T07:37:02Z</time>
      </trkpt>
      <trkpt lat="49.42644" lon="0.9768">
        <ele>82.2</ele>
        <time>2018-09-23T07:37:04Z</time>
      </trkpt>
      <trkpt lat="49.42642" lon="0.97693">
        <ele>82.4</ele>
        <time>2018-09-23T07:37:06Z</time>
      </trkpt>
      <trkpt lat="49.4264" lon="0.97709">
        <ele>82.6</ele>
        <time>2018-09-23T07:37:08Z</time>
      </trkpt>
      <trkpt lat="49.42638" lon="0.97723">
        <ele>82.5</ele>
        <time>2018-09-23T07:37:10Z</time>
      </trkpt>
      <trkpt lat="49.42635" lon="0.9775">
        <ele>81</ele>
        <time>2018-09-23T07:37:14Z</time>
      </trkpt>
      <trkpt lat="49.42632" lon="0.97773">
        <ele>81.8</ele>
        <time>2018-09-23T07:37:17Z</time>
      </trkpt>
      <trkpt lat="49.42627" lon="0.97786">
        <ele>81.8</ele>
        <time>2018-09-23T07:37:19Z</time>
      </trkpt>
      <trkpt lat="49.42618" lon="0.97796">
        <ele>81.7</ele>
        <time>2018-09-23T07:37:21Z</time>
      </trkpt>
      <trkpt lat="49.42608" lon="0.97806">
        <ele>81.3</ele>
        <time>2018-09-23T07:37:23Z</time>
      </trkpt>
      <trkpt lat="49.42599" lon="0.97817">
        <ele>80.8</ele>
        <time>2018-09-23T07:37:25Z</time>
      </trkpt>
      <trkpt lat="49.4259" lon="0.9783">
        <ele>80.4</ele>
        <time>2018-09-23T07:37:27Z</time>
      </trkpt>
      <trkpt lat="49.42584" lon="0.97847">
        <ele>80</ele>
        <time>2018-09-23T07:37:29Z</time>
      </trkpt>
      <trkpt lat="49.42575" lon="0.97865">
        <ele>79.3</ele>
        <time>2018-09-23T07:37:31Z</time>
      </trkpt>
      <trkpt lat="49.42566" lon="0.97884">
        <ele>78.9</ele>
        <time>2018-09-23T07:37:33Z</time>
      </trkpt>
      <trkpt lat="49.42557" lon="0.97902">
        <ele>78</ele>
        <time>2018-09-23T07:37:35Z</time>
      </trkpt>
      <trkpt lat="49.42551" lon="0.97922">
        <ele>77.2</ele>
        <time>2018-09-23T07:37:37Z</time>
      </trkpt>
      <trkpt lat="49.42544" lon="0.97942">
        <ele>76.1</ele>
        <time>2018-09-23T07:37:39Z</time>
      </trkpt>
      <trkpt lat="49.42535" lon="0.97959">
        <ele>74.9</ele>
        <time>2018-09-23T07:37:41Z</time>
      </trkpt>
      <trkpt lat="49.42526" lon="0.97973">
        <ele>73.7</ele>
        <time>2018-09-23T07:37:43Z</time>
      </trkpt>
      <trkpt lat="49.42517" lon="0.97987">
        <ele>72</ele>
        <time>2018-09-23T07:37:45Z</time>
      </trkpt>
      <trkpt lat="49.42507" lon="0.98">
        <ele>70.7</ele>
        <time>2018-09-23T07:37:47Z</time>
      </trkpt>
      <trkpt lat="49.42497" lon="0.98011">
        <ele>69.5</ele>
        <time>2018-09-23T07:37:49Z</time>
      </trkpt>
      <trkpt lat="49.42485" lon="0.98023">
        <ele>67</ele>
        <time>2018-09-23T07:37:51Z</time>
      </trkpt>
      <trkpt lat="49.42467" lon="0.98039">
        <ele>66.6</ele>
        <time>2018-09-23T07:37:54Z</time>
      </trkpt>
      <trkpt lat="49.42456" lon="0.98048">
        <ele>65.6</ele>
        <time>2018-09-23T07:37:56Z</time>
      </trkpt>
      <trkpt lat="49.42447" lon="0.98056">
        <ele>64.8</ele>
        <time>2018-09-23T07:37:58Z</time>
      </trkpt>
      <trkpt lat="49.42437" lon="0.98061">
        <ele>64</ele>
        <time>2018-09-23T07:38:00Z</time>
      </trkpt>
      <trkpt lat="49.42428" lon="0.98064">
        <ele>63.1</ele>
        <time>2018-09-23T07:38:02Z</time>
      </trkpt>
      <trkpt lat="49.42416" lon="0.98059">
        <ele>60.9</ele>
        <time>2018-09-23T07:38:05Z</time>
      </trkpt>
      <trkpt lat="49.42403" lon="0.98056">
        <ele>59.2</ele>
        <time>2018-09-23T07:38:08Z</time>
      </trkpt>
      <trkpt lat="49.42394" lon="0.98053">
        <ele>58.2</ele>
        <time>2018-09-23T07:38:10Z</time>
      </trkpt>
      <trkpt lat="49.42386" lon="0.98041">
        <ele>56.1</ele>
        <time>2018-09-23T07:38:15Z</time>
      </trkpt>
      <trkpt lat="49.42375" lon="0.98041">
        <ele>53.2</ele>
        <time>2018-09-23T07:38:23Z</time>
      </trkpt>
      <trkpt lat="49.42364" lon="0.98032">
        <ele>52.2</ele>
        <time>2018-09-23T07:38:27Z</time>
      </trkpt>
      <trkpt lat="49.42356" lon="0.98025">
        <ele>51.5</ele>
        <time>2018-09-23T07:38:29Z</time>
      </trkpt>
      <trkpt lat="49.42345" lon="0.98017">
        <ele>50.7</ele>
        <time>2018-09-23T07:38:32Z</time>
      </trkpt>
      <trkpt lat="49.42337" lon="0.98009">
        <ele>50.5</ele>
        <time>2018-09-23T07:38:34Z</time>
      </trkpt>
      <trkpt lat="49.42329" lon="0.97998">
        <ele>50.3</ele>
        <time>2018-09-23T07:38:36Z</time>
      </trkpt>
      <trkpt lat="49.4232" lon="0.97988">
        <ele>50</ele>
        <time>2018-09-23T07:38:38Z</time>
      </trkpt>
      <trkpt lat="49.42311" lon="0.97978">
        <ele>49.8</ele>
        <time>2018-09-23T07:38:40Z</time>
      </trkpt>
      <trkpt lat="49.42303" lon="0.97969">
        <ele>49.6</ele>
        <time>2018-09-23T07:38:42Z</time>
      </trkpt>
      <trkpt lat="49.42295" lon="0.97963">
        <ele>49.4</ele>
        <time>2018-09-23T07:38:44Z</time>
      </trkpt>
      <trkpt lat="49.42286" lon="0.97958">
        <ele>49.4</ele>
        <time>2018-09-23T07:38:46Z</time>
      </trkpt>
      <trkpt lat="49.42277" lon="0.97955">
        <ele>49.4</ele>
        <time>2018-09-23T07:38:48Z</time>
      </trkpt>
      <trkpt lat="49.42266" lon="0.97953">
        <ele>49.4</ele>
        <time>2018-09-23T07:38:51Z</time>
      </trkpt>
      <trkpt lat="49.42256" lon="0.97954">
        <ele>49.5</ele>
        <time>2018-09-23T07:38:54Z</time>
      </trkpt>
      <trkpt lat="49.42246" lon="0.97957">
        <ele>49.4</ele>
        <time>2018-09-23T07:38:57Z</time>
      </trkpt>
      <trkpt lat="49.42236" lon="0.97962">
        <ele>49.7</ele>
        <time>2018-09-23T07:39:01Z</time>
      </trkpt>
      <trkpt lat="49.42225" lon="0.97968">
        <ele>50</ele>
        <time>2018-09-23T07:39:05Z</time>
      </trkpt>
      <trkpt lat="49.42213" lon="0.97977">
        <ele>50.4</ele>
        <time>2018-09-23T07:39:10Z</time>
      </trkpt>
      <trkpt lat="49.42204" lon="0.97987">
        <ele>51.1</ele>
        <time>2018-09-23T07:39:15Z</time>
      </trkpt>
      <trkpt lat="49.42196" lon="0.97998">
        <ele>51.6</ele>
        <time>2018-09-23T07:39:20Z</time>
      </trkpt>
      <trkpt lat="49.4219" lon="0.98008">
        <ele>52.3</ele>
        <time>2018-09-23T07:39:24Z</time>
      </trkpt>
      <trkpt lat="49.42184" lon="0.98019">
        <ele>52.8</ele>
        <time>2018-09-23T07:39:28Z</time>
      </trkpt>
      <trkpt lat="49.42179" lon="0.9803">
        <ele>53.6</ele>
        <time>2018-09-23T07:39:32Z</time>
      </trkpt>
      <trkpt lat="49.42173" lon="0.98042">
        <ele>54.3</ele>
        <time>2018-09-23T07:39:36Z</time>
      </trkpt>
      <trkpt lat="49.42167" lon="0.98054">
        <ele>55</ele>
        <time>2018-09-23T07:39:40Z</time>
      </trkpt>
      <trkpt lat="49.42162" lon="0.98067">
        <ele>55.5</ele>
        <time>2018-09-23T07:39:44Z</time>
      </trkpt>
      <trkpt lat="49.42157" lon="0.9808">
        <ele>56.2</ele>
        <time>2018-09-23T07:39:48Z</time>
      </trkpt>
      <trkpt lat="49.42152" lon="0.98093">
        <ele>56.8</ele>
        <time>2018-09-23T07:39:52Z</time>
      </trkpt>
      <trkpt lat="49.42147" lon="0.98106">
        <ele>57.4</ele>
        <time>2018-09-23T07:39:56Z</time>
      </trkpt>
      <trkpt lat="49.42141" lon="0.98119">
        <ele>58.1</ele>
        <time>2018-09-23T07:40:00Z</time>
      </trkpt>
      <trkpt lat="49.42135" lon="0.98132">
        <ele>58.8</ele>
        <time>2018-09-23T07:40:04Z</time>
      </trkpt>
      <trkpt lat="49.42129" lon="0.98146">
        <ele>60.1</ele>
        <time>2018-09-23T07:40:09Z</time>
      </trkpt>
      <trkpt lat="49.42123" lon="0.98159">
        <ele>60.8</ele>
        <time>2018-09-23T07:40:13Z</time>
      </trkpt>
      <trkpt lat="49.42117" lon="0.98171">
        <ele>61.5</ele>
        <time>2018-09-23T07:40:17Z</time>
      </trkpt>
      <trkpt lat="49.4211" lon="0.98182">
        <ele>62.3</ele>
        <time>2018-09-23T07:40:21Z</time>
      </trkpt>
      <trkpt lat="49.42103" lon="0.98192">
        <ele>62.8</ele>
        <time>2018-09-23T07:40:25Z</time>
      </trkpt>
      <trkpt lat="49.42095" lon="0.98205">
        <ele>63.3</ele>
        <time>2018-09-23T07:40:29Z</time>
      </trkpt>
      <trkpt lat="49.42087" lon="0.98217">
        <ele>64.1</ele>
        <time>2018-09-23T07:40:33Z</time>
      </trkpt>
      <trkpt lat="49.42079" lon="0.98228">
        <ele>64.7</ele>
        <time>2018-09-23T07:40:37Z</time>
      </trkpt>
      <trkpt lat="49.42071" lon="0.98239">
        <ele>65.4</ele>
        <time>2018-09-23T07:40:41Z</time>
      </trkpt>
      <trkpt lat="49.42063" lon="0.98249">
        <ele>66.1</ele>
        <time>2018-09-23T07:40:45Z</time>
      </trkpt>
      <trkpt lat="49.42056" lon="0.98259">
        <ele>66.8</ele>
        <time>2018-09-23T07:40:49Z</time>
      </trkpt>
      <trkpt lat="49.42048" lon="0.98273">
        <ele>67.3</ele>
        <time>2018-09-23T07:40:53Z</time>
      </trkpt>
      <trkpt lat="49.4204" lon="0.98283">
        <ele>67.6</ele>
        <time>2018-09-23T07:40:56Z</time>
      </trkpt>
      <trkpt lat="49.42032" lon="0.98297">
        <ele>68.2</ele>
        <time>2018-09-23T07:41:00Z</time>
      </trkpt>
      <trkpt lat="49.42025" lon="0.9831">
        <ele>69.1</ele>
        <time>2018-09-23T07:41:04Z</time>
      </trkpt>
      <trkpt lat="49.42019" lon="0.98321">
        <ele>69.7</ele>
        <time>2018-09-23T07:41:07Z</time>
      </trkpt>
      <trkpt lat="49.42012" lon="0.98335">
        <ele>70.2</ele>
        <time>2018-09-23T07:41:11Z</time>
      </trkpt>
      <trkpt lat="49.42006" lon="0.98346">
        <ele>70.6</ele>
        <time>2018-09-23T07:41:14Z</time>
      </trkpt>
      <trkpt lat="49.42" lon="0.9836">
        <ele>71.4</ele>
        <time>2018-09-23T07:41:18Z</time>
      </trkpt>
      <trkpt lat="49.41995" lon="0.98373">
        <ele>72</ele>
        <time>2018-09-23T07:41:22Z</time>
      </trkpt>
      <trkpt lat="49.41991" lon="0.98388">
        <ele>72.9</ele>
        <time>2018-09-23T07:41:27Z</time>
      </trkpt>
      <trkpt lat="49.41987" lon="0.98404">
        <ele>73.8</ele>
        <time>2018-09-23T07:41:32Z</time>
      </trkpt>
      <trkpt lat="49.41983" lon="0.98417">
        <ele>74.4</ele>
        <time>2018-09-23T07:41:36Z</time>
      </trkpt>
      <trkpt lat="49.41979" lon="0.9843">
        <ele>75.1</ele>
        <time>2018-09-23T07:41:41Z</time>
      </trkpt>
      <trkpt lat="49.41969" lon="0.98426">
        <ele>75.8</ele>
        <time>2018-09-23T07:41:48Z</time>
      </trkpt>
      <trkpt lat="49.41959" lon="0.98427">
        <ele>76.4</ele>
        <time>2018-09-23T07:41:54Z</time>
      </trkpt>
      <trkpt lat="49.4195" lon="0.98427">
        <ele>77.8</ele>
        <time>2018-09-23T07:42:05Z</time>
      </trkpt>
      <trkpt lat="49.41941" lon="0.98424">
        <ele>80.2</ele>
        <time>2018-09-23T07:42:16Z</time>
      </trkpt>
      <trkpt lat="49.41931" lon="0.98421">
        <ele>82.6</ele>
        <time>2018-09-23T07:42:30Z</time>
      </trkpt>
      <trkpt lat="49.41923" lon="0.98416">
        <ele>85.4</ele>
        <time>2018-09-23T07:42:48Z</time>
      </trkpt>
      <trkpt lat="49.41913" lon="0.98412">
        <ele>87.1</ele>
        <time>2018-09-23T07:43:02Z</time>
      </trkpt>
      <trkpt lat="49.41905" lon="0.98409">
        <ele>89.7</ele>
        <time>2018-09-23T07:43:15Z</time>
      </trkpt>
      <trkpt lat="49.41896" lon="0.98403">
        <ele>92.3</ele>
        <time>2018-09-23T07:43:34Z</time>
      </trkpt>
      <trkpt lat="49.41886" lon="0.98401">
        <ele>94.6</ele>
        <time>2018-09-23T07:43:46Z</time>
      </trkpt>
      <trkpt lat="49.41876" lon="0.98397">
        <ele>97.1</ele>
        <time>2018-09-23T07:43:58Z</time>
      </trkpt>
      <trkpt lat="49.41867" lon="0.98393">
        <ele>101.3</ele>
        <time>2018-09-23T07:44:32Z</time>
      </trkpt>
      <trkpt lat="49.41858" lon="0.98389">
        <ele>101.7</ele>
        <time>2018-09-23T07:44:38Z</time>
      </trkpt>
      <trkpt lat="49.41848" lon="0.98385">
        <ele>101.9</ele>
        <time>2018-09-23T07:44:42Z</time>
      </trkpt>
      <trkpt lat="49.41838" lon="0.98384">
        <ele>102.6</ele>
        <time>2018-09-23T07:44:48Z</time>
      </trkpt>
      <trkpt lat="49.41827" lon="0.98383">
        <ele>103.1</ele>
        <time>2018-09-23T07:44:54Z</time>
      </trkpt>
      <trkpt lat="49.41818" lon="0.98382">
        <ele>103.9</ele>
        <time>2018-09-23T07:44:59Z</time>
      </trkpt>
      <trkpt lat="49.41808" lon="0.98378">
        <ele>104.7</ele>
        <time>2018-09-23T07:45:04Z</time>
      </trkpt>
      <trkpt lat="49.41799" lon="0.98377">
        <ele>105.6</ele>
        <time>2018-09-23T07:45:10Z</time>
      </trkpt>
      <trkpt lat="49.4179" lon="0.98374">
        <ele>106.3</ele>
        <time>2018-09-23T07:45:15Z</time>
      </trkpt>
      <trkpt lat="49.41779" lon="0.98369">
        <ele>107</ele>
        <time>2018-09-23T07:45:19Z</time>
      </trkpt>
      <trkpt lat="49.41768" lon="0.98367">
        <ele>108</ele>
        <time>2018-09-23T07:45:25Z</time>
      </trkpt>
      <trkpt lat="49.41758" lon="0.98364">
        <ele>108.6</ele>
        <time>2018-09-23T07:45:28Z</time>
      </trkpt>
      <trkpt lat="49.41749" lon="0.98362">
        <ele>109</ele>
        <time>2018-09-23T07:45:32Z</time>
      </trkpt>
      <trkpt lat="49.41739" lon="0.98359">
        <ele>109.2</ele>
        <time>2018-09-23T07:45:35Z</time>
      </trkpt>
      <trkpt lat="49.41728" lon="0.98353">
        <ele>109.3</ele>
        <time>2018-09-23T07:45:38Z</time>
      </trkpt>
      <trkpt lat="49.41718" lon="0.98349">
        <ele>109.7</ele>
        <time>2018-09-23T07:45:41Z</time>
      </trkpt>
      <trkpt lat="49.41707" lon="0.98346">
        <ele>110</ele>
        <time>2018-09-23T07:45:44Z</time>
      </trkpt>
      <trkpt lat="49.41698" lon="0.98343">
        <ele>110.2</ele>
        <time>2018-09-23T07:45:47Z</time>
      </trkpt>
      <trkpt lat="49.41687" lon="0.98337">
        <ele>110.3</ele>
        <time>2018-09-23T07:45:51Z</time>
      </trkpt>
      <trkpt lat="49.41677" lon="0.98334">
        <ele>110.7</ele>
        <time>2018-09-23T07:45:55Z</time>
      </trkpt>
      <trkpt lat="49.41666" lon="0.9833">
        <ele>111.4</ele>
        <time>2018-09-23T07:45:59Z</time>
      </trkpt>
      <trkpt lat="49.41656" lon="0.98327">
        <ele>111.5</ele>
        <time>2018-09-23T07:46:02Z</time>
      </trkpt>
      <trkpt lat="49.41647" lon="0.98325">
        <ele>111.8</ele>
        <time>2018-09-23T07:46:05Z</time>
      </trkpt>
      <trkpt lat="49.41635" lon="0.98325">
        <ele>112.2</ele>
        <time>2018-09-23T07:46:09Z</time>
      </trkpt>
      <trkpt lat="49.41624" lon="0.98319">
        <ele>112.7</ele>
        <time>2018-09-23T07:46:13Z</time>
      </trkpt>
      <trkpt lat="49.41613" lon="0.98313">
        <ele>112.9</ele>
        <time>2018-09-23T07:46:16Z</time>
      </trkpt>
      <trkpt lat="49.41603" lon="0.98309">
        <ele>113.1</ele>
        <time>2018-09-23T07:46:19Z</time>
      </trkpt>
      <trkpt lat="49.41593" lon="0.98306">
        <ele>113.1</ele>
        <time>2018-09-23T07:46:22Z</time>
      </trkpt>
      <trkpt lat="49.41582" lon="0.98302">
        <ele>113.4</ele>
        <time>2018-09-23T07:46:25Z</time>
      </trkpt>
      <trkpt lat="49.41572" lon="0.98299">
        <ele>113.6</ele>
        <time>2018-09-23T07:46:28Z</time>
      </trkpt>
      <trkpt lat="49.41561" lon="0.98295">
        <ele>113.9</ele>
        <time>2018-09-23T07:46:31Z</time>
      </trkpt>
      <trkpt lat="49.4155" lon="0.98291">
        <ele>114.1</ele>
        <time>2018-09-23T07:46:34Z</time>
      </trkpt>
      <trkpt lat="49.41539" lon="0.98287">
        <ele>114</ele>
        <time>2018-09-23T07:46:37Z</time>
      </trkpt>
      <trkpt lat="49.41527" lon="0.98283">
        <ele>114.2</ele>
        <time>2018-09-23T07:46:40Z</time>
      </trkpt>
      <trkpt lat="49.41516" lon="0.9828">
        <ele>114.4</ele>
        <time>2018-09-23T07:46:43Z</time>
      </trkpt>
      <trkpt lat="49.41505" lon="0.98276">
        <ele>114.4</ele>
        <time>2018-09-23T07:46:46Z</time>
      </trkpt>
      <trkpt lat="49.41492" lon="0.98273">
        <ele>114.3</ele>
        <time>2018-09-23T07:46:49Z</time>
      </trkpt>
      <trkpt lat="49.4148" lon="0.98267">
        <ele>114.4</ele>
        <time>2018-09-23T07:46:52Z</time>
      </trkpt>
      <trkpt lat="49.41467" lon="0.98263">
        <ele>114.6</ele>
        <time>2018-09-23T07:46:55Z</time>
      </trkpt>
      <trkpt lat="49.41457" lon="0.98261">
        <ele>114.7</ele>
        <time>2018-09-23T07:46:57Z</time>
      </trkpt>
      <trkpt lat="49.41444" lon="0.98253">
        <ele>114.7</ele>
        <time>2018-09-23T07:47:00Z</time>
      </trkpt>
      <trkpt lat="49.41438" lon="0.98238">
        <ele>115</ele>
        <time>2018-09-23T07:47:04Z</time>
      </trkpt>
      <trkpt lat="49.41434" lon="0.98225">
        <ele>114.9</ele>
        <time>2018-09-23T07:47:07Z</time>
      </trkpt>
      <trkpt lat="49.41428" lon="0.9821">
        <ele>115.1</ele>
        <time>2018-09-23T07:47:10Z</time>
      </trkpt>
      <trkpt lat="49.41423" lon="0.98196">
        <ele>115.2</ele>
        <time>2018-09-23T07:47:12Z</time>
      </trkpt>
      <trkpt lat="49.41417" lon="0.98178">
        <ele>115.6</ele>
        <time>2018-09-23T07:47:15Z</time>
      </trkpt>
      <trkpt lat="49.41412" lon="0.98165">
        <ele>115.6</ele>
        <time>2018-09-23T07:47:17Z</time>
      </trkpt>
      <trkpt lat="49.41407" lon="0.9815">
        <ele>115.7</ele>
        <time>2018-09-23T07:47:19Z</time>
      </trkpt>
      <trkpt lat="49.41401" lon="0.98132">
        <ele>115.8</ele>
        <time>2018-09-23T07:47:22Z</time>
      </trkpt>
      <trkpt lat="49.41395" lon="0.98117">
        <ele>115.9</ele>
        <time>2018-09-23T07:47:24Z</time>
      </trkpt>
      <trkpt lat="49.4139" lon="0.98104">
        <ele>116</ele>
        <time>2018-09-23T07:47:26Z</time>
      </trkpt>
      <trkpt lat="49.41386" lon="0.9809">
        <ele>116.1</ele>
        <time>2018-09-23T07:47:29Z</time>
      </trkpt>
      <trkpt lat="49.41382" lon="0.98073">
        <ele>116.4</ele>
        <time>2018-09-23T07:47:31Z</time>
      </trkpt>
      <trkpt lat="49.41376" lon="0.98059">
        <ele>116.3</ele>
        <time>2018-09-23T07:47:33Z</time>
      </trkpt>
      <trkpt lat="49.41371" lon="0.98044">
        <ele>116.2</ele>
        <time>2018-09-23T07:47:35Z</time>
      </trkpt>
      <trkpt lat="49.41366" lon="0.9803">
        <ele>116.2</ele>
        <time>2018-09-23T07:47:37Z</time>
      </trkpt>
      <trkpt lat="49.41361" lon="0.98016">
        <ele>116.1</ele>
        <time>2018-09-23T07:47:39Z</time>
      </trkpt>
      <trkpt lat="49.41355" lon="0.98">
        <ele>116.1</ele>
        <time>2018-09-23T07:47:41Z</time>
      </trkpt>
      <trkpt lat="49.4135" lon="0.97984">
        <ele>116.2</ele>
        <time>2018-09-23T07:47:43Z</time>
      </trkpt>
      <trkpt lat="49.41345" lon="0.9797">
        <ele>116.1</ele>
        <time>2018-09-23T07:47:45Z</time>
      </trkpt>
      <trkpt lat="49.41342" lon="0.97956">
        <ele>116.2</ele>
        <time>2018-09-23T07:47:47Z</time>
      </trkpt>
      <trkpt lat="49.41338" lon="0.97942">
        <ele>116</ele>
        <time>2018-09-23T07:47:50Z</time>
      </trkpt>
      <trkpt lat="49.41334" lon="0.97928">
        <ele>115.8</ele>
        <time>2018-09-23T07:47:52Z</time>
      </trkpt>
      <trkpt lat="49.41329" lon="0.9791">
        <ele>115.3</ele>
        <time>2018-09-23T07:47:54Z</time>
      </trkpt>
      <trkpt lat="49.41323" lon="0.97897">
        <ele>115</ele>
        <time>2018-09-23T07:47:55Z</time>
      </trkpt>
      <trkpt lat="49.41316" lon="0.97876">
        <ele>114.2</ele>
        <time>2018-09-23T07:47:57Z</time>
      </trkpt>
      <trkpt lat="49.41309" lon="0.97858">
        <ele>113.4</ele>
        <time>2018-09-23T07:47:59Z</time>
      </trkpt>
      <trkpt lat="49.41303" lon="0.9784">
        <ele>113.3</ele>
        <time>2018-09-23T07:48:01Z</time>
      </trkpt>
      <trkpt lat="49.41298" lon="0.97825">
        <ele>112.6</ele>
        <time>2018-09-23T07:48:03Z</time>
      </trkpt>
      <trkpt lat="49.41294" lon="0.9781">
        <ele>111.5</ele>
        <time>2018-09-23T07:48:05Z</time>
      </trkpt>
      <trkpt lat="49.41293" lon="0.97795">
        <ele>110.4</ele>
        <time>2018-09-23T07:48:08Z</time>
      </trkpt>
      <trkpt lat="49.41291" lon="0.97776">
        <ele>109.2</ele>
        <time>2018-09-23T07:48:11Z</time>
      </trkpt>
      <trkpt lat="49.41299" lon="0.97767">
        <ele>108</ele>
        <time>2018-09-23T07:48:14Z</time>
      </trkpt>
      <trkpt lat="49.41308" lon="0.97762">
        <ele>107.3</ele>
        <time>2018-09-23T07:48:16Z</time>
      </trkpt>
      <trkpt lat="49.41316" lon="0.97756">
        <ele>106.5</ele>
        <time>2018-09-23T07:48:18Z</time>
      </trkpt>
      <trkpt lat="49.41324" lon="0.97749">
        <ele>105.8</ele>
        <time>2018-09-23T07:48:20Z</time>
      </trkpt>
      <trkpt lat="49.41334" lon="0.9774">
        <ele>104.9</ele>
        <time>2018-09-23T07:48:23Z</time>
      </trkpt>
      <trkpt lat="49.41346" lon="0.97731">
        <ele>104.5</ele>
        <time>2018-09-23T07:48:25Z</time>
      </trkpt>
      <trkpt lat="49.41356" lon="0.97721">
        <ele>104</ele>
        <time>2018-09-23T07:48:27Z</time>
      </trkpt>
      <trkpt lat="49.41364" lon="0.97713">
        <ele>103.7</ele>
        <time>2018-09-23T07:48:29Z</time>
      </trkpt>
      <trkpt lat="49.41375" lon="0.97703">
        <ele>102.8</ele>
        <time>2018-09-23T07:48:31Z</time>
      </trkpt>
      <trkpt lat="49.41379" lon="0.97688">
        <ele>101.4</ele>
        <time>2018-09-23T07:48:33Z</time>
      </trkpt>
      <trkpt lat="49.41384" lon="0.97672">
        <ele>101</ele>
        <time>2018-09-23T07:48:35Z</time>
      </trkpt>
      <trkpt lat="49.41392" lon="0.97654">
        <ele>100.7</ele>
        <time>2018-09-23T07:48:37Z</time>
      </trkpt>
      <trkpt lat="49.41399" lon="0.97636">
        <ele>99.5</ele>
        <time>2018-09-23T07:48:39Z</time>
      </trkpt>
      <trkpt lat="49.41407" lon="0.97622">
        <ele>99.1</ele>
        <time>2018-09-23T07:48:41Z</time>
      </trkpt>
      <trkpt lat="49.41417" lon="0.97614">
        <ele>98.1</ele>
        <time>2018-09-23T07:48:43Z</time>
      </trkpt>
      <trkpt lat="49.4142" lon="0.97599">
        <ele>97.1</ele>
        <time>2018-09-23T07:48:45Z</time>
      </trkpt>
      <trkpt lat="49.41428" lon="0.97582">
        <ele>96.2</ele>
        <time>2018-09-23T07:48:48Z</time>
      </trkpt>
      <trkpt lat="49.41439" lon="0.97571">
        <ele>95.1</ele>
        <time>2018-09-23T07:48:50Z</time>
      </trkpt>
      <trkpt lat="49.41446" lon="0.97559">
        <ele>94.1</ele>
        <time>2018-09-23T07:48:52Z</time>
      </trkpt>
      <trkpt lat="49.4146" lon="0.97552">
        <ele>92.9</ele>
        <time>2018-09-23T07:48:54Z</time>
      </trkpt>
      <trkpt lat="49.41472" lon="0.97543">
        <ele>92.3</ele>
        <time>2018-09-23T07:48:56Z</time>
      </trkpt>
      <trkpt lat="49.41484" lon="0.97533">
        <ele>91.6</ele>
        <time>2018-09-23T07:48:58Z</time>
      </trkpt>
      <trkpt lat="49.41496" lon="0.97524">
        <ele>90.6</ele>
        <time>2018-09-23T07:49:00Z</time>
      </trkpt>
      <trkpt lat="49.41507" lon="0.97515">
        <ele>89.7</ele>
        <time>2018-09-23T07:49:02Z</time>
      </trkpt>
      <trkpt lat="49.4152" lon="0.97508">
        <ele>88.9</ele>
        <time>2018-09-23T07:49:04Z</time>
      </trkpt>
      <trkpt lat="49.41535" lon="0.97502">
        <ele>87.6</ele>
        <time>2018-09-23T07:49:06Z</time>
      </trkpt>
      <trkpt lat="49.41546" lon="0.97496">
        <ele>87</ele>
        <time>2018-09-23T07:49:08Z</time>
      </trkpt>
      <trkpt lat="49.41558" lon="0.97489">
        <ele>86.1</ele>
        <time>2018-09-23T07:49:10Z</time>
      </trkpt>
      <trkpt lat="49.41567" lon="0.97482">
        <ele>85.6</ele>
        <time>2018-09-23T07:49:11Z</time>
      </trkpt>
      <trkpt lat="49.41584" lon="0.97471">
        <ele>85</ele>
        <time>2018-09-23T07:49:13Z</time>
      </trkpt>
      <trkpt lat="49.41592" lon="0.97465">
        <ele>84.8</ele>
        <time>2018-09-23T07:49:14Z</time>
      </trkpt>
      <trkpt lat="49.41603" lon="0.97454">
        <ele>84.1</ele>
        <time>2018-09-23T07:49:16Z</time>
      </trkpt>
      <trkpt lat="49.41612" lon="0.97442">
        <ele>82.7</ele>
        <time>2018-09-23T07:49:18Z</time>
      </trkpt>
      <trkpt lat="49.41623" lon="0.97421">
        <ele>82.1</ele>
        <time>2018-09-23T07:49:20Z</time>
      </trkpt>
      <trkpt lat="49.4163" lon="0.97404">
        <ele>81.6</ele>
        <time>2018-09-23T07:49:22Z</time>
      </trkpt>
      <trkpt lat="49.41637" lon="0.97389">
        <ele>80.8</ele>
        <time>2018-09-23T07:49:24Z</time>
      </trkpt>
      <trkpt lat="49.41646" lon="0.97374">
        <ele>79.8</ele>
        <time>2018-09-23T07:49:26Z</time>
      </trkpt>
      <trkpt lat="49.41652" lon="0.9736">
        <ele>79.1</ele>
        <time>2018-09-23T07:49:28Z</time>
      </trkpt>
      <trkpt lat="49.41665" lon="0.97343">
        <ele>78.3</ele>
        <time>2018-09-23T07:49:30Z</time>
      </trkpt>
      <trkpt lat="49.41675" lon="0.9733">
        <ele>76.8</ele>
        <time>2018-09-23T07:49:32Z</time>
      </trkpt>
      <trkpt lat="49.41685" lon="0.9732">
        <ele>75.9</ele>
        <time>2018-09-23T07:49:34Z</time>
      </trkpt>
      <trkpt lat="49.41696" lon="0.97312">
        <ele>74.7</ele>
        <time>2018-09-23T07:49:37Z</time>
      </trkpt>
      <trkpt lat="49.41705" lon="0.97306">
        <ele>72.9</ele>
        <time>2018-09-23T07:49:42Z</time>
      </trkpt>
      <trkpt lat="49.41711" lon="0.97316">
        <ele>70</ele>
        <time>2018-09-23T07:49:51Z</time>
      </trkpt>
      <trkpt lat="49.41715" lon="0.97302">
        <ele>68.4</ele>
        <time>2018-09-23T07:50:01Z</time>
      </trkpt>
      <trkpt lat="49.41712" lon="0.97289">
        <ele>67.3</ele>
        <time>2018-09-23T07:50:06Z</time>
      </trkpt>
      <trkpt lat="49.41707" lon="0.97276">
        <ele>66.5</ele>
        <time>2018-09-23T07:50:11Z</time>
      </trkpt>
      <trkpt lat="49.41703" lon="0.97263">
        <ele>66.5</ele>
        <time>2018-09-23T07:50:17Z</time>
      </trkpt>
      <trkpt lat="49.41698" lon="0.97248">
        <ele>67.1</ele>
        <time>2018-09-23T07:50:23Z</time>
      </trkpt>
      <trkpt lat="49.4169" lon="0.97239">
        <ele>68</ele>
        <time>2018-09-23T07:50:30Z</time>
      </trkpt>
      <trkpt lat="49.41682" lon="0.97233">
        <ele>69.2</ele>
        <time>2018-09-23T07:50:38Z</time>
      </trkpt>
      <trkpt lat="49.41673" lon="0.97227">
        <ele>70.9</ele>
        <time>2018-09-23T07:50:57Z</time>
      </trkpt>
      <trkpt lat="49.41664" lon="0.97224">
        <ele>71.4</ele>
        <time>2018-09-23T07:51:08Z</time>
      </trkpt>
      <trkpt lat="49.41655" lon="0.97217">
        <ele>72.2</ele>
        <time>2018-09-23T07:51:18Z</time>
      </trkpt>
      <trkpt lat="49.41646" lon="0.97211">
        <ele>73.2</ele>
        <time>2018-09-23T07:51:26Z</time>
      </trkpt>
      <trkpt lat="49.41637" lon="0.97205">
        <ele>74.2</ele>
        <time>2018-09-23T07:51:34Z</time>
      </trkpt>
      <trkpt lat="49.41627" lon="0.97203">
        <ele>75.7</ele>
        <time>2018-09-23T07:51:41Z</time>
      </trkpt>
      <trkpt lat="49.41618" lon="0.97202">
        <ele>76.9</ele>
        <time>2018-09-23T07:51:49Z</time>
      </trkpt>
      <trkpt lat="49.41609" lon="0.97204">
        <ele>78.4</ele>
        <time>2018-09-23T07:51:57Z</time>
      </trkpt>
      <trkpt lat="49.41599" lon="0.97203">
        <ele>80.3</ele>
        <time>2018-09-23T07:52:06Z</time>
      </trkpt>
      <trkpt lat="49.4159" lon="0.97197">
        <ele>81.9</ele>
        <time>2018-09-23T07:52:14Z</time>
      </trkpt>
      <trkpt lat="49.4158" lon="0.97192">
        <ele>83.2</ele>
        <time>2018-09-23T07:52:21Z</time>
      </trkpt>
      <trkpt lat="49.41572" lon="0.97185">
        <ele>83.9</ele>
        <time>2018-09-23T07:52:26Z</time>
      </trkpt>
      <trkpt lat="49.41565" lon="0.97175">
        <ele>84.8</ele>
        <time>2018-09-23T07:52:31Z</time>
      </trkpt>
      <trkpt lat="49.4156" lon="0.97163">
        <ele>85.5</ele>
        <time>2018-09-23T07:52:36Z</time>
      </trkpt>
      <trkpt lat="49.41556" lon="0.97149">
        <ele>86</ele>
        <time>2018-09-23T07:52:40Z</time>
      </trkpt>
      <trkpt lat="49.41553" lon="0.97133">
        <ele>86.7</ele>
        <time>2018-09-23T07:52:45Z</time>
      </trkpt>
      <trkpt lat="49.41549" lon="0.97116">
        <ele>87.6</ele>
        <time>2018-09-23T07:52:50Z</time>
      </trkpt>
      <trkpt lat="49.4155" lon="0.971">
        <ele>88.1</ele>
        <time>2018-09-23T07:52:54Z</time>
      </trkpt>
      <trkpt lat="49.41553" lon="0.97086">
        <ele>88.7</ele>
        <time>2018-09-23T07:52:57Z</time>
      </trkpt>
      <trkpt lat="49.41554" lon="0.9707">
        <ele>88.8</ele>
        <time>2018-09-23T07:53:00Z</time>
      </trkpt>
      <trkpt lat="49.41557" lon="0.97053">
        <ele>89</ele>
        <time>2018-09-23T07:53:03Z</time>
      </trkpt>
      <trkpt lat="49.41557" lon="0.97036">
        <ele>88.9</ele>
        <time>2018-09-23T07:53:06Z</time>
      </trkpt>
      <trkpt lat="49.41554" lon="0.97019">
        <ele>88.8</ele>
        <time>2018-09-23T07:53:09Z</time>
      </trkpt>
      <trkpt lat="49.41548" lon="0.97003">
        <ele>88.9</ele>
        <time>2018-09-23T07:53:12Z</time>
      </trkpt>
      <trkpt lat="49.41542" lon="0.96989">
        <ele>88.8</ele>
        <time>2018-09-23T07:53:15Z</time>
      </trkpt>
      <trkpt lat="49.41533" lon="0.96977">
        <ele>88.7</ele>
        <time>2018-09-23T07:53:18Z</time>
      </trkpt>
      <trkpt lat="49.41526" lon="0.96965">
        <ele>88.9</ele>
        <time>2018-09-23T07:53:21Z</time>
      </trkpt>
      <trkpt lat="49.41521" lon="0.9695">
        <ele>89</ele>
        <time>2018-09-23T07:53:24Z</time>
      </trkpt>
      <trkpt lat="49.41517" lon="0.96936">
        <ele>89</ele>
        <time>2018-09-23T07:53:26Z</time>
      </trkpt>
      <trkpt lat="49.41511" lon="0.9692">
        <ele>88.9</ele>
        <time>2018-09-23T07:53:28Z</time>
      </trkpt>
      <trkpt lat="49.41504" lon="0.96906">
        <ele>88.7</ele>
        <time>2018-09-23T07:53:30Z</time>
      </trkpt>
      <trkpt lat="49.41496" lon="0.96892">
        <ele>88.8</ele>
        <time>2018-09-23T07:53:33Z</time>
      </trkpt>
      <trkpt lat="49.41485" lon="0.96878">
        <ele>88.9</ele>
        <time>2018-09-23T07:53:36Z</time>
      </trkpt>
      <trkpt lat="49.41478" lon="0.96869">
        <ele>89.3</ele>
        <time>2018-09-23T07:53:39Z</time>
      </trkpt>
      <trkpt lat="49.41475" lon="0.96855">
        <ele>89.7</ele>
        <time>2018-09-23T07:53:42Z</time>
      </trkpt>
      <trkpt lat="49.41475" lon="0.96841">
        <ele>90.1</ele>
        <time>2018-09-23T07:53:45Z</time>
      </trkpt>
      <trkpt lat="49.41478" lon="0.96822">
        <ele>90.5</ele>
        <time>2018-09-23T07:53:48Z</time>
      </trkpt>
      <trkpt lat="49.41478" lon="0.96807">
        <ele>90.5</ele>
        <time>2018-09-23T07:53:50Z</time>
      </trkpt>
      <trkpt lat="49.41478" lon="0.96792">
        <ele>90.5</ele>
        <time>2018-09-23T07:53:52Z</time>
      </trkpt>
      <trkpt lat="49.41473" lon="0.9677">
        <ele>90.5</ele>
        <time>2018-09-23T07:53:55Z</time>
      </trkpt>
      <trkpt lat="49.41467" lon="0.96758">
        <ele>90.4</ele>
        <time>2018-09-23T07:53:57Z</time>
      </trkpt>
      <trkpt lat="49.41461" lon="0.96744">
        <ele>90.4</ele>
        <time>2018-09-23T07:54:00Z</time>
      </trkpt>
      <trkpt lat="49.41454" lon="0.96729">
        <ele>90.6</ele>
        <time>2018-09-23T07:54:03Z</time>
      </trkpt>
      <trkpt lat="49.41449" lon="0.96712">
        <ele>90.9</ele>
        <time>2018-09-23T07:54:06Z</time>
      </trkpt>
      <trkpt lat="49.41446" lon="0.96695">
        <ele>91.1</ele>
        <time>2018-09-23T07:54:09Z</time>
      </trkpt>
      <trkpt lat="49.41443" lon="0.9668">
        <ele>91.3</ele>
        <time>2018-09-23T07:54:12Z</time>
      </trkpt>
      <trkpt lat="49.41439" lon="0.9666">
        <ele>91.4</ele>
        <time>2018-09-23T07:54:15Z</time>
      </trkpt>
      <trkpt lat="49.41439" lon="0.96642">
        <ele>91.5</ele>
        <time>2018-09-23T07:54:18Z</time>
      </trkpt>
      <trkpt lat="49.41432" lon="0.96627">
        <ele>91.6</ele>
        <time>2018-09-23T07:54:21Z</time>
      </trkpt>
      <trkpt lat="49.41424" lon="0.96615">
        <ele>91.7</ele>
        <time>2018-09-23T07:54:24Z</time>
      </trkpt>
      <trkpt lat="49.4142" lon="0.96599">
        <ele>91.7</ele>
        <time>2018-09-23T07:54:27Z</time>
      </trkpt>
      <trkpt lat="49.41415" lon="0.96582">
        <ele>91.9</ele>
        <time>2018-09-23T07:54:30Z</time>
      </trkpt>
      <trkpt lat="49.41411" lon="0.96566">
        <ele>92.1</ele>
        <time>2018-09-23T07:54:33Z</time>
      </trkpt>
      <trkpt lat="49.41406" lon="0.96551">
        <ele>92.2</ele>
        <time>2018-09-23T07:54:36Z</time>
      </trkpt>
      <trkpt lat="49.41398" lon="0.96543">
        <ele>92.4</ele>
        <time>2018-09-23T07:54:39Z</time>
      </trkpt>
      <trkpt lat="49.4139" lon="0.96531">
        <ele>92.9</ele>
        <time>2018-09-23T07:54:43Z</time>
      </trkpt>
      <trkpt lat="49.41386" lon="0.96518">
        <ele>93.2</ele>
        <time>2018-09-23T07:54:46Z</time>
      </trkpt>
      <trkpt lat="49.41385" lon="0.96503">
        <ele>93.6</ele>
        <time>2018-09-23T07:54:49Z</time>
      </trkpt>
      <trkpt lat="49.41386" lon="0.96488">
        <ele>93.7</ele>
        <time>2018-09-23T07:54:52Z</time>
      </trkpt>
      <trkpt lat="49.41387" lon="0.9647">
        <ele>93.7</ele>
        <time>2018-09-23T07:54:55Z</time>
      </trkpt>
      <trkpt lat="49.4139" lon="0.96452">
        <ele>93.5</ele>
        <time>2018-09-23T07:54:58Z</time>
      </trkpt>
      <trkpt lat="49.41391" lon="0.96434">
        <ele>93.4</ele>
        <time>2018-09-23T07:55:01Z</time>
      </trkpt>
      <trkpt lat="49.41391" lon="0.96416">
        <ele>93.2</ele>
        <time>2018-09-23T07:55:04Z</time>
      </trkpt>
      <trkpt lat="49.41391" lon="0.96402">
        <ele>92.9</ele>
        <time>2018-09-23T07:55:06Z</time>
      </trkpt>
      <trkpt lat="49.41393" lon="0.96388">
        <ele>92.6</ele>
        <time>2018-09-23T07:55:08Z</time>
      </trkpt>
      <trkpt lat="49.41394" lon="0.96372">
        <ele>92.4</ele>
        <time>2018-09-23T07:55:10Z</time>
      </trkpt>
      <trkpt lat="49.41393" lon="0.96357">
        <ele>92.2</ele>
        <time>2018-09-23T07:55:12Z</time>
      </trkpt>
      <trkpt lat="49.41387" lon="0.96342">
        <ele>92.1</ele>
        <time>2018-09-23T07:55:14Z</time>
      </trkpt>
      <trkpt lat="49.4138" lon="0.96332">
        <ele>91.9</ele>
        <time>2018-09-23T07:55:16Z</time>
      </trkpt>
      <trkpt lat="49.41372" lon="0.96323">
        <ele>91.9</ele>
        <time>2018-09-23T07:55:18Z</time>
      </trkpt>
      <trkpt lat="49.41363" lon="0.96321">
        <ele>92.2</ele>
        <time>2018-09-23T07:55:22Z</time>
      </trkpt>
      <trkpt lat="49.41352" lon="0.96322">
        <ele>92.9</ele>
        <time>2018-09-23T07:55:27Z</time>
      </trkpt>
      <trkpt lat="49.41343" lon="0.96321">
        <ele>93.7</ele>
        <time>2018-09-23T07:55:32Z</time>
      </trkpt>
      <trkpt lat="49.41332" lon="0.9632">
        <ele>94.1</ele>
        <time>2018-09-23T07:55:37Z</time>
      </trkpt>
      <trkpt lat="49.41323" lon="0.9632">
        <ele>94.8</ele>
        <time>2018-09-23T07:55:42Z</time>
      </trkpt>
      <trkpt lat="49.41313" lon="0.96323">
        <ele>95.5</ele>
        <time>2018-09-23T07:55:48Z</time>
      </trkpt>
      <trkpt lat="49.41304" lon="0.96328">
        <ele>96.4</ele>
        <time>2018-09-23T07:55:54Z</time>
      </trkpt>
      <trkpt lat="49.41294" lon="0.96335">
        <ele>96.9</ele>
        <time>2018-09-23T07:56:00Z</time>
      </trkpt>
      <trkpt lat="49.41284" lon="0.9634">
        <ele>97.5</ele>
        <time>2018-09-23T07:56:06Z</time>
      </trkpt>
      <trkpt lat="49.41275" lon="0.96345">
        <ele>97.8</ele>
        <time>2018-09-23T07:56:11Z</time>
      </trkpt>
      <trkpt lat="49.41266" lon="0.96351">
        <ele>98.4</ele>
        <time>2018-09-23T07:56:16Z</time>
      </trkpt>
      <trkpt lat="49.41257" lon="0.96362">
        <ele>98.9</ele>
        <time>2018-09-23T07:56:21Z</time>
      </trkpt>
      <trkpt lat="49.41252" lon="0.96373">
        <ele>99.3</ele>
        <time>2018-09-23T07:56:25Z</time>
      </trkpt>
      <trkpt lat="49.41244" lon="0.96385">
        <ele>99.9</ele>
        <time>2018-09-23T07:56:30Z</time>
      </trkpt>
      <trkpt lat="49.41238" lon="0.96399">
        <ele>100.3</ele>
        <time>2018-09-23T07:56:35Z</time>
      </trkpt>
      <trkpt lat="49.41232" lon="0.96411">
        <ele>100.9</ele>
        <time>2018-09-23T07:56:39Z</time>
      </trkpt>
      <trkpt lat="49.41226" lon="0.96421">
        <ele>101.2</ele>
        <time>2018-09-23T07:56:43Z</time>
      </trkpt>
      <trkpt lat="49.41218" lon="0.96434">
        <ele>102</ele>
        <time>2018-09-23T07:56:48Z</time>
      </trkpt>
      <trkpt lat="49.4121" lon="0.96445">
        <ele>102.4</ele>
        <time>2018-09-23T07:56:53Z</time>
      </trkpt>
      <trkpt lat="49.41204" lon="0.96455">
        <ele>102.8</ele>
        <time>2018-09-23T07:56:57Z</time>
      </trkpt>
      <trkpt lat="49.41198" lon="0.96467">
        <ele>103</ele>
        <time>2018-09-23T07:57:01Z</time>
      </trkpt>
      <trkpt lat="49.4119" lon="0.96478">
        <ele>103.5</ele>
        <time>2018-09-23T07:57:05Z</time>
      </trkpt>
      <trkpt lat="49.41182" lon="0.96491">
        <ele>104.2</ele>
        <time>2018-09-23T07:57:09Z</time>
      </trkpt>
      <trkpt lat="49.41175" lon="0.96502">
        <ele>104.8</ele>
        <time>2018-09-23T07:57:13Z</time>
      </trkpt>
      <trkpt lat="49.41168" lon="0.96514">
        <ele>105.3</ele>
        <time>2018-09-23T07:57:17Z</time>
      </trkpt>
      <trkpt lat="49.4116" lon="0.96526">
        <ele>105.8</ele>
        <time>2018-09-23T07:57:21Z</time>
      </trkpt>
      <trkpt lat="49.41153" lon="0.96537">
        <ele>106.2</ele>
        <time>2018-09-23T07:57:25Z</time>
      </trkpt>
      <trkpt lat="49.41145" lon="0.96548">
        <ele>106.7</ele>
        <time>2018-09-23T07:57:29Z</time>
      </trkpt>
      <trkpt lat="49.41136" lon="0.96561">
        <ele>106.9</ele>
        <time>2018-09-23T07:57:33Z</time>
      </trkpt>
      <trkpt lat="49.4113" lon="0.96572">
        <ele>107</ele>
        <time>2018-09-23T07:57:36Z</time>
      </trkpt>
      <trkpt lat="49.41124" lon="0.96583">
        <ele>107.3</ele>
        <time>2018-09-23T07:57:39Z</time>
      </trkpt>
      <trkpt lat="49.41117" lon="0.96595">
        <ele>107.4</ele>
        <time>2018-09-23T07:57:42Z</time>
      </trkpt>
      <trkpt lat="49.4111" lon="0.96607">
        <ele>107.9</ele>
        <time>2018-09-23T07:57:45Z</time>
      </trkpt>
      <trkpt lat="49.41102" lon="0.96619">
        <ele>107.9</ele>
        <time>2018-09-23T07:57:48Z</time>
      </trkpt>
      <trkpt lat="49.41094" lon="0.96631">
        <ele>108.2</ele>
        <time>2018-09-23T07:57:51Z</time>
      </trkpt>
      <trkpt lat="49.41085" lon="0.96645">
        <ele>108.5</ele>
        <time>2018-09-23T07:57:54Z</time>
      </trkpt>
      <trkpt lat="49.41076" lon="0.96656">
        <ele>108.9</ele>
        <time>2018-09-23T07:57:57Z</time>
      </trkpt>
      <trkpt lat="49.41065" lon="0.96666">
        <ele>108.8</ele>
        <time>2018-09-23T07:58:00Z</time>
      </trkpt>
      <trkpt lat="49.41056" lon="0.96675">
        <ele>109.2</ele>
        <time>2018-09-23T07:58:03Z</time>
      </trkpt>
      <trkpt lat="49.41046" lon="0.96687">
        <ele>109.2</ele>
        <time>2018-09-23T07:58:06Z</time>
      </trkpt>
      <trkpt lat="49.41035" lon="0.96698">
        <ele>109.2</ele>
        <time>2018-09-23T07:58:09Z</time>
      </trkpt>
      <trkpt lat="49.41023" lon="0.96707">
        <ele>109.4</ele>
        <time>2018-09-23T07:58:12Z</time>
      </trkpt>
      <trkpt lat="49.41012" lon="0.96718">
        <ele>109.6</ele>
        <time>2018-09-23T07:58:15Z</time>
      </trkpt>
      <trkpt lat="49.41001" lon="0.96728">
        <ele>109.8</ele>
        <time>2018-09-23T07:58:18Z</time>
      </trkpt>
      <trkpt lat="49.40992" lon="0.96735">
        <ele>109.8</ele>
        <time>2018-09-23T07:58:20Z</time>
      </trkpt>
      <trkpt lat="49.40984" lon="0.96742">
        <ele>109.6</ele>
        <time>2018-09-23T07:58:22Z</time>
      </trkpt>
      <trkpt lat="49.40975" lon="0.96747">
        <ele>109.6</ele>
        <time>2018-09-23T07:58:24Z</time>
      </trkpt>
      <trkpt lat="49.40966" lon="0.96749">
        <ele>109.7</ele>
        <time>2018-09-23T07:58:26Z</time>
      </trkpt>
      <trkpt lat="49.40954" lon="0.96748">
        <ele>109.8</ele>
        <time>2018-09-23T07:58:29Z</time>
      </trkpt>
      <trkpt lat="49.4094" lon="0.96749">
        <ele>109.8</ele>
        <time>2018-09-23T07:58:32Z</time>
      </trkpt>
      <trkpt lat="49.40931" lon="0.96744">
        <ele>109.7</ele>
        <time>2018-09-23T07:58:35Z</time>
      </trkpt>
      <trkpt lat="49.40929" lon="0.96729">
        <ele>109.8</ele>
        <time>2018-09-23T07:58:39Z</time>
      </trkpt>
      <trkpt lat="49.40925" lon="0.96714">
        <ele>109.6</ele>
        <time>2018-09-23T07:58:42Z</time>
      </trkpt>
      <trkpt lat="49.40922" lon="0.96702">
        <ele>109.7</ele>
        <time>2018-09-23T07:58:44Z</time>
      </trkpt>
      <trkpt lat="49.40917" lon="0.96689">
        <ele>109.7</ele>
        <time>2018-09-23T07:58:47Z</time>
      </trkpt>
      <trkpt lat="49.40913" lon="0.96673">
        <ele>109.6</ele>
        <time>2018-09-23T07:58:51Z</time>
      </trkpt>
      <trkpt lat="49.40908" lon="0.96655">
        <ele>109.7</ele>
        <time>2018-09-23T07:58:54Z</time>
      </trkpt>
      <trkpt lat="49.40903" lon="0.96642">
        <ele>109.7</ele>
        <time>2018-09-23T07:58:56Z</time>
      </trkpt>
      <trkpt lat="49.40897" lon="0.96623">
        <ele>109.6</ele>
        <time>2018-09-23T07:58:58Z</time>
      </trkpt>
      <trkpt lat="49.40891" lon="0.96601">
        <ele>109.7</ele>
        <time>2018-09-23T07:59:00Z</time>
      </trkpt>
      <trkpt lat="49.40886" lon="0.96587">
        <ele>109.7</ele>
        <time>2018-09-23T07:59:02Z</time>
      </trkpt>
      <trkpt lat="49.40879" lon="0.96569">
        <ele>109.8</ele>
        <time>2018-09-23T07:59:04Z</time>
      </trkpt>
      <trkpt lat="49.40875" lon="0.96556">
        <ele>109.7</ele>
        <time>2018-09-23T07:59:06Z</time>
      </trkpt>
      <trkpt lat="49.40869" lon="0.96542">
        <ele>109.7</ele>
        <time>2018-09-23T07:59:08Z</time>
      </trkpt>
      <trkpt lat="49.40863" lon="0.96528">
        <ele>109.4</ele>
        <time>2018-09-23T07:59:10Z</time>
      </trkpt>
      <trkpt lat="49.40855" lon="0.9651">
        <ele>109.4</ele>
        <time>2018-09-23T07:59:12Z</time>
      </trkpt>
      <trkpt lat="49.40849" lon="0.96494">
        <ele>109.6</ele>
        <time>2018-09-23T07:59:14Z</time>
      </trkpt>
      <trkpt lat="49.40845" lon="0.9648">
        <ele>109.6</ele>
        <time>2018-09-23T07:59:16Z</time>
      </trkpt>
      <trkpt lat="49.40838" lon="0.96463">
        <ele>109.7</ele>
        <time>2018-09-23T07:59:18Z</time>
      </trkpt>
      <trkpt lat="49.40834" lon="0.96448">
        <ele>109.5</ele>
        <time>2018-09-23T07:59:20Z</time>
      </trkpt>
      <trkpt lat="49.40826" lon="0.9643">
        <ele>109.2</ele>
        <time>2018-09-23T07:59:23Z</time>
      </trkpt>
      <trkpt lat="49.40819" lon="0.96408">
        <ele>108.5</ele>
        <time>2018-09-23T07:59:26Z</time>
      </trkpt>
      <trkpt lat="49.40813" lon="0.96387">
        <ele>108.2</ele>
        <time>2018-09-23T07:59:28Z</time>
      </trkpt>
      <trkpt lat="49.40809" lon="0.9637">
        <ele>107.6</ele>
        <time>2018-09-23T07:59:30Z</time>
      </trkpt>
      <trkpt lat="49.40805" lon="0.96358">
        <ele>107.1</ele>
        <time>2018-09-23T07:59:31Z</time>
      </trkpt>
      <trkpt lat="49.40798" lon="0.96337">
        <ele>106.2</ele>
        <time>2018-09-23T07:59:33Z</time>
      </trkpt>
      <trkpt lat="49.40793" lon="0.9632">
        <ele>105.3</ele>
        <time>2018-09-23T07:59:35Z</time>
      </trkpt>
      <trkpt lat="49.40788" lon="0.96303">
        <ele>103.5</ele>
        <time>2018-09-23T07:59:38Z</time>
      </trkpt>
      <trkpt lat="49.40781" lon="0.96281">
        <ele>102.5</ele>
        <time>2018-09-23T07:59:40Z</time>
      </trkpt>
      <trkpt lat="49.40776" lon="0.96262">
        <ele>101.2</ele>
        <time>2018-09-23T07:59:42Z</time>
      </trkpt>
      <trkpt lat="49.40772" lon="0.96247">
        <ele>100</ele>
        <time>2018-09-23T07:59:44Z</time>
      </trkpt>
      <trkpt lat="49.40767" lon="0.96228">
        <ele>99.1</ele>
        <time>2018-09-23T07:59:46Z</time>
      </trkpt>
      <trkpt lat="49.4076" lon="0.96211">
        <ele>98</ele>
        <time>2018-09-23T07:59:48Z</time>
      </trkpt>
      <trkpt lat="49.40755" lon="0.96199">
        <ele>97.3</ele>
        <time>2018-09-23T07:59:50Z</time>
      </trkpt>
      <trkpt lat="49.40749" lon="0.96186">
        <ele>96.6</ele>
        <time>2018-09-23T07:59:52Z</time>
      </trkpt>
      <trkpt lat="49.40745" lon="0.96173">
        <ele>95.8</ele>
        <time>2018-09-23T07:59:55Z</time>
      </trkpt>
      <trkpt lat="49.40739" lon="0.96161">
        <ele>94.4</ele>
        <time>2018-09-23T08:00:04Z</time>
      </trkpt>
      <trkpt lat="49.40736" lon="0.96147">
        <ele>94</ele>
        <time>2018-09-23T08:00:11Z</time>
      </trkpt>
      <trkpt lat="49.40731" lon="0.96135">
        <ele>94.1</ele>
        <time>2018-09-23T08:00:17Z</time>
      </trkpt>
      <trkpt lat="49.40727" lon="0.96122">
        <ele>94.3</ele>
        <time>2018-09-23T08:00:26Z</time>
      </trkpt>
      <trkpt lat="49.40724" lon="0.96109">
        <ele>96</ele>
        <time>2018-09-23T08:00:47Z</time>
      </trkpt>
      <trkpt lat="49.40718" lon="0.96096">
        <ele>97.1</ele>
        <time>2018-09-23T08:01:00Z</time>
      </trkpt>
      <trkpt lat="49.40713" lon="0.96084">
        <ele>98.5</ele>
        <time>2018-09-23T08:01:13Z</time>
      </trkpt>
      <trkpt lat="49.4071" lon="0.96071">
        <ele>98.4</ele>
        <time>2018-09-23T08:01:34Z</time>
      </trkpt>
      <trkpt lat="49.40706" lon="0.96058">
        <ele>98.4</ele>
        <time>2018-09-23T08:01:39Z</time>
      </trkpt>
      <trkpt lat="49.40701" lon="0.96046">
        <ele>98.5</ele>
        <time>2018-09-23T08:01:44Z</time>
      </trkpt>
      <trkpt lat="49.40696" lon="0.96031">
        <ele>98.6</ele>
        <time>2018-09-23T08:01:50Z</time>
      </trkpt>
      <trkpt lat="49.40692" lon="0.96016">
        <ele>98.7</ele>
        <time>2018-09-23T08:01:55Z</time>
      </trkpt>
      <trkpt lat="49.40687" lon="0.96002">
        <ele>99</ele>
        <time>2018-09-23T08:01:59Z</time>
      </trkpt>
      <trkpt lat="49.40682" lon="0.95987">
        <ele>99.3</ele>
        <time>2018-09-23T08:02:04Z</time>
      </trkpt>
      <trkpt lat="49.40677" lon="0.95972">
        <ele>99.6</ele>
        <time>2018-09-23T08:02:08Z</time>
      </trkpt>
      <trkpt lat="49.40672" lon="0.95958">
        <ele>99.8</ele>
        <time>2018-09-23T08:02:11Z</time>
      </trkpt>
      <trkpt lat="49.40668" lon="0.95945">
        <ele>100.1</ele>
        <time>2018-09-23T08:02:14Z</time>
      </trkpt>
      <trkpt lat="49.40663" lon="0.95931">
        <ele>100.5</ele>
        <time>2018-09-23T08:02:17Z</time>
      </trkpt>
      <trkpt lat="49.40659" lon="0.95917">
        <ele>100.8</ele>
        <time>2018-09-23T08:02:20Z</time>
      </trkpt>
      <trkpt lat="49.40654" lon="0.95904">
        <ele>100.9</ele>
        <time>2018-09-23T08:02:23Z</time>
      </trkpt>
      <trkpt lat="49.40649" lon="0.95889">
        <ele>101</ele>
        <time>2018-09-23T08:02:26Z</time>
      </trkpt>
      <trkpt lat="49.40645" lon="0.95873">
        <ele>101.3</ele>
        <time>2018-09-23T08:02:29Z</time>
      </trkpt>
      <trkpt lat="49.4064" lon="0.9586">
        <ele>101.4</ele>
        <time>2018-09-23T08:02:32Z</time>
      </trkpt>
      <trkpt lat="49.40635" lon="0.95845">
        <ele>101.4</ele>
        <time>2018-09-23T08:02:35Z</time>
      </trkpt>
      <trkpt lat="49.4063" lon="0.95828">
        <ele>101.6</ele>
        <time>2018-09-23T08:02:38Z</time>
      </trkpt>
      <trkpt lat="49.40623" lon="0.95811">
        <ele>101.9</ele>
        <time>2018-09-23T08:02:41Z</time>
      </trkpt>
      <trkpt lat="49.40618" lon="0.95795">
        <ele>102</ele>
        <time>2018-09-23T08:02:44Z</time>
      </trkpt>
      <trkpt lat="49.40612" lon="0.95778">
        <ele>102</ele>
        <time>2018-09-23T08:02:47Z</time>
      </trkpt>
      <trkpt lat="49.40607" lon="0.95766">
        <ele>102.2</ele>
        <time>2018-09-23T08:02:49Z</time>
      </trkpt>
      <trkpt lat="49.40602" lon="0.95749">
        <ele>102.4</ele>
        <time>2018-09-23T08:02:52Z</time>
      </trkpt>
      <trkpt lat="49.40597" lon="0.95732">
        <ele>102.5</ele>
        <time>2018-09-23T08:02:55Z</time>
      </trkpt>
      <trkpt lat="49.40591" lon="0.95716">
        <ele>102.6</ele>
        <time>2018-09-23T08:02:58Z</time>
      </trkpt>
      <trkpt lat="49.40582" lon="0.957">
        <ele>102.5</ele>
        <time>2018-09-23T08:03:01Z</time>
      </trkpt>
      <trkpt lat="49.4057" lon="0.95695">
        <ele>102.8</ele>
        <time>2018-09-23T08:03:04Z</time>
      </trkpt>
      <trkpt lat="49.40558" lon="0.95698">
        <ele>102.9</ele>
        <time>2018-09-23T08:03:07Z</time>
      </trkpt>
      <trkpt lat="49.40549" lon="0.95711">
        <ele>103</ele>
        <time>2018-09-23T08:03:10Z</time>
      </trkpt>
      <trkpt lat="49.4054" lon="0.95721">
        <ele>103.1</ele>
        <time>2018-09-23T08:03:13Z</time>
      </trkpt>
      <trkpt lat="49.4053" lon="0.95734">
        <ele>103.2</ele>
        <time>2018-09-23T08:03:16Z</time>
      </trkpt>
      <trkpt lat="49.40521" lon="0.95747">
        <ele>103.3</ele>
        <time>2018-09-23T08:03:19Z</time>
      </trkpt>
      <trkpt lat="49.40512" lon="0.95759">
        <ele>103.7</ele>
        <time>2018-09-23T08:03:22Z</time>
      </trkpt>
      <trkpt lat="49.40502" lon="0.95772">
        <ele>103.5</ele>
        <time>2018-09-23T08:03:25Z</time>
      </trkpt>
      <trkpt lat="49.40492" lon="0.95785">
        <ele>103.6</ele>
        <time>2018-09-23T08:03:28Z</time>
      </trkpt>
      <trkpt lat="49.40482" lon="0.95799">
        <ele>103.7</ele>
        <time>2018-09-23T08:03:31Z</time>
      </trkpt>
      <trkpt lat="49.40475" lon="0.95809">
        <ele>103.8</ele>
        <time>2018-09-23T08:03:33Z</time>
      </trkpt>
      <trkpt lat="49.40468" lon="0.95819">
        <ele>103.9</ele>
        <time>2018-09-23T08:03:35Z</time>
      </trkpt>
      <trkpt lat="49.40461" lon="0.95828">
        <ele>104.1</ele>
        <time>2018-09-23T08:03:37Z</time>
      </trkpt>
      <trkpt lat="49.40454" lon="0.95837">
        <ele>104.3</ele>
        <time>2018-09-23T08:03:39Z</time>
      </trkpt>
      <trkpt lat="49.40447" lon="0.95847">
        <ele>104.4</ele>
        <time>2018-09-23T08:03:41Z</time>
      </trkpt>
      <trkpt lat="49.40439" lon="0.95856">
        <ele>104.5</ele>
        <time>2018-09-23T08:03:43Z</time>
      </trkpt>
      <trkpt lat="49.40429" lon="0.95868">
        <ele>104.6</ele>
        <time>2018-09-23T08:03:46Z</time>
      </trkpt>
      <trkpt lat="49.40422" lon="0.95878">
        <ele>104.5</ele>
        <time>2018-09-23T08:03:48Z</time>
      </trkpt>
      <trkpt lat="49.40412" lon="0.95891">
        <ele>104.3</ele>
        <time>2018-09-23T08:03:51Z</time>
      </trkpt>
      <trkpt lat="49.40404" lon="0.95904">
        <ele>104.6</ele>
        <time>2018-09-23T08:03:54Z</time>
      </trkpt>
      <trkpt lat="49.40395" lon="0.95919">
        <ele>104.8</ele>
        <time>2018-09-23T08:03:57Z</time>
      </trkpt>
      <trkpt lat="49.40388" lon="0.95928">
        <ele>105</ele>
        <time>2018-09-23T08:03:59Z</time>
      </trkpt>
      <trkpt lat="49.40381" lon="0.95939">
        <ele>105.1</ele>
        <time>2018-09-23T08:04:01Z</time>
      </trkpt>
      <trkpt lat="49.40374" lon="0.95949">
        <ele>105.1</ele>
        <time>2018-09-23T08:04:03Z</time>
      </trkpt>
      <trkpt lat="49.40366" lon="0.95962">
        <ele>104.8</ele>
        <time>2018-09-23T08:04:05Z</time>
      </trkpt>
      <trkpt lat="49.40359" lon="0.95973">
        <ele>104.7</ele>
        <time>2018-09-23T08:04:07Z</time>
      </trkpt>
      <trkpt lat="49.4035" lon="0.95983">
        <ele>104.5</ele>
        <time>2018-09-23T08:04:09Z</time>
      </trkpt>
      <trkpt lat="49.40342" lon="0.95994">
        <ele>104.2</ele>
        <time>2018-09-23T08:04:11Z</time>
      </trkpt>
      <trkpt lat="49.40336" lon="0.96006">
        <ele>103.6</ele>
        <time>2018-09-23T08:04:13Z</time>
      </trkpt>
      <trkpt lat="49.4033" lon="0.96019">
        <ele>103.5</ele>
        <time>2018-09-23T08:04:16Z</time>
      </trkpt>
      <trkpt lat="49.40324" lon="0.96037">
        <ele>102.9</ele>
        <time>2018-09-23T08:04:20Z</time>
      </trkpt>
      <trkpt lat="49.40317" lon="0.96052">
        <ele>102.7</ele>
        <time>2018-09-23T08:04:23Z</time>
      </trkpt>
      <trkpt lat="49.40306" lon="0.96052">
        <ele>101.6</ele>
        <time>2018-09-23T08:04:26Z</time>
      </trkpt>
      <trkpt lat="49.40297" lon="0.96042">
        <ele>100.9</ele>
        <time>2018-09-23T08:04:29Z</time>
      </trkpt>
      <trkpt lat="49.40287" lon="0.96029">
        <ele>100.1</ele>
        <time>2018-09-23T08:04:32Z</time>
      </trkpt>
      <trkpt lat="49.4028" lon="0.96013">
        <ele>99.7</ele>
        <time>2018-09-23T08:04:35Z</time>
      </trkpt>
      <trkpt lat="49.40271" lon="0.96005">
        <ele>99.3</ele>
        <time>2018-09-23T08:04:38Z</time>
      </trkpt>
      <trkpt lat="49.40263" lon="0.95993">
        <ele>98.9</ele>
        <time>2018-09-23T08:04:41Z</time>
      </trkpt>
      <trkpt lat="49.40254" lon="0.95978">
        <ele>98.3</ele>
        <time>2018-09-23T08:04:44Z</time>
      </trkpt>
      <trkpt lat="49.40247" lon="0.95967">
        <ele>98.2</ele>
        <time>2018-09-23T08:04:46Z</time>
      </trkpt>
      <trkpt lat="49.40239" lon="0.95955">
        <ele>98</ele>
        <time>2018-09-23T08:04:48Z</time>
      </trkpt>
      <trkpt lat="49.40232" lon="0.95944">
        <ele>98</ele>
        <time>2018-09-23T08:04:50Z</time>
      </trkpt>
      <trkpt lat="49.40225" lon="0.9593">
        <ele>97.7</ele>
        <time>2018-09-23T08:04:52Z</time>
      </trkpt>
      <trkpt lat="49.40216" lon="0.95915">
        <ele>97.5</ele>
        <time>2018-09-23T08:04:54Z</time>
      </trkpt>
      <trkpt lat="49.40206" lon="0.95897">
        <ele>97.5</ele>
        <time>2018-09-23T08:04:57Z</time>
      </trkpt>
      <trkpt lat="49.40201" lon="0.95881">
        <ele>97</ele>
        <time>2018-09-23T08:04:59Z</time>
      </trkpt>
      <trkpt lat="49.40196" lon="0.95859">
        <ele>96.5</ele>
        <time>2018-09-23T08:05:02Z</time>
      </trkpt>
      <trkpt lat="49.40195" lon="0.95843">
        <ele>96.1</ele>
        <time>2018-09-23T08:05:05Z</time>
      </trkpt>
      <trkpt lat="49.40195" lon="0.95823">
        <ele>95.3</ele>
        <time>2018-09-23T08:05:08Z</time>
      </trkpt>
      <trkpt lat="49.40199" lon="0.9581">
        <ele>94.8</ele>
        <time>2018-09-23T08:05:10Z</time>
      </trkpt>
      <trkpt lat="49.402" lon="0.95791">
        <ele>94.4</ele>
        <time>2018-09-23T08:05:13Z</time>
      </trkpt>
      <trkpt lat="49.402" lon="0.95768">
        <ele>94.2</ele>
        <time>2018-09-23T08:05:15Z</time>
      </trkpt>
      <trkpt lat="49.40201" lon="0.95748">
        <ele>93.6</ele>
        <time>2018-09-23T08:05:17Z</time>
      </trkpt>
      <trkpt lat="49.40204" lon="0.95731">
        <ele>93.2</ele>
        <time>2018-09-23T08:05:19Z</time>
      </trkpt>
      <trkpt lat="49.40208" lon="0.95718">
        <ele>92.9</ele>
        <time>2018-09-23T08:05:21Z</time>
      </trkpt>
      <trkpt lat="49.40212" lon="0.95703">
        <ele>92.4</ele>
        <time>2018-09-23T08:05:23Z</time>
      </trkpt>
      <trkpt lat="49.40216" lon="0.9569">
        <ele>92.2</ele>
        <time>2018-09-23T08:05:25Z</time>
      </trkpt>
      <trkpt lat="49.40219" lon="0.95673">
        <ele>91.7</ele>
        <time>2018-09-23T08:05:27Z</time>
      </trkpt>
      <trkpt lat="49.40225" lon="0.95658">
        <ele>91.3</ele>
        <time>2018-09-23T08:05:29Z</time>
      </trkpt>
      <trkpt lat="49.40227" lon="0.95643">
        <ele>90.9</ele>
        <time>2018-09-23T08:05:31Z</time>
      </trkpt>
      <trkpt lat="49.40222" lon="0.9563">
        <ele>90.7</ele>
        <time>2018-09-23T08:05:32Z</time>
      </trkpt>
      <trkpt lat="49.40215" lon="0.9561">
        <ele>90.3</ele>
        <time>2018-09-23T08:05:34Z</time>
      </trkpt>
      <trkpt lat="49.40207" lon="0.95593">
        <ele>89.5</ele>
        <time>2018-09-23T08:05:37Z</time>
      </trkpt>
      <trkpt lat="49.402" lon="0.95584">
        <ele>89.4</ele>
        <time>2018-09-23T08:05:39Z</time>
      </trkpt>
      <trkpt lat="49.40193" lon="0.9557">
        <ele>89.3</ele>
        <time>2018-09-23T08:05:42Z</time>
      </trkpt>
      <trkpt lat="49.40187" lon="0.95555">
        <ele>89.6</ele>
        <time>2018-09-23T08:05:46Z</time>
      </trkpt>
      <trkpt lat="49.40185" lon="0.95542">
        <ele>89.5</ele>
        <time>2018-09-23T08:05:50Z</time>
      </trkpt>
      <trkpt lat="49.40186" lon="0.95528">
        <ele>89.9</ele>
        <time>2018-09-23T08:05:55Z</time>
      </trkpt>
      <trkpt lat="49.4019" lon="0.95514">
        <ele>90.3</ele>
        <time>2018-09-23T08:05:59Z</time>
      </trkpt>
      <trkpt lat="49.40194" lon="0.95499">
        <ele>90.4</ele>
        <time>2018-09-23T08:06:03Z</time>
      </trkpt>
      <trkpt lat="49.40197" lon="0.95484">
        <ele>90.7</ele>
        <time>2018-09-23T08:06:07Z</time>
      </trkpt>
      <trkpt lat="49.40199" lon="0.9547">
        <ele>91.3</ele>
        <time>2018-09-23T08:06:11Z</time>
      </trkpt>
      <trkpt lat="49.40203" lon="0.95456">
        <ele>91.9</ele>
        <time>2018-09-23T08:06:16Z</time>
      </trkpt>
      <trkpt lat="49.402" lon="0.95443">
        <ele>92.3</ele>
        <time>2018-09-23T08:06:22Z</time>
      </trkpt>
      <trkpt lat="49.4019" lon="0.95444">
        <ele>92.8</ele>
        <time>2018-09-23T08:06:30Z</time>
      </trkpt>
      <trkpt lat="49.40182" lon="0.95452">
        <ele>93.2</ele>
        <time>2018-09-23T08:06:37Z</time>
      </trkpt>
      <trkpt lat="49.40175" lon="0.95463">
        <ele>93.7</ele>
        <time>2018-09-23T08:06:42Z</time>
      </trkpt>
      <trkpt lat="49.40168" lon="0.95475">
        <ele>94.1</ele>
        <time>2018-09-23T08:06:47Z</time>
      </trkpt>
      <trkpt lat="49.40161" lon="0.95488">
        <ele>94.5</ele>
        <time>2018-09-23T08:06:52Z</time>
      </trkpt>
      <trkpt lat="49.40155" lon="0.95501">
        <ele>94.7</ele>
        <time>2018-09-23T08:06:56Z</time>
      </trkpt>
      <trkpt lat="49.40148" lon="0.95514">
        <ele>95.3</ele>
        <time>2018-09-23T08:07:01Z</time>
      </trkpt>
      <trkpt lat="49.4014" lon="0.95525">
        <ele>95.4</ele>
        <time>2018-09-23T08:07:06Z</time>
      </trkpt>
      <trkpt lat="49.40131" lon="0.95534">
        <ele>96</ele>
        <time>2018-09-23T08:07:11Z</time>
      </trkpt>
      <trkpt lat="49.40121" lon="0.95543">
        <ele>96.5</ele>
        <time>2018-09-23T08:07:16Z</time>
      </trkpt>
      <trkpt lat="49.40113" lon="0.9555">
        <ele>97.1</ele>
        <time>2018-09-23T08:07:20Z</time>
      </trkpt>
      <trkpt lat="49.40107" lon="0.9556">
        <ele>97.5</ele>
        <time>2018-09-23T08:07:24Z</time>
      </trkpt>
      <trkpt lat="49.401" lon="0.95573">
        <ele>97.9</ele>
        <time>2018-09-23T08:07:28Z</time>
      </trkpt>
      <trkpt lat="49.40091" lon="0.95584">
        <ele>98.1</ele>
        <time>2018-09-23T08:07:32Z</time>
      </trkpt>
      <trkpt lat="49.40081" lon="0.9559">
        <ele>98.3</ele>
        <time>2018-09-23T08:07:36Z</time>
      </trkpt>
      <trkpt lat="49.4007" lon="0.95595">
        <ele>98.3</ele>
        <time>2018-09-23T08:07:40Z</time>
      </trkpt>
      <trkpt lat="49.4006" lon="0.95601">
        <ele>98.8</ele>
        <time>2018-09-23T08:07:44Z</time>
      </trkpt>
      <trkpt lat="49.40052" lon="0.95608">
        <ele>98.9</ele>
        <time>2018-09-23T08:07:48Z</time>
      </trkpt>
      <trkpt lat="49.40043" lon="0.95615">
        <ele>99.2</ele>
        <time>2018-09-23T08:07:53Z</time>
      </trkpt>
      <trkpt lat="49.40035" lon="0.95622">
        <ele>100.1</ele>
        <time>2018-09-23T08:07:58Z</time>
      </trkpt>
      <trkpt lat="49.40027" lon="0.9563">
        <ele>100.8</ele>
        <time>2018-09-23T08:08:03Z</time>
      </trkpt>
      <trkpt lat="49.4002" lon="0.95642">
        <ele>101.3</ele>
        <time>2018-09-23T08:08:08Z</time>
      </trkpt>
      <trkpt lat="49.40016" lon="0.95656">
        <ele>101.9</ele>
        <time>2018-09-23T08:08:13Z</time>
      </trkpt>
      <trkpt lat="49.40018" lon="0.95673">
        <ele>102.5</ele>
        <time>2018-09-23T08:08:17Z</time>
      </trkpt>
      <trkpt lat="49.40018" lon="0.95692">
        <ele>102.7</ele>
        <time>2018-09-23T08:08:21Z</time>
      </trkpt>
      <trkpt lat="49.4002" lon="0.95708">
        <ele>102.7</ele>
        <time>2018-09-23T08:08:24Z</time>
      </trkpt>
      <trkpt lat="49.4002" lon="0.95724">
        <ele>102.6</ele>
        <time>2018-09-23T08:08:27Z</time>
      </trkpt>
      <trkpt lat="49.40022" lon="0.9574">
        <ele>102.7</ele>
        <time>2018-09-23T08:08:30Z</time>
      </trkpt>
      <trkpt lat="49.40021" lon="0.95756">
        <ele>103.3</ele>
        <time>2018-09-23T08:08:34Z</time>
      </trkpt>
      <trkpt lat="49.40019" lon="0.95772">
        <ele>103.3</ele>
        <time>2018-09-23T08:08:37Z</time>
      </trkpt>
      <trkpt lat="49.4002" lon="0.95789">
        <ele>103.2</ele>
        <time>2018-09-23T08:08:40Z</time>
      </trkpt>
      <trkpt lat="49.40017" lon="0.95807">
        <ele>103.3</ele>
        <time>2018-09-23T08:08:43Z</time>
      </trkpt>
      <trkpt lat="49.40016" lon="0.95821">
        <ele>103.5</ele>
        <time>2018-09-23T08:08:46Z</time>
      </trkpt>
      <trkpt lat="49.40016" lon="0.95837">
        <ele>103.7</ele>
        <time>2018-09-23T08:08:49Z</time>
      </trkpt>
      <trkpt lat="49.40017" lon="0.95852">
        <ele>104.3</ele>
        <time>2018-09-23T08:08:52Z</time>
      </trkpt>
      <trkpt lat="49.40018" lon="0.95868">
        <ele>104.2</ele>
        <time>2018-09-23T08:08:55Z</time>
      </trkpt>
      <trkpt lat="49.40014" lon="0.95885">
        <ele>104.4</ele>
        <time>2018-09-23T08:08:58Z</time>
      </trkpt>
      <trkpt lat="49.40006" lon="0.95896">
        <ele>104.6</ele>
        <time>2018-09-23T08:09:01Z</time>
      </trkpt>
      <trkpt lat="49.39998" lon="0.95908">
        <ele>104.7</ele>
        <time>2018-09-23T08:09:04Z</time>
      </trkpt>
      <trkpt lat="49.3999" lon="0.95917">
        <ele>104.7</ele>
        <time>2018-09-23T08:09:07Z</time>
      </trkpt>
      <trkpt lat="49.39982" lon="0.95929">
        <ele>105</ele>
        <time>2018-09-23T08:09:10Z</time>
      </trkpt>
      <trkpt lat="49.39974" lon="0.95941">
        <ele>105</ele>
        <time>2018-09-23T08:09:13Z</time>
      </trkpt>
      <trkpt lat="49.39965" lon="0.95953">
        <ele>105.1</ele>
        <time>2018-09-23T08:09:16Z</time>
      </trkpt>
      <trkpt lat="49.39955" lon="0.95965">
        <ele>104.5</ele>
        <time>2018-09-23T08:09:19Z</time>
      </trkpt>
      <trkpt lat="49.39945" lon="0.95979">
        <ele>105</ele>
        <time>2018-09-23T08:09:22Z</time>
      </trkpt>
      <trkpt lat="49.39936" lon="0.95991">
        <ele>105.3</ele>
        <time>2018-09-23T08:09:25Z</time>
      </trkpt>
      <trkpt lat="49.39926" lon="0.96005">
        <ele>105.5</ele>
        <time>2018-09-23T08:09:28Z</time>
      </trkpt>
      <trkpt lat="49.39918" lon="0.96015">
        <ele>105.7</ele>
        <time>2018-09-23T08:09:30Z</time>
      </trkpt>
      <trkpt lat="49.39911" lon="0.96023">
        <ele>105.6</ele>
        <time>2018-09-23T08:09:32Z</time>
      </trkpt>
      <trkpt lat="49.39904" lon="0.96033">
        <ele>105.7</ele>
        <time>2018-09-23T08:09:34Z</time>
      </trkpt>
      <trkpt lat="49.39896" lon="0.96042">
        <ele>105.7</ele>
        <time>2018-09-23T08:09:36Z</time>
      </trkpt>
      <trkpt lat="49.39889" lon="0.96052">
        <ele>105.7</ele>
        <time>2018-09-23T08:09:38Z</time>
      </trkpt>
      <trkpt lat="49.39882" lon="0.96062">
        <ele>106</ele>
        <time>2018-09-23T08:09:40Z</time>
      </trkpt>
      <trkpt lat="49.39874" lon="0.96071">
        <ele>106</ele>
        <time>2018-09-23T08:09:42Z</time>
      </trkpt>
      <trkpt lat="49.39868" lon="0.96081">
        <ele>106</ele>
        <time>2018-09-23T08:09:44Z</time>
      </trkpt>
      <trkpt lat="49.3986" lon="0.96095">
        <ele>106.3</ele>
        <time>2018-09-23T08:09:47Z</time>
      </trkpt>
      <trkpt lat="49.39853" lon="0.96103">
        <ele>106.4</ele>
        <time>2018-09-23T08:09:49Z</time>
      </trkpt>
      <trkpt lat="49.39845" lon="0.96113">
        <ele>106.5</ele>
        <time>2018-09-23T08:09:51Z</time>
      </trkpt>
      <trkpt lat="49.39837" lon="0.96124">
        <ele>106.4</ele>
        <time>2018-09-23T08:09:53Z</time>
      </trkpt>
      <trkpt lat="49.39829" lon="0.96134">
        <ele>106.4</ele>
        <time>2018-09-23T08:09:55Z</time>
      </trkpt>
      <trkpt lat="49.39822" lon="0.96144">
        <ele>106.4</ele>
        <time>2018-09-23T08:09:57Z</time>
      </trkpt>
      <trkpt lat="49.39815" lon="0.96155">
        <ele>106.6</ele>
        <time>2018-09-23T08:09:59Z</time>
      </trkpt>
      <trkpt lat="49.39813" lon="0.96169">
        <ele>106.6</ele>
        <time>2018-09-23T08:10:01Z</time>
      </trkpt>
      <trkpt lat="49.39815" lon="0.96182">
        <ele>106.7</ele>
        <time>2018-09-23T08:10:03Z</time>
      </trkpt>
      <trkpt lat="49.39819" lon="0.96196">
        <ele>106.6</ele>
        <time>2018-09-23T08:10:05Z</time>
      </trkpt>
      <trkpt lat="49.39823" lon="0.96212">
        <ele>106.7</ele>
        <time>2018-09-23T08:10:07Z</time>
      </trkpt>
      <trkpt lat="49.39827" lon="0.96226">
        <ele>106.6</ele>
        <time>2018-09-23T08:10:09Z</time>
      </trkpt>
      <trkpt lat="49.39831" lon="0.96238">
        <ele>106.6</ele>
        <time>2018-09-23T08:10:11Z</time>
      </trkpt>
      <trkpt lat="49.39836" lon="0.96251">
        <ele>106.8</ele>
        <time>2018-09-23T08:10:13Z</time>
      </trkpt>
      <trkpt lat="49.39841" lon="0.96264">
        <ele>106.8</ele>
        <time>2018-09-23T08:10:15Z</time>
      </trkpt>
      <trkpt lat="49.39845" lon="0.96277">
        <ele>107</ele>
        <time>2018-09-23T08:10:17Z</time>
      </trkpt>
      <trkpt lat="49.39852" lon="0.96295">
        <ele>107.3</ele>
        <time>2018-09-23T08:10:20Z</time>
      </trkpt>
      <trkpt lat="49.39856" lon="0.96309">
        <ele>107.3</ele>
        <time>2018-09-23T08:10:22Z</time>
      </trkpt>
      <trkpt lat="49.39861" lon="0.96321">
        <ele>107.4</ele>
        <time>2018-09-23T08:10:24Z</time>
      </trkpt>
      <trkpt lat="49.39866" lon="0.96334">
        <ele>107.4</ele>
        <time>2018-09-23T08:10:26Z</time>
      </trkpt>
      <trkpt lat="49.39871" lon="0.96348">
        <ele>107.5</ele>
        <time>2018-09-23T08:10:28Z</time>
      </trkpt>
      <trkpt lat="49.39876" lon="0.96361">
        <ele>107.6</ele>
        <time>2018-09-23T08:10:30Z</time>
      </trkpt>
      <trkpt lat="49.39881" lon="0.96375">
        <ele>107.6</ele>
        <time>2018-09-23T08:10:32Z</time>
      </trkpt>
      <trkpt lat="49.39886" lon="0.9639">
        <ele>107.8</ele>
        <time>2018-09-23T08:10:34Z</time>
      </trkpt>
      <trkpt lat="49.39891" lon="0.96404">
        <ele>107.7</ele>
        <time>2018-09-23T08:10:36Z</time>
      </trkpt>
      <trkpt lat="49.39896" lon="0.96418">
        <ele>107.8</ele>
        <time>2018-09-23T08:10:38Z</time>
      </trkpt>
      <trkpt lat="49.39901" lon="0.96433">
        <ele>107.9</ele>
        <time>2018-09-23T08:10:40Z</time>
      </trkpt>
      <trkpt lat="49.39906" lon="0.96447">
        <ele>107.9</ele>
        <time>2018-09-23T08:10:42Z</time>
      </trkpt>
      <trkpt lat="49.3991" lon="0.96462">
        <ele>108.1</ele>
        <time>2018-09-23T08:10:44Z</time>
      </trkpt>
      <trkpt lat="49.39915" lon="0.96475">
        <ele>108.3</ele>
        <time>2018-09-23T08:10:46Z</time>
      </trkpt>
      <trkpt lat="49.3992" lon="0.9649">
        <ele>108.4</ele>
        <time>2018-09-23T08:10:48Z</time>
      </trkpt>
      <trkpt lat="49.39925" lon="0.96503">
        <ele>108.2</ele>
        <time>2018-09-23T08:10:50Z</time>
      </trkpt>
      <trkpt lat="49.39929" lon="0.96518">
        <ele>108.2</ele>
        <time>2018-09-23T08:10:52Z</time>
      </trkpt>
      <trkpt lat="49.39932" lon="0.96532">
        <ele>108.1</ele>
        <time>2018-09-23T08:10:54Z</time>
      </trkpt>
      <trkpt lat="49.3993" lon="0.96551">
        <ele>108.3</ele>
        <time>2018-09-23T08:10:57Z</time>
      </trkpt>
      <trkpt lat="49.39924" lon="0.96562">
        <ele>108.3</ele>
        <time>2018-09-23T08:10:59Z</time>
      </trkpt>
      <trkpt lat="49.39917" lon="0.96573">
        <ele>108.3</ele>
        <time>2018-09-23T08:11:01Z</time>
      </trkpt>
      <trkpt lat="49.39911" lon="0.96583">
        <ele>108.6</ele>
        <time>2018-09-23T08:11:03Z</time>
      </trkpt>
      <trkpt lat="49.39904" lon="0.96593">
        <ele>108.6</ele>
        <time>2018-09-23T08:11:05Z</time>
      </trkpt>
      <trkpt lat="49.39897" lon="0.96602">
        <ele>108.8</ele>
        <time>2018-09-23T08:11:07Z</time>
      </trkpt>
      <trkpt lat="49.39886" lon="0.96614">
        <ele>108.9</ele>
        <time>2018-09-23T08:11:10Z</time>
      </trkpt>
      <trkpt lat="49.39877" lon="0.96625">
        <ele>108.9</ele>
        <time>2018-09-23T08:11:12Z</time>
      </trkpt>
      <trkpt lat="49.39869" lon="0.96634">
        <ele>109</ele>
        <time>2018-09-23T08:11:14Z</time>
      </trkpt>
      <trkpt lat="49.39861" lon="0.96645">
        <ele>109.2</ele>
        <time>2018-09-23T08:11:16Z</time>
      </trkpt>
      <trkpt lat="49.39854" lon="0.96655">
        <ele>109.4</ele>
        <time>2018-09-23T08:11:18Z</time>
      </trkpt>
      <trkpt lat="49.39845" lon="0.96666">
        <ele>109.4</ele>
        <time>2018-09-23T08:11:20Z</time>
      </trkpt>
      <trkpt lat="49.39837" lon="0.96678">
        <ele>109.5</ele>
        <time>2018-09-23T08:11:22Z</time>
      </trkpt>
      <trkpt lat="49.3983" lon="0.96688">
        <ele>109.6</ele>
        <time>2018-09-23T08:11:24Z</time>
      </trkpt>
      <trkpt lat="49.39822" lon="0.967">
        <ele>109.8</ele>
        <time>2018-09-23T08:11:26Z</time>
      </trkpt>
      <trkpt lat="49.39814" lon="0.96712">
        <ele>110</ele>
        <time>2018-09-23T08:11:28Z</time>
      </trkpt>
      <trkpt lat="49.39806" lon="0.96722">
        <ele>110.1</ele>
        <time>2018-09-23T08:11:30Z</time>
      </trkpt>
      <trkpt lat="49.39797" lon="0.96732">
        <ele>110.2</ele>
        <time>2018-09-23T08:11:32Z</time>
      </trkpt>
      <trkpt lat="49.3979" lon="0.96742">
        <ele>110.1</ele>
        <time>2018-09-23T08:11:34Z</time>
      </trkpt>
      <trkpt lat="49.39782" lon="0.96753">
        <ele>110.3</ele>
        <time>2018-09-23T08:11:36Z</time>
      </trkpt>
      <trkpt lat="49.39773" lon="0.96765">
        <ele>110.3</ele>
        <time>2018-09-23T08:11:38Z</time>
      </trkpt>
      <trkpt lat="49.39765" lon="0.96775">
        <ele>110.3</ele>
        <time>2018-09-23T08:11:40Z</time>
      </trkpt>
      <trkpt lat="49.39757" lon="0.96785">
        <ele>110.4</ele>
        <time>2018-09-23T08:11:42Z</time>
      </trkpt>
      <trkpt lat="49.39748" lon="0.96798">
        <ele>110.4</ele>
        <time>2018-09-23T08:11:44Z</time>
      </trkpt>
      <trkpt lat="49.3974" lon="0.9681">
        <ele>110.5</ele>
        <time>2018-09-23T08:11:46Z</time>
      </trkpt>
      <trkpt lat="49.39733" lon="0.9682">
        <ele>110.4</ele>
        <time>2018-09-23T08:11:48Z</time>
      </trkpt>
      <trkpt lat="49.39726" lon="0.9683">
        <ele>110.4</ele>
        <time>2018-09-23T08:11:50Z</time>
      </trkpt>
      <trkpt lat="49.39718" lon="0.96842">
        <ele>110.6</ele>
        <time>2018-09-23T08:11:52Z</time>
      </trkpt>
      <trkpt lat="49.3971" lon="0.96854">
        <ele>110.7</ele>
        <time>2018-09-23T08:11:54Z</time>
      </trkpt>
      <trkpt lat="49.39702" lon="0.96864">
        <ele>110.7</ele>
        <time>2018-09-23T08:11:56Z</time>
      </trkpt>
      <trkpt lat="49.39693" lon="0.96875">
        <ele>111</ele>
        <time>2018-09-23T08:11:58Z</time>
      </trkpt>
      <trkpt lat="49.39685" lon="0.96888">
        <ele>111</ele>
        <time>2018-09-23T08:12:00Z</time>
      </trkpt>
      <trkpt lat="49.39677" lon="0.96901">
        <ele>111</ele>
        <time>2018-09-23T08:12:02Z</time>
      </trkpt>
      <trkpt lat="49.39669" lon="0.96912">
        <ele>111</ele>
        <time>2018-09-23T08:12:04Z</time>
      </trkpt>
      <trkpt lat="49.39661" lon="0.96923">
        <ele>111.3</ele>
        <time>2018-09-23T08:12:06Z</time>
      </trkpt>
      <trkpt lat="49.39652" lon="0.96934">
        <ele>111.4</ele>
        <time>2018-09-23T08:12:08Z</time>
      </trkpt>
      <trkpt lat="49.39644" lon="0.96945">
        <ele>111.5</ele>
        <time>2018-09-23T08:12:10Z</time>
      </trkpt>
      <trkpt lat="49.39635" lon="0.96957">
        <ele>111.7</ele>
        <time>2018-09-23T08:12:12Z</time>
      </trkpt>
      <trkpt lat="49.39627" lon="0.96969">
        <ele>111.4</ele>
        <time>2018-09-23T08:12:14Z</time>
      </trkpt>
      <trkpt lat="49.39618" lon="0.96981">
        <ele>111.5</ele>
        <time>2018-09-23T08:12:16Z</time>
      </trkpt>
      <trkpt lat="49.3961" lon="0.96992">
        <ele>111.6</ele>
        <time>2018-09-23T08:12:18Z</time>
      </trkpt>
      <trkpt lat="49.39603" lon="0.97003">
        <ele>111.7</ele>
        <time>2018-09-23T08:12:20Z</time>
      </trkpt>
      <trkpt lat="49.39594" lon="0.97013">
        <ele>111.7</ele>
        <time>2018-09-23T08:12:22Z</time>
      </trkpt>
      <trkpt lat="49.39587" lon="0.97023">
        <ele>111.6</ele>
        <time>2018-09-23T08:12:24Z</time>
      </trkpt>
      <trkpt lat="49.39578" lon="0.97039">
        <ele>111.5</ele>
        <time>2018-09-23T08:12:27Z</time>
      </trkpt>
      <trkpt lat="49.39571" lon="0.97049">
        <ele>111.4</ele>
        <time>2018-09-23T08:12:31Z</time>
      </trkpt>
      <trkpt lat="49.39561" lon="0.9706">
        <ele>111.6</ele>
        <time>2018-09-23T08:12:35Z</time>
      </trkpt>
      <trkpt lat="49.39554" lon="0.97069">
        <ele>111.4</ele>
        <time>2018-09-23T08:12:37Z</time>
      </trkpt>
      <trkpt lat="49.39547" lon="0.97077">
        <ele>111.4</ele>
        <time>2018-09-23T08:12:39Z</time>
      </trkpt>
      <trkpt lat="49.3954" lon="0.97087">
        <ele>111.5</ele>
        <time>2018-09-23T08:12:41Z</time>
      </trkpt>
      <trkpt lat="49.39532" lon="0.97098">
        <ele>111.5</ele>
        <time>2018-09-23T08:12:43Z</time>
      </trkpt>
      <trkpt lat="49.39523" lon="0.9711">
        <ele>111.5</ele>
        <time>2018-09-23T08:12:45Z</time>
      </trkpt>
      <trkpt lat="49.39514" lon="0.97121">
        <ele>111.6</ele>
        <time>2018-09-23T08:12:47Z</time>
      </trkpt>
      <trkpt lat="49.39506" lon="0.97134">
        <ele>111.5</ele>
        <time>2018-09-23T08:12:49Z</time>
      </trkpt>
      <trkpt lat="49.39498" lon="0.97145">
        <ele>111.5</ele>
        <time>2018-09-23T08:12:51Z</time>
      </trkpt>
      <trkpt lat="49.3949" lon="0.97157">
        <ele>111.5</ele>
        <time>2018-09-23T08:12:53Z</time>
      </trkpt>
      <trkpt lat="49.39482" lon="0.97169">
        <ele>111.5</ele>
        <time>2018-09-23T08:12:55Z</time>
      </trkpt>
      <trkpt lat="49.39474" lon="0.97179">
        <ele>111.5</ele>
        <time>2018-09-23T08:12:57Z</time>
      </trkpt>
      <trkpt lat="49.39465" lon="0.97187">
        <ele>111.5</ele>
        <time>2018-09-23T08:12:59Z</time>
      </trkpt>
      <trkpt lat="49.39455" lon="0.97199">
        <ele>111.5</ele>
        <time>2018-09-23T08:13:01Z</time>
      </trkpt>
      <trkpt lat="49.39447" lon="0.97212">
        <ele>111.4</ele>
        <time>2018-09-23T08:13:03Z</time>
      </trkpt>
      <trkpt lat="49.39437" lon="0.97225">
        <ele>111.3</ele>
        <time>2018-09-23T08:13:05Z</time>
      </trkpt>
      <trkpt lat="49.39428" lon="0.97238">
        <ele>111.4</ele>
        <time>2018-09-23T08:13:07Z</time>
      </trkpt>
      <trkpt lat="49.39419" lon="0.97252">
        <ele>111.4</ele>
        <time>2018-09-23T08:13:09Z</time>
      </trkpt>
      <trkpt lat="49.39409" lon="0.97266">
        <ele>111.3</ele>
        <time>2018-09-23T08:13:11Z</time>
      </trkpt>
      <trkpt lat="49.394" lon="0.97278">
        <ele>111.2</ele>
        <time>2018-09-23T08:13:13Z</time>
      </trkpt>
      <trkpt lat="49.3939" lon="0.9729">
        <ele>111.1</ele>
        <time>2018-09-23T08:13:15Z</time>
      </trkpt>
      <trkpt lat="49.39381" lon="0.97303">
        <ele>111.1</ele>
        <time>2018-09-23T08:13:17Z</time>
      </trkpt>
      <trkpt lat="49.39371" lon="0.97315">
        <ele>111</ele>
        <time>2018-09-23T08:13:19Z</time>
      </trkpt>
      <trkpt lat="49.39361" lon="0.97328">
        <ele>110.8</ele>
        <time>2018-09-23T08:13:21Z</time>
      </trkpt>
      <trkpt lat="49.39353" lon="0.97339">
        <ele>110.7</ele>
        <time>2018-09-23T08:13:23Z</time>
      </trkpt>
      <trkpt lat="49.39344" lon="0.97339">
        <ele>110.1</ele>
        <time>2018-09-23T08:13:28Z</time>
      </trkpt>
      <trkpt lat="49.39339" lon="0.97322">
        <ele>109.9</ele>
        <time>2018-09-23T08:13:32Z</time>
      </trkpt>
      <trkpt lat="49.39333" lon="0.97303">
        <ele>109.7</ele>
        <time>2018-09-23T08:13:35Z</time>
      </trkpt>
      <trkpt lat="49.39328" lon="0.9729">
        <ele>109.1</ele>
        <time>2018-09-23T08:13:38Z</time>
      </trkpt>
      <trkpt lat="49.39322" lon="0.97274">
        <ele>108.7</ele>
        <time>2018-09-23T08:13:41Z</time>
      </trkpt>
      <trkpt lat="49.39317" lon="0.97258">
        <ele>108.7</ele>
        <time>2018-09-23T08:13:44Z</time>
      </trkpt>
      <trkpt lat="49.39311" lon="0.97242">
        <ele>108.4</ele>
        <time>2018-09-23T08:13:47Z</time>
      </trkpt>
      <trkpt lat="49.39305" lon="0.97224">
        <ele>108.4</ele>
        <time>2018-09-23T08:13:50Z</time>
      </trkpt>
      <trkpt lat="49.393" lon="0.97209">
        <ele>108.2</ele>
        <time>2018-09-23T08:13:53Z</time>
      </trkpt>
      <trkpt lat="49.39295" lon="0.97195">
        <ele>108</ele>
        <time>2018-09-23T08:13:56Z</time>
      </trkpt>
      <trkpt lat="49.39289" lon="0.97178">
        <ele>107.7</ele>
        <time>2018-09-23T08:13:59Z</time>
      </trkpt>
      <trkpt lat="49.39284" lon="0.97165">
        <ele>107.6</ele>
        <time>2018-09-23T08:14:01Z</time>
      </trkpt>
      <trkpt lat="49.3928" lon="0.97152">
        <ele>107.4</ele>
        <time>2018-09-23T08:14:03Z</time>
      </trkpt>
      <trkpt lat="49.39275" lon="0.97139">
        <ele>107.4</ele>
        <time>2018-09-23T08:14:05Z</time>
      </trkpt>
      <trkpt lat="49.39271" lon="0.97127">
        <ele>107</ele>
        <time>2018-09-23T08:14:07Z</time>
      </trkpt>
      <trkpt lat="49.39264" lon="0.9711">
        <ele>106.6</ele>
        <time>2018-09-23T08:14:10Z</time>
      </trkpt>
      <trkpt lat="49.39259" lon="0.97097">
        <ele>106.3</ele>
        <time>2018-09-23T08:14:13Z</time>
      </trkpt>
      <trkpt lat="49.39253" lon="0.9708">
        <ele>106.1</ele>
        <time>2018-09-23T08:14:16Z</time>
      </trkpt>
      <trkpt lat="49.39248" lon="0.97063">
        <ele>106.2</ele>
        <time>2018-09-23T08:14:19Z</time>
      </trkpt>
      <trkpt lat="49.39242" lon="0.97046">
        <ele>105.6</ele>
        <time>2018-09-23T08:14:22Z</time>
      </trkpt>
      <trkpt lat="49.39236" lon="0.97029">
        <ele>105.5</ele>
        <time>2018-09-23T08:14:25Z</time>
      </trkpt>
      <trkpt lat="49.39231" lon="0.97016">
        <ele>105.3</ele>
        <time>2018-09-23T08:14:27Z</time>
      </trkpt>
      <trkpt lat="49.39227" lon="0.97004">
        <ele>105.3</ele>
        <time>2018-09-23T08:14:29Z</time>
      </trkpt>
      <trkpt lat="49.39221" lon="0.96988">
        <ele>105.3</ele>
        <time>2018-09-23T08:14:32Z</time>
      </trkpt>
      <trkpt lat="49.39213" lon="0.96981">
        <ele>105.2</ele>
        <time>2018-09-23T08:14:35Z</time>
      </trkpt>
      <trkpt lat="49.39202" lon="0.9699">
        <ele>105.2</ele>
        <time>2018-09-23T08:14:39Z</time>
      </trkpt>
      <trkpt lat="49.39195" lon="0.96999">
        <ele>105</ele>
        <time>2018-09-23T08:14:42Z</time>
      </trkpt>
      <trkpt lat="49.39186" lon="0.97009">
        <ele>104.8</ele>
        <time>2018-09-23T08:14:45Z</time>
      </trkpt>
      <trkpt lat="49.39177" lon="0.97022">
        <ele>104.6</ele>
        <time>2018-09-23T08:14:48Z</time>
      </trkpt>
      <trkpt lat="49.39168" lon="0.97034">
        <ele>104.5</ele>
        <time>2018-09-23T08:14:51Z</time>
      </trkpt>
      <trkpt lat="49.39159" lon="0.97045">
        <ele>104.8</ele>
        <time>2018-09-23T08:14:54Z</time>
      </trkpt>
      <trkpt lat="49.39149" lon="0.97058">
        <ele>104.9</ele>
        <time>2018-09-23T08:14:57Z</time>
      </trkpt>
      <trkpt lat="49.3914" lon="0.97069">
        <ele>105.1</ele>
        <time>2018-09-23T08:15:00Z</time>
      </trkpt>
      <trkpt lat="49.39132" lon="0.97081">
        <ele>105.1</ele>
        <time>2018-09-23T08:15:03Z</time>
      </trkpt>
      <trkpt lat="49.39122" lon="0.97093">
        <ele>105.1</ele>
        <time>2018-09-23T08:15:06Z</time>
      </trkpt>
      <trkpt lat="49.39116" lon="0.97103">
        <ele>105.3</ele>
        <time>2018-09-23T08:15:08Z</time>
      </trkpt>
      <trkpt lat="49.39109" lon="0.97112">
        <ele>105.3</ele>
        <time>2018-09-23T08:15:10Z</time>
      </trkpt>
      <trkpt lat="49.39099" lon="0.97124">
        <ele>105.3</ele>
        <time>2018-09-23T08:15:13Z</time>
      </trkpt>
      <trkpt lat="49.3909" lon="0.97138">
        <ele>105.4</ele>
        <time>2018-09-23T08:15:16Z</time>
      </trkpt>
      <trkpt lat="49.39081" lon="0.97151">
        <ele>105.4</ele>
        <time>2018-09-23T08:15:19Z</time>
      </trkpt>
      <trkpt lat="49.39072" lon="0.97164">
        <ele>105.3</ele>
        <time>2018-09-23T08:15:22Z</time>
      </trkpt>
      <trkpt lat="49.39062" lon="0.97178">
        <ele>105.2</ele>
        <time>2018-09-23T08:15:25Z</time>
      </trkpt>
      <trkpt lat="49.39052" lon="0.97191">
        <ele>105.2</ele>
        <time>2018-09-23T08:15:28Z</time>
      </trkpt>
      <trkpt lat="49.39045" lon="0.97201">
        <ele>105.4</ele>
        <time>2018-09-23T08:15:30Z</time>
      </trkpt>
      <trkpt lat="49.39038" lon="0.9721">
        <ele>105.3</ele>
        <time>2018-09-23T08:15:32Z</time>
      </trkpt>
      <trkpt lat="49.39031" lon="0.9722">
        <ele>105.3</ele>
        <time>2018-09-23T08:15:34Z</time>
      </trkpt>
      <trkpt lat="49.39024" lon="0.97229">
        <ele>105.4</ele>
        <time>2018-09-23T08:15:36Z</time>
      </trkpt>
      <trkpt lat="49.39017" lon="0.97239">
        <ele>105.3</ele>
        <time>2018-09-23T08:15:38Z</time>
      </trkpt>
      <trkpt lat="49.39009" lon="0.97249">
        <ele>105.3</ele>
        <time>2018-09-23T08:15:40Z</time>
      </trkpt>
      <trkpt lat="49.39002" lon="0.9726">
        <ele>105.3</ele>
        <time>2018-09-23T08:15:42Z</time>
      </trkpt>
      <trkpt lat="49.38994" lon="0.9727">
        <ele>105.2</ele>
        <time>2018-09-23T08:15:44Z</time>
      </trkpt>
      <trkpt lat="49.38987" lon="0.97281">
        <ele>105.3</ele>
        <time>2018-09-23T08:15:46Z</time>
      </trkpt>
      <trkpt lat="49.38979" lon="0.97292">
        <ele>105.4</ele>
        <time>2018-09-23T08:15:48Z</time>
      </trkpt>
      <trkpt lat="49.38971" lon="0.97302">
        <ele>105.4</ele>
        <time>2018-09-23T08:15:50Z</time>
      </trkpt>
      <trkpt lat="49.38964" lon="0.97311">
        <ele>105.4</ele>
        <time>2018-09-23T08:15:52Z</time>
      </trkpt>
      <trkpt lat="49.38956" lon="0.97323">
        <ele>105.4</ele>
        <time>2018-09-23T08:15:54Z</time>
      </trkpt>
      <trkpt lat="49.38949" lon="0.97333">
        <ele>105.3</ele>
        <time>2018-09-23T08:15:56Z</time>
      </trkpt>
      <trkpt lat="49.38942" lon="0.97344">
        <ele>105.3</ele>
        <time>2018-09-23T08:15:58Z</time>
      </trkpt>
      <trkpt lat="49.38933" lon="0.97355">
        <ele>105.2</ele>
        <time>2018-09-23T08:16:00Z</time>
      </trkpt>
      <trkpt lat="49.38926" lon="0.97364">
        <ele>105.2</ele>
        <time>2018-09-23T08:16:02Z</time>
      </trkpt>
      <trkpt lat="49.38919" lon="0.97375">
        <ele>105.1</ele>
        <time>2018-09-23T08:16:04Z</time>
      </trkpt>
      <trkpt lat="49.38911" lon="0.97386">
        <ele>105.1</ele>
        <time>2018-09-23T08:16:06Z</time>
      </trkpt>
      <trkpt lat="49.38903" lon="0.97398">
        <ele>105</ele>
        <time>2018-09-23T08:16:08Z</time>
      </trkpt>
      <trkpt lat="49.38896" lon="0.97408">
        <ele>105</ele>
        <time>2018-09-23T08:16:10Z</time>
      </trkpt>
      <trkpt lat="49.3889" lon="0.97418">
        <ele>105</ele>
        <time>2018-09-23T08:16:12Z</time>
      </trkpt>
      <trkpt lat="49.38882" lon="0.97427">
        <ele>105.2</ele>
        <time>2018-09-23T08:16:14Z</time>
      </trkpt>
      <trkpt lat="49.38875" lon="0.97436">
        <ele>105.2</ele>
        <time>2018-09-23T08:16:16Z</time>
      </trkpt>
      <trkpt lat="49.38866" lon="0.97449">
        <ele>105</ele>
        <time>2018-09-23T08:16:19Z</time>
      </trkpt>
      <trkpt lat="49.38858" lon="0.97456">
        <ele>104.9</ele>
        <time>2018-09-23T08:16:21Z</time>
      </trkpt>
      <trkpt lat="49.38848" lon="0.97466">
        <ele>104.8</ele>
        <time>2018-09-23T08:16:24Z</time>
      </trkpt>
      <trkpt lat="49.3884" lon="0.97474">
        <ele>104.7</ele>
        <time>2018-09-23T08:16:26Z</time>
      </trkpt>
      <trkpt lat="49.38833" lon="0.97486">
        <ele>104.7</ele>
        <time>2018-09-23T08:16:28Z</time>
      </trkpt>
      <trkpt lat="49.38826" lon="0.97499">
        <ele>104.8</ele>
        <time>2018-09-23T08:16:30Z</time>
      </trkpt>
      <trkpt lat="49.38818" lon="0.9751">
        <ele>104.7</ele>
        <time>2018-09-23T08:16:32Z</time>
      </trkpt>
      <trkpt lat="49.38812" lon="0.97523">
        <ele>104.7</ele>
        <time>2018-09-23T08:16:34Z</time>
      </trkpt>
      <trkpt lat="49.38804" lon="0.97534">
        <ele>104.8</ele>
        <time>2018-09-23T08:16:36Z</time>
      </trkpt>
      <trkpt lat="49.38794" lon="0.97547">
        <ele>104.7</ele>
        <time>2018-09-23T08:16:38Z</time>
      </trkpt>
      <trkpt lat="49.38786" lon="0.97561">
        <ele>104.6</ele>
        <time>2018-09-23T08:16:40Z</time>
      </trkpt>
      <trkpt lat="49.38776" lon="0.97572">
        <ele>104.5</ele>
        <time>2018-09-23T08:16:42Z</time>
      </trkpt>
      <trkpt lat="49.38766" lon="0.97585">
        <ele>104.6</ele>
        <time>2018-09-23T08:16:44Z</time>
      </trkpt>
      <trkpt lat="49.38756" lon="0.976">
        <ele>104.6</ele>
        <time>2018-09-23T08:16:46Z</time>
      </trkpt>
      <trkpt lat="49.38746" lon="0.97614">
        <ele>104.4</ele>
        <time>2018-09-23T08:16:48Z</time>
      </trkpt>
      <trkpt lat="49.38736" lon="0.97627">
        <ele>104.2</ele>
        <time>2018-09-23T08:16:50Z</time>
      </trkpt>
      <trkpt lat="49.38728" lon="0.97639">
        <ele>104.1</ele>
        <time>2018-09-23T08:16:52Z</time>
      </trkpt>
      <trkpt lat="49.3872" lon="0.97651">
        <ele>104.1</ele>
        <time>2018-09-23T08:16:54Z</time>
      </trkpt>
      <trkpt lat="49.38713" lon="0.9766">
        <ele>104.2</ele>
        <time>2018-09-23T08:16:56Z</time>
      </trkpt>
      <trkpt lat="49.38703" lon="0.9767">
        <ele>104.2</ele>
        <time>2018-09-23T08:16:58Z</time>
      </trkpt>
      <trkpt lat="49.38695" lon="0.97679">
        <ele>103.7</ele>
        <time>2018-09-23T08:17:00Z</time>
      </trkpt>
      <trkpt lat="49.38686" lon="0.97694">
        <ele>103.6</ele>
        <time>2018-09-23T08:17:02Z</time>
      </trkpt>
      <trkpt lat="49.38677" lon="0.97707">
        <ele>103.6</ele>
        <time>2018-09-23T08:17:04Z</time>
      </trkpt>
      <trkpt lat="49.38667" lon="0.97721">
        <ele>103.4</ele>
        <time>2018-09-23T08:17:06Z</time>
      </trkpt>
      <trkpt lat="49.38658" lon="0.97732">
        <ele>103.3</ele>
        <time>2018-09-23T08:17:08Z</time>
      </trkpt>
      <trkpt lat="49.38649" lon="0.97744">
        <ele>103</ele>
        <time>2018-09-23T08:17:10Z</time>
      </trkpt>
      <trkpt lat="49.3864" lon="0.97758">
        <ele>102.8</ele>
        <time>2018-09-23T08:17:12Z</time>
      </trkpt>
      <trkpt lat="49.38629" lon="0.97772">
        <ele>102.9</ele>
        <time>2018-09-23T08:17:14Z</time>
      </trkpt>
      <trkpt lat="49.38619" lon="0.97784">
        <ele>102.6</ele>
        <time>2018-09-23T08:17:16Z</time>
      </trkpt>
      <trkpt lat="49.38608" lon="0.97798">
        <ele>102.2</ele>
        <time>2018-09-23T08:17:18Z</time>
      </trkpt>
      <trkpt lat="49.38597" lon="0.9781">
        <ele>102</ele>
        <time>2018-09-23T08:17:20Z</time>
      </trkpt>
      <trkpt lat="49.38586" lon="0.97824">
        <ele>101.6</ele>
        <time>2018-09-23T08:17:22Z</time>
      </trkpt>
      <trkpt lat="49.38577" lon="0.97838">
        <ele>101.4</ele>
        <time>2018-09-23T08:17:24Z</time>
      </trkpt>
      <trkpt lat="49.38566" lon="0.97851">
        <ele>101.2</ele>
        <time>2018-09-23T08:17:26Z</time>
      </trkpt>
      <trkpt lat="49.38556" lon="0.97865">
        <ele>100.9</ele>
        <time>2018-09-23T08:17:28Z</time>
      </trkpt>
      <trkpt lat="49.38545" lon="0.9788">
        <ele>100.6</ele>
        <time>2018-09-23T08:17:30Z</time>
      </trkpt>
      <trkpt lat="49.38534" lon="0.97895">
        <ele>100.1</ele>
        <time>2018-09-23T08:17:32Z</time>
      </trkpt>
      <trkpt lat="49.38524" lon="0.97911">
        <ele>99.5</ele>
        <time>2018-09-23T08:17:34Z</time>
      </trkpt>
      <trkpt lat="49.38514" lon="0.97927">
        <ele>98.9</ele>
        <time>2018-09-23T08:17:36Z</time>
      </trkpt>
      <trkpt lat="49.38503" lon="0.97943">
        <ele>98.4</ele>
        <time>2018-09-23T08:17:38Z</time>
      </trkpt>
      <trkpt lat="49.38493" lon="0.97957">
        <ele>98.1</ele>
        <time>2018-09-23T08:17:40Z</time>
      </trkpt>
      <trkpt lat="49.38485" lon="0.9797">
        <ele>97.5</ele>
        <time>2018-09-23T08:17:42Z</time>
      </trkpt>
      <trkpt lat="49.38478" lon="0.97981">
        <ele>96.6</ele>
        <time>2018-09-23T08:17:45Z</time>
      </trkpt>
      <trkpt lat="49.3847" lon="0.9799">
        <ele>92.5</ele>
        <time>2018-09-23T08:19:06Z</time>
      </trkpt>
      <trkpt lat="49.38477" lon="0.98">
        <ele>95.8</ele>
        <time>2018-09-23T08:21:30Z</time>
      </trkpt>
      <trkpt lat="49.38487" lon="0.98008">
        <ele>95.8</ele>
        <time>2018-09-23T08:21:39Z</time>
      </trkpt>
      <trkpt lat="49.38495" lon="0.98017">
        <ele>96</ele>
        <time>2018-09-23T08:21:42Z</time>
      </trkpt>
      <trkpt lat="49.38504" lon="0.98026">
        <ele>96.1</ele>
        <time>2018-09-23T08:21:45Z</time>
      </trkpt>
      <trkpt lat="49.38512" lon="0.98034">
        <ele>96.4</ele>
        <time>2018-09-23T08:21:48Z</time>
      </trkpt>
      <trkpt lat="49.38522" lon="0.98041">
        <ele>96.6</ele>
        <time>2018-09-23T08:21:51Z</time>
      </trkpt>
      <trkpt lat="49.38532" lon="0.98049">
        <ele>96.7</ele>
        <time>2018-09-23T08:21:54Z</time>
      </trkpt>
      <trkpt lat="49.38542" lon="0.98057">
        <ele>97.2</ele>
        <time>2018-09-23T08:21:57Z</time>
      </trkpt>
      <trkpt lat="49.38552" lon="0.98067">
        <ele>97.4</ele>
        <time>2018-09-23T08:22:00Z</time>
      </trkpt>
      <trkpt lat="49.38561" lon="0.98075">
        <ele>97.6</ele>
        <time>2018-09-23T08:22:03Z</time>
      </trkpt>
      <trkpt lat="49.38569" lon="0.98083">
        <ele>97.7</ele>
        <time>2018-09-23T08:22:06Z</time>
      </trkpt>
      <trkpt lat="49.38579" lon="0.98091">
        <ele>97.7</ele>
        <time>2018-09-23T08:22:09Z</time>
      </trkpt>
      <trkpt lat="49.38588" lon="0.98098">
        <ele>97.8</ele>
        <time>2018-09-23T08:22:12Z</time>
      </trkpt>
      <trkpt lat="49.38596" lon="0.98104">
        <ele>97.9</ele>
        <time>2018-09-23T08:22:15Z</time>
      </trkpt>
      <trkpt lat="49.38606" lon="0.98112">
        <ele>98</ele>
        <time>2018-09-23T08:22:18Z</time>
      </trkpt>
      <trkpt lat="49.38615" lon="0.98121">
        <ele>97.8</ele>
        <time>2018-09-23T08:22:21Z</time>
      </trkpt>
      <trkpt lat="49.38625" lon="0.9813">
        <ele>97.7</ele>
        <time>2018-09-23T08:22:24Z</time>
      </trkpt>
      <trkpt lat="49.38633" lon="0.98139">
        <ele>97.6</ele>
        <time>2018-09-23T08:22:27Z</time>
      </trkpt>
      <trkpt lat="49.38644" lon="0.9815">
        <ele>97.5</ele>
        <time>2018-09-23T08:22:30Z</time>
      </trkpt>
      <trkpt lat="49.38654" lon="0.98161">
        <ele>97.4</ele>
        <time>2018-09-23T08:22:33Z</time>
      </trkpt>
      <trkpt lat="49.38664" lon="0.98169">
        <ele>97.3</ele>
        <time>2018-09-23T08:22:35Z</time>
      </trkpt>
      <trkpt lat="49.38673" lon="0.98177">
        <ele>97.4</ele>
        <time>2018-09-23T08:22:37Z</time>
      </trkpt>
      <trkpt lat="49.38684" lon="0.98188">
        <ele>97.4</ele>
        <time>2018-09-23T08:22:40Z</time>
      </trkpt>
      <trkpt lat="49.38695" lon="0.98197">
        <ele>97.4</ele>
        <time>2018-09-23T08:22:43Z</time>
      </trkpt>
      <trkpt lat="49.38704" lon="0.98206">
        <ele>97.5</ele>
        <time>2018-09-23T08:22:46Z</time>
      </trkpt>
      <trkpt lat="49.38712" lon="0.98214">
        <ele>97.5</ele>
        <time>2018-09-23T08:22:49Z</time>
      </trkpt>
      <trkpt lat="49.38723" lon="0.98222">
        <ele>97.9</ele>
        <time>2018-09-23T08:22:53Z</time>
      </trkpt>
      <trkpt lat="49.38732" lon="0.9823">
        <ele>98.3</ele>
        <time>2018-09-23T08:22:57Z</time>
      </trkpt>
      <trkpt lat="49.38741" lon="0.98238">
        <ele>99</ele>
        <time>2018-09-23T08:23:03Z</time>
      </trkpt>
      <trkpt lat="49.38749" lon="0.98245">
        <ele>99.5</ele>
        <time>2018-09-23T08:23:08Z</time>
      </trkpt>
      <trkpt lat="49.38757" lon="0.98253">
        <ele>99.9</ele>
        <time>2018-09-23T08:23:13Z</time>
      </trkpt>
      <trkpt lat="49.38766" lon="0.98261">
        <ele>100.2</ele>
        <time>2018-09-23T08:23:19Z</time>
      </trkpt>
      <trkpt lat="49.38775" lon="0.9827">
        <ele>100.6</ele>
        <time>2018-09-23T08:23:26Z</time>
      </trkpt>
      <trkpt lat="49.38783" lon="0.98277">
        <ele>100.6</ele>
        <time>2018-09-23T08:23:32Z</time>
      </trkpt>
      <trkpt lat="49.38791" lon="0.98285">
        <ele>100.7</ele>
        <time>2018-09-23T08:23:38Z</time>
      </trkpt>
      <trkpt lat="49.388" lon="0.98293">
        <ele>100.4</ele>
        <time>2018-09-23T08:23:44Z</time>
      </trkpt>
      <trkpt lat="49.38808" lon="0.983">
        <ele>100.2</ele>
        <time>2018-09-23T08:23:49Z</time>
      </trkpt>
      <trkpt lat="49.38816" lon="0.98307">
        <ele>100.1</ele>
        <time>2018-09-23T08:23:54Z</time>
      </trkpt>
      <trkpt lat="49.38824" lon="0.98314">
        <ele>100</ele>
        <time>2018-09-23T08:23:59Z</time>
      </trkpt>
      <trkpt lat="49.38832" lon="0.98321">
        <ele>100.1</ele>
        <time>2018-09-23T08:24:04Z</time>
      </trkpt>
      <trkpt lat="49.38841" lon="0.9833">
        <ele>100.1</ele>
        <time>2018-09-23T08:24:09Z</time>
      </trkpt>
      <trkpt lat="49.38851" lon="0.98339">
        <ele>100</ele>
        <time>2018-09-23T08:24:14Z</time>
      </trkpt>
      <trkpt lat="49.3886" lon="0.98347">
        <ele>100</ele>
        <time>2018-09-23T08:24:19Z</time>
      </trkpt>
      <trkpt lat="49.38868" lon="0.98355">
        <ele>100.2</ele>
        <time>2018-09-23T08:24:24Z</time>
      </trkpt>
      <trkpt lat="49.38878" lon="0.98367">
        <ele>100.4</ele>
        <time>2018-09-23T08:24:30Z</time>
      </trkpt>
      <trkpt lat="49.38888" lon="0.98371">
        <ele>100.6</ele>
        <time>2018-09-23T08:24:34Z</time>
      </trkpt>
      <trkpt lat="49.38898" lon="0.98379">
        <ele>100.8</ele>
        <time>2018-09-23T08:24:37Z</time>
      </trkpt>
      <trkpt lat="49.38908" lon="0.98387">
        <ele>100.7</ele>
        <time>2018-09-23T08:24:40Z</time>
      </trkpt>
      <trkpt lat="49.38918" lon="0.98396">
        <ele>100.7</ele>
        <time>2018-09-23T08:24:43Z</time>
      </trkpt>
      <trkpt lat="49.38925" lon="0.98404">
        <ele>101</ele>
        <time>2018-09-23T08:24:46Z</time>
      </trkpt>
      <trkpt lat="49.38935" lon="0.98414">
        <ele>101.3</ele>
        <time>2018-09-23T08:24:50Z</time>
      </trkpt>
      <trkpt lat="49.38946" lon="0.98422">
        <ele>101.3</ele>
        <time>2018-09-23T08:24:52Z</time>
      </trkpt>
      <trkpt lat="49.38955" lon="0.98431">
        <ele>101.4</ele>
        <time>2018-09-23T08:24:54Z</time>
      </trkpt>
      <trkpt lat="49.38963" lon="0.98439">
        <ele>101.3</ele>
        <time>2018-09-23T08:24:56Z</time>
      </trkpt>
      <trkpt lat="49.38974" lon="0.98447">
        <ele>101.2</ele>
        <time>2018-09-23T08:24:59Z</time>
      </trkpt>
      <trkpt lat="49.38985" lon="0.98458">
        <ele>101.6</ele>
        <time>2018-09-23T08:25:02Z</time>
      </trkpt>
      <trkpt lat="49.38993" lon="0.98466">
        <ele>101.8</ele>
        <time>2018-09-23T08:25:04Z</time>
      </trkpt>
      <trkpt lat="49.39002" lon="0.98473">
        <ele>102</ele>
        <time>2018-09-23T08:25:06Z</time>
      </trkpt>
      <trkpt lat="49.39012" lon="0.98484">
        <ele>102.1</ele>
        <time>2018-09-23T08:25:09Z</time>
      </trkpt>
      <trkpt lat="49.3902" lon="0.98492">
        <ele>102</ele>
        <time>2018-09-23T08:25:11Z</time>
      </trkpt>
      <trkpt lat="49.39027" lon="0.98499">
        <ele>102.2</ele>
        <time>2018-09-23T08:25:13Z</time>
      </trkpt>
      <trkpt lat="49.39038" lon="0.9851">
        <ele>102.4</ele>
        <time>2018-09-23T08:25:16Z</time>
      </trkpt>
      <trkpt lat="49.39048" lon="0.98518">
        <ele>102.5</ele>
        <time>2018-09-23T08:25:18Z</time>
      </trkpt>
      <trkpt lat="49.39056" lon="0.98524">
        <ele>102.7</ele>
        <time>2018-09-23T08:25:20Z</time>
      </trkpt>
      <trkpt lat="49.39065" lon="0.98534">
        <ele>102.8</ele>
        <time>2018-09-23T08:25:24Z</time>
      </trkpt>
      <trkpt lat="49.39055" lon="0.98524">
        <ele>102.4</ele>
        <time>2018-09-23T08:25:42Z</time>
      </trkpt>
      <trkpt lat="49.39045" lon="0.98514">
        <ele>102.5</ele>
        <time>2018-09-23T08:25:45Z</time>
      </trkpt>
      <trkpt lat="49.39033" lon="0.98502">
        <ele>102.6</ele>
        <time>2018-09-23T08:25:48Z</time>
      </trkpt>
      <trkpt lat="49.39022" lon="0.98493">
        <ele>102.7</ele>
        <time>2018-09-23T08:25:51Z</time>
      </trkpt>
      <trkpt lat="49.39014" lon="0.98486">
        <ele>102.5</ele>
        <time>2018-09-23T08:25:53Z</time>
      </trkpt>
      <trkpt lat="49.39005" lon="0.98478">
        <ele>102.4</ele>
        <time>2018-09-23T08:25:55Z</time>
      </trkpt>
      <trkpt lat="49.38996" lon="0.98469">
        <ele>102.5</ele>
        <time>2018-09-23T08:25:57Z</time>
      </trkpt>
      <trkpt lat="49.38988" lon="0.98463">
        <ele>102.7</ele>
        <time>2018-09-23T08:25:59Z</time>
      </trkpt>
      <trkpt lat="49.38977" lon="0.98452">
        <ele>102.8</ele>
        <time>2018-09-23T08:26:01Z</time>
      </trkpt>
      <trkpt lat="49.38969" lon="0.98445">
        <ele>102.7</ele>
        <time>2018-09-23T08:26:03Z</time>
      </trkpt>
      <trkpt lat="49.3896" lon="0.98434">
        <ele>102.7</ele>
        <time>2018-09-23T08:26:05Z</time>
      </trkpt>
      <trkpt lat="49.38949" lon="0.98426">
        <ele>102.9</ele>
        <time>2018-09-23T08:26:08Z</time>
      </trkpt>
      <trkpt lat="49.38937" lon="0.98416">
        <ele>102.9</ele>
        <time>2018-09-23T08:26:11Z</time>
      </trkpt>
      <trkpt lat="49.38928" lon="0.98405">
        <ele>102.9</ele>
        <time>2018-09-23T08:26:13Z</time>
      </trkpt>
      <trkpt lat="49.38919" lon="0.98398">
        <ele>102.9</ele>
        <time>2018-09-23T08:26:15Z</time>
      </trkpt>
      <trkpt lat="49.38908" lon="0.98389">
        <ele>102.8</ele>
        <time>2018-09-23T08:26:18Z</time>
      </trkpt>
      <trkpt lat="49.38898" lon="0.9838">
        <ele>103</ele>
        <time>2018-09-23T08:26:21Z</time>
      </trkpt>
      <trkpt lat="49.3889" lon="0.98374">
        <ele>103.2</ele>
        <time>2018-09-23T08:26:23Z</time>
      </trkpt>
      <trkpt lat="49.38879" lon="0.98365">
        <ele>103.4</ele>
        <time>2018-09-23T08:26:25Z</time>
      </trkpt>
      <trkpt lat="49.38869" lon="0.98357">
        <ele>103.5</ele>
        <time>2018-09-23T08:26:27Z</time>
      </trkpt>
      <trkpt lat="49.38858" lon="0.98355">
        <ele>103.6</ele>
        <time>2018-09-23T08:26:30Z</time>
      </trkpt>
      <trkpt lat="49.38849" lon="0.98365">
        <ele>103.6</ele>
        <time>2018-09-23T08:26:33Z</time>
      </trkpt>
      <trkpt lat="49.38842" lon="0.98378">
        <ele>103.6</ele>
        <time>2018-09-23T08:26:36Z</time>
      </trkpt>
      <trkpt lat="49.38835" lon="0.98393">
        <ele>103.5</ele>
        <time>2018-09-23T08:26:39Z</time>
      </trkpt>
      <trkpt lat="49.38828" lon="0.98408">
        <ele>103.2</ele>
        <time>2018-09-23T08:26:42Z</time>
      </trkpt>
      <trkpt lat="49.38821" lon="0.98424">
        <ele>103.1</ele>
        <time>2018-09-23T08:26:45Z</time>
      </trkpt>
      <trkpt lat="49.38813" lon="0.9844">
        <ele>103.3</ele>
        <time>2018-09-23T08:26:48Z</time>
      </trkpt>
      <trkpt lat="49.38807" lon="0.98457">
        <ele>103.1</ele>
        <time>2018-09-23T08:26:51Z</time>
      </trkpt>
      <trkpt lat="49.38802" lon="0.98469">
        <ele>103.1</ele>
        <time>2018-09-23T08:26:53Z</time>
      </trkpt>
      <trkpt lat="49.38796" lon="0.98481">
        <ele>103</ele>
        <time>2018-09-23T08:26:55Z</time>
      </trkpt>
      <trkpt lat="49.38792" lon="0.98494">
        <ele>102.7</ele>
        <time>2018-09-23T08:26:57Z</time>
      </trkpt>
      <trkpt lat="49.38787" lon="0.98506">
        <ele>102.6</ele>
        <time>2018-09-23T08:26:59Z</time>
      </trkpt>
      <trkpt lat="49.38781" lon="0.98523">
        <ele>102.4</ele>
        <time>2018-09-23T08:27:02Z</time>
      </trkpt>
      <trkpt lat="49.38774" lon="0.9854">
        <ele>102.2</ele>
        <time>2018-09-23T08:27:05Z</time>
      </trkpt>
      <trkpt lat="49.38766" lon="0.98557">
        <ele>101.4</ele>
        <time>2018-09-23T08:27:08Z</time>
      </trkpt>
      <trkpt lat="49.38761" lon="0.98569">
        <ele>101.3</ele>
        <time>2018-09-23T08:27:10Z</time>
      </trkpt>
      <trkpt lat="49.38756" lon="0.98581">
        <ele>101.2</ele>
        <time>2018-09-23T08:27:12Z</time>
      </trkpt>
      <trkpt lat="49.38752" lon="0.98594">
        <ele>100.8</ele>
        <time>2018-09-23T08:27:14Z</time>
      </trkpt>
      <trkpt lat="49.38746" lon="0.98611">
        <ele>100.7</ele>
        <time>2018-09-23T08:27:17Z</time>
      </trkpt>
      <trkpt lat="49.38739" lon="0.98629">
        <ele>99.9</ele>
        <time>2018-09-23T08:27:20Z</time>
      </trkpt>
      <trkpt lat="49.38734" lon="0.98641">
        <ele>99.8</ele>
        <time>2018-09-23T08:27:22Z</time>
      </trkpt>
      <trkpt lat="49.3873" lon="0.98654">
        <ele>99.5</ele>
        <time>2018-09-23T08:27:24Z</time>
      </trkpt>
      <trkpt lat="49.38725" lon="0.98666">
        <ele>99.4</ele>
        <time>2018-09-23T08:27:26Z</time>
      </trkpt>
      <trkpt lat="49.38721" lon="0.98678">
        <ele>99.2</ele>
        <time>2018-09-23T08:27:28Z</time>
      </trkpt>
      <trkpt lat="49.38716" lon="0.98692">
        <ele>98.9</ele>
        <time>2018-09-23T08:27:30Z</time>
      </trkpt>
      <trkpt lat="49.38709" lon="0.98703">
        <ele>98.6</ele>
        <time>2018-09-23T08:27:32Z</time>
      </trkpt>
      <trkpt lat="49.38703" lon="0.98717">
        <ele>98.6</ele>
        <time>2018-09-23T08:27:34Z</time>
      </trkpt>
      <trkpt lat="49.38697" lon="0.9873">
        <ele>98.3</ele>
        <time>2018-09-23T08:27:36Z</time>
      </trkpt>
      <trkpt lat="49.38692" lon="0.98744">
        <ele>98.3</ele>
        <time>2018-09-23T08:27:38Z</time>
      </trkpt>
      <trkpt lat="49.38686" lon="0.98758">
        <ele>98.3</ele>
        <time>2018-09-23T08:27:40Z</time>
      </trkpt>
      <trkpt lat="49.38681" lon="0.98773">
        <ele>98.3</ele>
        <time>2018-09-23T08:27:42Z</time>
      </trkpt>
      <trkpt lat="49.38676" lon="0.98788">
        <ele>98.1</ele>
        <time>2018-09-23T08:27:44Z</time>
      </trkpt>
      <trkpt lat="49.38671" lon="0.98802">
        <ele>97.9</ele>
        <time>2018-09-23T08:27:46Z</time>
      </trkpt>
      <trkpt lat="49.38667" lon="0.98815">
        <ele>97.8</ele>
        <time>2018-09-23T08:27:48Z</time>
      </trkpt>
      <trkpt lat="49.38661" lon="0.98829">
        <ele>97.4</ele>
        <time>2018-09-23T08:27:50Z</time>
      </trkpt>
      <trkpt lat="49.38656" lon="0.98842">
        <ele>97.3</ele>
        <time>2018-09-23T08:27:52Z</time>
      </trkpt>
      <trkpt lat="49.3865" lon="0.98856">
        <ele>97.2</ele>
        <time>2018-09-23T08:27:54Z</time>
      </trkpt>
      <trkpt lat="49.38644" lon="0.98871">
        <ele>96.9</ele>
        <time>2018-09-23T08:27:56Z</time>
      </trkpt>
      <trkpt lat="49.38639" lon="0.98883">
        <ele>96.7</ele>
        <time>2018-09-23T08:27:58Z</time>
      </trkpt>
      <trkpt lat="49.38631" lon="0.98893">
        <ele>96</ele>
        <time>2018-09-23T08:28:01Z</time>
      </trkpt>
      <trkpt lat="49.38621" lon="0.98891">
        <ele>96</ele>
        <time>2018-09-23T08:28:04Z</time>
      </trkpt>
      <trkpt lat="49.3861" lon="0.98887">
        <ele>95.8</ele>
        <time>2018-09-23T08:28:07Z</time>
      </trkpt>
      <trkpt lat="49.38598" lon="0.98883">
        <ele>95.1</ele>
        <time>2018-09-23T08:28:10Z</time>
      </trkpt>
      <trkpt lat="49.38589" lon="0.98878">
        <ele>95.1</ele>
        <time>2018-09-23T08:28:12Z</time>
      </trkpt>
      <trkpt lat="49.3858" lon="0.98873">
        <ele>95</ele>
        <time>2018-09-23T08:28:14Z</time>
      </trkpt>
      <trkpt lat="49.3857" lon="0.98868">
        <ele>94.8</ele>
        <time>2018-09-23T08:28:16Z</time>
      </trkpt>
      <trkpt lat="49.3856" lon="0.9886">
        <ele>94.8</ele>
        <time>2018-09-23T08:28:18Z</time>
      </trkpt>
      <trkpt lat="49.38549" lon="0.98856">
        <ele>95</ele>
        <time>2018-09-23T08:28:20Z</time>
      </trkpt>
      <trkpt lat="49.38538" lon="0.98861">
        <ele>94.6</ele>
        <time>2018-09-23T08:28:23Z</time>
      </trkpt>
      <trkpt lat="49.38532" lon="0.98878">
        <ele>94.7</ele>
        <time>2018-09-23T08:28:26Z</time>
      </trkpt>
      <trkpt lat="49.38529" lon="0.98893">
        <ele>94.9</ele>
        <time>2018-09-23T08:28:28Z</time>
      </trkpt>
      <trkpt lat="49.38528" lon="0.98909">
        <ele>94.8</ele>
        <time>2018-09-23T08:28:30Z</time>
      </trkpt>
      <trkpt lat="49.38524" lon="0.98925">
        <ele>94.7</ele>
        <time>2018-09-23T08:28:32Z</time>
      </trkpt>
      <trkpt lat="49.38521" lon="0.9894">
        <ele>94.6</ele>
        <time>2018-09-23T08:28:34Z</time>
      </trkpt>
      <trkpt lat="49.38521" lon="0.98959">
        <ele>94.4</ele>
        <time>2018-09-23T08:28:37Z</time>
      </trkpt>
      <trkpt lat="49.38527" lon="0.9897">
        <ele>94</ele>
        <time>2018-09-23T08:28:41Z</time>
      </trkpt>
      <trkpt lat="49.38538" lon="0.98984">
        <ele>93.9</ele>
        <time>2018-09-23T08:28:45Z</time>
      </trkpt>
      <trkpt lat="49.38545" lon="0.98993">
        <ele>94.1</ele>
        <time>2018-09-23T08:28:47Z</time>
      </trkpt>
      <trkpt lat="49.38554" lon="0.99005">
        <ele>94.2</ele>
        <time>2018-09-23T08:28:51Z</time>
      </trkpt>
      <trkpt lat="49.38563" lon="0.99015">
        <ele>94.1</ele>
        <time>2018-09-23T08:28:54Z</time>
      </trkpt>
      <trkpt lat="49.38574" lon="0.99024">
        <ele>93.9</ele>
        <time>2018-09-23T08:28:57Z</time>
      </trkpt>
      <trkpt lat="49.38585" lon="0.99033">
        <ele>94.1</ele>
        <time>2018-09-23T08:29:00Z</time>
      </trkpt>
      <trkpt lat="49.38594" lon="0.99039">
        <ele>94.2</ele>
        <time>2018-09-23T08:29:03Z</time>
      </trkpt>
      <trkpt lat="49.38604" lon="0.9905">
        <ele>94.5</ele>
        <time>2018-09-23T08:29:06Z</time>
      </trkpt>
      <trkpt lat="49.38612" lon="0.99058">
        <ele>94.6</ele>
        <time>2018-09-23T08:29:09Z</time>
      </trkpt>
      <trkpt lat="49.38619" lon="0.99072">
        <ele>95.1</ele>
        <time>2018-09-23T08:29:14Z</time>
      </trkpt>
      <trkpt lat="49.38625" lon="0.99085">
        <ele>95.5</ele>
        <time>2018-09-23T08:29:17Z</time>
      </trkpt>
      <trkpt lat="49.38633" lon="0.99095">
        <ele>96.1</ele>
        <time>2018-09-23T08:29:22Z</time>
      </trkpt>
      <trkpt lat="49.38641" lon="0.99101">
        <ele>96.4</ele>
        <time>2018-09-23T08:29:26Z</time>
      </trkpt>
      <trkpt lat="49.38651" lon="0.99105">
        <ele>96.4</ele>
        <time>2018-09-23T08:29:31Z</time>
      </trkpt>
      <trkpt lat="49.3866" lon="0.99111">
        <ele>96.5</ele>
        <time>2018-09-23T08:29:35Z</time>
      </trkpt>
      <trkpt lat="49.3867" lon="0.99118">
        <ele>96.5</ele>
        <time>2018-09-23T08:29:41Z</time>
      </trkpt>
      <trkpt lat="49.38681" lon="0.99125">
        <ele>96.6</ele>
        <time>2018-09-23T08:29:46Z</time>
      </trkpt>
      <trkpt lat="49.38691" lon="0.99133">
        <ele>96.6</ele>
        <time>2018-09-23T08:29:50Z</time>
      </trkpt>
      <trkpt lat="49.38699" lon="0.99143">
        <ele>96.8</ele>
        <time>2018-09-23T08:29:54Z</time>
      </trkpt>
      <trkpt lat="49.387" lon="0.9916">
        <ele>97</ele>
        <time>2018-09-23T08:29:58Z</time>
      </trkpt>
      <trkpt lat="49.38698" lon="0.99178">
        <ele>97.2</ele>
        <time>2018-09-23T08:30:02Z</time>
      </trkpt>
      <trkpt lat="49.38698" lon="0.99194">
        <ele>97.1</ele>
        <time>2018-09-23T08:30:05Z</time>
      </trkpt>
      <trkpt lat="49.38694" lon="0.99206">
        <ele>96.9</ele>
        <time>2018-09-23T08:30:08Z</time>
      </trkpt>
      <trkpt lat="49.3869" lon="0.99221">
        <ele>96.9</ele>
        <time>2018-09-23T08:30:12Z</time>
      </trkpt>
      <trkpt lat="49.38687" lon="0.99237">
        <ele>96.8</ele>
        <time>2018-09-23T08:30:15Z</time>
      </trkpt>
      <trkpt lat="49.38685" lon="0.99255">
        <ele>96.7</ele>
        <time>2018-09-23T08:30:18Z</time>
      </trkpt>
      <trkpt lat="49.38682" lon="0.99271">
        <ele>96.6</ele>
        <time>2018-09-23T08:30:21Z</time>
      </trkpt>
      <trkpt lat="49.38678" lon="0.99289">
        <ele>96.7</ele>
        <time>2018-09-23T08:30:25Z</time>
      </trkpt>
      <trkpt lat="49.38675" lon="0.99308">
        <ele>96.4</ele>
        <time>2018-09-23T08:30:28Z</time>
      </trkpt>
      <trkpt lat="49.38673" lon="0.99326">
        <ele>96.2</ele>
        <time>2018-09-23T08:30:31Z</time>
      </trkpt>
      <trkpt lat="49.38668" lon="0.99345">
        <ele>96</ele>
        <time>2018-09-23T08:30:34Z</time>
      </trkpt>
      <trkpt lat="49.38665" lon="0.99361">
        <ele>95.9</ele>
        <time>2018-09-23T08:30:36Z</time>
      </trkpt>
      <trkpt lat="49.38661" lon="0.9938">
        <ele>96</ele>
        <time>2018-09-23T08:30:39Z</time>
      </trkpt>
      <trkpt lat="49.38655" lon="0.99396">
        <ele>96.2</ele>
        <time>2018-09-23T08:30:42Z</time>
      </trkpt>
      <trkpt lat="49.38653" lon="0.99411">
        <ele>96.3</ele>
        <time>2018-09-23T08:30:44Z</time>
      </trkpt>
      <trkpt lat="49.3865" lon="0.9943">
        <ele>96.2</ele>
        <time>2018-09-23T08:30:47Z</time>
      </trkpt>
      <trkpt lat="49.38647" lon="0.99443">
        <ele>96.3</ele>
        <time>2018-09-23T08:30:50Z</time>
      </trkpt>
      <trkpt lat="49.38644" lon="0.99462">
        <ele>96.4</ele>
        <time>2018-09-23T08:30:53Z</time>
      </trkpt>
      <trkpt lat="49.3864" lon="0.99479">
        <ele>96.5</ele>
        <time>2018-09-23T08:30:56Z</time>
      </trkpt>
      <trkpt lat="49.38638" lon="0.99493">
        <ele>96.6</ele>
        <time>2018-09-23T08:30:58Z</time>
      </trkpt>
      <trkpt lat="49.38634" lon="0.99511">
        <ele>96.7</ele>
        <time>2018-09-23T08:31:01Z</time>
      </trkpt>
      <trkpt lat="49.38631" lon="0.99525">
        <ele>96.9</ele>
        <time>2018-09-23T08:31:03Z</time>
      </trkpt>
      <trkpt lat="49.38629" lon="0.99543">
        <ele>97</ele>
        <time>2018-09-23T08:31:06Z</time>
      </trkpt>
      <trkpt lat="49.38627" lon="0.99557">
        <ele>97.1</ele>
        <time>2018-09-23T08:31:09Z</time>
      </trkpt>
      <trkpt lat="49.38624" lon="0.99575">
        <ele>97.2</ele>
        <time>2018-09-23T08:31:12Z</time>
      </trkpt>
      <trkpt lat="49.3862" lon="0.99592">
        <ele>97.3</ele>
        <time>2018-09-23T08:31:15Z</time>
      </trkpt>
      <trkpt lat="49.38617" lon="0.99605">
        <ele>97.4</ele>
        <time>2018-09-23T08:31:17Z</time>
      </trkpt>
      <trkpt lat="49.38615" lon="0.99619">
        <ele>97.8</ele>
        <time>2018-09-23T08:31:19Z</time>
      </trkpt>
      <trkpt lat="49.38612" lon="0.99634">
        <ele>97.7</ele>
        <time>2018-09-23T08:31:21Z</time>
      </trkpt>
      <trkpt lat="49.38609" lon="0.99648">
        <ele>97.5</ele>
        <time>2018-09-23T08:31:23Z</time>
      </trkpt>
      <trkpt lat="49.38606" lon="0.99662">
        <ele>97.8</ele>
        <time>2018-09-23T08:31:25Z</time>
      </trkpt>
      <trkpt lat="49.38603" lon="0.9968">
        <ele>97.6</ele>
        <time>2018-09-23T08:31:28Z</time>
      </trkpt>
      <trkpt lat="49.38599" lon="0.99702">
        <ele>97.7</ele>
        <time>2018-09-23T08:31:31Z</time>
      </trkpt>
      <trkpt lat="49.38596" lon="0.99718">
        <ele>97.7</ele>
        <time>2018-09-23T08:31:33Z</time>
      </trkpt>
      <trkpt lat="49.38595" lon="0.99733">
        <ele>97.7</ele>
        <time>2018-09-23T08:31:35Z</time>
      </trkpt>
      <trkpt lat="49.38595" lon="0.99749">
        <ele>97.5</ele>
        <time>2018-09-23T08:31:37Z</time>
      </trkpt>
      <trkpt lat="49.38601" lon="0.99763">
        <ele>97.4</ele>
        <time>2018-09-23T08:31:40Z</time>
      </trkpt>
      <trkpt lat="49.3861" lon="0.99769">
        <ele>97.6</ele>
        <time>2018-09-23T08:31:43Z</time>
      </trkpt>
      <trkpt lat="49.38619" lon="0.99774">
        <ele>97.9</ele>
        <time>2018-09-23T08:31:46Z</time>
      </trkpt>
      <trkpt lat="49.38629" lon="0.99779">
        <ele>97.8</ele>
        <time>2018-09-23T08:31:49Z</time>
      </trkpt>
      <trkpt lat="49.3864" lon="0.99784">
        <ele>97.8</ele>
        <time>2018-09-23T08:31:52Z</time>
      </trkpt>
      <trkpt lat="49.3865" lon="0.99787">
        <ele>98.1</ele>
        <time>2018-09-23T08:31:55Z</time>
      </trkpt>
      <trkpt lat="49.38662" lon="0.99789">
        <ele>98.1</ele>
        <time>2018-09-23T08:31:58Z</time>
      </trkpt>
      <trkpt lat="49.38672" lon="0.99793">
        <ele>98.1</ele>
        <time>2018-09-23T08:32:01Z</time>
      </trkpt>
      <trkpt lat="49.38682" lon="0.99796">
        <ele>98.4</ele>
        <time>2018-09-23T08:32:04Z</time>
      </trkpt>
      <trkpt lat="49.38694" lon="0.998">
        <ele>98.6</ele>
        <time>2018-09-23T08:32:07Z</time>
      </trkpt>
      <trkpt lat="49.38705" lon="0.99803">
        <ele>98.8</ele>
        <time>2018-09-23T08:32:10Z</time>
      </trkpt>
      <trkpt lat="49.38716" lon="0.99805">
        <ele>98.7</ele>
        <time>2018-09-23T08:32:13Z</time>
      </trkpt>
      <trkpt lat="49.38726" lon="0.99808">
        <ele>98.9</ele>
        <time>2018-09-23T08:32:16Z</time>
      </trkpt>
      <trkpt lat="49.38736" lon="0.99811">
        <ele>98.7</ele>
        <time>2018-09-23T08:32:19Z</time>
      </trkpt>
      <trkpt lat="49.38747" lon="0.99814">
        <ele>98.7</ele>
        <time>2018-09-23T08:32:22Z</time>
      </trkpt>
      <trkpt lat="49.38758" lon="0.99816">
        <ele>98.7</ele>
        <time>2018-09-23T08:32:25Z</time>
      </trkpt>
      <trkpt lat="49.3877" lon="0.99819">
        <ele>98.7</ele>
        <time>2018-09-23T08:32:28Z</time>
      </trkpt>
      <trkpt lat="49.38779" lon="0.99821">
        <ele>98.8</ele>
        <time>2018-09-23T08:32:30Z</time>
      </trkpt>
      <trkpt lat="49.38792" lon="0.99824">
        <ele>98.8</ele>
        <time>2018-09-23T08:32:33Z</time>
      </trkpt>
      <trkpt lat="49.38801" lon="0.99826">
        <ele>98.7</ele>
        <time>2018-09-23T08:32:35Z</time>
      </trkpt>
      <trkpt lat="49.38813" lon="0.99827">
        <ele>98.7</ele>
        <time>2018-09-23T08:32:38Z</time>
      </trkpt>
      <trkpt lat="49.38827" lon="0.9983">
        <ele>98.7</ele>
        <time>2018-09-23T08:32:41Z</time>
      </trkpt>
      <trkpt lat="49.3884" lon="0.99832">
        <ele>98.7</ele>
        <time>2018-09-23T08:32:44Z</time>
      </trkpt>
      <trkpt lat="49.38849" lon="0.99834">
        <ele>98.5</ele>
        <time>2018-09-23T08:32:46Z</time>
      </trkpt>
      <trkpt lat="49.38859" lon="0.99836">
        <ele>98.5</ele>
        <time>2018-09-23T08:32:48Z</time>
      </trkpt>
      <trkpt lat="49.3887" lon="0.99834">
        <ele>98.6</ele>
        <time>2018-09-23T08:32:51Z</time>
      </trkpt>
      <trkpt lat="49.3888" lon="0.99837">
        <ele>98.5</ele>
        <time>2018-09-23T08:32:54Z</time>
      </trkpt>
      <trkpt lat="49.38883" lon="0.99856">
        <ele>98.7</ele>
        <time>2018-09-23T08:32:58Z</time>
      </trkpt>
      <trkpt lat="49.38884" lon="0.99876">
        <ele>98.5</ele>
        <time>2018-09-23T08:33:01Z</time>
      </trkpt>
      <trkpt lat="49.38883" lon="0.99894">
        <ele>98</ele>
        <time>2018-09-23T08:33:04Z</time>
      </trkpt>
      <trkpt lat="49.38884" lon="0.9991">
        <ele>97.4</ele>
        <time>2018-09-23T08:33:08Z</time>
      </trkpt>
      <trkpt lat="49.38883" lon="0.99927">
        <ele>96.2</ele>
        <time>2018-09-23T08:33:13Z</time>
      </trkpt>
      <trkpt lat="49.38881" lon="0.99942">
        <ele>95.5</ele>
        <time>2018-09-23T08:33:16Z</time>
      </trkpt>
      <trkpt lat="49.38881" lon="0.99959">
        <ele>94.6</ele>
        <time>2018-09-23T08:33:19Z</time>
      </trkpt>
      <trkpt lat="49.38878" lon="0.99977">
        <ele>93.9</ele>
        <time>2018-09-23T08:33:21Z</time>
      </trkpt>
      <trkpt lat="49.38878" lon="0.99991">
        <ele>93.1</ele>
        <time>2018-09-23T08:33:23Z</time>
      </trkpt>
      <trkpt lat="49.38878" lon="1.00011">
        <ele>92.2</ele>
        <time>2018-09-23T08:33:26Z</time>
      </trkpt>
      <trkpt lat="49.38874" lon="1.00026">
        <ele>91.7</ele>
        <time>2018-09-23T08:33:29Z</time>
      </trkpt>
      <trkpt lat="49.38871" lon="1.0004">
        <ele>91</ele>
        <time>2018-09-23T08:33:33Z</time>
      </trkpt>
      <trkpt lat="49.38868" lon="1.00053">
        <ele>91.3</ele>
        <time>2018-09-23T08:33:41Z</time>
      </trkpt>
      <trkpt lat="49.38867" lon="1.00068">
        <ele>91.4</ele>
        <time>2018-09-23T08:33:48Z</time>
      </trkpt>
      <trkpt lat="49.38865" lon="1.00084">
        <ele>91.3</ele>
        <time>2018-09-23T08:33:55Z</time>
      </trkpt>
      <trkpt lat="49.38864" lon="1.00098">
        <ele>91.7</ele>
        <time>2018-09-23T08:34:03Z</time>
      </trkpt>
      <trkpt lat="49.38862" lon="1.00112">
        <ele>92.5</ele>
        <time>2018-09-23T08:34:13Z</time>
      </trkpt>
      <trkpt lat="49.3886" lon="1.00127">
        <ele>92.7</ele>
        <time>2018-09-23T08:34:32Z</time>
      </trkpt>
      <trkpt lat="49.3886" lon="1.00143">
        <ele>92.5</ele>
        <time>2018-09-23T08:34:41Z</time>
      </trkpt>
      <trkpt lat="49.3886" lon="1.00158">
        <ele>92.7</ele>
        <time>2018-09-23T08:34:48Z</time>
      </trkpt>
      <trkpt lat="49.38858" lon="1.00172">
        <ele>93</ele>
        <time>2018-09-23T08:34:55Z</time>
      </trkpt>
      <trkpt lat="49.38855" lon="1.00187">
        <ele>93.4</ele>
        <time>2018-09-23T08:35:01Z</time>
      </trkpt>
      <trkpt lat="49.38854" lon="1.00202">
        <ele>94.5</ele>
        <time>2018-09-23T08:35:09Z</time>
      </trkpt>
      <trkpt lat="49.3885" lon="1.00214">
        <ele>94.9</ele>
        <time>2018-09-23T08:35:15Z</time>
      </trkpt>
      <trkpt lat="49.3885" lon="1.00229">
        <ele>95.7</ele>
        <time>2018-09-23T08:35:22Z</time>
      </trkpt>
      <trkpt lat="49.38857" lon="1.00239">
        <ele>96</ele>
        <time>2018-09-23T08:35:31Z</time>
      </trkpt>
      <trkpt lat="49.38866" lon="1.00244">
        <ele>96.4</ele>
        <time>2018-09-23T08:35:37Z</time>
      </trkpt>
      <trkpt lat="49.38876" lon="1.0025">
        <ele>96.5</ele>
        <time>2018-09-23T08:35:41Z</time>
      </trkpt>
      <trkpt lat="49.38885" lon="1.00256">
        <ele>96.6</ele>
        <time>2018-09-23T08:35:46Z</time>
      </trkpt>
      <trkpt lat="49.38894" lon="1.00261">
        <ele>96.7</ele>
        <time>2018-09-23T08:35:50Z</time>
      </trkpt>
      <trkpt lat="49.38905" lon="1.00263">
        <ele>96.8</ele>
        <time>2018-09-23T08:35:54Z</time>
      </trkpt>
      <trkpt lat="49.38916" lon="1.00267">
        <ele>97</ele>
        <time>2018-09-23T08:35:59Z</time>
      </trkpt>
      <trkpt lat="49.38924" lon="1.00273">
        <ele>96.9</ele>
        <time>2018-09-23T08:36:01Z</time>
      </trkpt>
      <trkpt lat="49.38933" lon="1.00278">
        <ele>97</ele>
        <time>2018-09-23T08:36:04Z</time>
      </trkpt>
      <trkpt lat="49.38944" lon="1.0028">
        <ele>97.2</ele>
        <time>2018-09-23T08:36:07Z</time>
      </trkpt>
      <trkpt lat="49.38954" lon="1.00275">
        <ele>97.2</ele>
        <time>2018-09-23T08:36:10Z</time>
      </trkpt>
      <trkpt lat="49.38963" lon="1.00264">
        <ele>97.5</ele>
        <time>2018-09-23T08:36:14Z</time>
      </trkpt>
      <trkpt lat="49.38973" lon="1.00261">
        <ele>97.5</ele>
        <time>2018-09-23T08:36:18Z</time>
      </trkpt>
      <trkpt lat="49.38983" lon="1.00255">
        <ele>97.5</ele>
        <time>2018-09-23T08:36:22Z</time>
      </trkpt>
      <trkpt lat="49.38994" lon="1.00253">
        <ele>97.6</ele>
        <time>2018-09-23T08:36:26Z</time>
      </trkpt>
      <trkpt lat="49.39004" lon="1.00248">
        <ele>97.6</ele>
        <time>2018-09-23T08:36:30Z</time>
      </trkpt>
      <trkpt lat="49.39015" lon="1.0025">
        <ele>97.5</ele>
        <time>2018-09-23T08:36:33Z</time>
      </trkpt>
      <trkpt lat="49.39024" lon="1.00255">
        <ele>97.6</ele>
        <time>2018-09-23T08:36:36Z</time>
      </trkpt>
      <trkpt lat="49.39033" lon="1.00261">
        <ele>97.7</ele>
        <time>2018-09-23T08:36:38Z</time>
      </trkpt>
      <trkpt lat="49.39041" lon="1.00267">
        <ele>97.6</ele>
        <time>2018-09-23T08:36:40Z</time>
      </trkpt>
      <trkpt lat="49.39051" lon="1.00274">
        <ele>97.8</ele>
        <time>2018-09-23T08:36:42Z</time>
      </trkpt>
      <trkpt lat="49.39065" lon="1.00282">
        <ele>97.6</ele>
        <time>2018-09-23T08:36:44Z</time>
      </trkpt>
      <trkpt lat="49.39075" lon="1.00292">
        <ele>97.3</ele>
        <time>2018-09-23T08:36:46Z</time>
      </trkpt>
      <trkpt lat="49.39087" lon="1.00299">
        <ele>97.3</ele>
        <time>2018-09-23T08:36:48Z</time>
      </trkpt>
      <trkpt lat="49.391" lon="1.00301">
        <ele>97.3</ele>
        <time>2018-09-23T08:36:51Z</time>
      </trkpt>
      <trkpt lat="49.3911" lon="1.00296">
        <ele>97.3</ele>
        <time>2018-09-23T08:36:53Z</time>
      </trkpt>
      <trkpt lat="49.39118" lon="1.00288">
        <ele>97.5</ele>
        <time>2018-09-23T08:36:56Z</time>
      </trkpt>
      <trkpt lat="49.39126" lon="1.00278">
        <ele>97.5</ele>
        <time>2018-09-23T08:36:59Z</time>
      </trkpt>
      <trkpt lat="49.39137" lon="1.00269">
        <ele>97.6</ele>
        <time>2018-09-23T08:37:02Z</time>
      </trkpt>
      <trkpt lat="49.39147" lon="1.00259">
        <ele>97.9</ele>
        <time>2018-09-23T08:37:06Z</time>
      </trkpt>
      <trkpt lat="49.39159" lon="1.00254">
        <ele>98</ele>
        <time>2018-09-23T08:37:09Z</time>
      </trkpt>
      <trkpt lat="49.39169" lon="1.00252">
        <ele>98.2</ele>
        <time>2018-09-23T08:37:11Z</time>
      </trkpt>
      <trkpt lat="49.39179" lon="1.00253">
        <ele>98.3</ele>
        <time>2018-09-23T08:37:14Z</time>
      </trkpt>
      <trkpt lat="49.39188" lon="1.00256">
        <ele>98.6</ele>
        <time>2018-09-23T08:37:17Z</time>
      </trkpt>
      <trkpt lat="49.39197" lon="1.0026">
        <ele>98.7</ele>
        <time>2018-09-23T08:37:19Z</time>
      </trkpt>
      <trkpt lat="49.39207" lon="1.00265">
        <ele>98.8</ele>
        <time>2018-09-23T08:37:22Z</time>
      </trkpt>
      <trkpt lat="49.3922" lon="1.00272">
        <ele>99.1</ele>
        <time>2018-09-23T08:37:25Z</time>
      </trkpt>
      <trkpt lat="49.39229" lon="1.00278">
        <ele>99.1</ele>
        <time>2018-09-23T08:37:27Z</time>
      </trkpt>
      <trkpt lat="49.39239" lon="1.00286">
        <ele>99</ele>
        <time>2018-09-23T08:37:29Z</time>
      </trkpt>
      <trkpt lat="49.39249" lon="1.00298">
        <ele>99.1</ele>
        <time>2018-09-23T08:37:31Z</time>
      </trkpt>
      <trkpt lat="49.39258" lon="1.00309">
        <ele>99.4</ele>
        <time>2018-09-23T08:37:33Z</time>
      </trkpt>
      <trkpt lat="49.39266" lon="1.0032">
        <ele>99.4</ele>
        <time>2018-09-23T08:37:35Z</time>
      </trkpt>
      <trkpt lat="49.39274" lon="1.0033">
        <ele>99.4</ele>
        <time>2018-09-23T08:37:37Z</time>
      </trkpt>
      <trkpt lat="49.3928" lon="1.00341">
        <ele>99.5</ele>
        <time>2018-09-23T08:37:39Z</time>
      </trkpt>
      <trkpt lat="49.39287" lon="1.0035">
        <ele>99.5</ele>
        <time>2018-09-23T08:37:41Z</time>
      </trkpt>
      <trkpt lat="49.39296" lon="1.00359">
        <ele>99.6</ele>
        <time>2018-09-23T08:37:43Z</time>
      </trkpt>
      <trkpt lat="49.39306" lon="1.0037">
        <ele>99.7</ele>
        <time>2018-09-23T08:37:46Z</time>
      </trkpt>
      <trkpt lat="49.39314" lon="1.00377">
        <ele>99.9</ele>
        <time>2018-09-23T08:37:49Z</time>
      </trkpt>
      <trkpt lat="49.39323" lon="1.00384">
        <ele>99.8</ele>
        <time>2018-09-23T08:37:52Z</time>
      </trkpt>
      <trkpt lat="49.39332" lon="1.00383">
        <ele>99.9</ele>
        <time>2018-09-23T08:37:55Z</time>
      </trkpt>
      <trkpt lat="49.39339" lon="1.00369">
        <ele>99.9</ele>
        <time>2018-09-23T08:37:58Z</time>
      </trkpt>
      <trkpt lat="49.39346" lon="1.00355">
        <ele>99.6</ele>
        <time>2018-09-23T08:38:01Z</time>
      </trkpt>
      <trkpt lat="49.39349" lon="1.00339">
        <ele>99.6</ele>
        <time>2018-09-23T08:38:04Z</time>
      </trkpt>
      <trkpt lat="49.39356" lon="1.00327">
        <ele>99.4</ele>
        <time>2018-09-23T08:38:07Z</time>
      </trkpt>
      <trkpt lat="49.39363" lon="1.00311">
        <ele>99.2</ele>
        <time>2018-09-23T08:38:10Z</time>
      </trkpt>
      <trkpt lat="49.39369" lon="1.00296">
        <ele>99.1</ele>
        <time>2018-09-23T08:38:13Z</time>
      </trkpt>
      <trkpt lat="49.39374" lon="1.0028">
        <ele>99.1</ele>
        <time>2018-09-23T08:38:16Z</time>
      </trkpt>
      <trkpt lat="49.39376" lon="1.00267">
        <ele>99.2</ele>
        <time>2018-09-23T08:38:18Z</time>
      </trkpt>
      <trkpt lat="49.39379" lon="1.00249">
        <ele>99.2</ele>
        <time>2018-09-23T08:38:21Z</time>
      </trkpt>
      <trkpt lat="49.39384" lon="1.00234">
        <ele>99.5</ele>
        <time>2018-09-23T08:38:25Z</time>
      </trkpt>
      <trkpt lat="49.39388" lon="1.00222">
        <ele>99.7</ele>
        <time>2018-09-23T08:38:28Z</time>
      </trkpt>
      <trkpt lat="49.3939" lon="1.00204">
        <ele>100</ele>
        <time>2018-09-23T08:38:32Z</time>
      </trkpt>
      <trkpt lat="49.39392" lon="1.00188">
        <ele>100.3</ele>
        <time>2018-09-23T08:38:36Z</time>
      </trkpt>
      <trkpt lat="49.39396" lon="1.00174">
        <ele>100.7</ele>
        <time>2018-09-23T08:38:42Z</time>
      </trkpt>
      <trkpt lat="49.39404" lon="1.00163">
        <ele>101.2</ele>
        <time>2018-09-23T08:38:49Z</time>
      </trkpt>
      <trkpt lat="49.39413" lon="1.00153">
        <ele>101.8</ele>
        <time>2018-09-23T08:38:53Z</time>
      </trkpt>
      <trkpt lat="49.39421" lon="1.00144">
        <ele>101.9</ele>
        <time>2018-09-23T08:38:56Z</time>
      </trkpt>
      <trkpt lat="49.39429" lon="1.00137">
        <ele>102</ele>
        <time>2018-09-23T08:38:59Z</time>
      </trkpt>
      <trkpt lat="49.39438" lon="1.00129">
        <ele>102</ele>
        <time>2018-09-23T08:39:03Z</time>
      </trkpt>
      <trkpt lat="49.39452" lon="1.00128">
        <ele>102.2</ele>
        <time>2018-09-23T08:39:07Z</time>
      </trkpt>
      <trkpt lat="49.39462" lon="1.00129">
        <ele>102.1</ele>
        <time>2018-09-23T08:39:09Z</time>
      </trkpt>
      <trkpt lat="49.3947" lon="1.00136">
        <ele>102.1</ele>
        <time>2018-09-23T08:39:11Z</time>
      </trkpt>
      <trkpt lat="49.3948" lon="1.0014">
        <ele>102.1</ele>
        <time>2018-09-23T08:39:13Z</time>
      </trkpt>
      <trkpt lat="49.39489" lon="1.00142">
        <ele>101.9</ele>
        <time>2018-09-23T08:39:16Z</time>
      </trkpt>
      <trkpt lat="49.39498" lon="1.00145">
        <ele>101.8</ele>
        <time>2018-09-23T08:39:19Z</time>
      </trkpt>
      <trkpt lat="49.3951" lon="1.0015">
        <ele>101.9</ele>
        <time>2018-09-23T08:39:22Z</time>
      </trkpt>
      <trkpt lat="49.39522" lon="1.0016">
        <ele>101.9</ele>
        <time>2018-09-23T08:39:25Z</time>
      </trkpt>
      <trkpt lat="49.39532" lon="1.0017">
        <ele>101.8</ele>
        <time>2018-09-23T08:39:28Z</time>
      </trkpt>
      <trkpt lat="49.39539" lon="1.0018">
        <ele>102</ele>
        <time>2018-09-23T08:39:30Z</time>
      </trkpt>
      <trkpt lat="49.39548" lon="1.00195">
        <ele>102</ele>
        <time>2018-09-23T08:39:33Z</time>
      </trkpt>
      <trkpt lat="49.39557" lon="1.00207">
        <ele>102</ele>
        <time>2018-09-23T08:39:35Z</time>
      </trkpt>
      <trkpt lat="49.39567" lon="1.00223">
        <ele>102</ele>
        <time>2018-09-23T08:39:37Z</time>
      </trkpt>
      <trkpt lat="49.39574" lon="1.0024">
        <ele>102</ele>
        <time>2018-09-23T08:39:39Z</time>
      </trkpt>
      <trkpt lat="49.39581" lon="1.00253">
        <ele>102.2</ele>
        <time>2018-09-23T08:39:41Z</time>
      </trkpt>
      <trkpt lat="49.39588" lon="1.00265">
        <ele>102.3</ele>
        <time>2018-09-23T08:39:43Z</time>
      </trkpt>
      <trkpt lat="49.39596" lon="1.00277">
        <ele>102.2</ele>
        <time>2018-09-23T08:39:46Z</time>
      </trkpt>
      <trkpt lat="49.39604" lon="1.00284">
        <ele>102.4</ele>
        <time>2018-09-23T08:39:49Z</time>
      </trkpt>
      <trkpt lat="49.39613" lon="1.00289">
        <ele>102.5</ele>
        <time>2018-09-23T08:39:52Z</time>
      </trkpt>
      <trkpt lat="49.39624" lon="1.00293">
        <ele>102</ele>
        <time>2018-09-23T08:39:56Z</time>
      </trkpt>
      <trkpt lat="49.39634" lon="1.00295">
        <ele>102.1</ele>
        <time>2018-09-23T08:40:00Z</time>
      </trkpt>
      <trkpt lat="49.39644" lon="1.00298">
        <ele>101.8</ele>
        <time>2018-09-23T08:40:04Z</time>
      </trkpt>
      <trkpt lat="49.39655" lon="1.00303">
        <ele>101.6</ele>
        <time>2018-09-23T08:40:08Z</time>
      </trkpt>
      <trkpt lat="49.39664" lon="1.00306">
        <ele>101.3</ele>
        <time>2018-09-23T08:40:12Z</time>
      </trkpt>
      <trkpt lat="49.39675" lon="1.00298">
        <ele>101</ele>
        <time>2018-09-23T08:40:18Z</time>
      </trkpt>
      <trkpt lat="49.39684" lon="1.00291">
        <ele>100.8</ele>
        <time>2018-09-23T08:40:23Z</time>
      </trkpt>
      <trkpt lat="49.39689" lon="1.0028">
        <ele>100.4</ele>
        <time>2018-09-23T08:40:28Z</time>
      </trkpt>
      <trkpt lat="49.39695" lon="1.00266">
        <ele>100</ele>
        <time>2018-09-23T08:40:33Z</time>
      </trkpt>
      <trkpt lat="49.39699" lon="1.00251">
        <ele>99.9</ele>
        <time>2018-09-23T08:40:37Z</time>
      </trkpt>
      <trkpt lat="49.39704" lon="1.00235">
        <ele>99.8</ele>
        <time>2018-09-23T08:40:42Z</time>
      </trkpt>
      <trkpt lat="49.39707" lon="1.00221">
        <ele>99.7</ele>
        <time>2018-09-23T08:40:45Z</time>
      </trkpt>
      <trkpt lat="49.39709" lon="1.00206">
        <ele>99.8</ele>
        <time>2018-09-23T08:40:48Z</time>
      </trkpt>
      <trkpt lat="49.39712" lon="1.00191">
        <ele>99.8</ele>
        <time>2018-09-23T08:40:51Z</time>
      </trkpt>
      <trkpt lat="49.39715" lon="1.00177">
        <ele>99.6</ele>
        <time>2018-09-23T08:40:54Z</time>
      </trkpt>
      <trkpt lat="49.39718" lon="1.00162">
        <ele>99.6</ele>
        <time>2018-09-23T08:40:57Z</time>
      </trkpt>
      <trkpt lat="49.39721" lon="1.00143">
        <ele>99.5</ele>
        <time>2018-09-23T08:41:00Z</time>
      </trkpt>
      <trkpt lat="49.39723" lon="1.00126">
        <ele>99.5</ele>
        <time>2018-09-23T08:41:03Z</time>
      </trkpt>
      <trkpt lat="49.39723" lon="1.00112">
        <ele>99.5</ele>
        <time>2018-09-23T08:41:05Z</time>
      </trkpt>
      <trkpt lat="49.39725" lon="1.00098">
        <ele>99.5</ele>
        <time>2018-09-23T08:41:08Z</time>
      </trkpt>
      <trkpt lat="49.39727" lon="1.00085">
        <ele>99.7</ele>
        <time>2018-09-23T08:41:12Z</time>
      </trkpt>
      <trkpt lat="49.39728" lon="1.00068">
        <ele>99.9</ele>
        <time>2018-09-23T08:41:14Z</time>
      </trkpt>
      <trkpt lat="49.3973" lon="1.00046">
        <ele>100</ele>
        <time>2018-09-23T08:41:17Z</time>
      </trkpt>
      <trkpt lat="49.39734" lon="1.00026">
        <ele>99.7</ele>
        <time>2018-09-23T08:41:20Z</time>
      </trkpt>
      <trkpt lat="49.39735" lon="1.00009">
        <ele>99.8</ele>
        <time>2018-09-23T08:41:23Z</time>
      </trkpt>
      <trkpt lat="49.39739" lon="0.99991">
        <ele>99.9</ele>
        <time>2018-09-23T08:41:27Z</time>
      </trkpt>
      <trkpt lat="49.39741" lon="0.9997">
        <ele>99.8</ele>
        <time>2018-09-23T08:41:31Z</time>
      </trkpt>
      <trkpt lat="49.39742" lon="0.99956">
        <ele>100</ele>
        <time>2018-09-23T08:41:33Z</time>
      </trkpt>
      <trkpt lat="49.39744" lon="0.99942">
        <ele>100</ele>
        <time>2018-09-23T08:41:35Z</time>
      </trkpt>
      <trkpt lat="49.39746" lon="0.99925">
        <ele>100</ele>
        <time>2018-09-23T08:41:38Z</time>
      </trkpt>
      <trkpt lat="49.39748" lon="0.9991">
        <ele>100.2</ele>
        <time>2018-09-23T08:41:41Z</time>
      </trkpt>
      <trkpt lat="49.39749" lon="0.99896">
        <ele>100.6</ele>
        <time>2018-09-23T08:41:44Z</time>
      </trkpt>
      <trkpt lat="49.3975" lon="0.99881">
        <ele>100.7</ele>
        <time>2018-09-23T08:41:47Z</time>
      </trkpt>
      <trkpt lat="49.39753" lon="0.99865">
        <ele>100.9</ele>
        <time>2018-09-23T08:41:50Z</time>
      </trkpt>
      <trkpt lat="49.39755" lon="0.9985">
        <ele>100.9</ele>
        <time>2018-09-23T08:41:53Z</time>
      </trkpt>
      <trkpt lat="49.39758" lon="0.99832">
        <ele>101.1</ele>
        <time>2018-09-23T08:41:56Z</time>
      </trkpt>
      <trkpt lat="49.39761" lon="0.99812">
        <ele>101</ele>
        <time>2018-09-23T08:41:59Z</time>
      </trkpt>
      <trkpt lat="49.39763" lon="0.99794">
        <ele>101.3</ele>
        <time>2018-09-23T08:42:02Z</time>
      </trkpt>
      <trkpt lat="49.39765" lon="0.99777">
        <ele>101.7</ele>
        <time>2018-09-23T08:42:05Z</time>
      </trkpt>
      <trkpt lat="49.39767" lon="0.9976">
        <ele>101.7</ele>
        <time>2018-09-23T08:42:08Z</time>
      </trkpt>
      <trkpt lat="49.39771" lon="0.99747">
        <ele>101.6</ele>
        <time>2018-09-23T08:42:11Z</time>
      </trkpt>
      <trkpt lat="49.39773" lon="0.99728">
        <ele>101.6</ele>
        <time>2018-09-23T08:42:14Z</time>
      </trkpt>
      <trkpt lat="49.39775" lon="0.99713">
        <ele>101.8</ele>
        <time>2018-09-23T08:42:18Z</time>
      </trkpt>
      <trkpt lat="49.39777" lon="0.99699">
        <ele>102.1</ele>
        <time>2018-09-23T08:42:21Z</time>
      </trkpt>
      <trkpt lat="49.39785" lon="0.99684">
        <ele>102.5</ele>
        <time>2018-09-23T08:42:25Z</time>
      </trkpt>
      <trkpt lat="49.39793" lon="0.99674">
        <ele>102.8</ele>
        <time>2018-09-23T08:42:28Z</time>
      </trkpt>
      <trkpt lat="49.39805" lon="0.99668">
        <ele>103</ele>
        <time>2018-09-23T08:42:31Z</time>
      </trkpt>
      <trkpt lat="49.39816" lon="0.99666">
        <ele>103</ele>
        <time>2018-09-23T08:42:34Z</time>
      </trkpt>
      <trkpt lat="49.39829" lon="0.99659">
        <ele>102.7</ele>
        <time>2018-09-23T08:42:37Z</time>
      </trkpt>
      <trkpt lat="49.39839" lon="0.99653">
        <ele>102.5</ele>
        <time>2018-09-23T08:42:40Z</time>
      </trkpt>
      <trkpt lat="49.3985" lon="0.99646">
        <ele>102.8</ele>
        <time>2018-09-23T08:42:43Z</time>
      </trkpt>
      <trkpt lat="49.39861" lon="0.99641">
        <ele>103.1</ele>
        <time>2018-09-23T08:42:46Z</time>
      </trkpt>
      <trkpt lat="49.39872" lon="0.99635">
        <ele>103.3</ele>
        <time>2018-09-23T08:42:49Z</time>
      </trkpt>
      <trkpt lat="49.39882" lon="0.99626">
        <ele>103.1</ele>
        <time>2018-09-23T08:42:52Z</time>
      </trkpt>
      <trkpt lat="49.39891" lon="0.99622">
        <ele>103.2</ele>
        <time>2018-09-23T08:42:54Z</time>
      </trkpt>
      <trkpt lat="49.39903" lon="0.99618">
        <ele>103.3</ele>
        <time>2018-09-23T08:42:56Z</time>
      </trkpt>
      <trkpt lat="49.39914" lon="0.99613">
        <ele>103.6</ele>
        <time>2018-09-23T08:42:59Z</time>
      </trkpt>
      <trkpt lat="49.39923" lon="0.99606">
        <ele>103.9</ele>
        <time>2018-09-23T08:43:01Z</time>
      </trkpt>
      <trkpt lat="49.39934" lon="0.996">
        <ele>104</ele>
        <time>2018-09-23T08:43:04Z</time>
      </trkpt>
      <trkpt lat="49.39946" lon="0.99594">
        <ele>104.1</ele>
        <time>2018-09-23T08:43:07Z</time>
      </trkpt>
      <trkpt lat="49.39957" lon="0.99591">
        <ele>104.1</ele>
        <time>2018-09-23T08:43:10Z</time>
      </trkpt>
      <trkpt lat="49.39967" lon="0.99582">
        <ele>104</ele>
        <time>2018-09-23T08:43:13Z</time>
      </trkpt>
      <trkpt lat="49.39977" lon="0.99573">
        <ele>104.2</ele>
        <time>2018-09-23T08:43:16Z</time>
      </trkpt>
      <trkpt lat="49.39987" lon="0.99567">
        <ele>104.4</ele>
        <time>2018-09-23T08:43:19Z</time>
      </trkpt>
      <trkpt lat="49.39996" lon="0.9956">
        <ele>104.6</ele>
        <time>2018-09-23T08:43:22Z</time>
      </trkpt>
      <trkpt lat="49.40005" lon="0.99555">
        <ele>104.9</ele>
        <time>2018-09-23T08:43:24Z</time>
      </trkpt>
      <trkpt lat="49.40016" lon="0.99551">
        <ele>105</ele>
        <time>2018-09-23T08:43:26Z</time>
      </trkpt>
      <trkpt lat="49.40028" lon="0.99546">
        <ele>105</ele>
        <time>2018-09-23T08:43:28Z</time>
      </trkpt>
      <trkpt lat="49.40039" lon="0.99542">
        <ele>105</ele>
        <time>2018-09-23T08:43:30Z</time>
      </trkpt>
      <trkpt lat="49.40047" lon="0.99538">
        <ele>105.2</ele>
        <time>2018-09-23T08:43:32Z</time>
      </trkpt>
      <trkpt lat="49.40062" lon="0.99538">
        <ele>105.1</ele>
        <time>2018-09-23T08:43:34Z</time>
      </trkpt>
      <trkpt lat="49.40072" lon="0.99532">
        <ele>104.8</ele>
        <time>2018-09-23T08:43:36Z</time>
      </trkpt>
      <trkpt lat="49.40082" lon="0.99527">
        <ele>104.9</ele>
        <time>2018-09-23T08:43:38Z</time>
      </trkpt>
      <trkpt lat="49.40096" lon="0.99517">
        <ele>104.7</ele>
        <time>2018-09-23T08:43:41Z</time>
      </trkpt>
      <trkpt lat="49.40106" lon="0.99507">
        <ele>104.6</ele>
        <time>2018-09-23T08:43:43Z</time>
      </trkpt>
      <trkpt lat="49.40113" lon="0.99499">
        <ele>104.3</ele>
        <time>2018-09-23T08:43:45Z</time>
      </trkpt>
      <trkpt lat="49.40122" lon="0.99494">
        <ele>104.2</ele>
        <time>2018-09-23T08:43:48Z</time>
      </trkpt>
      <trkpt lat="49.40132" lon="0.99492">
        <ele>104.5</ele>
        <time>2018-09-23T08:43:51Z</time>
      </trkpt>
      <trkpt lat="49.40143" lon="0.99492">
        <ele>104.9</ele>
        <time>2018-09-23T08:43:53Z</time>
      </trkpt>
      <trkpt lat="49.40153" lon="0.99491">
        <ele>105.4</ele>
        <time>2018-09-23T08:43:56Z</time>
      </trkpt>
      <trkpt lat="49.40162" lon="0.99488">
        <ele>105.6</ele>
        <time>2018-09-23T08:43:59Z</time>
      </trkpt>
      <trkpt lat="49.40173" lon="0.99488">
        <ele>106.1</ele>
        <time>2018-09-23T08:44:03Z</time>
      </trkpt>
      <trkpt lat="49.40182" lon="0.99501">
        <ele>106.5</ele>
        <time>2018-09-23T08:44:07Z</time>
      </trkpt>
      <trkpt lat="49.40184" lon="0.99519">
        <ele>106.8</ele>
        <time>2018-09-23T08:44:11Z</time>
      </trkpt>
      <trkpt lat="49.40186" lon="0.99535">
        <ele>106.7</ele>
        <time>2018-09-23T08:44:14Z</time>
      </trkpt>
      <trkpt lat="49.4019" lon="0.99549">
        <ele>106.4</ele>
        <time>2018-09-23T08:44:17Z</time>
      </trkpt>
      <trkpt lat="49.40199" lon="0.99561">
        <ele>106.4</ele>
        <time>2018-09-23T08:44:21Z</time>
      </trkpt>
      <trkpt lat="49.40209" lon="0.9957">
        <ele>106.4</ele>
        <time>2018-09-23T08:44:24Z</time>
      </trkpt>
      <trkpt lat="49.40218" lon="0.99579">
        <ele>106.6</ele>
        <time>2018-09-23T08:44:27Z</time>
      </trkpt>
      <trkpt lat="49.40228" lon="0.99587">
        <ele>106.7</ele>
        <time>2018-09-23T08:44:30Z</time>
      </trkpt>
      <trkpt lat="49.40237" lon="0.99595">
        <ele>106.6</ele>
        <time>2018-09-23T08:44:33Z</time>
      </trkpt>
      <trkpt lat="49.4025" lon="0.99606">
        <ele>106.8</ele>
        <time>2018-09-23T08:44:36Z</time>
      </trkpt>
      <trkpt lat="49.40261" lon="0.99615">
        <ele>106.9</ele>
        <time>2018-09-23T08:44:39Z</time>
      </trkpt>
      <trkpt lat="49.40273" lon="0.99625">
        <ele>107.1</ele>
        <time>2018-09-23T08:44:42Z</time>
      </trkpt>
      <trkpt lat="49.40284" lon="0.99635">
        <ele>107</ele>
        <time>2018-09-23T08:44:45Z</time>
      </trkpt>
      <trkpt lat="49.40295" lon="0.99644">
        <ele>107.1</ele>
        <time>2018-09-23T08:44:48Z</time>
      </trkpt>
      <trkpt lat="49.40303" lon="0.99651">
        <ele>107.1</ele>
        <time>2018-09-23T08:44:50Z</time>
      </trkpt>
      <trkpt lat="49.40312" lon="0.99659">
        <ele>107.2</ele>
        <time>2018-09-23T08:44:52Z</time>
      </trkpt>
      <trkpt lat="49.40321" lon="0.99667">
        <ele>107.1</ele>
        <time>2018-09-23T08:44:54Z</time>
      </trkpt>
      <trkpt lat="49.40329" lon="0.99673">
        <ele>107</ele>
        <time>2018-09-23T08:44:56Z</time>
      </trkpt>
      <trkpt lat="49.40341" lon="0.99684">
        <ele>106.9</ele>
        <time>2018-09-23T08:44:59Z</time>
      </trkpt>
      <trkpt lat="49.40348" lon="0.99691">
        <ele>107</ele>
        <time>2018-09-23T08:45:01Z</time>
      </trkpt>
      <trkpt lat="49.40357" lon="0.99698">
        <ele>107.3</ele>
        <time>2018-09-23T08:45:03Z</time>
      </trkpt>
      <trkpt lat="49.40364" lon="0.99705">
        <ele>107.4</ele>
        <time>2018-09-23T08:45:05Z</time>
      </trkpt>
      <trkpt lat="49.40376" lon="0.99716">
        <ele>107.4</ele>
        <time>2018-09-23T08:45:08Z</time>
      </trkpt>
      <trkpt lat="49.40387" lon="0.99727">
        <ele>107.5</ele>
        <time>2018-09-23T08:45:11Z</time>
      </trkpt>
      <trkpt lat="49.40397" lon="0.99735">
        <ele>107.5</ele>
        <time>2018-09-23T08:45:13Z</time>
      </trkpt>
      <trkpt lat="49.40405" lon="0.99743">
        <ele>107.4</ele>
        <time>2018-09-23T08:45:15Z</time>
      </trkpt>
      <trkpt lat="49.40414" lon="0.99751">
        <ele>107.4</ele>
        <time>2018-09-23T08:45:17Z</time>
      </trkpt>
      <trkpt lat="49.40422" lon="0.99759">
        <ele>107.4</ele>
        <time>2018-09-23T08:45:19Z</time>
      </trkpt>
      <trkpt lat="49.4043" lon="0.99766">
        <ele>107.5</ele>
        <time>2018-09-23T08:45:21Z</time>
      </trkpt>
      <trkpt lat="49.40439" lon="0.99774">
        <ele>107.4</ele>
        <time>2018-09-23T08:45:23Z</time>
      </trkpt>
      <trkpt lat="49.40448" lon="0.99782">
        <ele>107.3</ele>
        <time>2018-09-23T08:45:25Z</time>
      </trkpt>
      <trkpt lat="49.40458" lon="0.9979">
        <ele>107.2</ele>
        <time>2018-09-23T08:45:27Z</time>
      </trkpt>
      <trkpt lat="49.40467" lon="0.99798">
        <ele>107.4</ele>
        <time>2018-09-23T08:45:29Z</time>
      </trkpt>
      <trkpt lat="49.40477" lon="0.99806">
        <ele>107.3</ele>
        <time>2018-09-23T08:45:31Z</time>
      </trkpt>
      <trkpt lat="49.40488" lon="0.99816">
        <ele>107.2</ele>
        <time>2018-09-23T08:45:34Z</time>
      </trkpt>
      <trkpt lat="49.40496" lon="0.99825">
        <ele>107.1</ele>
        <time>2018-09-23T08:45:37Z</time>
      </trkpt>
      <trkpt lat="49.40507" lon="0.99836">
        <ele>107.1</ele>
        <time>2018-09-23T08:45:40Z</time>
      </trkpt>
      <trkpt lat="49.40515" lon="0.99844">
        <ele>107.4</ele>
        <time>2018-09-23T08:45:43Z</time>
      </trkpt>
      <trkpt lat="49.40525" lon="0.99853">
        <ele>107.4</ele>
        <time>2018-09-23T08:45:45Z</time>
      </trkpt>
      <trkpt lat="49.40538" lon="0.99864">
        <ele>107.5</ele>
        <time>2018-09-23T08:45:48Z</time>
      </trkpt>
      <trkpt lat="49.40547" lon="0.99872">
        <ele>107.5</ele>
        <time>2018-09-23T08:45:50Z</time>
      </trkpt>
      <trkpt lat="49.40558" lon="0.99881">
        <ele>107.4</ele>
        <time>2018-09-23T08:45:52Z</time>
      </trkpt>
      <trkpt lat="49.40566" lon="0.99888">
        <ele>107.6</ele>
        <time>2018-09-23T08:45:54Z</time>
      </trkpt>
      <trkpt lat="49.40574" lon="0.99895">
        <ele>107.6</ele>
        <time>2018-09-23T08:45:56Z</time>
      </trkpt>
      <trkpt lat="49.40583" lon="0.99904">
        <ele>107.7</ele>
        <time>2018-09-23T08:45:59Z</time>
      </trkpt>
      <trkpt lat="49.40591" lon="0.99912">
        <ele>107.7</ele>
        <time>2018-09-23T08:46:01Z</time>
      </trkpt>
      <trkpt lat="49.40601" lon="0.9992">
        <ele>107.8</ele>
        <time>2018-09-23T08:46:03Z</time>
      </trkpt>
      <trkpt lat="49.40611" lon="0.99928">
        <ele>107.8</ele>
        <time>2018-09-23T08:46:05Z</time>
      </trkpt>
      <trkpt lat="49.40619" lon="0.99935">
        <ele>107.9</ele>
        <time>2018-09-23T08:46:07Z</time>
      </trkpt>
      <trkpt lat="49.40629" lon="0.99943">
        <ele>107.9</ele>
        <time>2018-09-23T08:46:09Z</time>
      </trkpt>
      <trkpt lat="49.4064" lon="0.99954">
        <ele>108.4</ele>
        <time>2018-09-23T08:46:12Z</time>
      </trkpt>
      <trkpt lat="49.40654" lon="0.99966">
        <ele>108.5</ele>
        <time>2018-09-23T08:46:15Z</time>
      </trkpt>
      <trkpt lat="49.40665" lon="0.99974">
        <ele>108.7</ele>
        <time>2018-09-23T08:46:17Z</time>
      </trkpt>
      <trkpt lat="49.40674" lon="0.99983">
        <ele>108.7</ele>
        <time>2018-09-23T08:46:19Z</time>
      </trkpt>
      <trkpt lat="49.40685" lon="0.99993">
        <ele>108.7</ele>
        <time>2018-09-23T08:46:22Z</time>
      </trkpt>
      <trkpt lat="49.40695" lon="1.00002">
        <ele>108.7</ele>
        <time>2018-09-23T08:46:24Z</time>
      </trkpt>
      <trkpt lat="49.40705" lon="1.00012">
        <ele>108.8</ele>
        <time>2018-09-23T08:46:26Z</time>
      </trkpt>
      <trkpt lat="49.40714" lon="1.0002">
        <ele>108.8</ele>
        <time>2018-09-23T08:46:28Z</time>
      </trkpt>
      <trkpt lat="49.40725" lon="1.00029">
        <ele>108.8</ele>
        <time>2018-09-23T08:46:30Z</time>
      </trkpt>
      <trkpt lat="49.40734" lon="1.00036">
        <ele>108.9</ele>
        <time>2018-09-23T08:46:32Z</time>
      </trkpt>
      <trkpt lat="49.40742" lon="1.00044">
        <ele>108.9</ele>
        <time>2018-09-23T08:46:34Z</time>
      </trkpt>
      <trkpt lat="49.40752" lon="1.00054">
        <ele>108.8</ele>
        <time>2018-09-23T08:46:36Z</time>
      </trkpt>
      <trkpt lat="49.40766" lon="1.00063">
        <ele>108.9</ele>
        <time>2018-09-23T08:46:38Z</time>
      </trkpt>
      <trkpt lat="49.40777" lon="1.00073">
        <ele>108.8</ele>
        <time>2018-09-23T08:46:40Z</time>
      </trkpt>
      <trkpt lat="49.40786" lon="1.00083">
        <ele>108.9</ele>
        <time>2018-09-23T08:46:42Z</time>
      </trkpt>
      <trkpt lat="49.40795" lon="1.00091">
        <ele>109</ele>
        <time>2018-09-23T08:46:44Z</time>
      </trkpt>
      <trkpt lat="49.40807" lon="1.00096">
        <ele>108.9</ele>
        <time>2018-09-23T08:46:46Z</time>
      </trkpt>
      <trkpt lat="49.4082" lon="1.00105">
        <ele>108.6</ele>
        <time>2018-09-23T08:46:48Z</time>
      </trkpt>
      <trkpt lat="49.40831" lon="1.00115">
        <ele>108.5</ele>
        <time>2018-09-23T08:46:50Z</time>
      </trkpt>
      <trkpt lat="49.40841" lon="1.00126">
        <ele>108.5</ele>
        <time>2018-09-23T08:46:52Z</time>
      </trkpt>
      <trkpt lat="49.4085" lon="1.00136">
        <ele>108.4</ele>
        <time>2018-09-23T08:46:54Z</time>
      </trkpt>
      <trkpt lat="49.40862" lon="1.00146">
        <ele>108.5</ele>
        <time>2018-09-23T08:46:57Z</time>
      </trkpt>
      <trkpt lat="49.40874" lon="1.00157">
        <ele>108.7</ele>
        <time>2018-09-23T08:47:00Z</time>
      </trkpt>
      <trkpt lat="49.40882" lon="1.00166">
        <ele>108.8</ele>
        <time>2018-09-23T08:47:03Z</time>
      </trkpt>
      <trkpt lat="49.4089" lon="1.00174">
        <ele>109</ele>
        <time>2018-09-23T08:47:06Z</time>
      </trkpt>
      <trkpt lat="49.40899" lon="1.00182">
        <ele>109.5</ele>
        <time>2018-09-23T08:47:09Z</time>
      </trkpt>
      <trkpt lat="49.40909" lon="1.00192">
        <ele>109.9</ele>
        <time>2018-09-23T08:47:13Z</time>
      </trkpt>
      <trkpt lat="49.40919" lon="1.002">
        <ele>110.2</ele>
        <time>2018-09-23T08:47:16Z</time>
      </trkpt>
      <trkpt lat="49.40927" lon="1.00209">
        <ele>110.4</ele>
        <time>2018-09-23T08:47:19Z</time>
      </trkpt>
      <trkpt lat="49.40937" lon="1.00219">
        <ele>110.8</ele>
        <time>2018-09-23T08:47:23Z</time>
      </trkpt>
      <trkpt lat="49.40947" lon="1.00227">
        <ele>111</ele>
        <time>2018-09-23T08:47:27Z</time>
      </trkpt>
      <trkpt lat="49.40957" lon="1.00235">
        <ele>111.1</ele>
        <time>2018-09-23T08:47:30Z</time>
      </trkpt>
      <trkpt lat="49.40967" lon="1.00234">
        <ele>111.9</ele>
        <time>2018-09-23T08:47:34Z</time>
      </trkpt>
      <trkpt lat="49.40971" lon="1.0022">
        <ele>111.6</ele>
        <time>2018-09-23T08:47:40Z</time>
      </trkpt>
      <trkpt lat="49.40971" lon="1.00204">
        <ele>111.4</ele>
        <time>2018-09-23T08:47:45Z</time>
      </trkpt>
      <trkpt lat="49.40968" lon="1.00188">
        <ele>111.3</ele>
        <time>2018-09-23T08:47:48Z</time>
      </trkpt>
      <trkpt lat="49.40966" lon="1.00173">
        <ele>111.4</ele>
        <time>2018-09-23T08:47:51Z</time>
      </trkpt>
      <trkpt lat="49.40963" lon="1.00155">
        <ele>111.6</ele>
        <time>2018-09-23T08:47:55Z</time>
      </trkpt>
      <trkpt lat="49.40964" lon="1.00136">
        <ele>111.4</ele>
        <time>2018-09-23T08:47:58Z</time>
      </trkpt>
      <trkpt lat="49.40963" lon="1.00122">
        <ele>111.6</ele>
        <time>2018-09-23T08:48:00Z</time>
      </trkpt>
      <trkpt lat="49.40963" lon="1.00102">
        <ele>111.8</ele>
        <time>2018-09-23T08:48:03Z</time>
      </trkpt>
      <trkpt lat="49.40961" lon="1.00082">
        <ele>111.8</ele>
        <time>2018-09-23T08:48:06Z</time>
      </trkpt>
      <trkpt lat="49.40961" lon="1.00065">
        <ele>112.1</ele>
        <time>2018-09-23T08:48:09Z</time>
      </trkpt>
      <trkpt lat="49.40957" lon="1.0005">
        <ele>112.4</ele>
        <time>2018-09-23T08:48:12Z</time>
      </trkpt>
      <trkpt lat="49.40952" lon="1.00033">
        <ele>112.5</ele>
        <time>2018-09-23T08:48:15Z</time>
      </trkpt>
      <trkpt lat="49.40946" lon="1.00018">
        <ele>112.7</ele>
        <time>2018-09-23T08:48:18Z</time>
      </trkpt>
      <trkpt lat="49.40937" lon="1.00003">
        <ele>112.9</ele>
        <time>2018-09-23T08:48:21Z</time>
      </trkpt>
      <trkpt lat="49.4093" lon="0.99987">
        <ele>113</ele>
        <time>2018-09-23T08:48:25Z</time>
      </trkpt>
      <trkpt lat="49.40923" lon="0.99977">
        <ele>113</ele>
        <time>2018-09-23T08:48:28Z</time>
      </trkpt>
      <trkpt lat="49.40918" lon="0.99964">
        <ele>113</ele>
        <time>2018-09-23T08:48:30Z</time>
      </trkpt>
      <trkpt lat="49.40917" lon="0.99948">
        <ele>113.1</ele>
        <time>2018-09-23T08:48:33Z</time>
      </trkpt>
      <trkpt lat="49.4092" lon="0.9993">
        <ele>113.6</ele>
        <time>2018-09-23T08:48:36Z</time>
      </trkpt>
      <trkpt lat="49.40926" lon="0.99913">
        <ele>113.5</ele>
        <time>2018-09-23T08:48:39Z</time>
      </trkpt>
      <trkpt lat="49.40933" lon="0.99896">
        <ele>114</ele>
        <time>2018-09-23T08:48:42Z</time>
      </trkpt>
      <trkpt lat="49.40938" lon="0.99878">
        <ele>114</ele>
        <time>2018-09-23T08:48:45Z</time>
      </trkpt>
      <trkpt lat="49.40945" lon="0.99864">
        <ele>114.2</ele>
        <time>2018-09-23T08:48:48Z</time>
      </trkpt>
      <trkpt lat="49.40953" lon="0.99847">
        <ele>114.3</ele>
        <time>2018-09-23T08:48:51Z</time>
      </trkpt>
      <trkpt lat="49.40955" lon="0.99832">
        <ele>114.4</ele>
        <time>2018-09-23T08:48:53Z</time>
      </trkpt>
      <trkpt lat="49.40959" lon="0.99813">
        <ele>114.4</ele>
        <time>2018-09-23T08:48:56Z</time>
      </trkpt>
      <trkpt lat="49.40961" lon="0.99796">
        <ele>114.1</ele>
        <time>2018-09-23T08:48:59Z</time>
      </trkpt>
      <trkpt lat="49.4096" lon="0.99778">
        <ele>114.2</ele>
        <time>2018-09-23T08:49:02Z</time>
      </trkpt>
      <trkpt lat="49.4096" lon="0.99763">
        <ele>114.4</ele>
        <time>2018-09-23T08:49:04Z</time>
      </trkpt>
      <trkpt lat="49.40958" lon="0.99749">
        <ele>114.6</ele>
        <time>2018-09-23T08:49:06Z</time>
      </trkpt>
      <trkpt lat="49.40956" lon="0.99729">
        <ele>114.6</ele>
        <time>2018-09-23T08:49:09Z</time>
      </trkpt>
      <trkpt lat="49.40956" lon="0.99708">
        <ele>114.8</ele>
        <time>2018-09-23T08:49:12Z</time>
      </trkpt>
      <trkpt lat="49.40959" lon="0.99688">
        <ele>114.9</ele>
        <time>2018-09-23T08:49:15Z</time>
      </trkpt>
      <trkpt lat="49.40962" lon="0.99673">
        <ele>115</ele>
        <time>2018-09-23T08:49:17Z</time>
      </trkpt>
      <trkpt lat="49.40968" lon="0.99655">
        <ele>114.9</ele>
        <time>2018-09-23T08:49:20Z</time>
      </trkpt>
      <trkpt lat="49.40972" lon="0.99638">
        <ele>115</ele>
        <time>2018-09-23T08:49:23Z</time>
      </trkpt>
      <trkpt lat="49.40977" lon="0.99623">
        <ele>115.1</ele>
        <time>2018-09-23T08:49:26Z</time>
      </trkpt>
      <trkpt lat="49.40981" lon="0.99609">
        <ele>115.2</ele>
        <time>2018-09-23T08:49:28Z</time>
      </trkpt>
      <trkpt lat="49.40985" lon="0.99593">
        <ele>115.3</ele>
        <time>2018-09-23T08:49:31Z</time>
      </trkpt>
      <trkpt lat="49.4099" lon="0.99577">
        <ele>115.5</ele>
        <time>2018-09-23T08:49:34Z</time>
      </trkpt>
      <trkpt lat="49.40996" lon="0.9956">
        <ele>115.5</ele>
        <time>2018-09-23T08:49:37Z</time>
      </trkpt>
      <trkpt lat="49.41" lon="0.99543">
        <ele>115.7</ele>
        <time>2018-09-23T08:49:40Z</time>
      </trkpt>
      <trkpt lat="49.41005" lon="0.99526">
        <ele>115.8</ele>
        <time>2018-09-23T08:49:43Z</time>
      </trkpt>
      <trkpt lat="49.41013" lon="0.99513">
        <ele>115.9</ele>
        <time>2018-09-23T08:49:46Z</time>
      </trkpt>
      <trkpt lat="49.41021" lon="0.99502">
        <ele>116</ele>
        <time>2018-09-23T08:49:49Z</time>
      </trkpt>
      <trkpt lat="49.41029" lon="0.99493">
        <ele>116.2</ele>
        <time>2018-09-23T08:49:53Z</time>
      </trkpt>
      <trkpt lat="49.41038" lon="0.99486">
        <ele>116.4</ele>
        <time>2018-09-23T08:49:59Z</time>
      </trkpt>
      <trkpt lat="49.41046" lon="0.99476">
        <ele>116.6</ele>
        <time>2018-09-23T08:50:03Z</time>
      </trkpt>
      <trkpt lat="49.41055" lon="0.99473">
        <ele>116.7</ele>
        <time>2018-09-23T08:50:07Z</time>
      </trkpt>
      <trkpt lat="49.41065" lon="0.99474">
        <ele>116.7</ele>
        <time>2018-09-23T08:50:10Z</time>
      </trkpt>
      <trkpt lat="49.41076" lon="0.99475">
        <ele>116.5</ele>
        <time>2018-09-23T08:50:14Z</time>
      </trkpt>
      <trkpt lat="49.41085" lon="0.99476">
        <ele>116.2</ele>
        <time>2018-09-23T08:50:17Z</time>
      </trkpt>
      <trkpt lat="49.41096" lon="0.9948">
        <ele>116.2</ele>
        <time>2018-09-23T08:50:20Z</time>
      </trkpt>
      <trkpt lat="49.41105" lon="0.99483">
        <ele>116</ele>
        <time>2018-09-23T08:50:23Z</time>
      </trkpt>
      <trkpt lat="49.41116" lon="0.99488">
        <ele>115.7</ele>
        <time>2018-09-23T08:50:27Z</time>
      </trkpt>
      <trkpt lat="49.41122" lon="0.99502">
        <ele>115.5</ele>
        <time>2018-09-23T08:50:31Z</time>
      </trkpt>
      <trkpt lat="49.41129" lon="0.99516">
        <ele>115</ele>
        <time>2018-09-23T08:50:35Z</time>
      </trkpt>
      <trkpt lat="49.41136" lon="0.9953">
        <ele>114.5</ele>
        <time>2018-09-23T08:50:39Z</time>
      </trkpt>
      <trkpt lat="49.41141" lon="0.99544">
        <ele>114</ele>
        <time>2018-09-23T08:50:43Z</time>
      </trkpt>
      <trkpt lat="49.41144" lon="0.99558">
        <ele>113.7</ele>
        <time>2018-09-23T08:50:46Z</time>
      </trkpt>
      <trkpt lat="49.41147" lon="0.99572">
        <ele>113.3</ele>
        <time>2018-09-23T08:50:49Z</time>
      </trkpt>
      <trkpt lat="49.41152" lon="0.99587">
        <ele>113</ele>
        <time>2018-09-23T08:50:52Z</time>
      </trkpt>
      <trkpt lat="49.41156" lon="0.99603">
        <ele>112.7</ele>
        <time>2018-09-23T08:50:55Z</time>
      </trkpt>
      <trkpt lat="49.41158" lon="0.99617">
        <ele>112.2</ele>
        <time>2018-09-23T08:50:58Z</time>
      </trkpt>
      <trkpt lat="49.41161" lon="0.99632">
        <ele>111.5</ele>
        <time>2018-09-23T08:51:02Z</time>
      </trkpt>
      <trkpt lat="49.41163" lon="0.99647">
        <ele>110.8</ele>
        <time>2018-09-23T08:51:06Z</time>
      </trkpt>
      <trkpt lat="49.41163" lon="0.99664">
        <ele>110.2</ele>
        <time>2018-09-23T08:51:09Z</time>
      </trkpt>
      <trkpt lat="49.41163" lon="0.9968">
        <ele>109.4</ele>
        <time>2018-09-23T08:51:12Z</time>
      </trkpt>
      <trkpt lat="49.41162" lon="0.99695">
        <ele>108.3</ele>
        <time>2018-09-23T08:51:15Z</time>
      </trkpt>
      <trkpt lat="49.41162" lon="0.99711">
        <ele>108</ele>
        <time>2018-09-23T08:51:18Z</time>
      </trkpt>
      <trkpt lat="49.41167" lon="0.99724">
        <ele>107.3</ele>
        <time>2018-09-23T08:51:23Z</time>
      </trkpt>
      <trkpt lat="49.41176" lon="0.99726">
        <ele>108</ele>
        <time>2018-09-23T08:51:38Z</time>
      </trkpt>
      <trkpt lat="49.41185" lon="0.99728">
        <ele>108.9</ele>
        <time>2018-09-23T08:51:49Z</time>
      </trkpt>
      <trkpt lat="49.41194" lon="0.9973">
        <ele>110.2</ele>
        <time>2018-09-23T08:52:03Z</time>
      </trkpt>
      <trkpt lat="49.41203" lon="0.99739">
        <ele>110.7</ele>
        <time>2018-09-23T08:52:13Z</time>
      </trkpt>
      <trkpt lat="49.41207" lon="0.99752">
        <ele>110.9</ele>
        <time>2018-09-23T08:52:23Z</time>
      </trkpt>
      <trkpt lat="49.41209" lon="0.99767">
        <ele>110.5</ele>
        <time>2018-09-23T08:52:28Z</time>
      </trkpt>
      <trkpt lat="49.41218" lon="0.99776">
        <ele>110.4</ele>
        <time>2018-09-23T08:52:34Z</time>
      </trkpt>
      <trkpt lat="49.41229" lon="0.99782">
        <ele>110.8</ele>
        <time>2018-09-23T08:52:40Z</time>
      </trkpt>
      <trkpt lat="49.41238" lon="0.9979">
        <ele>110.8</ele>
        <time>2018-09-23T08:52:44Z</time>
      </trkpt>
      <trkpt lat="49.41245" lon="0.99798">
        <ele>111</ele>
        <time>2018-09-23T08:52:47Z</time>
      </trkpt>
      <trkpt lat="49.41253" lon="0.99806">
        <ele>110.9</ele>
        <time>2018-09-23T08:52:50Z</time>
      </trkpt>
      <trkpt lat="49.41262" lon="0.99816">
        <ele>110.9</ele>
        <time>2018-09-23T08:52:53Z</time>
      </trkpt>
      <trkpt lat="49.41269" lon="0.99825">
        <ele>111</ele>
        <time>2018-09-23T08:52:56Z</time>
      </trkpt>
      <trkpt lat="49.41274" lon="0.99839">
        <ele>111</ele>
        <time>2018-09-23T08:52:59Z</time>
      </trkpt>
      <trkpt lat="49.4128" lon="0.99852">
        <ele>111.3</ele>
        <time>2018-09-23T08:53:02Z</time>
      </trkpt>
      <trkpt lat="49.41287" lon="0.99867">
        <ele>111.5</ele>
        <time>2018-09-23T08:53:05Z</time>
      </trkpt>
      <trkpt lat="49.41294" lon="0.99881">
        <ele>111.3</ele>
        <time>2018-09-23T08:53:08Z</time>
      </trkpt>
      <trkpt lat="49.41299" lon="0.99896">
        <ele>111.4</ele>
        <time>2018-09-23T08:53:11Z</time>
      </trkpt>
      <trkpt lat="49.41303" lon="0.99912">
        <ele>111.3</ele>
        <time>2018-09-23T08:53:14Z</time>
      </trkpt>
      <trkpt lat="49.41307" lon="0.99928">
        <ele>111.1</ele>
        <time>2018-09-23T08:53:17Z</time>
      </trkpt>
      <trkpt lat="49.41313" lon="0.99942">
        <ele>111.1</ele>
        <time>2018-09-23T08:53:20Z</time>
      </trkpt>
      <trkpt lat="49.41319" lon="0.99958">
        <ele>111</ele>
        <time>2018-09-23T08:53:23Z</time>
      </trkpt>
      <trkpt lat="49.41323" lon="0.9997">
        <ele>111</ele>
        <time>2018-09-23T08:53:25Z</time>
      </trkpt>
      <trkpt lat="49.41329" lon="0.9998">
        <ele>110.9</ele>
        <time>2018-09-23T08:53:27Z</time>
      </trkpt>
      <trkpt lat="49.41338" lon="0.99995">
        <ele>110.9</ele>
        <time>2018-09-23T08:53:30Z</time>
      </trkpt>
      <trkpt lat="49.41344" lon="1.0001">
        <ele>110.7</ele>
        <time>2018-09-23T08:53:33Z</time>
      </trkpt>
      <trkpt lat="49.41352" lon="1.00022">
        <ele>111</ele>
        <time>2018-09-23T08:53:36Z</time>
      </trkpt>
      <trkpt lat="49.41358" lon="1.00038">
        <ele>111</ele>
        <time>2018-09-23T08:53:39Z</time>
      </trkpt>
      <trkpt lat="49.41364" lon="1.00056">
        <ele>110.7</ele>
        <time>2018-09-23T08:53:42Z</time>
      </trkpt>
      <trkpt lat="49.41371" lon="1.0007">
        <ele>110.7</ele>
        <time>2018-09-23T08:53:44Z</time>
      </trkpt>
      <trkpt lat="49.41377" lon="1.00083">
        <ele>110.6</ele>
        <time>2018-09-23T08:53:46Z</time>
      </trkpt>
      <trkpt lat="49.41382" lon="1.00097">
        <ele>110.4</ele>
        <time>2018-09-23T08:53:48Z</time>
      </trkpt>
      <trkpt lat="49.41388" lon="1.00108">
        <ele>110.4</ele>
        <time>2018-09-23T08:53:50Z</time>
      </trkpt>
      <trkpt lat="49.41399" lon="1.00114">
        <ele>110.1</ele>
        <time>2018-09-23T08:53:53Z</time>
      </trkpt>
      <trkpt lat="49.41407" lon="1.00108">
        <ele>110</ele>
        <time>2018-09-23T08:53:57Z</time>
      </trkpt>
      <trkpt lat="49.41416" lon="1.00099">
        <ele>110.1</ele>
        <time>2018-09-23T08:54:02Z</time>
      </trkpt>
      <trkpt lat="49.41422" lon="1.00089">
        <ele>110.3</ele>
        <time>2018-09-23T08:54:06Z</time>
      </trkpt>
      <trkpt lat="49.41429" lon="1.00077">
        <ele>110.8</ele>
        <time>2018-09-23T08:54:10Z</time>
      </trkpt>
      <trkpt lat="49.41435" lon="1.00064">
        <ele>111.2</ele>
        <time>2018-09-23T08:54:14Z</time>
      </trkpt>
      <trkpt lat="49.41442" lon="1.00055">
        <ele>111</ele>
        <time>2018-09-23T08:54:17Z</time>
      </trkpt>
      <trkpt lat="49.4145" lon="1.00041">
        <ele>111.3</ele>
        <time>2018-09-23T08:54:21Z</time>
      </trkpt>
      <trkpt lat="49.41457" lon="1.00028">
        <ele>111.8</ele>
        <time>2018-09-23T08:54:25Z</time>
      </trkpt>
      <trkpt lat="49.41464" lon="1.00014">
        <ele>111.4</ele>
        <time>2018-09-23T08:54:29Z</time>
      </trkpt>
      <trkpt lat="49.4147" lon="1.00004">
        <ele>111.2</ele>
        <time>2018-09-23T08:54:32Z</time>
      </trkpt>
      <trkpt lat="49.41477" lon="0.99993">
        <ele>111.2</ele>
        <time>2018-09-23T08:54:35Z</time>
      </trkpt>
      <trkpt lat="49.41486" lon="0.99981">
        <ele>110.6</ele>
        <time>2018-09-23T08:54:37Z</time>
      </trkpt>
      <trkpt lat="49.41494" lon="0.9997">
        <ele>110.1</ele>
        <time>2018-09-23T08:54:39Z</time>
      </trkpt>
      <trkpt lat="49.41503" lon="0.99957">
        <ele>108.9</ele>
        <time>2018-09-23T08:54:42Z</time>
      </trkpt>
      <trkpt lat="49.41512" lon="0.99961">
        <ele>107.6</ele>
        <time>2018-09-23T08:54:47Z</time>
      </trkpt>
      <trkpt lat="49.41516" lon="0.99974">
        <ele>107.4</ele>
        <time>2018-09-23T08:54:50Z</time>
      </trkpt>
      <trkpt lat="49.41523" lon="0.99989">
        <ele>106.8</ele>
        <time>2018-09-23T08:54:53Z</time>
      </trkpt>
      <trkpt lat="49.4153" lon="1">
        <ele>106.4</ele>
        <time>2018-09-23T08:54:55Z</time>
      </trkpt>
      <trkpt lat="49.41537" lon="1.00012">
        <ele>106</ele>
        <time>2018-09-23T08:54:57Z</time>
      </trkpt>
      <trkpt lat="49.41544" lon="1.00023">
        <ele>105.4</ele>
        <time>2018-09-23T08:54:59Z</time>
      </trkpt>
      <trkpt lat="49.4155" lon="1.00034">
        <ele>104.9</ele>
        <time>2018-09-23T08:55:01Z</time>
      </trkpt>
      <trkpt lat="49.41557" lon="1.00047">
        <ele>104.7</ele>
        <time>2018-09-23T08:55:03Z</time>
      </trkpt>
      <trkpt lat="49.41563" lon="1.00061">
        <ele>103.9</ele>
        <time>2018-09-23T08:55:05Z</time>
      </trkpt>
      <trkpt lat="49.41569" lon="1.00075">
        <ele>103.2</ele>
        <time>2018-09-23T08:55:07Z</time>
      </trkpt>
      <trkpt lat="49.41572" lon="1.00092">
        <ele>102.7</ele>
        <time>2018-09-23T08:55:09Z</time>
      </trkpt>
      <trkpt lat="49.41576" lon="1.00107">
        <ele>101.9</ele>
        <time>2018-09-23T08:55:11Z</time>
      </trkpt>
      <trkpt lat="49.41581" lon="1.00123">
        <ele>100.8</ele>
        <time>2018-09-23T08:55:13Z</time>
      </trkpt>
      <trkpt lat="49.41586" lon="1.0014">
        <ele>100.4</ele>
        <time>2018-09-23T08:55:15Z</time>
      </trkpt>
      <trkpt lat="49.41591" lon="1.00157">
        <ele>99.9</ele>
        <time>2018-09-23T08:55:17Z</time>
      </trkpt>
      <trkpt lat="49.41596" lon="1.00175">
        <ele>99.2</ele>
        <time>2018-09-23T08:55:19Z</time>
      </trkpt>
      <trkpt lat="49.41602" lon="1.00193">
        <ele>98.3</ele>
        <time>2018-09-23T08:55:21Z</time>
      </trkpt>
      <trkpt lat="49.41607" lon="1.00209">
        <ele>97.6</ele>
        <time>2018-09-23T08:55:23Z</time>
      </trkpt>
      <trkpt lat="49.4161" lon="1.00224">
        <ele>96.9</ele>
        <time>2018-09-23T08:55:25Z</time>
      </trkpt>
      <trkpt lat="49.41616" lon="1.0024">
        <ele>96.1</ele>
        <time>2018-09-23T08:55:28Z</time>
      </trkpt>
      <trkpt lat="49.41618" lon="1.00255">
        <ele>95.6</ele>
        <time>2018-09-23T08:55:30Z</time>
      </trkpt>
      <trkpt lat="49.4162" lon="1.00272">
        <ele>94.8</ele>
        <time>2018-09-23T08:55:32Z</time>
      </trkpt>
      <trkpt lat="49.41622" lon="1.00287">
        <ele>94.1</ele>
        <time>2018-09-23T08:55:34Z</time>
      </trkpt>
      <trkpt lat="49.41624" lon="1.00304">
        <ele>93.5</ele>
        <time>2018-09-23T08:55:36Z</time>
      </trkpt>
      <trkpt lat="49.41625" lon="1.0032">
        <ele>92.7</ele>
        <time>2018-09-23T08:55:38Z</time>
      </trkpt>
      <trkpt lat="49.41627" lon="1.00334">
        <ele>91.9</ele>
        <time>2018-09-23T08:55:40Z</time>
      </trkpt>
      <trkpt lat="49.41629" lon="1.00351">
        <ele>90.9</ele>
        <time>2018-09-23T08:55:43Z</time>
      </trkpt>
      <trkpt lat="49.4163" lon="1.00369">
        <ele>89.9</ele>
        <time>2018-09-23T08:55:46Z</time>
      </trkpt>
      <trkpt lat="49.41631" lon="1.00383">
        <ele>88.9</ele>
        <time>2018-09-23T08:55:49Z</time>
      </trkpt>
      <trkpt lat="49.41631" lon="1.004">
        <ele>87.9</ele>
        <time>2018-09-23T08:55:52Z</time>
      </trkpt>
      <trkpt lat="49.41628" lon="1.00419">
        <ele>87</ele>
        <time>2018-09-23T08:55:55Z</time>
      </trkpt>
      <trkpt lat="49.41626" lon="1.00434">
        <ele>86.4</ele>
        <time>2018-09-23T08:55:57Z</time>
      </trkpt>
      <trkpt lat="49.41623" lon="1.00449">
        <ele>85.6</ele>
        <time>2018-09-23T08:55:59Z</time>
      </trkpt>
      <trkpt lat="49.41621" lon="1.00464">
        <ele>85</ele>
        <time>2018-09-23T08:56:01Z</time>
      </trkpt>
      <trkpt lat="49.41619" lon="1.00478">
        <ele>84.5</ele>
        <time>2018-09-23T08:56:03Z</time>
      </trkpt>
      <trkpt lat="49.41617" lon="1.00494">
        <ele>83.4</ele>
        <time>2018-09-23T08:56:05Z</time>
      </trkpt>
      <trkpt lat="49.41616" lon="1.0051">
        <ele>82.9</ele>
        <time>2018-09-23T08:56:07Z</time>
      </trkpt>
      <trkpt lat="49.41614" lon="1.00527">
        <ele>82</ele>
        <time>2018-09-23T08:56:09Z</time>
      </trkpt>
      <trkpt lat="49.41609" lon="1.00544">
        <ele>81.2</ele>
        <time>2018-09-23T08:56:12Z</time>
      </trkpt>
      <trkpt lat="49.41605" lon="1.00558">
        <ele>80.3</ele>
        <time>2018-09-23T08:56:15Z</time>
      </trkpt>
      <trkpt lat="49.41607" lon="1.00572">
        <ele>78.9</ele>
        <time>2018-09-23T08:56:20Z</time>
      </trkpt>
      <trkpt lat="49.41611" lon="1.00584">
        <ele>77.1</ele>
        <time>2018-09-23T08:56:26Z</time>
      </trkpt>
      <trkpt lat="49.41619" lon="1.00593">
        <ele>75.7</ele>
        <time>2018-09-23T08:56:36Z</time>
      </trkpt>
      <trkpt lat="49.41627" lon="1.00601">
        <ele>75.6</ele>
        <time>2018-09-23T08:56:44Z</time>
      </trkpt>
      <trkpt lat="49.41635" lon="1.00608">
        <ele>76.2</ele>
        <time>2018-09-23T08:56:51Z</time>
      </trkpt>
      <trkpt lat="49.41643" lon="1.00618">
        <ele>77</ele>
        <time>2018-09-23T08:57:00Z</time>
      </trkpt>
      <trkpt lat="49.41651" lon="1.00624">
        <ele>78.2</ele>
        <time>2018-09-23T08:57:08Z</time>
      </trkpt>
      <trkpt lat="49.4166" lon="1.00628">
        <ele>80.2</ele>
        <time>2018-09-23T08:57:22Z</time>
      </trkpt>
      <trkpt lat="49.41669" lon="1.00634">
        <ele>81.2</ele>
        <time>2018-09-23T08:57:29Z</time>
      </trkpt>
      <trkpt lat="49.41678" lon="1.0064">
        <ele>82.1</ele>
        <time>2018-09-23T08:57:36Z</time>
      </trkpt>
      <trkpt lat="49.41687" lon="1.00642">
        <ele>82.9</ele>
        <time>2018-09-23T08:57:45Z</time>
      </trkpt>
      <trkpt lat="49.41696" lon="1.00646">
        <ele>84.1</ele>
        <time>2018-09-23T08:57:55Z</time>
      </trkpt>
      <trkpt lat="49.41706" lon="1.00645">
        <ele>85.2</ele>
        <time>2018-09-23T08:58:05Z</time>
      </trkpt>
      <trkpt lat="49.41715" lon="1.00642">
        <ele>85.8</ele>
        <time>2018-09-23T08:58:13Z</time>
      </trkpt>
      <trkpt lat="49.41723" lon="1.00634">
        <ele>87</ele>
        <time>2018-09-23T08:58:23Z</time>
      </trkpt>
      <trkpt lat="49.41732" lon="1.00631">
        <ele>87.6</ele>
        <time>2018-09-23T08:58:29Z</time>
      </trkpt>
      <trkpt lat="49.41741" lon="1.00636">
        <ele>88.3</ele>
        <time>2018-09-23T08:58:37Z</time>
      </trkpt>
      <trkpt lat="49.4175" lon="1.00644">
        <ele>89.1</ele>
        <time>2018-09-23T08:58:45Z</time>
      </trkpt>
      <trkpt lat="49.41758" lon="1.00654">
        <ele>90.5</ele>
        <time>2018-09-23T08:58:56Z</time>
      </trkpt>
      <trkpt lat="49.41765" lon="1.00662">
        <ele>92.3</ele>
        <time>2018-09-23T08:59:05Z</time>
      </trkpt>
      <trkpt lat="49.41773" lon="1.00671">
        <ele>93.1</ele>
        <time>2018-09-23T08:59:12Z</time>
      </trkpt>
      <trkpt lat="49.41781" lon="1.00681">
        <ele>94.3</ele>
        <time>2018-09-23T08:59:20Z</time>
      </trkpt>
      <trkpt lat="49.41789" lon="1.0069">
        <ele>95.6</ele>
        <time>2018-09-23T08:59:31Z</time>
      </trkpt>
      <trkpt lat="49.41796" lon="1.00698">
        <ele>96.8</ele>
        <time>2018-09-23T08:59:41Z</time>
      </trkpt>
      <trkpt lat="49.41802" lon="1.0071">
        <ele>97.3</ele>
        <time>2018-09-23T08:59:52Z</time>
      </trkpt>
      <trkpt lat="49.41809" lon="1.00719">
        <ele>98.4</ele>
        <time>2018-09-23T09:00:07Z</time>
      </trkpt>
      <trkpt lat="49.41818" lon="1.00724">
        <ele>99.1</ele>
        <time>2018-09-23T09:00:21Z</time>
      </trkpt>
      <trkpt lat="49.41827" lon="1.00727">
        <ele>99.9</ele>
        <time>2018-09-23T09:00:35Z</time>
      </trkpt>
      <trkpt lat="49.41836" lon="1.00727">
        <ele>100.6</ele>
        <time>2018-09-23T09:00:49Z</time>
      </trkpt>
      <trkpt lat="49.41847" lon="1.00727">
        <ele>101</ele>
        <time>2018-09-23T09:00:58Z</time>
      </trkpt>
      <trkpt lat="49.41857" lon="1.00728">
        <ele>101.3</ele>
        <time>2018-09-23T09:01:04Z</time>
      </trkpt>
      <trkpt lat="49.41868" lon="1.00726">
        <ele>101.6</ele>
        <time>2018-09-23T09:01:13Z</time>
      </trkpt>
      <trkpt lat="49.41877" lon="1.00728">
        <ele>102</ele>
        <time>2018-09-23T09:01:18Z</time>
      </trkpt>
      <trkpt lat="49.41888" lon="1.00726">
        <ele>102.4</ele>
        <time>2018-09-23T09:01:23Z</time>
      </trkpt>
      <trkpt lat="49.41898" lon="1.00725">
        <ele>102.7</ele>
        <time>2018-09-23T09:01:27Z</time>
      </trkpt>
      <trkpt lat="49.41908" lon="1.0072">
        <ele>103.4</ele>
        <time>2018-09-23T09:01:34Z</time>
      </trkpt>
      <trkpt lat="49.41918" lon="1.0072">
        <ele>103.7</ele>
        <time>2018-09-23T09:01:39Z</time>
      </trkpt>
      <trkpt lat="49.41929" lon="1.00719">
        <ele>104.3</ele>
        <time>2018-09-23T09:01:44Z</time>
      </trkpt>
      <trkpt lat="49.4194" lon="1.00721">
        <ele>104.6</ele>
        <time>2018-09-23T09:01:48Z</time>
      </trkpt>
      <trkpt lat="49.41948" lon="1.00726">
        <ele>105.1</ele>
        <time>2018-09-23T09:01:51Z</time>
      </trkpt>
      <trkpt lat="49.41957" lon="1.00732">
        <ele>105.4</ele>
        <time>2018-09-23T09:01:54Z</time>
      </trkpt>
      <trkpt lat="49.41968" lon="1.00738">
        <ele>106</ele>
        <time>2018-09-23T09:01:58Z</time>
      </trkpt>
      <trkpt lat="49.41979" lon="1.00746">
        <ele>106</ele>
        <time>2018-09-23T09:02:02Z</time>
      </trkpt>
      <trkpt lat="49.41983" lon="1.00758">
        <ele>106.5</ele>
        <time>2018-09-23T09:02:05Z</time>
      </trkpt>
      <trkpt lat="49.41987" lon="1.00775">
        <ele>106.7</ele>
        <time>2018-09-23T09:02:08Z</time>
      </trkpt>
      <trkpt lat="49.41994" lon="1.00793">
        <ele>106.9</ele>
        <time>2018-09-23T09:02:11Z</time>
      </trkpt>
      <trkpt lat="49.41999" lon="1.00807">
        <ele>107.1</ele>
        <time>2018-09-23T09:02:14Z</time>
      </trkpt>
      <trkpt lat="49.42005" lon="1.00824">
        <ele>107.2</ele>
        <time>2018-09-23T09:02:17Z</time>
      </trkpt>
      <trkpt lat="49.4201" lon="1.00841">
        <ele>107.3</ele>
        <time>2018-09-23T09:02:20Z</time>
      </trkpt>
      <trkpt lat="49.42013" lon="1.00855">
        <ele>107.4</ele>
        <time>2018-09-23T09:02:22Z</time>
      </trkpt>
      <trkpt lat="49.42017" lon="1.00868">
        <ele>107.4</ele>
        <time>2018-09-23T09:02:24Z</time>
      </trkpt>
      <trkpt lat="49.4202" lon="1.00881">
        <ele>107.9</ele>
        <time>2018-09-23T09:02:26Z</time>
      </trkpt>
      <trkpt lat="49.42024" lon="1.009">
        <ele>108.1</ele>
        <time>2018-09-23T09:02:29Z</time>
      </trkpt>
      <trkpt lat="49.42029" lon="1.00919">
        <ele>108.3</ele>
        <time>2018-09-23T09:02:32Z</time>
      </trkpt>
      <trkpt lat="49.42031" lon="1.00933">
        <ele>108.5</ele>
        <time>2018-09-23T09:02:34Z</time>
      </trkpt>
      <trkpt lat="49.42035" lon="1.00946">
        <ele>108.6</ele>
        <time>2018-09-23T09:02:36Z</time>
      </trkpt>
      <trkpt lat="49.42039" lon="1.00959">
        <ele>108.8</ele>
        <time>2018-09-23T09:02:38Z</time>
      </trkpt>
      <trkpt lat="49.42042" lon="1.00979">
        <ele>108.7</ele>
        <time>2018-09-23T09:02:41Z</time>
      </trkpt>
      <trkpt lat="49.42045" lon="1.00998">
        <ele>109</ele>
        <time>2018-09-23T09:02:44Z</time>
      </trkpt>
      <trkpt lat="49.42051" lon="1.01016">
        <ele>109.3</ele>
        <time>2018-09-23T09:02:47Z</time>
      </trkpt>
      <trkpt lat="49.42053" lon="1.0103">
        <ele>109.6</ele>
        <time>2018-09-23T09:02:49Z</time>
      </trkpt>
      <trkpt lat="49.42057" lon="1.01045">
        <ele>109.7</ele>
        <time>2018-09-23T09:02:51Z</time>
      </trkpt>
      <trkpt lat="49.4206" lon="1.01059">
        <ele>109.8</ele>
        <time>2018-09-23T09:02:53Z</time>
      </trkpt>
      <trkpt lat="49.42062" lon="1.01072">
        <ele>110</ele>
        <time>2018-09-23T09:02:55Z</time>
      </trkpt>
      <trkpt lat="49.42067" lon="1.01092">
        <ele>110.1</ele>
        <time>2018-09-23T09:02:58Z</time>
      </trkpt>
      <trkpt lat="49.4207" lon="1.01106">
        <ele>110.1</ele>
        <time>2018-09-23T09:03:00Z</time>
      </trkpt>
      <trkpt lat="49.42073" lon="1.01119">
        <ele>110.3</ele>
        <time>2018-09-23T09:03:02Z</time>
      </trkpt>
      <trkpt lat="49.42075" lon="1.01133">
        <ele>110.4</ele>
        <time>2018-09-23T09:03:04Z</time>
      </trkpt>
      <trkpt lat="49.4208" lon="1.01152">
        <ele>110.6</ele>
        <time>2018-09-23T09:03:07Z</time>
      </trkpt>
      <trkpt lat="49.42089" lon="1.01163">
        <ele>110.7</ele>
        <time>2018-09-23T09:03:10Z</time>
      </trkpt>
      <trkpt lat="49.421" lon="1.01166">
        <ele>110.8</ele>
        <time>2018-09-23T09:03:14Z</time>
      </trkpt>
      <trkpt lat="49.4211" lon="1.01168">
        <ele>110.8</ele>
        <time>2018-09-23T09:03:18Z</time>
      </trkpt>
      <trkpt lat="49.42121" lon="1.01174">
        <ele>110.9</ele>
        <time>2018-09-23T09:03:21Z</time>
      </trkpt>
      <trkpt lat="49.42131" lon="1.01178">
        <ele>110.8</ele>
        <time>2018-09-23T09:03:23Z</time>
      </trkpt>
      <trkpt lat="49.42143" lon="1.01183">
        <ele>111</ele>
        <time>2018-09-23T09:03:26Z</time>
      </trkpt>
      <trkpt lat="49.42155" lon="1.01189">
        <ele>111</ele>
        <time>2018-09-23T09:03:29Z</time>
      </trkpt>
      <trkpt lat="49.42166" lon="1.01192">
        <ele>111</ele>
        <time>2018-09-23T09:03:31Z</time>
      </trkpt>
      <trkpt lat="49.42176" lon="1.01196">
        <ele>110.9</ele>
        <time>2018-09-23T09:03:33Z</time>
      </trkpt>
      <trkpt lat="49.42186" lon="1.01199">
        <ele>111</ele>
        <time>2018-09-23T09:03:35Z</time>
      </trkpt>
      <trkpt lat="49.42196" lon="1.012">
        <ele>110.8</ele>
        <time>2018-09-23T09:03:37Z</time>
      </trkpt>
      <trkpt lat="49.42207" lon="1.01203">
        <ele>110.8</ele>
        <time>2018-09-23T09:03:39Z</time>
      </trkpt>
      <trkpt lat="49.42218" lon="1.01206">
        <ele>110.7</ele>
        <time>2018-09-23T09:03:41Z</time>
      </trkpt>
      <trkpt lat="49.42232" lon="1.01209">
        <ele>110.8</ele>
        <time>2018-09-23T09:03:43Z</time>
      </trkpt>
      <trkpt lat="49.42244" lon="1.01212">
        <ele>111.1</ele>
        <time>2018-09-23T09:03:45Z</time>
      </trkpt>
      <trkpt lat="49.42255" lon="1.01215">
        <ele>111.1</ele>
        <time>2018-09-23T09:03:47Z</time>
      </trkpt>
      <trkpt lat="49.42266" lon="1.01216">
        <ele>111.1</ele>
        <time>2018-09-23T09:03:49Z</time>
      </trkpt>
      <trkpt lat="49.42277" lon="1.01217">
        <ele>111</ele>
        <time>2018-09-23T09:03:51Z</time>
      </trkpt>
      <trkpt lat="49.42288" lon="1.01213">
        <ele>111</ele>
        <time>2018-09-23T09:03:54Z</time>
      </trkpt>
      <trkpt lat="49.42299" lon="1.01206">
        <ele>111</ele>
        <time>2018-09-23T09:03:57Z</time>
      </trkpt>
      <trkpt lat="49.42311" lon="1.01198">
        <ele>111</ele>
        <time>2018-09-23T09:04:00Z</time>
      </trkpt>
      <trkpt lat="49.4232" lon="1.01189">
        <ele>111</ele>
        <time>2018-09-23T09:04:03Z</time>
      </trkpt>
      <trkpt lat="49.42331" lon="1.01181">
        <ele>111.1</ele>
        <time>2018-09-23T09:04:06Z</time>
      </trkpt>
      <trkpt lat="49.4234" lon="1.01178">
        <ele>111.1</ele>
        <time>2018-09-23T09:04:08Z</time>
      </trkpt>
      <trkpt lat="49.4235" lon="1.01175">
        <ele>111</ele>
        <time>2018-09-23T09:04:10Z</time>
      </trkpt>
      <trkpt lat="49.4236" lon="1.01173">
        <ele>111.1</ele>
        <time>2018-09-23T09:04:12Z</time>
      </trkpt>
      <trkpt lat="49.42373" lon="1.01171">
        <ele>111.1</ele>
        <time>2018-09-23T09:04:15Z</time>
      </trkpt>
      <trkpt lat="49.42384" lon="1.01168">
        <ele>111.1</ele>
        <time>2018-09-23T09:04:18Z</time>
      </trkpt>
      <trkpt lat="49.42395" lon="1.01162">
        <ele>111.4</ele>
        <time>2018-09-23T09:04:22Z</time>
      </trkpt>
      <trkpt lat="49.42408" lon="1.01161">
        <ele>111.5</ele>
        <time>2018-09-23T09:04:25Z</time>
      </trkpt>
      <trkpt lat="49.4242" lon="1.01161">
        <ele>111.4</ele>
        <time>2018-09-23T09:04:27Z</time>
      </trkpt>
      <trkpt lat="49.42431" lon="1.0116">
        <ele>111.4</ele>
        <time>2018-09-23T09:04:29Z</time>
      </trkpt>
      <trkpt lat="49.4244" lon="1.01153">
        <ele>111.6</ele>
        <time>2018-09-23T09:04:32Z</time>
      </trkpt>
      <trkpt lat="49.4244" lon="1.01139">
        <ele>111.5</ele>
        <time>2018-09-23T09:04:37Z</time>
      </trkpt>
      <trkpt lat="49.42436" lon="1.01125">
        <ele>111.6</ele>
        <time>2018-09-23T09:04:41Z</time>
      </trkpt>
      <trkpt lat="49.42432" lon="1.01112">
        <ele>111.6</ele>
        <time>2018-09-23T09:04:44Z</time>
      </trkpt>
      <trkpt lat="49.42427" lon="1.01098">
        <ele>111.3</ele>
        <time>2018-09-23T09:04:47Z</time>
      </trkpt>
      <trkpt lat="49.4242" lon="1.01084">
        <ele>111.1</ele>
        <time>2018-09-23T09:04:50Z</time>
      </trkpt>
      <trkpt lat="49.42415" lon="1.01071">
        <ele>111.3</ele>
        <time>2018-09-23T09:04:53Z</time>
      </trkpt>
      <trkpt lat="49.42407" lon="1.01055">
        <ele>111.3</ele>
        <time>2018-09-23T09:04:56Z</time>
      </trkpt>
      <trkpt lat="49.42399" lon="1.01041">
        <ele>111.6</ele>
        <time>2018-09-23T09:04:59Z</time>
      </trkpt>
      <trkpt lat="49.4239" lon="1.01028">
        <ele>111.6</ele>
        <time>2018-09-23T09:05:02Z</time>
      </trkpt>
      <trkpt lat="49.4238" lon="1.01016">
        <ele>111.3</ele>
        <time>2018-09-23T09:05:05Z</time>
      </trkpt>
      <trkpt lat="49.42372" lon="1.01001">
        <ele>111.5</ele>
        <time>2018-09-23T09:05:08Z</time>
      </trkpt>
      <trkpt lat="49.42364" lon="1.00986">
        <ele>111.1</ele>
        <time>2018-09-23T09:05:11Z</time>
      </trkpt>
      <trkpt lat="49.42357" lon="1.00973">
        <ele>111.1</ele>
        <time>2018-09-23T09:05:14Z</time>
      </trkpt>
      <trkpt lat="49.42351" lon="1.0096">
        <ele>111</ele>
        <time>2018-09-23T09:05:17Z</time>
      </trkpt>
      <trkpt lat="49.42351" lon="1.00945">
        <ele>111.4</ele>
        <time>2018-09-23T09:05:20Z</time>
      </trkpt>
      <trkpt lat="49.42353" lon="1.00931">
        <ele>111.5</ele>
        <time>2018-09-23T09:05:24Z</time>
      </trkpt>
      <trkpt lat="49.42355" lon="1.00916">
        <ele>111.6</ele>
        <time>2018-09-23T09:05:28Z</time>
      </trkpt>
      <trkpt lat="49.4235" lon="1.00903">
        <ele>111.3</ele>
        <time>2018-09-23T09:05:31Z</time>
      </trkpt>
      <trkpt lat="49.42345" lon="1.00887">
        <ele>110.9</ele>
        <time>2018-09-23T09:05:34Z</time>
      </trkpt>
      <trkpt lat="49.42341" lon="1.0087">
        <ele>110.7</ele>
        <time>2018-09-23T09:05:37Z</time>
      </trkpt>
      <trkpt lat="49.42336" lon="1.00856">
        <ele>110.3</ele>
        <time>2018-09-23T09:05:40Z</time>
      </trkpt>
      <trkpt lat="49.42334" lon="1.00839">
        <ele>110.3</ele>
        <time>2018-09-23T09:05:43Z</time>
      </trkpt>
      <trkpt lat="49.42331" lon="1.00823">
        <ele>110.3</ele>
        <time>2018-09-23T09:05:47Z</time>
      </trkpt>
      <trkpt lat="49.42336" lon="1.00809">
        <ele>110.3</ele>
        <time>2018-09-23T09:05:51Z</time>
      </trkpt>
      <trkpt lat="49.42342" lon="1.00795">
        <ele>110</ele>
        <time>2018-09-23T09:05:54Z</time>
      </trkpt>
      <trkpt lat="49.42351" lon="1.00779">
        <ele>110</ele>
        <time>2018-09-23T09:05:57Z</time>
      </trkpt>
      <trkpt lat="49.42357" lon="1.00768">
        <ele>109.9</ele>
        <time>2018-09-23T09:05:59Z</time>
      </trkpt>
      <trkpt lat="49.42363" lon="1.00758">
        <ele>110</ele>
        <time>2018-09-23T09:06:01Z</time>
      </trkpt>
      <trkpt lat="49.42372" lon="1.00745">
        <ele>109.8</ele>
        <time>2018-09-23T09:06:04Z</time>
      </trkpt>
      <trkpt lat="49.42379" lon="1.00736">
        <ele>109.8</ele>
        <time>2018-09-23T09:06:06Z</time>
      </trkpt>
      <trkpt lat="49.42386" lon="1.00725">
        <ele>109.8</ele>
        <time>2018-09-23T09:06:08Z</time>
      </trkpt>
      <trkpt lat="49.42394" lon="1.00714">
        <ele>109.7</ele>
        <time>2018-09-23T09:06:10Z</time>
      </trkpt>
      <trkpt lat="49.42401" lon="1.00701">
        <ele>109.6</ele>
        <time>2018-09-23T09:06:12Z</time>
      </trkpt>
      <trkpt lat="49.42409" lon="1.00688">
        <ele>109.5</ele>
        <time>2018-09-23T09:06:14Z</time>
      </trkpt>
      <trkpt lat="49.42418" lon="1.00676">
        <ele>109.5</ele>
        <time>2018-09-23T09:06:16Z</time>
      </trkpt>
      <trkpt lat="49.42426" lon="1.00661">
        <ele>109.5</ele>
        <time>2018-09-23T09:06:18Z</time>
      </trkpt>
      <trkpt lat="49.42433" lon="1.00645">
        <ele>109.5</ele>
        <time>2018-09-23T09:06:20Z</time>
      </trkpt>
      <trkpt lat="49.42439" lon="1.00628">
        <ele>109.2</ele>
        <time>2018-09-23T09:06:22Z</time>
      </trkpt>
      <trkpt lat="49.42446" lon="1.00612">
        <ele>109.1</ele>
        <time>2018-09-23T09:06:24Z</time>
      </trkpt>
      <trkpt lat="49.42451" lon="1.00594">
        <ele>109.1</ele>
        <time>2018-09-23T09:06:26Z</time>
      </trkpt>
      <trkpt lat="49.42458" lon="1.00578">
        <ele>109</ele>
        <time>2018-09-23T09:06:28Z</time>
      </trkpt>
      <trkpt lat="49.42468" lon="1.00566">
        <ele>108.9</ele>
        <time>2018-09-23T09:06:30Z</time>
      </trkpt>
      <trkpt lat="49.42476" lon="1.00555">
        <ele>108.7</ele>
        <time>2018-09-23T09:06:32Z</time>
      </trkpt>
      <trkpt lat="49.42484" lon="1.00544">
        <ele>108.7</ele>
        <time>2018-09-23T09:06:34Z</time>
      </trkpt>
      <trkpt lat="49.4249" lon="1.00532">
        <ele>108.6</ele>
        <time>2018-09-23T09:06:36Z</time>
      </trkpt>
      <trkpt lat="49.42498" lon="1.00521">
        <ele>108.6</ele>
        <time>2018-09-23T09:06:38Z</time>
      </trkpt>
      <trkpt lat="49.42508" lon="1.00514">
        <ele>108.6</ele>
        <time>2018-09-23T09:06:40Z</time>
      </trkpt>
      <trkpt lat="49.42519" lon="1.00516">
        <ele>108.5</ele>
        <time>2018-09-23T09:06:44Z</time>
      </trkpt>
      <trkpt lat="49.42528" lon="1.00523">
        <ele>108.5</ele>
        <time>2018-09-23T09:06:47Z</time>
      </trkpt>
      <trkpt lat="49.42538" lon="1.00527">
        <ele>108.4</ele>
        <time>2018-09-23T09:06:50Z</time>
      </trkpt>
      <trkpt lat="49.42548" lon="1.00516">
        <ele>108.2</ele>
        <time>2018-09-23T09:06:53Z</time>
      </trkpt>
      <trkpt lat="49.42554" lon="1.00505">
        <ele>108.3</ele>
        <time>2018-09-23T09:06:55Z</time>
      </trkpt>
      <trkpt lat="49.42562" lon="1.0049">
        <ele>108.2</ele>
        <time>2018-09-23T09:06:58Z</time>
      </trkpt>
      <trkpt lat="49.42569" lon="1.00476">
        <ele>108.1</ele>
        <time>2018-09-23T09:07:01Z</time>
      </trkpt>
      <trkpt lat="49.42575" lon="1.00461">
        <ele>108</ele>
        <time>2018-09-23T09:07:04Z</time>
      </trkpt>
      <trkpt lat="49.4258" lon="1.00447">
        <ele>107.9</ele>
        <time>2018-09-23T09:07:07Z</time>
      </trkpt>
      <trkpt lat="49.42586" lon="1.00435">
        <ele>107.8</ele>
        <time>2018-09-23T09:07:10Z</time>
      </trkpt>
      <trkpt lat="49.42591" lon="1.00424">
        <ele>107.9</ele>
        <time>2018-09-23T09:07:13Z</time>
      </trkpt>
      <trkpt lat="49.42597" lon="1.00412">
        <ele>108</ele>
        <time>2018-09-23T09:07:16Z</time>
      </trkpt>
      <trkpt lat="49.42602" lon="1.00401">
        <ele>108.3</ele>
        <time>2018-09-23T09:07:19Z</time>
      </trkpt>
      <trkpt lat="49.42608" lon="1.00388">
        <ele>108.5</ele>
        <time>2018-09-23T09:07:22Z</time>
      </trkpt>
      <trkpt lat="49.42613" lon="1.00374">
        <ele>108.7</ele>
        <time>2018-09-23T09:07:25Z</time>
      </trkpt>
      <trkpt lat="49.42619" lon="1.00361">
        <ele>108.6</ele>
        <time>2018-09-23T09:07:28Z</time>
      </trkpt>
      <trkpt lat="49.42624" lon="1.00347">
        <ele>108.3</ele>
        <time>2018-09-23T09:07:31Z</time>
      </trkpt>
      <trkpt lat="49.4263" lon="1.00333">
        <ele>108.4</ele>
        <time>2018-09-23T09:07:34Z</time>
      </trkpt>
      <trkpt lat="49.42635" lon="1.00319">
        <ele>108</ele>
        <time>2018-09-23T09:07:37Z</time>
      </trkpt>
      <trkpt lat="49.42641" lon="1.00306">
        <ele>108.2</ele>
        <time>2018-09-23T09:07:40Z</time>
      </trkpt>
      <trkpt lat="49.42646" lon="1.00293">
        <ele>108.4</ele>
        <time>2018-09-23T09:07:43Z</time>
      </trkpt>
      <trkpt lat="49.42652" lon="1.00279">
        <ele>108.7</ele>
        <time>2018-09-23T09:07:46Z</time>
      </trkpt>
      <trkpt lat="49.42659" lon="1.00266">
        <ele>108.9</ele>
        <time>2018-09-23T09:07:49Z</time>
      </trkpt>
      <trkpt lat="49.42665" lon="1.00252">
        <ele>108.9</ele>
        <time>2018-09-23T09:07:52Z</time>
      </trkpt>
      <trkpt lat="49.42672" lon="1.00236">
        <ele>108.6</ele>
        <time>2018-09-23T09:07:55Z</time>
      </trkpt>
      <trkpt lat="49.42678" lon="1.00221">
        <ele>108.6</ele>
        <time>2018-09-23T09:07:58Z</time>
      </trkpt>
      <trkpt lat="49.42685" lon="1.00205">
        <ele>108.3</ele>
        <time>2018-09-23T09:08:01Z</time>
      </trkpt>
      <trkpt lat="49.42692" lon="1.0019">
        <ele>108.4</ele>
        <time>2018-09-23T09:08:04Z</time>
      </trkpt>
      <trkpt lat="49.42699" lon="1.00175">
        <ele>108.7</ele>
        <time>2018-09-23T09:08:07Z</time>
      </trkpt>
      <trkpt lat="49.42706" lon="1.0016">
        <ele>108.6</ele>
        <time>2018-09-23T09:08:10Z</time>
      </trkpt>
      <trkpt lat="49.42714" lon="1.00144">
        <ele>108.5</ele>
        <time>2018-09-23T09:08:13Z</time>
      </trkpt>
      <trkpt lat="49.42721" lon="1.00128">
        <ele>108.6</ele>
        <time>2018-09-23T09:08:16Z</time>
      </trkpt>
      <trkpt lat="49.42728" lon="1.00112">
        <ele>108.3</ele>
        <time>2018-09-23T09:08:19Z</time>
      </trkpt>
      <trkpt lat="49.42733" lon="1.001">
        <ele>108.2</ele>
        <time>2018-09-23T09:08:21Z</time>
      </trkpt>
      <trkpt lat="49.42739" lon="1.00087">
        <ele>107.9</ele>
        <time>2018-09-23T09:08:23Z</time>
      </trkpt>
      <trkpt lat="49.42744" lon="1.00076">
        <ele>107.9</ele>
        <time>2018-09-23T09:08:25Z</time>
      </trkpt>
      <trkpt lat="49.42749" lon="1.00064">
        <ele>107.9</ele>
        <time>2018-09-23T09:08:27Z</time>
      </trkpt>
      <trkpt lat="49.42755" lon="1.00052">
        <ele>108</ele>
        <time>2018-09-23T09:08:29Z</time>
      </trkpt>
      <trkpt lat="49.4276" lon="1.0004">
        <ele>107.8</ele>
        <time>2018-09-23T09:08:31Z</time>
      </trkpt>
      <trkpt lat="49.42765" lon="1.00029">
        <ele>107.7</ele>
        <time>2018-09-23T09:08:33Z</time>
      </trkpt>
      <trkpt lat="49.4277" lon="1.00017">
        <ele>107.6</ele>
        <time>2018-09-23T09:08:35Z</time>
      </trkpt>
      <trkpt lat="49.42776" lon="1.00005">
        <ele>107.4</ele>
        <time>2018-09-23T09:08:37Z</time>
      </trkpt>
      <trkpt lat="49.42782" lon="0.99995">
        <ele>107.1</ele>
        <time>2018-09-23T09:08:39Z</time>
      </trkpt>
      <trkpt lat="49.42794" lon="1">
        <ele>106.5</ele>
        <time>2018-09-23T09:08:43Z</time>
      </trkpt>
      <trkpt lat="49.42801" lon="1.00011">
        <ele>106.1</ele>
        <time>2018-09-23T09:08:46Z</time>
      </trkpt>
      <trkpt lat="49.42809" lon="1.00025">
        <ele>106</ele>
        <time>2018-09-23T09:08:49Z</time>
      </trkpt>
      <trkpt lat="49.42817" lon="1.00038">
        <ele>105.7</ele>
        <time>2018-09-23T09:08:52Z</time>
      </trkpt>
      <trkpt lat="49.42826" lon="1.00051">
        <ele>105.8</ele>
        <time>2018-09-23T09:08:55Z</time>
      </trkpt>
      <trkpt lat="49.42834" lon="1.00059">
        <ele>105.8</ele>
        <time>2018-09-23T09:08:58Z</time>
      </trkpt>
      <trkpt lat="49.42841" lon="1.0005">
        <ele>105.4</ele>
        <time>2018-09-23T09:09:02Z</time>
      </trkpt>
      <trkpt lat="49.42849" lon="1.00037">
        <ele>105.1</ele>
        <time>2018-09-23T09:09:06Z</time>
      </trkpt>
      <trkpt lat="49.42858" lon="1.00024">
        <ele>105</ele>
        <time>2018-09-23T09:09:09Z</time>
      </trkpt>
      <trkpt lat="49.42864" lon="1.00013">
        <ele>104.8</ele>
        <time>2018-09-23T09:09:11Z</time>
      </trkpt>
      <trkpt lat="49.42873" lon="1.00001">
        <ele>104.6</ele>
        <time>2018-09-23T09:09:13Z</time>
      </trkpt>
      <trkpt lat="49.4288" lon="0.99989">
        <ele>104.4</ele>
        <time>2018-09-23T09:09:15Z</time>
      </trkpt>
      <trkpt lat="49.42888" lon="0.99976">
        <ele>104.1</ele>
        <time>2018-09-23T09:09:18Z</time>
      </trkpt>
      <trkpt lat="49.42898" lon="0.99962">
        <ele>103.9</ele>
        <time>2018-09-23T09:09:21Z</time>
      </trkpt>
      <trkpt lat="49.42905" lon="0.99953">
        <ele>103.8</ele>
        <time>2018-09-23T09:09:23Z</time>
      </trkpt>
      <trkpt lat="49.42911" lon="0.99942">
        <ele>103.8</ele>
        <time>2018-09-23T09:09:25Z</time>
      </trkpt>
      <trkpt lat="49.42918" lon="0.99931">
        <ele>103.6</ele>
        <time>2018-09-23T09:09:27Z</time>
      </trkpt>
      <trkpt lat="49.42926" lon="0.9992">
        <ele>103.3</ele>
        <time>2018-09-23T09:09:29Z</time>
      </trkpt>
      <trkpt lat="49.42933" lon="0.99906">
        <ele>102.9</ele>
        <time>2018-09-23T09:09:32Z</time>
      </trkpt>
      <trkpt lat="49.42939" lon="0.99892">
        <ele>102.4</ele>
        <time>2018-09-23T09:09:37Z</time>
      </trkpt>
      <trkpt lat="49.42948" lon="0.9988">
        <ele>102.3</ele>
        <time>2018-09-23T09:09:41Z</time>
      </trkpt>
      <trkpt lat="49.42957" lon="0.9987">
        <ele>101.9</ele>
        <time>2018-09-23T09:09:44Z</time>
      </trkpt>
      <trkpt lat="49.42963" lon="0.99856">
        <ele>101.6</ele>
        <time>2018-09-23T09:09:47Z</time>
      </trkpt>
      <trkpt lat="49.42971" lon="0.99845">
        <ele>101.4</ele>
        <time>2018-09-23T09:09:50Z</time>
      </trkpt>
      <trkpt lat="49.42978" lon="0.99832">
        <ele>101.1</ele>
        <time>2018-09-23T09:09:53Z</time>
      </trkpt>
      <trkpt lat="49.42986" lon="0.99821">
        <ele>100.5</ele>
        <time>2018-09-23T09:09:56Z</time>
      </trkpt>
      <trkpt lat="49.42992" lon="0.9981">
        <ele>100</ele>
        <time>2018-09-23T09:09:59Z</time>
      </trkpt>
      <trkpt lat="49.43" lon="0.99797">
        <ele>100</ele>
        <time>2018-09-23T09:10:02Z</time>
      </trkpt>
      <trkpt lat="49.43008" lon="0.99784">
        <ele>99.7</ele>
        <time>2018-09-23T09:10:05Z</time>
      </trkpt>
      <trkpt lat="49.43015" lon="0.99771">
        <ele>99.4</ele>
        <time>2018-09-23T09:10:08Z</time>
      </trkpt>
      <trkpt lat="49.43024" lon="0.99761">
        <ele>99.1</ele>
        <time>2018-09-23T09:10:13Z</time>
      </trkpt>
      <trkpt lat="49.43033" lon="0.99769">
        <ele>98.5</ele>
        <time>2018-09-23T09:10:18Z</time>
      </trkpt>
      <trkpt lat="49.4304" lon="0.99777">
        <ele>98.3</ele>
        <time>2018-09-23T09:10:21Z</time>
      </trkpt>
      <trkpt lat="49.43048" lon="0.99788">
        <ele>98.1</ele>
        <time>2018-09-23T09:10:24Z</time>
      </trkpt>
      <trkpt lat="49.43058" lon="0.998">
        <ele>98.1</ele>
        <time>2018-09-23T09:10:27Z</time>
      </trkpt>
      <trkpt lat="49.43066" lon="0.99811">
        <ele>98.1</ele>
        <time>2018-09-23T09:10:30Z</time>
      </trkpt>
      <trkpt lat="49.43075" lon="0.99824">
        <ele>98.1</ele>
        <time>2018-09-23T09:10:33Z</time>
      </trkpt>
      <trkpt lat="49.43084" lon="0.99836">
        <ele>97.9</ele>
        <time>2018-09-23T09:10:36Z</time>
      </trkpt>
      <trkpt lat="49.43094" lon="0.99848">
        <ele>97.7</ele>
        <time>2018-09-23T09:10:39Z</time>
      </trkpt>
      <trkpt lat="49.43105" lon="0.99858">
        <ele>97.7</ele>
        <time>2018-09-23T09:10:42Z</time>
      </trkpt>
      <trkpt lat="49.43114" lon="0.99866">
        <ele>97.8</ele>
        <time>2018-09-23T09:10:44Z</time>
      </trkpt>
      <trkpt lat="49.43122" lon="0.99875">
        <ele>97.9</ele>
        <time>2018-09-23T09:10:46Z</time>
      </trkpt>
      <trkpt lat="49.43129" lon="0.99883">
        <ele>97.8</ele>
        <time>2018-09-23T09:10:48Z</time>
      </trkpt>
      <trkpt lat="49.43138" lon="0.99894">
        <ele>98</ele>
        <time>2018-09-23T09:10:51Z</time>
      </trkpt>
      <trkpt lat="49.43144" lon="0.99906">
        <ele>97.8</ele>
        <time>2018-09-23T09:10:54Z</time>
      </trkpt>
      <trkpt lat="49.43154" lon="0.99916">
        <ele>97.7</ele>
        <time>2018-09-23T09:10:57Z</time>
      </trkpt>
      <trkpt lat="49.4316" lon="0.99925">
        <ele>97.7</ele>
        <time>2018-09-23T09:10:59Z</time>
      </trkpt>
      <trkpt lat="49.43172" lon="0.99939">
        <ele>97.7</ele>
        <time>2018-09-23T09:11:02Z</time>
      </trkpt>
      <trkpt lat="49.43181" lon="0.99949">
        <ele>97.6</ele>
        <time>2018-09-23T09:11:04Z</time>
      </trkpt>
      <trkpt lat="49.4319" lon="0.99959">
        <ele>97.5</ele>
        <time>2018-09-23T09:11:06Z</time>
      </trkpt>
      <trkpt lat="49.43198" lon="0.99967">
        <ele>97.5</ele>
        <time>2018-09-23T09:11:08Z</time>
      </trkpt>
      <trkpt lat="49.43205" lon="0.99977">
        <ele>97.5</ele>
        <time>2018-09-23T09:11:10Z</time>
      </trkpt>
      <trkpt lat="49.43214" lon="0.99993">
        <ele>97.6</ele>
        <time>2018-09-23T09:11:13Z</time>
      </trkpt>
      <trkpt lat="49.43221" lon="1.00004">
        <ele>97.5</ele>
        <time>2018-09-23T09:11:15Z</time>
      </trkpt>
      <trkpt lat="49.43229" lon="1.00017">
        <ele>97.5</ele>
        <time>2018-09-23T09:11:18Z</time>
      </trkpt>
      <trkpt lat="49.43237" lon="1.00031">
        <ele>97.6</ele>
        <time>2018-09-23T09:11:21Z</time>
      </trkpt>
      <trkpt lat="49.43248" lon="1.00044">
        <ele>97.6</ele>
        <time>2018-09-23T09:11:24Z</time>
      </trkpt>
      <trkpt lat="49.43255" lon="1.00059">
        <ele>97.7</ele>
        <time>2018-09-23T09:11:27Z</time>
      </trkpt>
      <trkpt lat="49.43266" lon="1.00071">
        <ele>97.8</ele>
        <time>2018-09-23T09:11:30Z</time>
      </trkpt>
      <trkpt lat="49.43272" lon="1.00081">
        <ele>97.4</ele>
        <time>2018-09-23T09:11:32Z</time>
      </trkpt>
      <trkpt lat="49.43278" lon="1.00092">
        <ele>97.3</ele>
        <time>2018-09-23T09:11:34Z</time>
      </trkpt>
      <trkpt lat="49.43287" lon="1.00104">
        <ele>97.5</ele>
        <time>2018-09-23T09:11:36Z</time>
      </trkpt>
      <trkpt lat="49.43293" lon="1.00114">
        <ele>97.5</ele>
        <time>2018-09-23T09:11:38Z</time>
      </trkpt>
      <trkpt lat="49.43303" lon="1.00128">
        <ele>97.4</ele>
        <time>2018-09-23T09:11:41Z</time>
      </trkpt>
      <trkpt lat="49.4331" lon="1.00138">
        <ele>97.3</ele>
        <time>2018-09-23T09:11:43Z</time>
      </trkpt>
      <trkpt lat="49.43318" lon="1.00149">
        <ele>97.4</ele>
        <time>2018-09-23T09:11:45Z</time>
      </trkpt>
      <trkpt lat="49.43327" lon="1.00165">
        <ele>97.3</ele>
        <time>2018-09-23T09:11:48Z</time>
      </trkpt>
      <trkpt lat="49.43334" lon="1.00176">
        <ele>97.2</ele>
        <time>2018-09-23T09:11:51Z</time>
      </trkpt>
      <trkpt lat="49.4334" lon="1.00189">
        <ele>97.1</ele>
        <time>2018-09-23T09:11:54Z</time>
      </trkpt>
      <trkpt lat="49.43347" lon="1.00203">
        <ele>97.2</ele>
        <time>2018-09-23T09:11:57Z</time>
      </trkpt>
      <trkpt lat="49.43358" lon="1.00218">
        <ele>97.4</ele>
        <time>2018-09-23T09:12:00Z</time>
      </trkpt>
      <trkpt lat="49.43369" lon="1.00232">
        <ele>97.4</ele>
        <time>2018-09-23T09:12:03Z</time>
      </trkpt>
      <trkpt lat="49.43379" lon="1.00242">
        <ele>97.5</ele>
        <time>2018-09-23T09:12:05Z</time>
      </trkpt>
      <trkpt lat="49.43388" lon="1.0025">
        <ele>97.6</ele>
        <time>2018-09-23T09:12:07Z</time>
      </trkpt>
      <trkpt lat="49.43397" lon="1.00258">
        <ele>97.7</ele>
        <time>2018-09-23T09:12:09Z</time>
      </trkpt>
      <trkpt lat="49.43404" lon="1.00268">
        <ele>97.9</ele>
        <time>2018-09-23T09:12:11Z</time>
      </trkpt>
      <trkpt lat="49.43412" lon="1.00277">
        <ele>97.9</ele>
        <time>2018-09-23T09:12:13Z</time>
      </trkpt>
      <trkpt lat="49.43421" lon="1.00288">
        <ele>98</ele>
        <time>2018-09-23T09:12:15Z</time>
      </trkpt>
      <trkpt lat="49.43429" lon="1.00296">
        <ele>98.1</ele>
        <time>2018-09-23T09:12:17Z</time>
      </trkpt>
      <trkpt lat="49.43438" lon="1.00309">
        <ele>98.4</ele>
        <time>2018-09-23T09:12:20Z</time>
      </trkpt>
      <trkpt lat="49.43445" lon="1.0032">
        <ele>98.5</ele>
        <time>2018-09-23T09:12:22Z</time>
      </trkpt>
      <trkpt lat="49.43453" lon="1.00334">
        <ele>98.7</ele>
        <time>2018-09-23T09:12:25Z</time>
      </trkpt>
      <trkpt lat="49.43461" lon="1.00345">
        <ele>98.7</ele>
        <time>2018-09-23T09:12:27Z</time>
      </trkpt>
      <trkpt lat="49.4347" lon="1.00359">
        <ele>99</ele>
        <time>2018-09-23T09:12:30Z</time>
      </trkpt>
      <trkpt lat="49.43478" lon="1.00373">
        <ele>99.2</ele>
        <time>2018-09-23T09:12:33Z</time>
      </trkpt>
      <trkpt lat="49.43486" lon="1.00386">
        <ele>99.5</ele>
        <time>2018-09-23T09:12:36Z</time>
      </trkpt>
      <trkpt lat="49.43492" lon="1.004">
        <ele>99.7</ele>
        <time>2018-09-23T09:12:39Z</time>
      </trkpt>
      <trkpt lat="49.435" lon="1.00414">
        <ele>99.4</ele>
        <time>2018-09-23T09:12:42Z</time>
      </trkpt>
      <trkpt lat="49.43507" lon="1.00424">
        <ele>99.5</ele>
        <time>2018-09-23T09:12:44Z</time>
      </trkpt>
      <trkpt lat="49.43516" lon="1.00435">
        <ele>99.5</ele>
        <time>2018-09-23T09:12:46Z</time>
      </trkpt>
      <trkpt lat="49.43527" lon="1.00451">
        <ele>99.8</ele>
        <time>2018-09-23T09:12:49Z</time>
      </trkpt>
      <trkpt lat="49.43534" lon="1.0046">
        <ele>99.9</ele>
        <time>2018-09-23T09:12:51Z</time>
      </trkpt>
      <trkpt lat="49.43542" lon="1.00472">
        <ele>100.2</ele>
        <time>2018-09-23T09:12:54Z</time>
      </trkpt>
      <trkpt lat="49.43552" lon="1.00483">
        <ele>100.6</ele>
        <time>2018-09-23T09:12:57Z</time>
      </trkpt>
      <trkpt lat="49.43563" lon="1.00493">
        <ele>100.7</ele>
        <time>2018-09-23T09:13:00Z</time>
      </trkpt>
      <trkpt lat="49.43572" lon="1.00498">
        <ele>101</ele>
        <time>2018-09-23T09:13:02Z</time>
      </trkpt>
      <trkpt lat="49.43582" lon="1.00499">
        <ele>101.1</ele>
        <time>2018-09-23T09:13:04Z</time>
      </trkpt>
      <trkpt lat="49.43592" lon="1.005">
        <ele>101.1</ele>
        <time>2018-09-23T09:13:06Z</time>
      </trkpt>
      <trkpt lat="49.43602" lon="1.00501">
        <ele>101</ele>
        <time>2018-09-23T09:13:08Z</time>
      </trkpt>
      <trkpt lat="49.43612" lon="1.00502">
        <ele>101.2</ele>
        <time>2018-09-23T09:13:10Z</time>
      </trkpt>
      <trkpt lat="49.43623" lon="1.00503">
        <ele>101.2</ele>
        <time>2018-09-23T09:13:12Z</time>
      </trkpt>
      <trkpt lat="49.43633" lon="1.00504">
        <ele>101.1</ele>
        <time>2018-09-23T09:13:14Z</time>
      </trkpt>
      <trkpt lat="49.43643" lon="1.00504">
        <ele>101</ele>
        <time>2018-09-23T09:13:16Z</time>
      </trkpt>
      <trkpt lat="49.43652" lon="1.00503">
        <ele>100.9</ele>
        <time>2018-09-23T09:13:18Z</time>
      </trkpt>
      <trkpt lat="49.43662" lon="1.00501">
        <ele>100.9</ele>
        <time>2018-09-23T09:13:20Z</time>
      </trkpt>
      <trkpt lat="49.43672" lon="1.00499">
        <ele>100.7</ele>
        <time>2018-09-23T09:13:22Z</time>
      </trkpt>
      <trkpt lat="49.43683" lon="1.00497">
        <ele>100.8</ele>
        <time>2018-09-23T09:13:24Z</time>
      </trkpt>
      <trkpt lat="49.43694" lon="1.00494">
        <ele>100.6</ele>
        <time>2018-09-23T09:13:26Z</time>
      </trkpt>
      <trkpt lat="49.43704" lon="1.00491">
        <ele>100.5</ele>
        <time>2018-09-23T09:13:28Z</time>
      </trkpt>
      <trkpt lat="49.43716" lon="1.00488">
        <ele>100.6</ele>
        <time>2018-09-23T09:13:30Z</time>
      </trkpt>
      <trkpt lat="49.43728" lon="1.00486">
        <ele>100.6</ele>
        <time>2018-09-23T09:13:32Z</time>
      </trkpt>
      <trkpt lat="49.4374" lon="1.00484">
        <ele>100.5</ele>
        <time>2018-09-23T09:13:34Z</time>
      </trkpt>
      <trkpt lat="49.43752" lon="1.0048">
        <ele>100.3</ele>
        <time>2018-09-23T09:13:36Z</time>
      </trkpt>
      <trkpt lat="49.43764" lon="1.00477">
        <ele>100.1</ele>
        <time>2018-09-23T09:13:38Z</time>
      </trkpt>
      <trkpt lat="49.43775" lon="1.00474">
        <ele>100</ele>
        <time>2018-09-23T09:13:40Z</time>
      </trkpt>
      <trkpt lat="49.43786" lon="1.00471">
        <ele>99.8</ele>
        <time>2018-09-23T09:13:42Z</time>
      </trkpt>
      <trkpt lat="49.43799" lon="1.00469">
        <ele>99.7</ele>
        <time>2018-09-23T09:13:44Z</time>
      </trkpt>
      <trkpt lat="49.43813" lon="1.00466">
        <ele>99.6</ele>
        <time>2018-09-23T09:13:46Z</time>
      </trkpt>
      <trkpt lat="49.43826" lon="1.00463">
        <ele>99.6</ele>
        <time>2018-09-23T09:13:48Z</time>
      </trkpt>
      <trkpt lat="49.43838" lon="1.00458">
        <ele>99.2</ele>
        <time>2018-09-23T09:13:50Z</time>
      </trkpt>
      <trkpt lat="49.4385" lon="1.00451">
        <ele>99.2</ele>
        <time>2018-09-23T09:13:52Z</time>
      </trkpt>
      <trkpt lat="49.43861" lon="1.00442">
        <ele>99.2</ele>
        <time>2018-09-23T09:13:54Z</time>
      </trkpt>
      <trkpt lat="49.43872" lon="1.00433">
        <ele>99.2</ele>
        <time>2018-09-23T09:13:56Z</time>
      </trkpt>
      <trkpt lat="49.43884" lon="1.00424">
        <ele>99.1</ele>
        <time>2018-09-23T09:13:58Z</time>
      </trkpt>
      <trkpt lat="49.43895" lon="1.00415">
        <ele>99</ele>
        <time>2018-09-23T09:14:00Z</time>
      </trkpt>
      <trkpt lat="49.43906" lon="1.00406">
        <ele>98.7</ele>
        <time>2018-09-23T09:14:02Z</time>
      </trkpt>
      <trkpt lat="49.43917" lon="1.00397">
        <ele>98.6</ele>
        <time>2018-09-23T09:14:04Z</time>
      </trkpt>
      <trkpt lat="49.43928" lon="1.00388">
        <ele>98.3</ele>
        <time>2018-09-23T09:14:06Z</time>
      </trkpt>
      <trkpt lat="49.43939" lon="1.0038">
        <ele>98.1</ele>
        <time>2018-09-23T09:14:08Z</time>
      </trkpt>
      <trkpt lat="49.43951" lon="1.0037">
        <ele>98.1</ele>
        <time>2018-09-23T09:14:10Z</time>
      </trkpt>
      <trkpt lat="49.43964" lon="1.00361">
        <ele>98</ele>
        <time>2018-09-23T09:14:12Z</time>
      </trkpt>
      <trkpt lat="49.43976" lon="1.00353">
        <ele>97.7</ele>
        <time>2018-09-23T09:14:14Z</time>
      </trkpt>
      <trkpt lat="49.43989" lon="1.00346">
        <ele>97.3</ele>
        <time>2018-09-23T09:14:16Z</time>
      </trkpt>
      <trkpt lat="49.43999" lon="1.00338">
        <ele>97</ele>
        <time>2018-09-23T09:14:18Z</time>
      </trkpt>
      <trkpt lat="49.44007" lon="1.00331">
        <ele>96.3</ele>
        <time>2018-09-23T09:14:21Z</time>
      </trkpt>
      <trkpt lat="49.44013" lon="1.00317">
        <ele>95.3</ele>
        <time>2018-09-23T09:14:25Z</time>
      </trkpt>
      <trkpt lat="49.44022" lon="1.0032">
        <ele>94.6</ele>
        <time>2018-09-23T09:14:29Z</time>
      </trkpt>
      <trkpt lat="49.4403" lon="1.00334">
        <ele>94.1</ele>
        <time>2018-09-23T09:14:32Z</time>
      </trkpt>
      <trkpt lat="49.44037" lon="1.00344">
        <ele>93.9</ele>
        <time>2018-09-23T09:14:34Z</time>
      </trkpt>
      <trkpt lat="49.44044" lon="1.00355">
        <ele>93.7</ele>
        <time>2018-09-23T09:14:36Z</time>
      </trkpt>
      <trkpt lat="49.4405" lon="1.00367">
        <ele>93.6</ele>
        <time>2018-09-23T09:14:38Z</time>
      </trkpt>
      <trkpt lat="49.44057" lon="1.00378">
        <ele>93.4</ele>
        <time>2018-09-23T09:14:40Z</time>
      </trkpt>
      <trkpt lat="49.44066" lon="1.00391">
        <ele>93.1</ele>
        <time>2018-09-23T09:14:43Z</time>
      </trkpt>
      <trkpt lat="49.44075" lon="1.00387">
        <ele>93</ele>
        <time>2018-09-23T09:14:48Z</time>
      </trkpt>
      <trkpt lat="49.44084" lon="1.00382">
        <ele>92.6</ele>
        <time>2018-09-23T09:14:53Z</time>
      </trkpt>
      <trkpt lat="49.44094" lon="1.0038">
        <ele>92.6</ele>
        <time>2018-09-23T09:14:58Z</time>
      </trkpt>
      <trkpt lat="49.44104" lon="1.00378">
        <ele>92.9</ele>
        <time>2018-09-23T09:15:04Z</time>
      </trkpt>
      <trkpt lat="49.44114" lon="1.00377">
        <ele>93.7</ele>
        <time>2018-09-23T09:15:10Z</time>
      </trkpt>
      <trkpt lat="49.44123" lon="1.00372">
        <ele>94.4</ele>
        <time>2018-09-23T09:15:16Z</time>
      </trkpt>
      <trkpt lat="49.44131" lon="1.00367">
        <ele>95</ele>
        <time>2018-09-23T09:15:22Z</time>
      </trkpt>
      <trkpt lat="49.44141" lon="1.00362">
        <ele>95.6</ele>
        <time>2018-09-23T09:15:29Z</time>
      </trkpt>
      <trkpt lat="49.4415" lon="1.0036">
        <ele>96.4</ele>
        <time>2018-09-23T09:15:34Z</time>
      </trkpt>
      <trkpt lat="49.44159" lon="1.00358">
        <ele>97</ele>
        <time>2018-09-23T09:15:40Z</time>
      </trkpt>
      <trkpt lat="49.44169" lon="1.00354">
        <ele>97.5</ele>
        <time>2018-09-23T09:15:46Z</time>
      </trkpt>
      <trkpt lat="49.44178" lon="1.0035">
        <ele>97.7</ele>
        <time>2018-09-23T09:15:51Z</time>
      </trkpt>
      <trkpt lat="49.44188" lon="1.00346">
        <ele>98.2</ele>
        <time>2018-09-23T09:15:56Z</time>
      </trkpt>
      <trkpt lat="49.44199" lon="1.00346">
        <ele>98.6</ele>
        <time>2018-09-23T09:16:00Z</time>
      </trkpt>
      <trkpt lat="49.44209" lon="1.00342">
        <ele>99.1</ele>
        <time>2018-09-23T09:16:05Z</time>
      </trkpt>
      <trkpt lat="49.44218" lon="1.00341">
        <ele>99.5</ele>
        <time>2018-09-23T09:16:09Z</time>
      </trkpt>
      <trkpt lat="49.44227" lon="1.00335">
        <ele>99.9</ele>
        <time>2018-09-23T09:16:13Z</time>
      </trkpt>
      <trkpt lat="49.44235" lon="1.00328">
        <ele>100.2</ele>
        <time>2018-09-23T09:16:17Z</time>
      </trkpt>
      <trkpt lat="49.44244" lon="1.00327">
        <ele>100.4</ele>
        <time>2018-09-23T09:16:20Z</time>
      </trkpt>
      <trkpt lat="49.44253" lon="1.00325">
        <ele>100.5</ele>
        <time>2018-09-23T09:16:23Z</time>
      </trkpt>
      <trkpt lat="49.44264" lon="1.00323">
        <ele>100.5</ele>
        <time>2018-09-23T09:16:26Z</time>
      </trkpt>
      <trkpt lat="49.44273" lon="1.00321">
        <ele>100.5</ele>
        <time>2018-09-23T09:16:29Z</time>
      </trkpt>
      <trkpt lat="49.44284" lon="1.00319">
        <ele>100.7</ele>
        <time>2018-09-23T09:16:32Z</time>
      </trkpt>
      <trkpt lat="49.44295" lon="1.00316">
        <ele>100.9</ele>
        <time>2018-09-23T09:16:35Z</time>
      </trkpt>
      <trkpt lat="49.44305" lon="1.00312">
        <ele>101.4</ele>
        <time>2018-09-23T09:16:40Z</time>
      </trkpt>
      <trkpt lat="49.4431" lon="1.00328">
        <ele>101.6</ele>
        <time>2018-09-23T09:16:54Z</time>
      </trkpt>
      <trkpt lat="49.44306" lon="1.00345">
        <ele>101.6</ele>
        <time>2018-09-23T09:16:58Z</time>
      </trkpt>
      <trkpt lat="49.44302" lon="1.00361">
        <ele>101.5</ele>
        <time>2018-09-23T09:17:02Z</time>
      </trkpt>
      <trkpt lat="49.44304" lon="1.00377">
        <ele>101.3</ele>
        <time>2018-09-23T09:17:07Z</time>
      </trkpt>
      <trkpt lat="49.44299" lon="1.00393">
        <ele>101.4</ele>
        <time>2018-09-23T09:17:13Z</time>
      </trkpt>
      <trkpt lat="49.44297" lon="1.00407">
        <ele>101.3</ele>
        <time>2018-09-23T09:17:20Z</time>
      </trkpt>
      <trkpt lat="49.44299" lon="1.00421">
        <ele>101.3</ele>
        <time>2018-09-23T09:17:27Z</time>
      </trkpt>
      <trkpt lat="49.44305" lon="1.00434">
        <ele>101.4</ele>
        <time>2018-09-23T09:17:33Z</time>
      </trkpt>
      <trkpt lat="49.4431" lon="1.00446">
        <ele>101.7</ele>
        <time>2018-09-23T09:17:47Z</time>
      </trkpt>
      <trkpt lat="49.44315" lon="1.00458">
        <ele>101.1</ele>
        <time>2018-09-23T09:18:05Z</time>
      </trkpt>
      <trkpt lat="49.44324" lon="1.00463">
        <ele>100.7</ele>
        <time>2018-09-23T09:18:13Z</time>
      </trkpt>
      <trkpt lat="49.44332" lon="1.00453">
        <ele>100.3</ele>
        <time>2018-09-23T09:18:18Z</time>
      </trkpt>
      <trkpt lat="49.44342" lon="1.00446">
        <ele>99.8</ele>
        <time>2018-09-23T09:18:23Z</time>
      </trkpt>
      <trkpt lat="49.44344" lon="1.00431">
        <ele>99.6</ele>
        <time>2018-09-23T09:18:28Z</time>
      </trkpt>
      <trkpt lat="49.44347" lon="1.00417">
        <ele>99.9</ele>
        <time>2018-09-23T09:18:48Z</time>
      </trkpt>
      <trkpt lat="49.44354" lon="1.00407">
        <ele>99.5</ele>
        <time>2018-09-23T09:19:01Z</time>
      </trkpt>
      <trkpt lat="49.44361" lon="1.00397">
        <ele>99.2</ele>
        <time>2018-09-23T09:19:15Z</time>
      </trkpt>
      <trkpt lat="49.44367" lon="1.00386">
        <ele>98.9</ele>
        <time>2018-09-23T09:19:28Z</time>
      </trkpt>
      <trkpt lat="49.44361" lon="1.00374">
        <ele>98.8</ele>
        <time>2018-09-23T09:19:40Z</time>
      </trkpt>
      <trkpt lat="49.44354" lon="1.00365">
        <ele>98.5</ele>
        <time>2018-09-23T09:19:51Z</time>
      </trkpt>
      <trkpt lat="49.44349" lon="1.00352">
        <ele>97.7</ele>
        <time>2018-09-23T09:20:08Z</time>
      </trkpt>
      <trkpt lat="49.4435" lon="1.00338">
        <ele>96.9</ele>
        <time>2018-09-23T09:20:25Z</time>
      </trkpt>
      <trkpt lat="49.44358" lon="1.0033">
        <ele>96.6</ele>
        <time>2018-09-23T09:20:31Z</time>
      </trkpt>
      <trkpt lat="49.44367" lon="1.00324">
        <ele>97</ele>
        <time>2018-09-23T09:20:38Z</time>
      </trkpt>
      <trkpt lat="49.44377" lon="1.00323">
        <ele>97.3</ele>
        <time>2018-09-23T09:20:44Z</time>
      </trkpt>
      <trkpt lat="49.44386" lon="1.00316">
        <ele>97.7</ele>
        <time>2018-09-23T09:20:49Z</time>
      </trkpt>
      <trkpt lat="49.44393" lon="1.00306">
        <ele>98</ele>
        <time>2018-09-23T09:20:59Z</time>
      </trkpt>
      <trkpt lat="49.44398" lon="1.00294">
        <ele>98.1</ele>
        <time>2018-09-23T09:21:06Z</time>
      </trkpt>
      <trkpt lat="49.44404" lon="1.00282">
        <ele>98.4</ele>
        <time>2018-09-23T09:21:11Z</time>
      </trkpt>
      <trkpt lat="49.44413" lon="1.00279">
        <ele>98.6</ele>
        <time>2018-09-23T09:21:15Z</time>
      </trkpt>
      <trkpt lat="49.44423" lon="1.00275">
        <ele>98.4</ele>
        <time>2018-09-23T09:21:18Z</time>
      </trkpt>
      <trkpt lat="49.44434" lon="1.00275">
        <ele>98.5</ele>
        <time>2018-09-23T09:21:22Z</time>
      </trkpt>
      <trkpt lat="49.44446" lon="1.00271">
        <ele>98.2</ele>
        <time>2018-09-23T09:21:25Z</time>
      </trkpt>
      <trkpt lat="49.44454" lon="1.00265">
        <ele>98.1</ele>
        <time>2018-09-23T09:21:28Z</time>
      </trkpt>
      <trkpt lat="49.44466" lon="1.00268">
        <ele>98</ele>
        <time>2018-09-23T09:21:32Z</time>
      </trkpt>
      <trkpt lat="49.44475" lon="1.00278">
        <ele>97.8</ele>
        <time>2018-09-23T09:21:37Z</time>
      </trkpt>
      <trkpt lat="49.4448" lon="1.00291">
        <ele>97.6</ele>
        <time>2018-09-23T09:21:42Z</time>
      </trkpt>
      <trkpt lat="49.44483" lon="1.00307">
        <ele>97.9</ele>
        <time>2018-09-23T09:21:46Z</time>
      </trkpt>
      <trkpt lat="49.44484" lon="1.00322">
        <ele>98.1</ele>
        <time>2018-09-23T09:21:49Z</time>
      </trkpt>
      <trkpt lat="49.44483" lon="1.0034">
        <ele>98.3</ele>
        <time>2018-09-23T09:21:53Z</time>
      </trkpt>
      <trkpt lat="49.44485" lon="1.00357">
        <ele>98.2</ele>
        <time>2018-09-23T09:21:56Z</time>
      </trkpt>
      <trkpt lat="49.44487" lon="1.00371">
        <ele>98.5</ele>
        <time>2018-09-23T09:21:59Z</time>
      </trkpt>
      <trkpt lat="49.44489" lon="1.00387">
        <ele>98.9</ele>
        <time>2018-09-23T09:22:03Z</time>
      </trkpt>
      <trkpt lat="49.44488" lon="1.00403">
        <ele>99.1</ele>
        <time>2018-09-23T09:22:06Z</time>
      </trkpt>
      <trkpt lat="49.44488" lon="1.00417">
        <ele>99.3</ele>
        <time>2018-09-23T09:22:09Z</time>
      </trkpt>
      <trkpt lat="49.44489" lon="1.00434">
        <ele>99.8</ele>
        <time>2018-09-23T09:22:13Z</time>
      </trkpt>
      <trkpt lat="49.44488" lon="1.00452">
        <ele>100</ele>
        <time>2018-09-23T09:22:17Z</time>
      </trkpt>
      <trkpt lat="49.44488" lon="1.00466">
        <ele>100.2</ele>
        <time>2018-09-23T09:22:20Z</time>
      </trkpt>
      <trkpt lat="49.44488" lon="1.00484">
        <ele>100.4</ele>
        <time>2018-09-23T09:22:24Z</time>
      </trkpt>
      <trkpt lat="49.44486" lon="1.00498">
        <ele>100.7</ele>
        <time>2018-09-23T09:22:28Z</time>
      </trkpt>
      <trkpt lat="49.4449" lon="1.00514">
        <ele>100.9</ele>
        <time>2018-09-23T09:22:33Z</time>
      </trkpt>
      <trkpt lat="49.44491" lon="1.0053">
        <ele>101.1</ele>
        <time>2018-09-23T09:22:37Z</time>
      </trkpt>
      <trkpt lat="49.44487" lon="1.00546">
        <ele>101.6</ele>
        <time>2018-09-23T09:22:41Z</time>
      </trkpt>
      <trkpt lat="49.44488" lon="1.00561">
        <ele>101.9</ele>
        <time>2018-09-23T09:22:44Z</time>
      </trkpt>
      <trkpt lat="49.44488" lon="1.00576">
        <ele>101.9</ele>
        <time>2018-09-23T09:22:47Z</time>
      </trkpt>
      <trkpt lat="49.44488" lon="1.00593">
        <ele>102.3</ele>
        <time>2018-09-23T09:22:51Z</time>
      </trkpt>
      <trkpt lat="49.44487" lon="1.0061">
        <ele>102.6</ele>
        <time>2018-09-23T09:22:55Z</time>
      </trkpt>
      <trkpt lat="49.44487" lon="1.00625">
        <ele>102.7</ele>
        <time>2018-09-23T09:22:58Z</time>
      </trkpt>
      <trkpt lat="49.44489" lon="1.0064">
        <ele>102.7</ele>
        <time>2018-09-23T09:23:02Z</time>
      </trkpt>
      <trkpt lat="49.44491" lon="1.00654">
        <ele>102.7</ele>
        <time>2018-09-23T09:23:05Z</time>
      </trkpt>
      <trkpt lat="49.44495" lon="1.00672">
        <ele>103</ele>
        <time>2018-09-23T09:23:09Z</time>
      </trkpt>
      <trkpt lat="49.44494" lon="1.00688">
        <ele>103.2</ele>
        <time>2018-09-23T09:23:12Z</time>
      </trkpt>
      <trkpt lat="49.44494" lon="1.00706">
        <ele>103.4</ele>
        <time>2018-09-23T09:23:16Z</time>
      </trkpt>
      <trkpt lat="49.44494" lon="1.0072">
        <ele>103.4</ele>
        <time>2018-09-23T09:23:19Z</time>
      </trkpt>
      <trkpt lat="49.44493" lon="1.00735">
        <ele>103.4</ele>
        <time>2018-09-23T09:23:22Z</time>
      </trkpt>
      <trkpt lat="49.44492" lon="1.00753">
        <ele>103.6</ele>
        <time>2018-09-23T09:23:26Z</time>
      </trkpt>
      <trkpt lat="49.44492" lon="1.00769">
        <ele>103.5</ele>
        <time>2018-09-23T09:23:29Z</time>
      </trkpt>
      <trkpt lat="49.44491" lon="1.00787">
        <ele>103.7</ele>
        <time>2018-09-23T09:23:32Z</time>
      </trkpt>
      <trkpt lat="49.44493" lon="1.00806">
        <ele>103.7</ele>
        <time>2018-09-23T09:23:35Z</time>
      </trkpt>
      <trkpt lat="49.44495" lon="1.0082">
        <ele>103.8</ele>
        <time>2018-09-23T09:23:37Z</time>
      </trkpt>
      <trkpt lat="49.44496" lon="1.00838">
        <ele>103.9</ele>
        <time>2018-09-23T09:23:39Z</time>
      </trkpt>
      <trkpt lat="49.44499" lon="1.00854">
        <ele>103.8</ele>
        <time>2018-09-23T09:23:41Z</time>
      </trkpt>
      <trkpt lat="49.445" lon="1.00871">
        <ele>103.7</ele>
        <time>2018-09-23T09:23:43Z</time>
      </trkpt>
      <trkpt lat="49.445" lon="1.00891">
        <ele>103.8</ele>
        <time>2018-09-23T09:23:46Z</time>
      </trkpt>
      <trkpt lat="49.44498" lon="1.00907">
        <ele>103.8</ele>
        <time>2018-09-23T09:23:48Z</time>
      </trkpt>
      <trkpt lat="49.44495" lon="1.00922">
        <ele>104.2</ele>
        <time>2018-09-23T09:23:50Z</time>
      </trkpt>
      <trkpt lat="49.44495" lon="1.00936">
        <ele>104.4</ele>
        <time>2018-09-23T09:23:52Z</time>
      </trkpt>
      <trkpt lat="49.44493" lon="1.00951">
        <ele>104.6</ele>
        <time>2018-09-23T09:23:54Z</time>
      </trkpt>
      <trkpt lat="49.44493" lon="1.00969">
        <ele>104.7</ele>
        <time>2018-09-23T09:23:57Z</time>
      </trkpt>
      <trkpt lat="49.44492" lon="1.00987">
        <ele>104.5</ele>
        <time>2018-09-23T09:24:00Z</time>
      </trkpt>
      <trkpt lat="49.4449" lon="1.01003">
        <ele>104.2</ele>
        <time>2018-09-23T09:24:03Z</time>
      </trkpt>
      <trkpt lat="49.44488" lon="1.01017">
        <ele>104</ele>
        <time>2018-09-23T09:24:05Z</time>
      </trkpt>
      <trkpt lat="49.44487" lon="1.01032">
        <ele>103.6</ele>
        <time>2018-09-23T09:24:07Z</time>
      </trkpt>
      <trkpt lat="49.44488" lon="1.01047">
        <ele>103.2</ele>
        <time>2018-09-23T09:24:10Z</time>
      </trkpt>
      <trkpt lat="49.44481" lon="1.01062">
        <ele>103.2</ele>
        <time>2018-09-23T09:24:13Z</time>
      </trkpt>
      <trkpt lat="49.44479" lon="1.01078">
        <ele>103.1</ele>
        <time>2018-09-23T09:24:16Z</time>
      </trkpt>
      <trkpt lat="49.44479" lon="1.01094">
        <ele>103.1</ele>
        <time>2018-09-23T09:24:18Z</time>
      </trkpt>
      <trkpt lat="49.44479" lon="1.01114">
        <ele>103.3</ele>
        <time>2018-09-23T09:24:21Z</time>
      </trkpt>
      <trkpt lat="49.44479" lon="1.01135">
        <ele>103.3</ele>
        <time>2018-09-23T09:24:24Z</time>
      </trkpt>
      <trkpt lat="49.44479" lon="1.01149">
        <ele>103.4</ele>
        <time>2018-09-23T09:24:26Z</time>
      </trkpt>
      <trkpt lat="49.44479" lon="1.01163">
        <ele>103.4</ele>
        <time>2018-09-23T09:24:28Z</time>
      </trkpt>
      <trkpt lat="49.44479" lon="1.01182">
        <ele>103.7</ele>
        <time>2018-09-23T09:24:31Z</time>
      </trkpt>
      <trkpt lat="49.4448" lon="1.012">
        <ele>104.1</ele>
        <time>2018-09-23T09:24:34Z</time>
      </trkpt>
      <trkpt lat="49.44483" lon="1.01219">
        <ele>104.4</ele>
        <time>2018-09-23T09:24:37Z</time>
      </trkpt>
      <trkpt lat="49.44492" lon="1.01234">
        <ele>104.8</ele>
        <time>2018-09-23T09:24:40Z</time>
      </trkpt>
      <trkpt lat="49.445" lon="1.01246">
        <ele>104.9</ele>
        <time>2018-09-23T09:24:42Z</time>
      </trkpt>
      <trkpt lat="49.44503" lon="1.01264">
        <ele>105</ele>
        <time>2018-09-23T09:24:45Z</time>
      </trkpt>
      <trkpt lat="49.44505" lon="1.01281">
        <ele>105.1</ele>
        <time>2018-09-23T09:24:48Z</time>
      </trkpt>
      <trkpt lat="49.44514" lon="1.01286">
        <ele>105.2</ele>
        <time>2018-09-23T09:24:52Z</time>
      </trkpt>
      <trkpt lat="49.44522" lon="1.01276">
        <ele>105.7</ele>
        <time>2018-09-23T09:25:01Z</time>
      </trkpt>
      <trkpt lat="49.44526" lon="1.0129">
        <ele>106.6</ele>
        <time>2018-09-23T09:25:08Z</time>
      </trkpt>
      <trkpt lat="49.44529" lon="1.01305">
        <ele>106.8</ele>
        <time>2018-09-23T09:25:14Z</time>
      </trkpt>
      <trkpt lat="49.44532" lon="1.01321">
        <ele>106.9</ele>
        <time>2018-09-23T09:25:19Z</time>
      </trkpt>
      <trkpt lat="49.44535" lon="1.01334">
        <ele>107.3</ele>
        <time>2018-09-23T09:25:24Z</time>
      </trkpt>
      <trkpt lat="49.44536" lon="1.01349">
        <ele>107.5</ele>
        <time>2018-09-23T09:25:28Z</time>
      </trkpt>
      <trkpt lat="49.44537" lon="1.01367">
        <ele>107.7</ele>
        <time>2018-09-23T09:25:33Z</time>
      </trkpt>
      <trkpt lat="49.44539" lon="1.01381">
        <ele>107.7</ele>
        <time>2018-09-23T09:25:37Z</time>
      </trkpt>
      <trkpt lat="49.44539" lon="1.01398">
        <ele>108</ele>
        <time>2018-09-23T09:25:41Z</time>
      </trkpt>
      <trkpt lat="49.44543" lon="1.01414">
        <ele>108.4</ele>
        <time>2018-09-23T09:25:45Z</time>
      </trkpt>
      <trkpt lat="49.44546" lon="1.0143">
        <ele>108.8</ele>
        <time>2018-09-23T09:25:50Z</time>
      </trkpt>
      <trkpt lat="49.44546" lon="1.01447">
        <ele>109.5</ele>
        <time>2018-09-23T09:25:55Z</time>
      </trkpt>
      <trkpt lat="49.44548" lon="1.01462">
        <ele>109.9</ele>
        <time>2018-09-23T09:25:59Z</time>
      </trkpt>
      <trkpt lat="49.44548" lon="1.01477">
        <ele>110.2</ele>
        <time>2018-09-23T09:26:03Z</time>
      </trkpt>
      <trkpt lat="49.44549" lon="1.01491">
        <ele>110.6</ele>
        <time>2018-09-23T09:26:08Z</time>
      </trkpt>
      <trkpt lat="49.44549" lon="1.01508">
        <ele>110.9</ele>
        <time>2018-09-23T09:26:12Z</time>
      </trkpt>
      <trkpt lat="49.44553" lon="1.0152">
        <ele>111.1</ele>
        <time>2018-09-23T09:26:15Z</time>
      </trkpt>
      <trkpt lat="49.44559" lon="1.01535">
        <ele>111.1</ele>
        <time>2018-09-23T09:26:19Z</time>
      </trkpt>
      <trkpt lat="49.44561" lon="1.0155">
        <ele>111.3</ele>
        <time>2018-09-23T09:26:23Z</time>
      </trkpt>
      <trkpt lat="49.44567" lon="1.01564">
        <ele>111.5</ele>
        <time>2018-09-23T09:26:27Z</time>
      </trkpt>
      <trkpt lat="49.44571" lon="1.01577">
        <ele>111.7</ele>
        <time>2018-09-23T09:26:30Z</time>
      </trkpt>
      <trkpt lat="49.44575" lon="1.01593">
        <ele>112.5</ele>
        <time>2018-09-23T09:26:35Z</time>
      </trkpt>
      <trkpt lat="49.44578" lon="1.01608">
        <ele>113</ele>
        <time>2018-09-23T09:26:39Z</time>
      </trkpt>
      <trkpt lat="49.44579" lon="1.01625">
        <ele>113.6</ele>
        <time>2018-09-23T09:26:43Z</time>
      </trkpt>
      <trkpt lat="49.44583" lon="1.01638">
        <ele>113.8</ele>
        <time>2018-09-23T09:26:46Z</time>
      </trkpt>
      <trkpt lat="49.44588" lon="1.0165">
        <ele>114</ele>
        <time>2018-09-23T09:26:50Z</time>
      </trkpt>
      <trkpt lat="49.44594" lon="1.01664">
        <ele>114.4</ele>
        <time>2018-09-23T09:26:54Z</time>
      </trkpt>
      <trkpt lat="49.44598" lon="1.0168">
        <ele>114.8</ele>
        <time>2018-09-23T09:26:58Z</time>
      </trkpt>
      <trkpt lat="49.44601" lon="1.01698">
        <ele>115.4</ele>
        <time>2018-09-23T09:27:03Z</time>
      </trkpt>
      <trkpt lat="49.44601" lon="1.01714">
        <ele>115.8</ele>
        <time>2018-09-23T09:27:06Z</time>
      </trkpt>
      <trkpt lat="49.44604" lon="1.01731">
        <ele>116.2</ele>
        <time>2018-09-23T09:27:10Z</time>
      </trkpt>
      <trkpt lat="49.4461" lon="1.01742">
        <ele>116.4</ele>
        <time>2018-09-23T09:27:13Z</time>
      </trkpt>
      <trkpt lat="49.44614" lon="1.01757">
        <ele>116.8</ele>
        <time>2018-09-23T09:27:17Z</time>
      </trkpt>
      <trkpt lat="49.44617" lon="1.0177">
        <ele>117.1</ele>
        <time>2018-09-23T09:27:20Z</time>
      </trkpt>
      <trkpt lat="49.4462" lon="1.01784">
        <ele>117.3</ele>
        <time>2018-09-23T09:27:23Z</time>
      </trkpt>
      <trkpt lat="49.44623" lon="1.018">
        <ele>117.5</ele>
        <time>2018-09-23T09:27:26Z</time>
      </trkpt>
      <trkpt lat="49.44627" lon="1.01813">
        <ele>117.7</ele>
        <time>2018-09-23T09:27:30Z</time>
      </trkpt>
      <trkpt lat="49.44629" lon="1.01829">
        <ele>118.3</ele>
        <time>2018-09-23T09:27:34Z</time>
      </trkpt>
      <trkpt lat="49.44633" lon="1.01843">
        <ele>118.8</ele>
        <time>2018-09-23T09:27:38Z</time>
      </trkpt>
      <trkpt lat="49.44636" lon="1.01859">
        <ele>119.2</ele>
        <time>2018-09-23T09:27:41Z</time>
      </trkpt>
      <trkpt lat="49.4464" lon="1.01873">
        <ele>119.6</ele>
        <time>2018-09-23T09:27:44Z</time>
      </trkpt>
      <trkpt lat="49.44646" lon="1.01884">
        <ele>119.8</ele>
        <time>2018-09-23T09:27:47Z</time>
      </trkpt>
      <trkpt lat="49.4465" lon="1.019">
        <ele>120.1</ele>
        <time>2018-09-23T09:27:51Z</time>
      </trkpt>
      <trkpt lat="49.44655" lon="1.01918">
        <ele>120.5</ele>
        <time>2018-09-23T09:27:55Z</time>
      </trkpt>
      <trkpt lat="49.44658" lon="1.01934">
        <ele>120.7</ele>
        <time>2018-09-23T09:27:58Z</time>
      </trkpt>
      <trkpt lat="49.44664" lon="1.01948">
        <ele>120.9</ele>
        <time>2018-09-23T09:28:02Z</time>
      </trkpt>
      <trkpt lat="49.44669" lon="1.01959">
        <ele>120.9</ele>
        <time>2018-09-23T09:28:05Z</time>
      </trkpt>
      <trkpt lat="49.44672" lon="1.01973">
        <ele>121.2</ele>
        <time>2018-09-23T09:28:08Z</time>
      </trkpt>
      <trkpt lat="49.44677" lon="1.01984">
        <ele>121.3</ele>
        <time>2018-09-23T09:28:11Z</time>
      </trkpt>
      <trkpt lat="49.44684" lon="1.01994">
        <ele>121.6</ele>
        <time>2018-09-23T09:28:15Z</time>
      </trkpt>
      <trkpt lat="49.44693" lon="1.02001">
        <ele>121.9</ele>
        <time>2018-09-23T09:28:19Z</time>
      </trkpt>
      <trkpt lat="49.44701" lon="1.01991">
        <ele>122.5</ele>
        <time>2018-09-23T09:28:26Z</time>
      </trkpt>
      <trkpt lat="49.44712" lon="1.01989">
        <ele>122.7</ele>
        <time>2018-09-23T09:28:30Z</time>
      </trkpt>
      <trkpt lat="49.44721" lon="1.01983">
        <ele>122.7</ele>
        <time>2018-09-23T09:28:34Z</time>
      </trkpt>
      <trkpt lat="49.44729" lon="1.01976">
        <ele>122.9</ele>
        <time>2018-09-23T09:28:38Z</time>
      </trkpt>
      <trkpt lat="49.44739" lon="1.0198">
        <ele>123.1</ele>
        <time>2018-09-23T09:28:42Z</time>
      </trkpt>
      <trkpt lat="49.44748" lon="1.01979">
        <ele>123.2</ele>
        <time>2018-09-23T09:28:45Z</time>
      </trkpt>
      <trkpt lat="49.44758" lon="1.01972">
        <ele>123.2</ele>
        <time>2018-09-23T09:28:48Z</time>
      </trkpt>
      <trkpt lat="49.44768" lon="1.01967">
        <ele>123.3</ele>
        <time>2018-09-23T09:28:50Z</time>
      </trkpt>
      <trkpt lat="49.4478" lon="1.0196">
        <ele>123.4</ele>
        <time>2018-09-23T09:28:53Z</time>
      </trkpt>
      <trkpt lat="49.4479" lon="1.0195">
        <ele>123.1</ele>
        <time>2018-09-23T09:28:56Z</time>
      </trkpt>
      <trkpt lat="49.44799" lon="1.0194">
        <ele>123.1</ele>
        <time>2018-09-23T09:28:59Z</time>
      </trkpt>
      <trkpt lat="49.44807" lon="1.01929">
        <ele>123.3</ele>
        <time>2018-09-23T09:29:02Z</time>
      </trkpt>
      <trkpt lat="49.44816" lon="1.0192">
        <ele>123.4</ele>
        <time>2018-09-23T09:29:05Z</time>
      </trkpt>
      <trkpt lat="49.44824" lon="1.01909">
        <ele>123.7</ele>
        <time>2018-09-23T09:29:08Z</time>
      </trkpt>
      <trkpt lat="49.44832" lon="1.01897">
        <ele>124.1</ele>
        <time>2018-09-23T09:29:11Z</time>
      </trkpt>
      <trkpt lat="49.4484" lon="1.01886">
        <ele>124.3</ele>
        <time>2018-09-23T09:29:14Z</time>
      </trkpt>
      <trkpt lat="49.44849" lon="1.01875">
        <ele>124.6</ele>
        <time>2018-09-23T09:29:18Z</time>
      </trkpt>
      <trkpt lat="49.44859" lon="1.01863">
        <ele>124.8</ele>
        <time>2018-09-23T09:29:21Z</time>
      </trkpt>
      <trkpt lat="49.44867" lon="1.01854">
        <ele>125.1</ele>
        <time>2018-09-23T09:29:24Z</time>
      </trkpt>
      <trkpt lat="49.44877" lon="1.01845">
        <ele>125.1</ele>
        <time>2018-09-23T09:29:27Z</time>
      </trkpt>
      <trkpt lat="49.44887" lon="1.01835">
        <ele>125.1</ele>
        <time>2018-09-23T09:29:30Z</time>
      </trkpt>
      <trkpt lat="49.44894" lon="1.01825">
        <ele>125.3</ele>
        <time>2018-09-23T09:29:33Z</time>
      </trkpt>
      <trkpt lat="49.44903" lon="1.01815">
        <ele>125.3</ele>
        <time>2018-09-23T09:29:36Z</time>
      </trkpt>
      <trkpt lat="49.44914" lon="1.01805">
        <ele>125.7</ele>
        <time>2018-09-23T09:29:39Z</time>
      </trkpt>
      <trkpt lat="49.44924" lon="1.01792">
        <ele>125.7</ele>
        <time>2018-09-23T09:29:42Z</time>
      </trkpt>
      <trkpt lat="49.44931" lon="1.01782">
        <ele>125.8</ele>
        <time>2018-09-23T09:29:44Z</time>
      </trkpt>
      <trkpt lat="49.44941" lon="1.01772">
        <ele>125.9</ele>
        <time>2018-09-23T09:29:46Z</time>
      </trkpt>
      <trkpt lat="49.44948" lon="1.01762">
        <ele>126.1</ele>
        <time>2018-09-23T09:29:48Z</time>
      </trkpt>
      <trkpt lat="49.44957" lon="1.01754">
        <ele>126.1</ele>
        <time>2018-09-23T09:29:50Z</time>
      </trkpt>
      <trkpt lat="49.44965" lon="1.01746">
        <ele>126.1</ele>
        <time>2018-09-23T09:29:52Z</time>
      </trkpt>
      <trkpt lat="49.44973" lon="1.01733">
        <ele>126.2</ele>
        <time>2018-09-23T09:29:55Z</time>
      </trkpt>
      <trkpt lat="49.44985" lon="1.0172">
        <ele>126</ele>
        <time>2018-09-23T09:29:58Z</time>
      </trkpt>
      <trkpt lat="49.44996" lon="1.01709">
        <ele>125.9</ele>
        <time>2018-09-23T09:30:01Z</time>
      </trkpt>
      <trkpt lat="49.45005" lon="1.01698">
        <ele>126.2</ele>
        <time>2018-09-23T09:30:04Z</time>
      </trkpt>
      <trkpt lat="49.45015" lon="1.01687">
        <ele>126.3</ele>
        <time>2018-09-23T09:30:07Z</time>
      </trkpt>
      <trkpt lat="49.45024" lon="1.01678">
        <ele>126.1</ele>
        <time>2018-09-23T09:30:10Z</time>
      </trkpt>
      <trkpt lat="49.45035" lon="1.01667">
        <ele>126.1</ele>
        <time>2018-09-23T09:30:13Z</time>
      </trkpt>
      <trkpt lat="49.45043" lon="1.01657">
        <ele>126.2</ele>
        <time>2018-09-23T09:30:15Z</time>
      </trkpt>
      <trkpt lat="49.45051" lon="1.01647">
        <ele>126.1</ele>
        <time>2018-09-23T09:30:17Z</time>
      </trkpt>
      <trkpt lat="49.45059" lon="1.01637">
        <ele>126.1</ele>
        <time>2018-09-23T09:30:19Z</time>
      </trkpt>
      <trkpt lat="49.45066" lon="1.01621">
        <ele>126</ele>
        <time>2018-09-23T09:30:22Z</time>
      </trkpt>
      <trkpt lat="49.45071" lon="1.01609">
        <ele>126</ele>
        <time>2018-09-23T09:30:24Z</time>
      </trkpt>
      <trkpt lat="49.45074" lon="1.01595">
        <ele>126.1</ele>
        <time>2018-09-23T09:30:26Z</time>
      </trkpt>
      <trkpt lat="49.45076" lon="1.01579">
        <ele>126.1</ele>
        <time>2018-09-23T09:30:28Z</time>
      </trkpt>
      <trkpt lat="49.45076" lon="1.01563">
        <ele>126</ele>
        <time>2018-09-23T09:30:30Z</time>
      </trkpt>
      <trkpt lat="49.45077" lon="1.01547">
        <ele>125.8</ele>
        <time>2018-09-23T09:30:32Z</time>
      </trkpt>
      <trkpt lat="49.45079" lon="1.0153">
        <ele>125.7</ele>
        <time>2018-09-23T09:30:34Z</time>
      </trkpt>
      <trkpt lat="49.4508" lon="1.01515">
        <ele>125.7</ele>
        <time>2018-09-23T09:30:36Z</time>
      </trkpt>
      <trkpt lat="49.4508" lon="1.015">
        <ele>125.7</ele>
        <time>2018-09-23T09:30:38Z</time>
      </trkpt>
      <trkpt lat="49.45082" lon="1.01483">
        <ele>125.5</ele>
        <time>2018-09-23T09:30:41Z</time>
      </trkpt>
      <trkpt lat="49.45086" lon="1.0147">
        <ele>125.7</ele>
        <time>2018-09-23T09:30:44Z</time>
      </trkpt>
      <trkpt lat="49.4509" lon="1.01455">
        <ele>125.4</ele>
        <time>2018-09-23T09:30:49Z</time>
      </trkpt>
      <trkpt lat="49.45091" lon="1.01439">
        <ele>124.7</ele>
        <time>2018-09-23T09:30:54Z</time>
      </trkpt>
      <trkpt lat="49.45092" lon="1.01422">
        <ele>124.5</ele>
        <time>2018-09-23T09:30:59Z</time>
      </trkpt>
      <trkpt lat="49.45094" lon="1.01405">
        <ele>124.5</ele>
        <time>2018-09-23T09:31:02Z</time>
      </trkpt>
      <trkpt lat="49.45096" lon="1.01391">
        <ele>124.7</ele>
        <time>2018-09-23T09:31:05Z</time>
      </trkpt>
      <trkpt lat="49.45101" lon="1.01375">
        <ele>124.7</ele>
        <time>2018-09-23T09:31:08Z</time>
      </trkpt>
      <trkpt lat="49.45104" lon="1.01361">
        <ele>124.6</ele>
        <time>2018-09-23T09:31:10Z</time>
      </trkpt>
      <trkpt lat="49.45105" lon="1.01346">
        <ele>124.5</ele>
        <time>2018-09-23T09:31:12Z</time>
      </trkpt>
      <trkpt lat="49.45104" lon="1.01328">
        <ele>124.7</ele>
        <time>2018-09-23T09:31:15Z</time>
      </trkpt>
      <trkpt lat="49.45105" lon="1.01308">
        <ele>124.8</ele>
        <time>2018-09-23T09:31:18Z</time>
      </trkpt>
      <trkpt lat="49.45105" lon="1.01292">
        <ele>124.8</ele>
        <time>2018-09-23T09:31:20Z</time>
      </trkpt>
      <trkpt lat="49.45106" lon="1.01278">
        <ele>124.7</ele>
        <time>2018-09-23T09:31:22Z</time>
      </trkpt>
      <trkpt lat="49.45105" lon="1.01264">
        <ele>124.6</ele>
        <time>2018-09-23T09:31:24Z</time>
      </trkpt>
      <trkpt lat="49.45109" lon="1.01244">
        <ele>124.6</ele>
        <time>2018-09-23T09:31:27Z</time>
      </trkpt>
      <trkpt lat="49.45111" lon="1.01229">
        <ele>124.4</ele>
        <time>2018-09-23T09:31:29Z</time>
      </trkpt>
      <trkpt lat="49.45109" lon="1.01214">
        <ele>124.5</ele>
        <time>2018-09-23T09:31:31Z</time>
      </trkpt>
      <trkpt lat="49.45109" lon="1.01198">
        <ele>124.5</ele>
        <time>2018-09-23T09:31:33Z</time>
      </trkpt>
      <trkpt lat="49.4511" lon="1.01182">
        <ele>124</ele>
        <time>2018-09-23T09:31:35Z</time>
      </trkpt>
      <trkpt lat="49.45108" lon="1.01167">
        <ele>123.5</ele>
        <time>2018-09-23T09:31:37Z</time>
      </trkpt>
      <trkpt lat="49.45106" lon="1.01153">
        <ele>123.3</ele>
        <time>2018-09-23T09:31:39Z</time>
      </trkpt>
      <trkpt lat="49.45107" lon="1.01133">
        <ele>122.7</ele>
        <time>2018-09-23T09:31:42Z</time>
      </trkpt>
      <trkpt lat="49.45109" lon="1.01114">
        <ele>122.7</ele>
        <time>2018-09-23T09:31:44Z</time>
      </trkpt>
      <trkpt lat="49.4511" lon="1.0109">
        <ele>122.6</ele>
        <time>2018-09-23T09:31:46Z</time>
      </trkpt>
      <trkpt lat="49.45113" lon="1.01071">
        <ele>122.4</ele>
        <time>2018-09-23T09:31:48Z</time>
      </trkpt>
      <trkpt lat="49.45112" lon="1.01052">
        <ele>122.2</ele>
        <time>2018-09-23T09:31:50Z</time>
      </trkpt>
      <trkpt lat="49.45111" lon="1.01032">
        <ele>121.4</ele>
        <time>2018-09-23T09:31:53Z</time>
      </trkpt>
      <trkpt lat="49.45109" lon="1.01016">
        <ele>121</ele>
        <time>2018-09-23T09:31:55Z</time>
      </trkpt>
      <trkpt lat="49.45109" lon="1.01">
        <ele>120.7</ele>
        <time>2018-09-23T09:31:57Z</time>
      </trkpt>
      <trkpt lat="49.4511" lon="1.00982">
        <ele>119.6</ele>
        <time>2018-09-23T09:32:00Z</time>
      </trkpt>
      <trkpt lat="49.4511" lon="1.00964">
        <ele>119.1</ele>
        <time>2018-09-23T09:32:03Z</time>
      </trkpt>
      <trkpt lat="49.45106" lon="1.00944">
        <ele>118.6</ele>
        <time>2018-09-23T09:32:06Z</time>
      </trkpt>
      <trkpt lat="49.45105" lon="1.00925">
        <ele>117.9</ele>
        <time>2018-09-23T09:32:09Z</time>
      </trkpt>
      <trkpt lat="49.45105" lon="1.0091">
        <ele>117.6</ele>
        <time>2018-09-23T09:32:11Z</time>
      </trkpt>
      <trkpt lat="49.45104" lon="1.00892">
        <ele>116.9</ele>
        <time>2018-09-23T09:32:14Z</time>
      </trkpt>
      <trkpt lat="49.45103" lon="1.00875">
        <ele>115.7</ele>
        <time>2018-09-23T09:32:18Z</time>
      </trkpt>
      <trkpt lat="49.45103" lon="1.00861">
        <ele>114.7</ele>
        <time>2018-09-23T09:32:21Z</time>
      </trkpt>
      <trkpt lat="49.45102" lon="1.00846">
        <ele>113.6</ele>
        <time>2018-09-23T09:32:25Z</time>
      </trkpt>
      <trkpt lat="49.45104" lon="1.00831">
        <ele>112.7</ele>
        <time>2018-09-23T09:32:30Z</time>
      </trkpt>
      <trkpt lat="49.45104" lon="1.00817">
        <ele>111.7</ele>
        <time>2018-09-23T09:32:34Z</time>
      </trkpt>
      <trkpt lat="49.45104" lon="1.00803">
        <ele>111</ele>
        <time>2018-09-23T09:32:38Z</time>
      </trkpt>
      <trkpt lat="49.45109" lon="1.0079">
        <ele>110.5</ele>
        <time>2018-09-23T09:32:42Z</time>
      </trkpt>
      <trkpt lat="49.45118" lon="1.00787">
        <ele>110.2</ele>
        <time>2018-09-23T09:32:48Z</time>
      </trkpt>
      <trkpt lat="49.45127" lon="1.00782">
        <ele>109.7</ele>
        <time>2018-09-23T09:32:54Z</time>
      </trkpt>
      <trkpt lat="49.45137" lon="1.0078">
        <ele>110</ele>
        <time>2018-09-23T09:33:00Z</time>
      </trkpt>
      <trkpt lat="49.45147" lon="1.00779">
        <ele>110.4</ele>
        <time>2018-09-23T09:33:06Z</time>
      </trkpt>
      <trkpt lat="49.45157" lon="1.00779">
        <ele>110.8</ele>
        <time>2018-09-23T09:33:11Z</time>
      </trkpt>
      <trkpt lat="49.45165" lon="1.00773">
        <ele>111.4</ele>
        <time>2018-09-23T09:33:17Z</time>
      </trkpt>
      <trkpt lat="49.45172" lon="1.00759">
        <ele>111.9</ele>
        <time>2018-09-23T09:33:22Z</time>
      </trkpt>
      <trkpt lat="49.45178" lon="1.00748">
        <ele>112.1</ele>
        <time>2018-09-23T09:33:26Z</time>
      </trkpt>
      <trkpt lat="49.45181" lon="1.00731">
        <ele>112.5</ele>
        <time>2018-09-23T09:33:31Z</time>
      </trkpt>
      <trkpt lat="49.45186" lon="1.00714">
        <ele>112.7</ele>
        <time>2018-09-23T09:33:35Z</time>
      </trkpt>
      <trkpt lat="49.4519" lon="1.007">
        <ele>112.7</ele>
        <time>2018-09-23T09:33:38Z</time>
      </trkpt>
      <trkpt lat="49.45191" lon="1.00685">
        <ele>112.9</ele>
        <time>2018-09-23T09:33:41Z</time>
      </trkpt>
      <trkpt lat="49.45193" lon="1.00668">
        <ele>112.8</ele>
        <time>2018-09-23T09:33:45Z</time>
      </trkpt>
      <trkpt lat="49.45196" lon="1.00651">
        <ele>112.9</ele>
        <time>2018-09-23T09:33:48Z</time>
      </trkpt>
      <trkpt lat="49.452" lon="1.00634">
        <ele>113.2</ele>
        <time>2018-09-23T09:33:51Z</time>
      </trkpt>
      <trkpt lat="49.45201" lon="1.00619">
        <ele>113.3</ele>
        <time>2018-09-23T09:33:54Z</time>
      </trkpt>
      <trkpt lat="49.45203" lon="1.00602">
        <ele>113.3</ele>
        <time>2018-09-23T09:33:57Z</time>
      </trkpt>
      <trkpt lat="49.45204" lon="1.00584">
        <ele>113.5</ele>
        <time>2018-09-23T09:34:00Z</time>
      </trkpt>
      <trkpt lat="49.45205" lon="1.00566">
        <ele>113.5</ele>
        <time>2018-09-23T09:34:03Z</time>
      </trkpt>
      <trkpt lat="49.45206" lon="1.00547">
        <ele>113.4</ele>
        <time>2018-09-23T09:34:06Z</time>
      </trkpt>
      <trkpt lat="49.45208" lon="1.00531">
        <ele>113.4</ele>
        <time>2018-09-23T09:34:09Z</time>
      </trkpt>
      <trkpt lat="49.4521" lon="1.00515">
        <ele>113.7</ele>
        <time>2018-09-23T09:34:12Z</time>
      </trkpt>
      <trkpt lat="49.45209" lon="1.00497">
        <ele>113.8</ele>
        <time>2018-09-23T09:34:15Z</time>
      </trkpt>
      <trkpt lat="49.45209" lon="1.00481">
        <ele>113.6</ele>
        <time>2018-09-23T09:34:18Z</time>
      </trkpt>
      <trkpt lat="49.4521" lon="1.00465">
        <ele>113.7</ele>
        <time>2018-09-23T09:34:21Z</time>
      </trkpt>
      <trkpt lat="49.45211" lon="1.00447">
        <ele>113.6</ele>
        <time>2018-09-23T09:34:24Z</time>
      </trkpt>
      <trkpt lat="49.45212" lon="1.00427">
        <ele>113.6</ele>
        <time>2018-09-23T09:34:27Z</time>
      </trkpt>
      <trkpt lat="49.45213" lon="1.00409">
        <ele>113.7</ele>
        <time>2018-09-23T09:34:30Z</time>
      </trkpt>
      <trkpt lat="49.45224" lon="1.00411">
        <ele>113.6</ele>
        <time>2018-09-23T09:34:38Z</time>
      </trkpt>
      <trkpt lat="49.45231" lon="1.00423">
        <ele>113.3</ele>
        <time>2018-09-23T09:34:42Z</time>
      </trkpt>
      <trkpt lat="49.45239" lon="1.00435">
        <ele>112.2</ele>
        <time>2018-09-23T09:34:46Z</time>
      </trkpt>
      <trkpt lat="49.45247" lon="1.00446">
        <ele>112.6</ele>
        <time>2018-09-23T09:34:50Z</time>
      </trkpt>
      <trkpt lat="49.45254" lon="1.00458">
        <ele>112.9</ele>
        <time>2018-09-23T09:34:54Z</time>
      </trkpt>
      <trkpt lat="49.45262" lon="1.0047">
        <ele>113.1</ele>
        <time>2018-09-23T09:34:58Z</time>
      </trkpt>
      <trkpt lat="49.45269" lon="1.00479">
        <ele>113.4</ele>
        <time>2018-09-23T09:35:01Z</time>
      </trkpt>
      <trkpt lat="49.45277" lon="1.00493">
        <ele>113.7</ele>
        <time>2018-09-23T09:35:05Z</time>
      </trkpt>
      <trkpt lat="49.45285" lon="1.00504">
        <ele>114</ele>
        <time>2018-09-23T09:35:08Z</time>
      </trkpt>
      <trkpt lat="49.45292" lon="1.00515">
        <ele>114.3</ele>
        <time>2018-09-23T09:35:11Z</time>
      </trkpt>
      <trkpt lat="49.453" lon="1.00527">
        <ele>114.7</ele>
        <time>2018-09-23T09:35:15Z</time>
      </trkpt>
      <trkpt lat="49.45308" lon="1.00537">
        <ele>115</ele>
        <time>2018-09-23T09:35:18Z</time>
      </trkpt>
      <trkpt lat="49.45316" lon="1.00546">
        <ele>115.3</ele>
        <time>2018-09-23T09:35:21Z</time>
      </trkpt>
      <trkpt lat="49.45323" lon="1.00557">
        <ele>115.7</ele>
        <time>2018-09-23T09:35:24Z</time>
      </trkpt>
      <trkpt lat="49.45331" lon="1.00566">
        <ele>116.2</ele>
        <time>2018-09-23T09:35:27Z</time>
      </trkpt>
      <trkpt lat="49.45338" lon="1.00577">
        <ele>116.6</ele>
        <time>2018-09-23T09:35:30Z</time>
      </trkpt>
      <trkpt lat="49.45345" lon="1.00588">
        <ele>116.9</ele>
        <time>2018-09-23T09:35:33Z</time>
      </trkpt>
      <trkpt lat="49.45353" lon="1.00598">
        <ele>117.3</ele>
        <time>2018-09-23T09:35:36Z</time>
      </trkpt>
      <trkpt lat="49.45361" lon="1.00607">
        <ele>117.7</ele>
        <time>2018-09-23T09:35:39Z</time>
      </trkpt>
      <trkpt lat="49.45368" lon="1.00618">
        <ele>117.9</ele>
        <time>2018-09-23T09:35:42Z</time>
      </trkpt>
      <trkpt lat="49.45375" lon="1.00629">
        <ele>118.3</ele>
        <time>2018-09-23T09:35:45Z</time>
      </trkpt>
      <trkpt lat="49.45382" lon="1.00642">
        <ele>118.8</ele>
        <time>2018-09-23T09:35:48Z</time>
      </trkpt>
      <trkpt lat="49.45388" lon="1.00653">
        <ele>119.1</ele>
        <time>2018-09-23T09:35:51Z</time>
      </trkpt>
      <trkpt lat="49.45392" lon="1.00665">
        <ele>119.2</ele>
        <time>2018-09-23T09:35:54Z</time>
      </trkpt>
      <trkpt lat="49.45401" lon="1.00678">
        <ele>119.9</ele>
        <time>2018-09-23T09:35:57Z</time>
      </trkpt>
      <trkpt lat="49.45407" lon="1.00692">
        <ele>120</ele>
        <time>2018-09-23T09:36:00Z</time>
      </trkpt>
      <trkpt lat="49.45414" lon="1.00705">
        <ele>120.1</ele>
        <time>2018-09-23T09:36:03Z</time>
      </trkpt>
      <trkpt lat="49.45421" lon="1.00715">
        <ele>120.2</ele>
        <time>2018-09-23T09:36:05Z</time>
      </trkpt>
      <trkpt lat="49.45431" lon="1.0073">
        <ele>120.3</ele>
        <time>2018-09-23T09:36:08Z</time>
      </trkpt>
      <trkpt lat="49.45436" lon="1.00741">
        <ele>120.5</ele>
        <time>2018-09-23T09:36:10Z</time>
      </trkpt>
      <trkpt lat="49.45444" lon="1.00756">
        <ele>120.9</ele>
        <time>2018-09-23T09:36:13Z</time>
      </trkpt>
      <trkpt lat="49.45452" lon="1.00769">
        <ele>121</ele>
        <time>2018-09-23T09:36:16Z</time>
      </trkpt>
      <trkpt lat="49.45462" lon="1.00782">
        <ele>120.7</ele>
        <time>2018-09-23T09:36:20Z</time>
      </trkpt>
      <trkpt lat="49.45472" lon="1.00793">
        <ele>120.4</ele>
        <time>2018-09-23T09:36:23Z</time>
      </trkpt>
      <trkpt lat="49.45479" lon="1.00804">
        <ele>120.1</ele>
        <time>2018-09-23T09:36:27Z</time>
      </trkpt>
      <trkpt lat="49.45488" lon="1.00812">
        <ele>119.4</ele>
        <time>2018-09-23T09:36:33Z</time>
      </trkpt>
      <trkpt lat="49.45496" lon="1.00822">
        <ele>118.8</ele>
        <time>2018-09-23T09:36:38Z</time>
      </trkpt>
      <trkpt lat="49.45507" lon="1.00825">
        <ele>118.5</ele>
        <time>2018-09-23T09:36:40Z</time>
      </trkpt>
      <trkpt lat="49.45514" lon="1.00836">
        <ele>117.8</ele>
        <time>2018-09-23T09:36:42Z</time>
      </trkpt>
      <trkpt lat="49.45514" lon="1.00856">
        <ele>117.1</ele>
        <time>2018-09-23T09:36:45Z</time>
      </trkpt>
      <trkpt lat="49.45512" lon="1.00871">
        <ele>116.8</ele>
        <time>2018-09-23T09:36:47Z</time>
      </trkpt>
      <trkpt lat="49.45509" lon="1.00889">
        <ele>116.2</ele>
        <time>2018-09-23T09:36:50Z</time>
      </trkpt>
      <trkpt lat="49.45508" lon="1.00905">
        <ele>115.8</ele>
        <time>2018-09-23T09:36:53Z</time>
      </trkpt>
      <trkpt lat="49.45512" lon="1.00919">
        <ele>115.7</ele>
        <time>2018-09-23T09:36:56Z</time>
      </trkpt>
      <trkpt lat="49.45518" lon="1.00932">
        <ele>115.8</ele>
        <time>2018-09-23T09:36:59Z</time>
      </trkpt>
      <trkpt lat="49.45522" lon="1.00946">
        <ele>115.8</ele>
        <time>2018-09-23T09:37:02Z</time>
      </trkpt>
      <trkpt lat="49.45529" lon="1.0096">
        <ele>116</ele>
        <time>2018-09-23T09:37:06Z</time>
      </trkpt>
      <trkpt lat="49.45535" lon="1.00974">
        <ele>116.3</ele>
        <time>2018-09-23T09:37:10Z</time>
      </trkpt>
      <trkpt lat="49.45541" lon="1.00986">
        <ele>116.7</ele>
        <time>2018-09-23T09:37:14Z</time>
      </trkpt>
      <trkpt lat="49.45551" lon="1.00996">
        <ele>116.9</ele>
        <time>2018-09-23T09:37:17Z</time>
      </trkpt>
      <trkpt lat="49.45559" lon="1.01004">
        <ele>117.1</ele>
        <time>2018-09-23T09:37:21Z</time>
      </trkpt>
      <trkpt lat="49.45569" lon="1.01011">
        <ele>117.5</ele>
        <time>2018-09-23T09:37:24Z</time>
      </trkpt>
      <trkpt lat="49.45579" lon="1.01016">
        <ele>117.9</ele>
        <time>2018-09-23T09:37:28Z</time>
      </trkpt>
      <trkpt lat="49.4559" lon="1.01022">
        <ele>118.8</ele>
        <time>2018-09-23T09:37:34Z</time>
      </trkpt>
      <trkpt lat="49.45599" lon="1.01028">
        <ele>119.2</ele>
        <time>2018-09-23T09:37:39Z</time>
      </trkpt>
      <trkpt lat="49.45608" lon="1.01036">
        <ele>119.5</ele>
        <time>2018-09-23T09:37:43Z</time>
      </trkpt>
      <trkpt lat="49.45616" lon="1.01046">
        <ele>120.1</ele>
        <time>2018-09-23T09:37:47Z</time>
      </trkpt>
      <trkpt lat="49.45624" lon="1.0106">
        <ele>120.5</ele>
        <time>2018-09-23T09:37:51Z</time>
      </trkpt>
      <trkpt lat="49.45632" lon="1.01071">
        <ele>120.9</ele>
        <time>2018-09-23T09:37:55Z</time>
      </trkpt>
      <trkpt lat="49.4564" lon="1.0108">
        <ele>121</ele>
        <time>2018-09-23T09:37:58Z</time>
      </trkpt>
      <trkpt lat="49.45648" lon="1.0109">
        <ele>121.4</ele>
        <time>2018-09-23T09:38:02Z</time>
      </trkpt>
      <trkpt lat="49.45656" lon="1.01101">
        <ele>121.8</ele>
        <time>2018-09-23T09:38:05Z</time>
      </trkpt>
      <trkpt lat="49.45662" lon="1.01114">
        <ele>122.2</ele>
        <time>2018-09-23T09:38:09Z</time>
      </trkpt>
      <trkpt lat="49.45669" lon="1.01127">
        <ele>122.7</ele>
        <time>2018-09-23T09:38:14Z</time>
      </trkpt>
      <trkpt lat="49.45677" lon="1.0114">
        <ele>123.1</ele>
        <time>2018-09-23T09:38:17Z</time>
      </trkpt>
      <trkpt lat="49.45685" lon="1.01151">
        <ele>123.5</ele>
        <time>2018-09-23T09:38:20Z</time>
      </trkpt>
      <trkpt lat="49.45693" lon="1.01164">
        <ele>124</ele>
        <time>2018-09-23T09:38:23Z</time>
      </trkpt>
      <trkpt lat="49.45699" lon="1.01175">
        <ele>124.3</ele>
        <time>2018-09-23T09:38:26Z</time>
      </trkpt>
      <trkpt lat="49.45706" lon="1.01187">
        <ele>124.6</ele>
        <time>2018-09-23T09:38:29Z</time>
      </trkpt>
      <trkpt lat="49.45713" lon="1.01199">
        <ele>125</ele>
        <time>2018-09-23T09:38:33Z</time>
      </trkpt>
      <trkpt lat="49.45713" lon="1.01214">
        <ele>125.2</ele>
        <time>2018-09-23T09:38:37Z</time>
      </trkpt>
      <trkpt lat="49.45716" lon="1.01231">
        <ele>125.5</ele>
        <time>2018-09-23T09:38:41Z</time>
      </trkpt>
      <trkpt lat="49.45718" lon="1.01245">
        <ele>125.9</ele>
        <time>2018-09-23T09:38:45Z</time>
      </trkpt>
      <trkpt lat="49.45714" lon="1.01258">
        <ele>126</ele>
        <time>2018-09-23T09:38:49Z</time>
      </trkpt>
      <trkpt lat="49.4571" lon="1.01274">
        <ele>126.3</ele>
        <time>2018-09-23T09:38:53Z</time>
      </trkpt>
      <trkpt lat="49.4571" lon="1.01291">
        <ele>126.8</ele>
        <time>2018-09-23T09:38:57Z</time>
      </trkpt>
      <trkpt lat="49.4571" lon="1.01304">
        <ele>127</ele>
        <time>2018-09-23T09:39:01Z</time>
      </trkpt>
      <trkpt lat="49.45705" lon="1.01319">
        <ele>127.5</ele>
        <time>2018-09-23T09:39:04Z</time>
      </trkpt>
      <trkpt lat="49.457" lon="1.01336">
        <ele>127.7</ele>
        <time>2018-09-23T09:39:08Z</time>
      </trkpt>
      <trkpt lat="49.45696" lon="1.01348">
        <ele>127.7</ele>
        <time>2018-09-23T09:39:11Z</time>
      </trkpt>
      <trkpt lat="49.45695" lon="1.01362">
        <ele>128</ele>
        <time>2018-09-23T09:39:15Z</time>
      </trkpt>
      <trkpt lat="49.45694" lon="1.01381">
        <ele>128.6</ele>
        <time>2018-09-23T09:39:20Z</time>
      </trkpt>
      <trkpt lat="49.45691" lon="1.01395">
        <ele>128.8</ele>
        <time>2018-09-23T09:39:24Z</time>
      </trkpt>
      <trkpt lat="49.45689" lon="1.01409">
        <ele>129.1</ele>
        <time>2018-09-23T09:39:27Z</time>
      </trkpt>
      <trkpt lat="49.45684" lon="1.01423">
        <ele>129.3</ele>
        <time>2018-09-23T09:39:31Z</time>
      </trkpt>
      <trkpt lat="49.4568" lon="1.0144">
        <ele>129.6</ele>
        <time>2018-09-23T09:39:35Z</time>
      </trkpt>
      <trkpt lat="49.45675" lon="1.01458">
        <ele>129.7</ele>
        <time>2018-09-23T09:39:39Z</time>
      </trkpt>
      <trkpt lat="49.45671" lon="1.01474">
        <ele>129.8</ele>
        <time>2018-09-23T09:39:43Z</time>
      </trkpt>
      <trkpt lat="49.45667" lon="1.0149">
        <ele>130</ele>
        <time>2018-09-23T09:39:47Z</time>
      </trkpt>
      <trkpt lat="49.45661" lon="1.01506">
        <ele>129.9</ele>
        <time>2018-09-23T09:39:51Z</time>
      </trkpt>
      <trkpt lat="49.45656" lon="1.01521">
        <ele>130.4</ele>
        <time>2018-09-23T09:39:55Z</time>
      </trkpt>
      <trkpt lat="49.45651" lon="1.01539">
        <ele>130.5</ele>
        <time>2018-09-23T09:39:59Z</time>
      </trkpt>
      <trkpt lat="49.45647" lon="1.01555">
        <ele>130.7</ele>
        <time>2018-09-23T09:40:03Z</time>
      </trkpt>
      <trkpt lat="49.45644" lon="1.0157">
        <ele>130.9</ele>
        <time>2018-09-23T09:40:06Z</time>
      </trkpt>
      <trkpt lat="49.45641" lon="1.01586">
        <ele>131.1</ele>
        <time>2018-09-23T09:40:10Z</time>
      </trkpt>
      <trkpt lat="49.45637" lon="1.01602">
        <ele>131.3</ele>
        <time>2018-09-23T09:40:14Z</time>
      </trkpt>
      <trkpt lat="49.45634" lon="1.01619">
        <ele>131.8</ele>
        <time>2018-09-23T09:40:18Z</time>
      </trkpt>
      <trkpt lat="49.45634" lon="1.01635">
        <ele>131.9</ele>
        <time>2018-09-23T09:40:22Z</time>
      </trkpt>
      <trkpt lat="49.4563" lon="1.01648">
        <ele>132</ele>
        <time>2018-09-23T09:40:25Z</time>
      </trkpt>
      <trkpt lat="49.45625" lon="1.01662">
        <ele>132.7</ele>
        <time>2018-09-23T09:40:28Z</time>
      </trkpt>
      <trkpt lat="49.45619" lon="1.01676">
        <ele>132.9</ele>
        <time>2018-09-23T09:40:31Z</time>
      </trkpt>
      <trkpt lat="49.45615" lon="1.01693">
        <ele>133.2</ele>
        <time>2018-09-23T09:40:35Z</time>
      </trkpt>
      <trkpt lat="49.45612" lon="1.01708">
        <ele>133.1</ele>
        <time>2018-09-23T09:40:38Z</time>
      </trkpt>
      <trkpt lat="49.45612" lon="1.01724">
        <ele>133.2</ele>
        <time>2018-09-23T09:40:42Z</time>
      </trkpt>
      <trkpt lat="49.45617" lon="1.01738">
        <ele>133.6</ele>
        <time>2018-09-23T09:40:46Z</time>
      </trkpt>
      <trkpt lat="49.45616" lon="1.01753">
        <ele>133.9</ele>
        <time>2018-09-23T09:40:49Z</time>
      </trkpt>
      <trkpt lat="49.45615" lon="1.01771">
        <ele>133.9</ele>
        <time>2018-09-23T09:40:53Z</time>
      </trkpt>
      <trkpt lat="49.45612" lon="1.01786">
        <ele>134.1</ele>
        <time>2018-09-23T09:40:57Z</time>
      </trkpt>
      <trkpt lat="49.4561" lon="1.01801">
        <ele>134.1</ele>
        <time>2018-09-23T09:41:00Z</time>
      </trkpt>
      <trkpt lat="49.4561" lon="1.01815">
        <ele>134.4</ele>
        <time>2018-09-23T09:41:03Z</time>
      </trkpt>
      <trkpt lat="49.45607" lon="1.01832">
        <ele>134.5</ele>
        <time>2018-09-23T09:41:06Z</time>
      </trkpt>
      <trkpt lat="49.45602" lon="1.01845">
        <ele>134.7</ele>
        <time>2018-09-23T09:41:09Z</time>
      </trkpt>
      <trkpt lat="49.456" lon="1.01859">
        <ele>134.9</ele>
        <time>2018-09-23T09:41:12Z</time>
      </trkpt>
      <trkpt lat="49.45599" lon="1.01876">
        <ele>135</ele>
        <time>2018-09-23T09:41:16Z</time>
      </trkpt>
      <trkpt lat="49.45593" lon="1.01893">
        <ele>135.1</ele>
        <time>2018-09-23T09:41:19Z</time>
      </trkpt>
      <trkpt lat="49.45589" lon="1.01909">
        <ele>135.3</ele>
        <time>2018-09-23T09:41:22Z</time>
      </trkpt>
      <trkpt lat="49.45586" lon="1.01926">
        <ele>135.3</ele>
        <time>2018-09-23T09:41:25Z</time>
      </trkpt>
      <trkpt lat="49.45582" lon="1.01944">
        <ele>135.5</ele>
        <time>2018-09-23T09:41:28Z</time>
      </trkpt>
      <trkpt lat="49.45573" lon="1.01953">
        <ele>135.5</ele>
        <time>2018-09-23T09:41:32Z</time>
      </trkpt>
      <trkpt lat="49.45562" lon="1.01956">
        <ele>135.6</ele>
        <time>2018-09-23T09:41:35Z</time>
      </trkpt>
      <trkpt lat="49.45552" lon="1.01962">
        <ele>135.7</ele>
        <time>2018-09-23T09:41:38Z</time>
      </trkpt>
      <trkpt lat="49.45541" lon="1.01966">
        <ele>135.5</ele>
        <time>2018-09-23T09:41:41Z</time>
      </trkpt>
      <trkpt lat="49.45526" lon="1.01971">
        <ele>135.5</ele>
        <time>2018-09-23T09:41:44Z</time>
      </trkpt>
      <trkpt lat="49.45517" lon="1.01973">
        <ele>135.7</ele>
        <time>2018-09-23T09:41:46Z</time>
      </trkpt>
      <trkpt lat="49.45507" lon="1.01978">
        <ele>135.7</ele>
        <time>2018-09-23T09:41:49Z</time>
      </trkpt>
      <trkpt lat="49.45501" lon="1.01987">
        <ele>135.7</ele>
        <time>2018-09-23T09:41:53Z</time>
      </trkpt>
      <trkpt lat="49.45502" lon="1.02001">
        <ele>135.6</ele>
        <time>2018-09-23T09:41:57Z</time>
      </trkpt>
      <trkpt lat="49.45507" lon="1.02017">
        <ele>135.6</ele>
        <time>2018-09-23T09:42:00Z</time>
      </trkpt>
      <trkpt lat="49.4551" lon="1.02035">
        <ele>135.7</ele>
        <time>2018-09-23T09:42:03Z</time>
      </trkpt>
      <trkpt lat="49.45513" lon="1.02053">
        <ele>135.8</ele>
        <time>2018-09-23T09:42:06Z</time>
      </trkpt>
      <trkpt lat="49.45513" lon="1.02067">
        <ele>136</ele>
        <time>2018-09-23T09:42:09Z</time>
      </trkpt>
      <trkpt lat="49.45513" lon="1.02083">
        <ele>136.1</ele>
        <time>2018-09-23T09:42:12Z</time>
      </trkpt>
      <trkpt lat="49.4551" lon="1.021">
        <ele>136</ele>
        <time>2018-09-23T09:42:15Z</time>
      </trkpt>
      <trkpt lat="49.45506" lon="1.02114">
        <ele>136.2</ele>
        <time>2018-09-23T09:42:17Z</time>
      </trkpt>
      <trkpt lat="49.45501" lon="1.02128">
        <ele>136.3</ele>
        <time>2018-09-23T09:42:19Z</time>
      </trkpt>
      <trkpt lat="49.45496" lon="1.02143">
        <ele>136.3</ele>
        <time>2018-09-23T09:42:21Z</time>
      </trkpt>
      <trkpt lat="49.45493" lon="1.02156">
        <ele>136.2</ele>
        <time>2018-09-23T09:42:23Z</time>
      </trkpt>
      <trkpt lat="49.4549" lon="1.02173">
        <ele>136.2</ele>
        <time>2018-09-23T09:42:26Z</time>
      </trkpt>
      <trkpt lat="49.45489" lon="1.02192">
        <ele>136.3</ele>
        <time>2018-09-23T09:42:29Z</time>
      </trkpt>
      <trkpt lat="49.45488" lon="1.02211">
        <ele>136.4</ele>
        <time>2018-09-23T09:42:32Z</time>
      </trkpt>
      <trkpt lat="49.45486" lon="1.02225">
        <ele>136.4</ele>
        <time>2018-09-23T09:42:34Z</time>
      </trkpt>
      <trkpt lat="49.4548" lon="1.02245">
        <ele>136.3</ele>
        <time>2018-09-23T09:42:37Z</time>
      </trkpt>
      <trkpt lat="49.45471" lon="1.02254">
        <ele>136.5</ele>
        <time>2018-09-23T09:42:39Z</time>
      </trkpt>
      <trkpt lat="49.45463" lon="1.02258">
        <ele>136.6</ele>
        <time>2018-09-23T09:42:41Z</time>
      </trkpt>
      <trkpt lat="49.4545" lon="1.02262">
        <ele>136.8</ele>
        <time>2018-09-23T09:42:44Z</time>
      </trkpt>
      <trkpt lat="49.45441" lon="1.02267">
        <ele>136.8</ele>
        <time>2018-09-23T09:42:46Z</time>
      </trkpt>
      <trkpt lat="49.4543" lon="1.02274">
        <ele>136.7</ele>
        <time>2018-09-23T09:42:49Z</time>
      </trkpt>
      <trkpt lat="49.45419" lon="1.02287">
        <ele>136.5</ele>
        <time>2018-09-23T09:42:52Z</time>
      </trkpt>
      <trkpt lat="49.45414" lon="1.02299">
        <ele>136.5</ele>
        <time>2018-09-23T09:42:54Z</time>
      </trkpt>
      <trkpt lat="49.4541" lon="1.02315">
        <ele>136.5</ele>
        <time>2018-09-23T09:42:56Z</time>
      </trkpt>
      <trkpt lat="49.45405" lon="1.02328">
        <ele>136.5</ele>
        <time>2018-09-23T09:42:58Z</time>
      </trkpt>
      <trkpt lat="49.45402" lon="1.02342">
        <ele>136.5</ele>
        <time>2018-09-23T09:43:00Z</time>
      </trkpt>
      <trkpt lat="49.45403" lon="1.02358">
        <ele>136.4</ele>
        <time>2018-09-23T09:43:02Z</time>
      </trkpt>
      <trkpt lat="49.45406" lon="1.02375">
        <ele>136.1</ele>
        <time>2018-09-23T09:43:05Z</time>
      </trkpt>
      <trkpt lat="49.45406" lon="1.0239">
        <ele>136.2</ele>
        <time>2018-09-23T09:43:07Z</time>
      </trkpt>
      <trkpt lat="49.45408" lon="1.0241">
        <ele>136.3</ele>
        <time>2018-09-23T09:43:10Z</time>
      </trkpt>
      <trkpt lat="49.4541" lon="1.02429">
        <ele>136.3</ele>
        <time>2018-09-23T09:43:13Z</time>
      </trkpt>
      <trkpt lat="49.45415" lon="1.02452">
        <ele>136.5</ele>
        <time>2018-09-23T09:43:16Z</time>
      </trkpt>
      <trkpt lat="49.45416" lon="1.02468">
        <ele>136.6</ele>
        <time>2018-09-23T09:43:18Z</time>
      </trkpt>
      <trkpt lat="49.45413" lon="1.02482">
        <ele>136.7</ele>
        <time>2018-09-23T09:43:20Z</time>
      </trkpt>
      <trkpt lat="49.45408" lon="1.02497">
        <ele>136.8</ele>
        <time>2018-09-23T09:43:22Z</time>
      </trkpt>
      <trkpt lat="49.45402" lon="1.02511">
        <ele>137</ele>
        <time>2018-09-23T09:43:24Z</time>
      </trkpt>
      <trkpt lat="49.45395" lon="1.02526">
        <ele>136.9</ele>
        <time>2018-09-23T09:43:26Z</time>
      </trkpt>
      <trkpt lat="49.45391" lon="1.02538">
        <ele>137</ele>
        <time>2018-09-23T09:43:28Z</time>
      </trkpt>
      <trkpt lat="49.45388" lon="1.02558">
        <ele>137.2</ele>
        <time>2018-09-23T09:43:31Z</time>
      </trkpt>
      <trkpt lat="49.45388" lon="1.02573">
        <ele>137.3</ele>
        <time>2018-09-23T09:43:33Z</time>
      </trkpt>
      <trkpt lat="49.45388" lon="1.02592">
        <ele>137.3</ele>
        <time>2018-09-23T09:43:36Z</time>
      </trkpt>
      <trkpt lat="49.45387" lon="1.0261">
        <ele>137.2</ele>
        <time>2018-09-23T09:43:39Z</time>
      </trkpt>
      <trkpt lat="49.45389" lon="1.02628">
        <ele>137.2</ele>
        <time>2018-09-23T09:43:42Z</time>
      </trkpt>
      <trkpt lat="49.45386" lon="1.02642">
        <ele>137.3</ele>
        <time>2018-09-23T09:43:44Z</time>
      </trkpt>
      <trkpt lat="49.45384" lon="1.02656">
        <ele>137.4</ele>
        <time>2018-09-23T09:43:46Z</time>
      </trkpt>
      <trkpt lat="49.45382" lon="1.02673">
        <ele>137.4</ele>
        <time>2018-09-23T09:43:48Z</time>
      </trkpt>
      <trkpt lat="49.4538" lon="1.02686">
        <ele>137.5</ele>
        <time>2018-09-23T09:43:50Z</time>
      </trkpt>
      <trkpt lat="49.45374" lon="1.02707">
        <ele>137.7</ele>
        <time>2018-09-23T09:43:52Z</time>
      </trkpt>
      <trkpt lat="49.45371" lon="1.02723">
        <ele>137.4</ele>
        <time>2018-09-23T09:43:54Z</time>
      </trkpt>
      <trkpt lat="49.45369" lon="1.02737">
        <ele>137.5</ele>
        <time>2018-09-23T09:43:56Z</time>
      </trkpt>
      <trkpt lat="49.45368" lon="1.02752">
        <ele>137.5</ele>
        <time>2018-09-23T09:43:58Z</time>
      </trkpt>
      <trkpt lat="49.45367" lon="1.02768">
        <ele>137.3</ele>
        <time>2018-09-23T09:44:00Z</time>
      </trkpt>
      <trkpt lat="49.45364" lon="1.02791">
        <ele>137.3</ele>
        <time>2018-09-23T09:44:03Z</time>
      </trkpt>
      <trkpt lat="49.45361" lon="1.02805">
        <ele>137.5</ele>
        <time>2018-09-23T09:44:05Z</time>
      </trkpt>
      <trkpt lat="49.45359" lon="1.02822">
        <ele>137.5</ele>
        <time>2018-09-23T09:44:07Z</time>
      </trkpt>
      <trkpt lat="49.45356" lon="1.02837">
        <ele>137.6</ele>
        <time>2018-09-23T09:44:09Z</time>
      </trkpt>
      <trkpt lat="49.45353" lon="1.02856">
        <ele>137.8</ele>
        <time>2018-09-23T09:44:12Z</time>
      </trkpt>
      <trkpt lat="49.4535" lon="1.02871">
        <ele>137.8</ele>
        <time>2018-09-23T09:44:14Z</time>
      </trkpt>
      <trkpt lat="49.45347" lon="1.02885">
        <ele>137.9</ele>
        <time>2018-09-23T09:44:15Z</time>
      </trkpt>
      <trkpt lat="49.45343" lon="1.02904">
        <ele>137.9</ele>
        <time>2018-09-23T09:44:17Z</time>
      </trkpt>
      <trkpt lat="49.45341" lon="1.02921">
        <ele>137.6</ele>
        <time>2018-09-23T09:44:19Z</time>
      </trkpt>
      <trkpt lat="49.45336" lon="1.0294">
        <ele>137.5</ele>
        <time>2018-09-23T09:44:21Z</time>
      </trkpt>
      <trkpt lat="49.45332" lon="1.02958">
        <ele>137.5</ele>
        <time>2018-09-23T09:44:23Z</time>
      </trkpt>
      <trkpt lat="49.45327" lon="1.02977">
        <ele>137.6</ele>
        <time>2018-09-23T09:44:25Z</time>
      </trkpt>
      <trkpt lat="49.45324" lon="1.02994">
        <ele>137.6</ele>
        <time>2018-09-23T09:44:27Z</time>
      </trkpt>
      <trkpt lat="49.45319" lon="1.03009">
        <ele>137.5</ele>
        <time>2018-09-23T09:44:29Z</time>
      </trkpt>
      <trkpt lat="49.45317" lon="1.03026">
        <ele>137.4</ele>
        <time>2018-09-23T09:44:31Z</time>
      </trkpt>
      <trkpt lat="49.45313" lon="1.03042">
        <ele>137.3</ele>
        <time>2018-09-23T09:44:33Z</time>
      </trkpt>
      <trkpt lat="49.4531" lon="1.03056">
        <ele>137.5</ele>
        <time>2018-09-23T09:44:35Z</time>
      </trkpt>
      <trkpt lat="49.45315" lon="1.03069">
        <ele>137.5</ele>
        <time>2018-09-23T09:44:37Z</time>
      </trkpt>
      <trkpt lat="49.45316" lon="1.0309">
        <ele>137.6</ele>
        <time>2018-09-23T09:44:40Z</time>
      </trkpt>
      <trkpt lat="49.45313" lon="1.03105">
        <ele>137.7</ele>
        <time>2018-09-23T09:44:43Z</time>
      </trkpt>
      <trkpt lat="49.45301" lon="1.03105">
        <ele>137.3</ele>
        <time>2018-09-23T09:44:47Z</time>
      </trkpt>
      <trkpt lat="49.45291" lon="1.03098">
        <ele>137.1</ele>
        <time>2018-09-23T09:44:50Z</time>
      </trkpt>
      <trkpt lat="49.45281" lon="1.03089">
        <ele>136.7</ele>
        <time>2018-09-23T09:44:53Z</time>
      </trkpt>
      <trkpt lat="49.4527" lon="1.03077">
        <ele>136.5</ele>
        <time>2018-09-23T09:44:56Z</time>
      </trkpt>
      <trkpt lat="49.45262" lon="1.03068">
        <ele>136.4</ele>
        <time>2018-09-23T09:44:58Z</time>
      </trkpt>
      <trkpt lat="49.45254" lon="1.03059">
        <ele>136.1</ele>
        <time>2018-09-23T09:45:00Z</time>
      </trkpt>
      <trkpt lat="49.45246" lon="1.03051">
        <ele>136</ele>
        <time>2018-09-23T09:45:02Z</time>
      </trkpt>
      <trkpt lat="49.45237" lon="1.0304">
        <ele>135.8</ele>
        <time>2018-09-23T09:45:05Z</time>
      </trkpt>
      <trkpt lat="49.45228" lon="1.03043">
        <ele>135.5</ele>
        <time>2018-09-23T09:45:09Z</time>
      </trkpt>
      <trkpt lat="49.45223" lon="1.03058">
        <ele>135.3</ele>
        <time>2018-09-23T09:45:12Z</time>
      </trkpt>
      <trkpt lat="49.45222" lon="1.03075">
        <ele>135</ele>
        <time>2018-09-23T09:45:15Z</time>
      </trkpt>
      <trkpt lat="49.45222" lon="1.03093">
        <ele>134.9</ele>
        <time>2018-09-23T09:45:18Z</time>
      </trkpt>
      <trkpt lat="49.45221" lon="1.03112">
        <ele>134.6</ele>
        <time>2018-09-23T09:45:21Z</time>
      </trkpt>
      <trkpt lat="49.4522" lon="1.03128">
        <ele>134.5</ele>
        <time>2018-09-23T09:45:24Z</time>
      </trkpt>
      <trkpt lat="49.45218" lon="1.03142">
        <ele>134.6</ele>
        <time>2018-09-23T09:45:27Z</time>
      </trkpt>
      <trkpt lat="49.45206" lon="1.03146">
        <ele>134.4</ele>
        <time>2018-09-23T09:45:30Z</time>
      </trkpt>
      <trkpt lat="49.45197" lon="1.03146">
        <ele>134.3</ele>
        <time>2018-09-23T09:45:32Z</time>
      </trkpt>
      <trkpt lat="49.45188" lon="1.03146">
        <ele>134.1</ele>
        <time>2018-09-23T09:45:34Z</time>
      </trkpt>
      <trkpt lat="49.45178" lon="1.03146">
        <ele>134</ele>
        <time>2018-09-23T09:45:36Z</time>
      </trkpt>
      <trkpt lat="49.45169" lon="1.03147">
        <ele>134</ele>
        <time>2018-09-23T09:45:38Z</time>
      </trkpt>
      <trkpt lat="49.45157" lon="1.03152">
        <ele>134</ele>
        <time>2018-09-23T09:45:41Z</time>
      </trkpt>
      <trkpt lat="49.45145" lon="1.03154">
        <ele>133.9</ele>
        <time>2018-09-23T09:45:44Z</time>
      </trkpt>
      <trkpt lat="49.45135" lon="1.03151">
        <ele>133.9</ele>
        <time>2018-09-23T09:45:47Z</time>
      </trkpt>
      <trkpt lat="49.45124" lon="1.03152">
        <ele>134</ele>
        <time>2018-09-23T09:45:50Z</time>
      </trkpt>
      <trkpt lat="49.45115" lon="1.03156">
        <ele>133.9</ele>
        <time>2018-09-23T09:45:54Z</time>
      </trkpt>
      <trkpt lat="49.45114" lon="1.03159">
        <ele>133.5</ele>
        <time>2018-09-23T09:46:05Z</time>
      </trkpt>
    </trkseg>
  </trk>
</gpx>